<?xml version="1.0" encoding="UTF-8" standalone="no" ?>
<gpx xmlns="http://www.topografix.com/GPX/1/1" xmlns:xsi="http://www.w3.org/2001/XMLSchema-instance" xsi:schemaLocation="http://www.topografix.com/GPX/1/1 http://www.topografix.com/GPX/1/1/gpx.xsd" version="1.1" creator="VisuGPX - https://www.visugpx.com">
  <metadata>
    <name>sanary,le circuir,le camp,les palums,sanary</name>
    <desc><![CDATA[
]]></desc>
  </metadata>
  <trk>
    <name><![CDATA[sanary,le circuir,le camp,les palums,sanary_1]]></name>
    <trkseg>
      <trkpt lat="43.12706" lon="5.78486">
        <ele>39.530045</ele>
        <time>2022-08-19T04:51:47Z</time>
      </trkpt>
      <trkpt lat="43.12794" lon="5.7852">
        <ele>39.530113</ele>
        <time>2022-08-19T04:51:49Z</time>
      </trkpt>
      <trkpt lat="43.12796" lon="5.78514">
        <ele>39.533852</ele>
        <time>2022-08-19T04:51:51Z</time>
      </trkpt>
      <trkpt lat="43.12798" lon="5.7851">
        <ele>39.541115</ele>
        <time>2022-08-19T04:51:53Z</time>
      </trkpt>
      <trkpt lat="43.12799" lon="5.78506">
        <ele>39.569839</ele>
        <time>2022-08-19T04:51:54Z</time>
      </trkpt>
      <trkpt lat="43.12798" lon="5.78502">
        <ele>39.590244</ele>
        <time>2022-08-19T04:51:57Z</time>
      </trkpt>
      <trkpt lat="43.12794" lon="5.78497">
        <ele>39.634605</ele>
        <time>2022-08-19T04:51:59Z</time>
      </trkpt>
      <trkpt lat="43.12787" lon="5.78496">
        <ele>39.675797</ele>
        <time>2022-08-19T04:52:01Z</time>
      </trkpt>
      <trkpt lat="43.12782" lon="5.78502">
        <ele>39.693768</ele>
        <time>2022-08-19T04:52:03Z</time>
      </trkpt>
      <trkpt lat="43.12775" lon="5.78503">
        <ele>39.724983</ele>
        <time>2022-08-19T04:52:05Z</time>
      </trkpt>
      <trkpt lat="43.12772" lon="5.78497">
        <ele>39.739452</ele>
        <time>2022-08-19T04:52:07Z</time>
      </trkpt>
      <trkpt lat="43.12775" lon="5.78488">
        <ele>39.768078</ele>
        <time>2022-08-19T04:52:09Z</time>
      </trkpt>
      <trkpt lat="43.12782" lon="5.78479">
        <ele>39.782001</ele>
        <time>2022-08-19T04:52:11Z</time>
      </trkpt>
      <trkpt lat="43.1279" lon="5.78471">
        <ele>39.804367</ele>
        <time>2022-08-19T04:52:13Z</time>
      </trkpt>
      <trkpt lat="43.12798" lon="5.78462">
        <ele>39.810234</ele>
        <time>2022-08-19T04:52:15Z</time>
      </trkpt>
      <trkpt lat="43.12809" lon="5.78453">
        <ele>39.805855</ele>
        <time>2022-08-19T04:52:17Z</time>
      </trkpt>
      <trkpt lat="43.12819" lon="5.78443">
        <ele>39.775127</ele>
        <time>2022-08-19T04:52:19Z</time>
      </trkpt>
      <trkpt lat="43.1283" lon="5.78432">
        <ele>39.748398</ele>
        <time>2022-08-19T04:52:21Z</time>
      </trkpt>
      <trkpt lat="43.12841" lon="5.78421">
        <ele>39.669102</ele>
        <time>2022-08-19T04:52:23Z</time>
      </trkpt>
      <trkpt lat="43.12853" lon="5.7841">
        <ele>39.615505</ele>
        <time>2022-08-19T04:52:25Z</time>
      </trkpt>
      <trkpt lat="43.12865" lon="5.78399">
        <ele>39.485645</ele>
        <time>2022-08-19T04:52:27Z</time>
      </trkpt>
      <trkpt lat="43.12877" lon="5.78387">
        <ele>39.406021</ele>
        <time>2022-08-19T04:52:29Z</time>
      </trkpt>
      <trkpt lat="43.1289" lon="5.78375">
        <ele>39.216957</ele>
        <time>2022-08-19T04:52:31Z</time>
      </trkpt>
      <trkpt lat="43.12902" lon="5.78363">
        <ele>39.107018</ele>
        <time>2022-08-19T04:52:33Z</time>
      </trkpt>
      <trkpt lat="43.12915" lon="5.7835">
        <ele>38.85355</ele>
        <time>2022-08-19T04:52:35Z</time>
      </trkpt>
      <trkpt lat="43.12927" lon="5.78337">
        <ele>38.708672</ele>
        <time>2022-08-19T04:52:37Z</time>
      </trkpt>
      <trkpt lat="43.12938" lon="5.78324">
        <ele>38.379162</ele>
        <time>2022-08-19T04:52:39Z</time>
      </trkpt>
      <trkpt lat="43.12949" lon="5.78312">
        <ele>37.991096</ele>
        <time>2022-08-19T04:52:41Z</time>
      </trkpt>
      <trkpt lat="43.1296" lon="5.783">
        <ele>37.771103</ele>
        <time>2022-08-19T04:52:43Z</time>
      </trkpt>
      <trkpt lat="43.1297" lon="5.7829">
        <ele>37.269432</ele>
        <time>2022-08-19T04:52:45Z</time>
      </trkpt>
      <trkpt lat="43.12982" lon="5.7828">
        <ele>36.683769</ele>
        <time>2022-08-19T04:52:47Z</time>
      </trkpt>
      <trkpt lat="43.12992" lon="5.78271">
        <ele>36.363262</ele>
        <time>2022-08-19T04:52:49Z</time>
      </trkpt>
      <trkpt lat="43.13002" lon="5.78261">
        <ele>36.027554</ele>
        <time>2022-08-19T04:52:51Z</time>
      </trkpt>
      <trkpt lat="43.13011" lon="5.78251">
        <ele>35.315269</ele>
        <time>2022-08-19T04:52:53Z</time>
      </trkpt>
      <trkpt lat="43.1302" lon="5.78243">
        <ele>34.549538</ele>
        <time>2022-08-19T04:52:55Z</time>
      </trkpt>
      <trkpt lat="43.13029" lon="5.78234">
        <ele>34.145424</ele>
        <time>2022-08-19T04:52:57Z</time>
      </trkpt>
      <trkpt lat="43.13037" lon="5.78225">
        <ele>33.291576</ele>
        <time>2022-08-19T04:52:59Z</time>
      </trkpt>
      <trkpt lat="43.13046" lon="5.78217">
        <ele>32.841602</ele>
        <time>2022-08-19T04:53:01Z</time>
      </trkpt>
      <trkpt lat="43.13054" lon="5.7821">
        <ele>31.898386</ele>
        <time>2022-08-19T04:53:03Z</time>
      </trkpt>
      <trkpt lat="43.13062" lon="5.78202">
        <ele>31.408127</ele>
        <time>2022-08-19T04:53:05Z</time>
      </trkpt>
      <trkpt lat="43.1307" lon="5.78195">
        <ele>30.399036</ele>
        <time>2022-08-19T04:53:07Z</time>
      </trkpt>
      <trkpt lat="43.13078" lon="5.78189">
        <ele>29.359524</ele>
        <time>2022-08-19T04:53:09Z</time>
      </trkpt>
      <trkpt lat="43.13086" lon="5.78182">
        <ele>28.830357</ele>
        <time>2022-08-19T04:53:11Z</time>
      </trkpt>
      <trkpt lat="43.13092" lon="5.78175">
        <ele>27.756283</ele>
        <time>2022-08-19T04:53:13Z</time>
      </trkpt>
      <trkpt lat="43.131" lon="5.78167">
        <ele>27.212631</ele>
        <time>2022-08-19T04:53:15Z</time>
      </trkpt>
      <trkpt lat="43.13108" lon="5.78162">
        <ele>26.110126</ele>
        <time>2022-08-19T04:53:17Z</time>
      </trkpt>
      <trkpt lat="43.13115" lon="5.78156">
        <ele>25.550648</ele>
        <time>2022-08-19T04:53:19Z</time>
      </trkpt>
      <trkpt lat="43.13123" lon="5.78149">
        <ele>24.418983</ele>
        <time>2022-08-19T04:53:21Z</time>
      </trkpt>
      <trkpt lat="43.1313" lon="5.78143">
        <ele>23.848206</ele>
        <time>2022-08-19T04:53:23Z</time>
      </trkpt>
      <trkpt lat="43.13138" lon="5.78138">
        <ele>22.704487</ele>
        <time>2022-08-19T04:53:25Z</time>
      </trkpt>
      <trkpt lat="43.13146" lon="5.78134">
        <ele>22.134912</ele>
        <time>2022-08-19T04:53:27Z</time>
      </trkpt>
      <trkpt lat="43.13154" lon="5.78129">
        <ele>21.010174</ele>
        <time>2022-08-19T04:53:29Z</time>
      </trkpt>
      <trkpt lat="43.13162" lon="5.78124">
        <ele>20.458235</ele>
        <time>2022-08-19T04:53:31Z</time>
      </trkpt>
      <trkpt lat="43.13169" lon="5.78118">
        <ele>19.381886</ele>
        <time>2022-08-19T04:53:33Z</time>
      </trkpt>
      <trkpt lat="43.13177" lon="5.78113">
        <ele>18.347067</ele>
        <time>2022-08-19T04:53:35Z</time>
      </trkpt>
      <trkpt lat="43.13186" lon="5.78107">
        <ele>17.847338</ele>
        <time>2022-08-19T04:53:37Z</time>
      </trkpt>
      <trkpt lat="43.13195" lon="5.78102">
        <ele>16.887606</ele>
        <time>2022-08-19T04:53:39Z</time>
      </trkpt>
      <trkpt lat="43.13203" lon="5.78096">
        <ele>16.428995</ele>
        <time>2022-08-19T04:53:41Z</time>
      </trkpt>
      <trkpt lat="43.13214" lon="5.78091">
        <ele>15.555232</ele>
        <time>2022-08-19T04:53:43Z</time>
      </trkpt>
      <trkpt lat="43.13224" lon="5.78085">
        <ele>15.141109</ele>
        <time>2022-08-19T04:53:45Z</time>
      </trkpt>
      <trkpt lat="43.13234" lon="5.78079">
        <ele>14.3617</ele>
        <time>2022-08-19T04:53:47Z</time>
      </trkpt>
      <trkpt lat="43.13246" lon="5.78074">
        <ele>13.997729</ele>
        <time>2022-08-19T04:53:49Z</time>
      </trkpt>
      <trkpt lat="43.13258" lon="5.78068">
        <ele>13.328241</ele>
        <time>2022-08-19T04:53:51Z</time>
      </trkpt>
      <trkpt lat="43.1327" lon="5.78061">
        <ele>13.027552</ele>
        <time>2022-08-19T04:53:53Z</time>
      </trkpt>
      <trkpt lat="43.13283" lon="5.78055">
        <ele>12.507173</ele>
        <time>2022-08-19T04:53:55Z</time>
      </trkpt>
      <trkpt lat="43.13296" lon="5.78049">
        <ele>12.102706</ele>
        <time>2022-08-19T04:53:57Z</time>
      </trkpt>
      <trkpt lat="43.13309" lon="5.78043">
        <ele>11.944073</ele>
        <time>2022-08-19T04:53:59Z</time>
      </trkpt>
      <trkpt lat="43.13322" lon="5.78038">
        <ele>11.713569</ele>
        <time>2022-08-19T04:54:01Z</time>
      </trkpt>
      <trkpt lat="43.13336" lon="5.78032">
        <ele>11.64258</ele>
        <time>2022-08-19T04:54:03Z</time>
      </trkpt>
      <trkpt lat="43.1335" lon="5.78026">
        <ele>11.593348</ele>
        <time>2022-08-19T04:54:05Z</time>
      </trkpt>
      <trkpt lat="43.13364" lon="5.7802">
        <ele>11.61566</ele>
        <time>2022-08-19T04:54:07Z</time>
      </trkpt>
      <trkpt lat="43.13377" lon="5.78012">
        <ele>11.753419</ele>
        <time>2022-08-19T04:54:09Z</time>
      </trkpt>
      <trkpt lat="43.1339" lon="5.78002">
        <ele>11.867359</ele>
        <time>2022-08-19T04:54:11Z</time>
      </trkpt>
      <trkpt lat="43.13404" lon="5.77991">
        <ele>12.174994</ele>
        <time>2022-08-19T04:54:13Z</time>
      </trkpt>
      <trkpt lat="43.13417" lon="5.7798">
        <ele>12.563732</ele>
        <time>2022-08-19T04:54:15Z</time>
      </trkpt>
      <trkpt lat="43.13432" lon="5.77969">
        <ele>12.778176</ele>
        <time>2022-08-19T04:54:17Z</time>
      </trkpt>
      <trkpt lat="43.13445" lon="5.77958">
        <ele>13.224858</ele>
        <time>2022-08-19T04:54:19Z</time>
      </trkpt>
      <trkpt lat="43.13459" lon="5.77946">
        <ele>13.448557</ele>
        <time>2022-08-19T04:54:21Z</time>
      </trkpt>
      <trkpt lat="43.13473" lon="5.77935">
        <ele>13.879895</ele>
        <time>2022-08-19T04:54:23Z</time>
      </trkpt>
      <trkpt lat="43.13487" lon="5.77923">
        <ele>14.082815</ele>
        <time>2022-08-19T04:54:25Z</time>
      </trkpt>
      <trkpt lat="43.135" lon="5.77912">
        <ele>14.457825</ele>
        <time>2022-08-19T04:54:27Z</time>
      </trkpt>
      <trkpt lat="43.13513" lon="5.779">
        <ele>14.628146</ele>
        <time>2022-08-19T04:54:29Z</time>
      </trkpt>
      <trkpt lat="43.13525" lon="5.77888">
        <ele>14.92702</ele>
        <time>2022-08-19T04:54:31Z</time>
      </trkpt>
      <trkpt lat="43.13537" lon="5.77874">
        <ele>15.051559</ele>
        <time>2022-08-19T04:54:33Z</time>
      </trkpt>
      <trkpt lat="43.13546" lon="5.7786">
        <ele>15.244543</ele>
        <time>2022-08-19T04:54:35Z</time>
      </trkpt>
      <trkpt lat="43.13555" lon="5.77845">
        <ele>15.314816</ele>
        <time>2022-08-19T04:54:37Z</time>
      </trkpt>
      <trkpt lat="43.13564" lon="5.7783">
        <ele>15.417526</ele>
        <time>2022-08-19T04:54:39Z</time>
      </trkpt>
      <trkpt lat="43.13574" lon="5.77816">
        <ele>15.456922</ele>
        <time>2022-08-19T04:54:41Z</time>
      </trkpt>
      <trkpt lat="43.13584" lon="5.77803">
        <ele>15.519106</ele>
        <time>2022-08-19T04:54:43Z</time>
      </trkpt>
      <trkpt lat="43.13594" lon="5.7779">
        <ele>15.554487</ele>
        <time>2022-08-19T04:54:45Z</time>
      </trkpt>
      <trkpt lat="43.13605" lon="5.77778">
        <ele>15.561076</ele>
        <time>2022-08-19T04:54:47Z</time>
      </trkpt>
      <trkpt lat="43.13615" lon="5.77765">
        <ele>15.558693</ele>
        <time>2022-08-19T04:54:49Z</time>
      </trkpt>
      <trkpt lat="43.13627" lon="5.77753">
        <ele>15.55267</ele>
        <time>2022-08-19T04:54:51Z</time>
      </trkpt>
      <trkpt lat="43.13637" lon="5.7774">
        <ele>15.533453</ele>
        <time>2022-08-19T04:54:53Z</time>
      </trkpt>
      <trkpt lat="43.13646" lon="5.77726">
        <ele>15.518866</ele>
        <time>2022-08-19T04:54:55Z</time>
      </trkpt>
      <trkpt lat="43.13656" lon="5.77711">
        <ele>15.472476</ele>
        <time>2022-08-19T04:54:57Z</time>
      </trkpt>
      <trkpt lat="43.13667" lon="5.77696">
        <ele>15.39668</ele>
        <time>2022-08-19T04:54:59Z</time>
      </trkpt>
      <trkpt lat="43.13678" lon="5.77681">
        <ele>15.347565</ele>
        <time>2022-08-19T04:55:01Z</time>
      </trkpt>
      <trkpt lat="43.13689" lon="5.77666">
        <ele>15.231601</ele>
        <time>2022-08-19T04:55:03Z</time>
      </trkpt>
      <trkpt lat="43.13701" lon="5.77651">
        <ele>15.168863</ele>
        <time>2022-08-19T04:55:05Z</time>
      </trkpt>
      <trkpt lat="43.13712" lon="5.77636">
        <ele>15.045694</ele>
        <time>2022-08-19T04:55:07Z</time>
      </trkpt>
      <trkpt lat="43.13723" lon="5.77619">
        <ele>14.938449</ele>
        <time>2022-08-19T04:55:09Z</time>
      </trkpt>
      <trkpt lat="43.13734" lon="5.77602">
        <ele>14.895719</ele>
        <time>2022-08-19T04:55:11Z</time>
      </trkpt>
      <trkpt lat="43.13744" lon="5.77584">
        <ele>14.840132</ele>
        <time>2022-08-19T04:55:13Z</time>
      </trkpt>
      <trkpt lat="43.13754" lon="5.77566">
        <ele>14.828318</ele>
        <time>2022-08-19T04:55:15Z</time>
      </trkpt>
      <trkpt lat="43.13763" lon="5.77549">
        <ele>14.833766</ele>
        <time>2022-08-19T04:55:17Z</time>
      </trkpt>
      <trkpt lat="43.13771" lon="5.77532">
        <ele>14.848073</ele>
        <time>2022-08-19T04:55:19Z</time>
      </trkpt>
      <trkpt lat="43.13779" lon="5.77515">
        <ele>14.892413</ele>
        <time>2022-08-19T04:55:21Z</time>
      </trkpt>
      <trkpt lat="43.13788" lon="5.77499">
        <ele>14.956505</ele>
        <time>2022-08-19T04:55:23Z</time>
      </trkpt>
      <trkpt lat="43.13795" lon="5.77483">
        <ele>14.996419</ele>
        <time>2022-08-19T04:55:25Z</time>
      </trkpt>
      <trkpt lat="43.13802" lon="5.77467">
        <ele>15.088122</ele>
        <time>2022-08-19T04:55:27Z</time>
      </trkpt>
      <trkpt lat="43.13809" lon="5.77449">
        <ele>15.133594</ele>
        <time>2022-08-19T04:55:29Z</time>
      </trkpt>
      <trkpt lat="43.13815" lon="5.77432">
        <ele>15.204039</ele>
        <time>2022-08-19T04:55:31Z</time>
      </trkpt>
      <trkpt lat="43.13823" lon="5.77416">
        <ele>15.221487</ele>
        <time>2022-08-19T04:55:33Z</time>
      </trkpt>
      <trkpt lat="43.13829" lon="5.77399">
        <ele>15.208868</ele>
        <time>2022-08-19T04:55:35Z</time>
      </trkpt>
      <trkpt lat="43.13836" lon="5.77384">
        <ele>15.116689</ele>
        <time>2022-08-19T04:55:37Z</time>
      </trkpt>
      <trkpt lat="43.13843" lon="5.77367">
        <ele>15.034793</ele>
        <time>2022-08-19T04:55:39Z</time>
      </trkpt>
      <trkpt lat="43.13848" lon="5.77349">
        <ele>14.793007</ele>
        <time>2022-08-19T04:55:41Z</time>
      </trkpt>
      <trkpt lat="43.13853" lon="5.77333">
        <ele>14.633661</ele>
        <time>2022-08-19T04:55:43Z</time>
      </trkpt>
      <trkpt lat="43.13857" lon="5.77316">
        <ele>14.242785</ele>
        <time>2022-08-19T04:55:45Z</time>
      </trkpt>
      <trkpt lat="43.13862" lon="5.77299">
        <ele>14.013525</ele>
        <time>2022-08-19T04:55:47Z</time>
      </trkpt>
      <trkpt lat="43.13866" lon="5.77281">
        <ele>13.494176</ele>
        <time>2022-08-19T04:55:49Z</time>
      </trkpt>
      <trkpt lat="43.1387" lon="5.77263">
        <ele>13.207685</ele>
        <time>2022-08-19T04:55:51Z</time>
      </trkpt>
      <trkpt lat="43.13874" lon="5.77245">
        <ele>12.58835</ele>
        <time>2022-08-19T04:55:53Z</time>
      </trkpt>
      <trkpt lat="43.13879" lon="5.77228">
        <ele>11.916536</ele>
        <time>2022-08-19T04:55:55Z</time>
      </trkpt>
      <trkpt lat="43.13883" lon="5.77211">
        <ele>11.565971</ele>
        <time>2022-08-19T04:55:57Z</time>
      </trkpt>
      <trkpt lat="43.13887" lon="5.77194">
        <ele>10.849711</ele>
        <time>2022-08-19T04:55:59Z</time>
      </trkpt>
      <trkpt lat="43.13892" lon="5.77178">
        <ele>10.489802</ele>
        <time>2022-08-19T04:56:01Z</time>
      </trkpt>
      <trkpt lat="43.13896" lon="5.77161">
        <ele>9.778543</ele>
        <time>2022-08-19T04:56:03Z</time>
      </trkpt>
      <trkpt lat="43.139" lon="5.77144">
        <ele>9.431781</ele>
        <time>2022-08-19T04:56:05Z</time>
      </trkpt>
      <trkpt lat="43.13905" lon="5.77129">
        <ele>8.769205</ele>
        <time>2022-08-19T04:56:07Z</time>
      </trkpt>
      <trkpt lat="43.13908" lon="5.77114">
        <ele>8.164322</ele>
        <time>2022-08-19T04:56:09Z</time>
      </trkpt>
      <trkpt lat="43.13913" lon="5.77099">
        <ele>7.888823</ele>
        <time>2022-08-19T04:56:11Z</time>
      </trkpt>
      <trkpt lat="43.13916" lon="5.77085">
        <ele>7.399438</ele>
        <time>2022-08-19T04:56:13Z</time>
      </trkpt>
      <trkpt lat="43.1392" lon="5.77071">
        <ele>7.187219</ele>
        <time>2022-08-19T04:56:15Z</time>
      </trkpt>
      <trkpt lat="43.13925" lon="5.77057">
        <ele>6.828833</ele>
        <time>2022-08-19T04:56:17Z</time>
      </trkpt>
      <trkpt lat="43.13932" lon="5.77047">
        <ele>6.682449</ele>
        <time>2022-08-19T04:56:19Z</time>
      </trkpt>
      <trkpt lat="43.13942" lon="5.77047">
        <ele>6.456322</ele>
        <time>2022-08-19T04:56:21Z</time>
      </trkpt>
      <trkpt lat="43.13953" lon="5.77049">
        <ele>6.378052</ele>
        <time>2022-08-19T04:56:23Z</time>
      </trkpt>
      <trkpt lat="43.13963" lon="5.77053">
        <ele>6.296252</ele>
        <time>2022-08-19T04:56:25Z</time>
      </trkpt>
      <trkpt lat="43.13973" lon="5.7706">
        <ele>6.320178</ele>
        <time>2022-08-19T04:56:27Z</time>
      </trkpt>
      <trkpt lat="43.13981" lon="5.77071">
        <ele>6.372918</ele>
        <time>2022-08-19T04:56:29Z</time>
      </trkpt>
      <trkpt lat="43.13988" lon="5.77085">
        <ele>6.556696</ele>
        <time>2022-08-19T04:56:31Z</time>
      </trkpt>
      <trkpt lat="43.13995" lon="5.77099">
        <ele>6.684192</ele>
        <time>2022-08-19T04:56:33Z</time>
      </trkpt>
      <trkpt lat="43.14002" lon="5.77113">
        <ele>6.999227</ele>
        <time>2022-08-19T04:56:35Z</time>
      </trkpt>
      <trkpt lat="43.1401" lon="5.77127">
        <ele>7.183434</ele>
        <time>2022-08-19T04:56:37Z</time>
      </trkpt>
      <trkpt lat="43.14016" lon="5.77141">
        <ele>7.59957</ele>
        <time>2022-08-19T04:56:39Z</time>
      </trkpt>
      <trkpt lat="43.14025" lon="5.77152">
        <ele>8.071855</ele>
        <time>2022-08-19T04:56:41Z</time>
      </trkpt>
      <trkpt lat="43.14035" lon="5.77159">
        <ele>8.326319</ele>
        <time>2022-08-19T04:56:43Z</time>
      </trkpt>
      <trkpt lat="43.14047" lon="5.77164">
        <ele>8.869958</ele>
        <time>2022-08-19T04:56:45Z</time>
      </trkpt>
      <trkpt lat="43.14059" lon="5.77167">
        <ele>9.158476</ele>
        <time>2022-08-19T04:56:47Z</time>
      </trkpt>
      <trkpt lat="43.14069" lon="5.77165">
        <ele>9.765633</ele>
        <time>2022-08-19T04:56:49Z</time>
      </trkpt>
      <trkpt lat="43.1408" lon="5.77162">
        <ele>10.081537</ele>
        <time>2022-08-19T04:56:51Z</time>
      </trkpt>
      <trkpt lat="43.14091" lon="5.77157">
        <ele>10.730897</ele>
        <time>2022-08-19T04:56:53Z</time>
      </trkpt>
      <trkpt lat="43.14101" lon="5.7715">
        <ele>11.061616</ele>
        <time>2022-08-19T04:56:55Z</time>
      </trkpt>
      <trkpt lat="43.14111" lon="5.77141">
        <ele>11.730062</ele>
        <time>2022-08-19T04:56:57Z</time>
      </trkpt>
      <trkpt lat="43.14118" lon="5.7713">
        <ele>12.40379</ele>
        <time>2022-08-19T04:56:59Z</time>
      </trkpt>
      <trkpt lat="43.14125" lon="5.77118">
        <ele>12.741811</ele>
        <time>2022-08-19T04:57:01Z</time>
      </trkpt>
      <trkpt lat="43.14131" lon="5.77106">
        <ele>13.418638</ele>
        <time>2022-08-19T04:57:03Z</time>
      </trkpt>
      <trkpt lat="43.14137" lon="5.77094">
        <ele>13.756807</ele>
        <time>2022-08-19T04:57:05Z</time>
      </trkpt>
      <trkpt lat="43.14142" lon="5.77081">
        <ele>14.431479</ele>
        <time>2022-08-19T04:57:07Z</time>
      </trkpt>
      <trkpt lat="43.14147" lon="5.77069">
        <ele>14.767817</ele>
        <time>2022-08-19T04:57:09Z</time>
      </trkpt>
      <trkpt lat="43.14151" lon="5.77056">
        <ele>15.438524</ele>
        <time>2022-08-19T04:57:11Z</time>
      </trkpt>
      <trkpt lat="43.14156" lon="5.77044">
        <ele>16.103687</ele>
        <time>2022-08-19T04:57:13Z</time>
      </trkpt>
      <trkpt lat="43.1416" lon="5.77031">
        <ele>16.75758</ele>
        <time>2022-08-19T04:57:15Z</time>
      </trkpt>
      <trkpt lat="43.14165" lon="5.77019">
        <ele>17.080387</ele>
        <time>2022-08-19T04:57:17Z</time>
      </trkpt>
      <trkpt lat="43.1417" lon="5.77007">
        <ele>17.726049</ele>
        <time>2022-08-19T04:57:19Z</time>
      </trkpt>
      <trkpt lat="43.14175" lon="5.76994">
        <ele>18.051479</ele>
        <time>2022-08-19T04:57:21Z</time>
      </trkpt>
      <trkpt lat="43.1418" lon="5.76981">
        <ele>18.715738</ele>
        <time>2022-08-19T04:57:23Z</time>
      </trkpt>
      <trkpt lat="43.14184" lon="5.76969">
        <ele>19.05864</ele>
        <time>2022-08-19T04:57:25Z</time>
      </trkpt>
      <trkpt lat="43.14188" lon="5.76958">
        <ele>19.777719</ele>
        <time>2022-08-19T04:57:27Z</time>
      </trkpt>
      <trkpt lat="43.14192" lon="5.76946">
        <ele>20.157669</ele>
        <time>2022-08-19T04:57:29Z</time>
      </trkpt>
      <trkpt lat="43.14196" lon="5.76934">
        <ele>20.966919</ele>
        <time>2022-08-19T04:57:31Z</time>
      </trkpt>
      <trkpt lat="43.142" lon="5.76921">
        <ele>21.847401</ele>
        <time>2022-08-19T04:57:33Z</time>
      </trkpt>
      <trkpt lat="43.14205" lon="5.76908">
        <ele>22.313013</ele>
        <time>2022-08-19T04:57:35Z</time>
      </trkpt>
      <trkpt lat="43.14211" lon="5.76897">
        <ele>23.283346</ele>
        <time>2022-08-19T04:57:37Z</time>
      </trkpt>
      <trkpt lat="43.1422" lon="5.76892">
        <ele>23.78183</ele>
        <time>2022-08-19T04:57:39Z</time>
      </trkpt>
      <trkpt lat="43.1423" lon="5.76889">
        <ele>24.787159</ele>
        <time>2022-08-19T04:57:41Z</time>
      </trkpt>
      <trkpt lat="43.1424" lon="5.76885">
        <ele>25.778614</ele>
        <time>2022-08-19T04:57:43Z</time>
      </trkpt>
      <trkpt lat="43.14249" lon="5.76877">
        <ele>26.260448</ele>
        <time>2022-08-19T04:57:45Z</time>
      </trkpt>
      <trkpt lat="43.14256" lon="5.76865">
        <ele>27.1775</ele>
        <time>2022-08-19T04:57:47Z</time>
      </trkpt>
      <trkpt lat="43.1426" lon="5.76851">
        <ele>27.607899</ele>
        <time>2022-08-19T04:57:49Z</time>
      </trkpt>
      <trkpt lat="43.14262" lon="5.76837">
        <ele>28.409389</ele>
        <time>2022-08-19T04:57:51Z</time>
      </trkpt>
      <trkpt lat="43.14265" lon="5.76824">
        <ele>28.782928</ele>
        <time>2022-08-19T04:57:53Z</time>
      </trkpt>
      <trkpt lat="43.14272" lon="5.76812">
        <ele>29.488434</ele>
        <time>2022-08-19T04:57:55Z</time>
      </trkpt>
      <trkpt lat="43.14281" lon="5.76804">
        <ele>30.150711</ele>
        <time>2022-08-19T04:57:57Z</time>
      </trkpt>
      <trkpt lat="43.1429" lon="5.76797">
        <ele>30.465748</ele>
        <time>2022-08-19T04:57:59Z</time>
      </trkpt>
      <trkpt lat="43.14299" lon="5.7679">
        <ele>31.046722</ele>
        <time>2022-08-19T04:58:01Z</time>
      </trkpt>
      <trkpt lat="43.14309" lon="5.76786">
        <ele>31.302647</ele>
        <time>2022-08-19T04:58:03Z</time>
      </trkpt>
      <trkpt lat="43.14319" lon="5.76783">
        <ele>31.723093</ele>
        <time>2022-08-19T04:58:05Z</time>
      </trkpt>
      <trkpt lat="43.14328" lon="5.76781">
        <ele>31.882679</ele>
        <time>2022-08-19T04:58:07Z</time>
      </trkpt>
      <trkpt lat="43.14339" lon="5.7678">
        <ele>32.077251</ele>
        <time>2022-08-19T04:58:09Z</time>
      </trkpt>
      <trkpt lat="43.14349" lon="5.76779">
        <ele>32.10561</ele>
        <time>2022-08-19T04:58:11Z</time>
      </trkpt>
      <trkpt lat="43.14359" lon="5.76779">
        <ele>32.021038</ele>
        <time>2022-08-19T04:58:13Z</time>
      </trkpt>
      <trkpt lat="43.14369" lon="5.76779">
        <ele>31.914312</ele>
        <time>2022-08-19T04:58:15Z</time>
      </trkpt>
      <trkpt lat="43.1438" lon="5.76779">
        <ele>31.594532</ele>
        <time>2022-08-19T04:58:17Z</time>
      </trkpt>
      <trkpt lat="43.1439" lon="5.76779">
        <ele>31.152369</ele>
        <time>2022-08-19T04:58:19Z</time>
      </trkpt>
      <trkpt lat="43.144" lon="5.7678">
        <ele>30.887318</ele>
        <time>2022-08-19T04:58:21Z</time>
      </trkpt>
      <trkpt lat="43.14411" lon="5.76781">
        <ele>30.268072</ele>
        <time>2022-08-19T04:58:23Z</time>
      </trkpt>
      <trkpt lat="43.14422" lon="5.76783">
        <ele>29.914516</ele>
        <time>2022-08-19T04:58:25Z</time>
      </trkpt>
      <trkpt lat="43.14431" lon="5.76785">
        <ele>29.128103</ele>
        <time>2022-08-19T04:58:27Z</time>
      </trkpt>
      <trkpt lat="43.14442" lon="5.76787">
        <ele>28.701736</ele>
        <time>2022-08-19T04:58:29Z</time>
      </trkpt>
      <trkpt lat="43.14453" lon="5.7679">
        <ele>27.801624</ele>
        <time>2022-08-19T04:58:31Z</time>
      </trkpt>
      <trkpt lat="43.14464" lon="5.76793">
        <ele>26.868509</ele>
        <time>2022-08-19T04:58:33Z</time>
      </trkpt>
      <trkpt lat="43.14474" lon="5.76796">
        <ele>26.399769</ele>
        <time>2022-08-19T04:58:35Z</time>
      </trkpt>
      <trkpt lat="43.14484" lon="5.76797">
        <ele>25.47736</ele>
        <time>2022-08-19T04:58:37Z</time>
      </trkpt>
      <trkpt lat="43.14494" lon="5.76799">
        <ele>25.029251</ele>
        <time>2022-08-19T04:58:39Z</time>
      </trkpt>
      <trkpt lat="43.14505" lon="5.768">
        <ele>24.162273</ele>
        <time>2022-08-19T04:58:41Z</time>
      </trkpt>
      <trkpt lat="43.14514" lon="5.76806">
        <ele>23.740505</ele>
        <time>2022-08-19T04:58:43Z</time>
      </trkpt>
      <trkpt lat="43.14524" lon="5.76809">
        <ele>22.905518</ele>
        <time>2022-08-19T04:58:45Z</time>
      </trkpt>
      <trkpt lat="43.14531" lon="5.76803">
        <ele>22.061607</ele>
        <time>2022-08-19T04:58:47Z</time>
      </trkpt>
      <trkpt lat="43.14537" lon="5.76795">
        <ele>21.632042</ele>
        <time>2022-08-19T04:58:49Z</time>
      </trkpt>
      <trkpt lat="43.14545" lon="5.76787">
        <ele>20.76766</ele>
        <time>2022-08-19T04:58:51Z</time>
      </trkpt>
      <trkpt lat="43.14552" lon="5.76778">
        <ele>20.344177</ele>
        <time>2022-08-19T04:58:53Z</time>
      </trkpt>
      <trkpt lat="43.14559" lon="5.76768">
        <ele>19.550396</ele>
        <time>2022-08-19T04:58:55Z</time>
      </trkpt>
      <trkpt lat="43.14566" lon="5.76758">
        <ele>19.19405</ele>
        <time>2022-08-19T04:58:57Z</time>
      </trkpt>
      <trkpt lat="43.14573" lon="5.76749">
        <ele>18.593962</ele>
        <time>2022-08-19T04:58:59Z</time>
      </trkpt>
      <trkpt lat="43.14578" lon="5.76738">
        <ele>18.361677</ele>
        <time>2022-08-19T04:59:01Z</time>
      </trkpt>
      <trkpt lat="43.14582" lon="5.76726">
        <ele>18.049818</ele>
        <time>2022-08-19T04:59:03Z</time>
      </trkpt>
      <trkpt lat="43.14585" lon="5.76713">
        <ele>17.9335</ele>
        <time>2022-08-19T04:59:05Z</time>
      </trkpt>
      <trkpt lat="43.14588" lon="5.767">
        <ele>17.937817</ele>
        <time>2022-08-19T04:59:07Z</time>
      </trkpt>
      <trkpt lat="43.14592" lon="5.76686">
        <ele>18.052061</ele>
        <time>2022-08-19T04:59:09Z</time>
      </trkpt>
      <trkpt lat="43.14595" lon="5.76673">
        <ele>18.160017</ele>
        <time>2022-08-19T04:59:11Z</time>
      </trkpt>
      <trkpt lat="43.14599" lon="5.7666">
        <ele>18.48155</ele>
        <time>2022-08-19T04:59:13Z</time>
      </trkpt>
      <trkpt lat="43.14603" lon="5.76647">
        <ele>18.696709</ele>
        <time>2022-08-19T04:59:15Z</time>
      </trkpt>
      <trkpt lat="43.14606" lon="5.76635">
        <ele>19.237293</ele>
        <time>2022-08-19T04:59:17Z</time>
      </trkpt>
      <trkpt lat="43.1461" lon="5.76622">
        <ele>19.560688</ele>
        <time>2022-08-19T04:59:19Z</time>
      </trkpt>
      <trkpt lat="43.14615" lon="5.76609">
        <ele>20.303761</ele>
        <time>2022-08-19T04:59:21Z</time>
      </trkpt>
      <trkpt lat="43.1462" lon="5.76598">
        <ele>20.71866</ele>
        <time>2022-08-19T04:59:23Z</time>
      </trkpt>
      <trkpt lat="43.14626" lon="5.76587">
        <ele>21.625675</ele>
        <time>2022-08-19T04:59:25Z</time>
      </trkpt>
      <trkpt lat="43.14633" lon="5.76577">
        <ele>22.623598</ele>
        <time>2022-08-19T04:59:27Z</time>
      </trkpt>
      <trkpt lat="43.14641" lon="5.76567">
        <ele>23.152515</ele>
        <time>2022-08-19T04:59:29Z</time>
      </trkpt>
      <trkpt lat="43.1465" lon="5.76558">
        <ele>24.262892</ele>
        <time>2022-08-19T04:59:31Z</time>
      </trkpt>
      <trkpt lat="43.14658" lon="5.7655">
        <ele>24.842716</ele>
        <time>2022-08-19T04:59:33Z</time>
      </trkpt>
      <trkpt lat="43.14668" lon="5.76542">
        <ele>26.048954</ele>
        <time>2022-08-19T04:59:35Z</time>
      </trkpt>
      <trkpt lat="43.14677" lon="5.76534">
        <ele>26.673054</ele>
        <time>2022-08-19T04:59:37Z</time>
      </trkpt>
      <trkpt lat="43.14686" lon="5.76528">
        <ele>27.956722</ele>
        <time>2022-08-19T04:59:39Z</time>
      </trkpt>
      <trkpt lat="43.14695" lon="5.76521">
        <ele>28.613834</ele>
        <time>2022-08-19T04:59:41Z</time>
      </trkpt>
      <trkpt lat="43.14705" lon="5.76515">
        <ele>29.947865</ele>
        <time>2022-08-19T04:59:43Z</time>
      </trkpt>
      <trkpt lat="43.14714" lon="5.7651">
        <ele>30.618252</ele>
        <time>2022-08-19T04:59:45Z</time>
      </trkpt>
      <trkpt lat="43.14724" lon="5.76504">
        <ele>31.94488</ele>
        <time>2022-08-19T04:59:47Z</time>
      </trkpt>
      <trkpt lat="43.14734" lon="5.76499">
        <ele>32.591404</ele>
        <time>2022-08-19T04:59:49Z</time>
      </trkpt>
      <trkpt lat="43.14743" lon="5.76492">
        <ele>33.826851</ele>
        <time>2022-08-19T04:59:51Z</time>
      </trkpt>
      <trkpt lat="43.14752" lon="5.76487">
        <ele>34.960178</ele>
        <time>2022-08-19T04:59:53Z</time>
      </trkpt>
      <trkpt lat="43.14762" lon="5.76481">
        <ele>35.483078</ele>
        <time>2022-08-19T04:59:55Z</time>
      </trkpt>
      <trkpt lat="43.14772" lon="5.76477">
        <ele>36.43523</ele>
        <time>2022-08-19T04:59:57Z</time>
      </trkpt>
      <trkpt lat="43.14782" lon="5.76474">
        <ele>36.86216</ele>
        <time>2022-08-19T04:59:59Z</time>
      </trkpt>
      <trkpt lat="43.14792" lon="5.76471">
        <ele>37.605213</ele>
        <time>2022-08-19T05:00:01Z</time>
      </trkpt>
      <trkpt lat="43.14802" lon="5.76468">
        <ele>37.914993</ele>
        <time>2022-08-19T05:00:03Z</time>
      </trkpt>
      <trkpt lat="43.14812" lon="5.76466">
        <ele>38.395134</ele>
        <time>2022-08-19T05:00:05Z</time>
      </trkpt>
      <trkpt lat="43.14822" lon="5.76465">
        <ele>38.67485</ele>
        <time>2022-08-19T05:00:07Z</time>
      </trkpt>
      <trkpt lat="43.14831" lon="5.76463">
        <ele>38.736473</ele>
        <time>2022-08-19T05:00:09Z</time>
      </trkpt>
      <trkpt lat="43.14841" lon="5.76462">
        <ele>38.703506</ele>
        <time>2022-08-19T05:00:11Z</time>
      </trkpt>
      <trkpt lat="43.14851" lon="5.76461">
        <ele>38.611111</ele>
        <time>2022-08-19T05:00:13Z</time>
      </trkpt>
      <trkpt lat="43.14861" lon="5.76461">
        <ele>38.282757</ele>
        <time>2022-08-19T05:00:15Z</time>
      </trkpt>
      <trkpt lat="43.14871" lon="5.76459">
        <ele>37.784054</ele>
        <time>2022-08-19T05:00:17Z</time>
      </trkpt>
      <trkpt lat="43.1488" lon="5.76456">
        <ele>37.47039</ele>
        <time>2022-08-19T05:00:19Z</time>
      </trkpt>
      <trkpt lat="43.14888" lon="5.76452">
        <ele>36.724594</ele>
        <time>2022-08-19T05:00:21Z</time>
      </trkpt>
      <trkpt lat="43.14897" lon="5.76446">
        <ele>36.298241</ele>
        <time>2022-08-19T05:00:23Z</time>
      </trkpt>
      <trkpt lat="43.14906" lon="5.76444">
        <ele>35.360806</ele>
        <time>2022-08-19T05:00:25Z</time>
      </trkpt>
      <trkpt lat="43.14916" lon="5.76443">
        <ele>34.860153</ele>
        <time>2022-08-19T05:00:27Z</time>
      </trkpt>
      <trkpt lat="43.14927" lon="5.76445">
        <ele>33.818764</ele>
        <time>2022-08-19T05:00:29Z</time>
      </trkpt>
      <trkpt lat="43.14937" lon="5.7645">
        <ele>33.283394</ele>
        <time>2022-08-19T05:00:31Z</time>
      </trkpt>
      <trkpt lat="43.14946" lon="5.76456">
        <ele>32.188343</ele>
        <time>2022-08-19T05:00:33Z</time>
      </trkpt>
      <trkpt lat="43.14954" lon="5.76462">
        <ele>31.06745</ele>
        <time>2022-08-19T05:00:35Z</time>
      </trkpt>
      <trkpt lat="43.14961" lon="5.76465">
        <ele>30.501667</ele>
        <time>2022-08-19T05:00:37Z</time>
      </trkpt>
      <trkpt lat="43.1497" lon="5.7647">
        <ele>29.373953</ele>
        <time>2022-08-19T05:00:39Z</time>
      </trkpt>
      <trkpt lat="43.14979" lon="5.76473">
        <ele>28.818966</ele>
        <time>2022-08-19T05:00:41Z</time>
      </trkpt>
      <trkpt lat="43.14989" lon="5.76476">
        <ele>27.743021</ele>
        <time>2022-08-19T05:00:43Z</time>
      </trkpt>
      <trkpt lat="43.15" lon="5.7648">
        <ele>27.226456</ele>
        <time>2022-08-19T05:00:45Z</time>
      </trkpt>
      <trkpt lat="43.1501" lon="5.76483">
        <ele>26.243107</ele>
        <time>2022-08-19T05:00:47Z</time>
      </trkpt>
      <trkpt lat="43.1502" lon="5.76485">
        <ele>25.778753</ele>
        <time>2022-08-19T05:00:49Z</time>
      </trkpt>
      <trkpt lat="43.1503" lon="5.76488">
        <ele>24.911495</ele>
        <time>2022-08-19T05:00:51Z</time>
      </trkpt>
      <trkpt lat="43.1504" lon="5.7649">
        <ele>24.511944</ele>
        <time>2022-08-19T05:00:53Z</time>
      </trkpt>
      <trkpt lat="43.1505" lon="5.7649">
        <ele>23.788349</ele>
        <time>2022-08-19T05:00:55Z</time>
      </trkpt>
      <trkpt lat="43.15059" lon="5.76489">
        <ele>23.172054</ele>
        <time>2022-08-19T05:00:57Z</time>
      </trkpt>
      <trkpt lat="43.15068" lon="5.76487">
        <ele>22.905682</ele>
        <time>2022-08-19T05:00:59Z</time>
      </trkpt>
      <trkpt lat="43.15077" lon="5.76485">
        <ele>22.45783</ele>
        <time>2022-08-19T05:01:01Z</time>
      </trkpt>
      <trkpt lat="43.15086" lon="5.76482">
        <ele>22.27566</ele>
        <time>2022-08-19T05:01:03Z</time>
      </trkpt>
      <trkpt lat="43.15096" lon="5.7648">
        <ele>21.992563</ele>
        <time>2022-08-19T05:01:05Z</time>
      </trkpt>
      <trkpt lat="43.15104" lon="5.76476">
        <ele>21.890606</ele>
        <time>2022-08-19T05:01:07Z</time>
      </trkpt>
      <trkpt lat="43.15112" lon="5.76473">
        <ele>21.753727</ele>
        <time>2022-08-19T05:01:09Z</time>
      </trkpt>
      <trkpt lat="43.15119" lon="5.76469">
        <ele>21.726276</ele>
        <time>2022-08-19T05:01:11Z</time>
      </trkpt>
      <trkpt lat="43.15127" lon="5.76464">
        <ele>21.755041</ele>
        <time>2022-08-19T05:01:13Z</time>
      </trkpt>
      <trkpt lat="43.15135" lon="5.76459">
        <ele>21.895334</ele>
        <time>2022-08-19T05:01:15Z</time>
      </trkpt>
      <trkpt lat="43.15143" lon="5.76454">
        <ele>22.003342</ele>
        <time>2022-08-19T05:01:17Z</time>
      </trkpt>
      <trkpt lat="43.15151" lon="5.76448">
        <ele>22.285265</ele>
        <time>2022-08-19T05:01:19Z</time>
      </trkpt>
      <trkpt lat="43.15159" lon="5.76441">
        <ele>22.457619</ele>
        <time>2022-08-19T05:01:21Z</time>
      </trkpt>
      <trkpt lat="43.15168" lon="5.76434">
        <ele>22.87171</ele>
        <time>2022-08-19T05:01:23Z</time>
      </trkpt>
      <trkpt lat="43.15177" lon="5.76426">
        <ele>23.387913</ele>
        <time>2022-08-19T05:01:25Z</time>
      </trkpt>
      <trkpt lat="43.15185" lon="5.76418">
        <ele>23.685951</ele>
        <time>2022-08-19T05:01:27Z</time>
      </trkpt>
      <trkpt lat="43.15193" lon="5.7641">
        <ele>24.361633</ele>
        <time>2022-08-19T05:01:29Z</time>
      </trkpt>
      <trkpt lat="43.15202" lon="5.76403">
        <ele>24.737463</ele>
        <time>2022-08-19T05:01:31Z</time>
      </trkpt>
      <trkpt lat="43.1521" lon="5.76396">
        <ele>25.554577</ele>
        <time>2022-08-19T05:01:33Z</time>
      </trkpt>
      <trkpt lat="43.15217" lon="5.7639">
        <ele>25.990284</ele>
        <time>2022-08-19T05:01:35Z</time>
      </trkpt>
      <trkpt lat="43.15225" lon="5.76383">
        <ele>26.904932</ele>
        <time>2022-08-19T05:01:37Z</time>
      </trkpt>
      <trkpt lat="43.15233" lon="5.76377">
        <ele>27.380505</ele>
        <time>2022-08-19T05:01:39Z</time>
      </trkpt>
      <trkpt lat="43.1524" lon="5.76373">
        <ele>28.358276</ele>
        <time>2022-08-19T05:01:41Z</time>
      </trkpt>
      <trkpt lat="43.15248" lon="5.7637">
        <ele>28.85549</ele>
        <time>2022-08-19T05:01:43Z</time>
      </trkpt>
      <trkpt lat="43.15257" lon="5.76366">
        <ele>29.851669</ele>
        <time>2022-08-19T05:01:45Z</time>
      </trkpt>
      <trkpt lat="43.15266" lon="5.76363">
        <ele>30.833767</ele>
        <time>2022-08-19T05:01:47Z</time>
      </trkpt>
      <trkpt lat="43.15275" lon="5.7636">
        <ele>31.315372</ele>
        <time>2022-08-19T05:01:49Z</time>
      </trkpt>
      <trkpt lat="43.15285" lon="5.76357">
        <ele>32.254074</ele>
        <time>2022-08-19T05:01:51Z</time>
      </trkpt>
      <trkpt lat="43.15294" lon="5.76355">
        <ele>32.709404</ele>
        <time>2022-08-19T05:01:53Z</time>
      </trkpt>
      <trkpt lat="43.15304" lon="5.76355">
        <ele>33.588009</ele>
        <time>2022-08-19T05:01:55Z</time>
      </trkpt>
      <trkpt lat="43.15313" lon="5.76357">
        <ele>34.009335</ele>
        <time>2022-08-19T05:01:57Z</time>
      </trkpt>
      <trkpt lat="43.15323" lon="5.76359">
        <ele>34.809769</ele>
        <time>2022-08-19T05:01:59Z</time>
      </trkpt>
      <trkpt lat="43.15331" lon="5.76362">
        <ele>35.185135</ele>
        <time>2022-08-19T05:02:01Z</time>
      </trkpt>
      <trkpt lat="43.15341" lon="5.76366">
        <ele>35.876186</ele>
        <time>2022-08-19T05:02:03Z</time>
      </trkpt>
      <trkpt lat="43.15352" lon="5.76368">
        <ele>36.476448</ele>
        <time>2022-08-19T05:02:05Z</time>
      </trkpt>
      <trkpt lat="43.15364" lon="5.76369">
        <ele>36.738773</ele>
        <time>2022-08-19T05:02:07Z</time>
      </trkpt>
      <trkpt lat="43.15376" lon="5.76369">
        <ele>37.179726</ele>
        <time>2022-08-19T05:02:09Z</time>
      </trkpt>
      <trkpt lat="43.15389" lon="5.7637">
        <ele>37.355679</ele>
        <time>2022-08-19T05:02:11Z</time>
      </trkpt>
      <trkpt lat="43.15401" lon="5.76373">
        <ele>37.615726</ele>
        <time>2022-08-19T05:02:13Z</time>
      </trkpt>
      <trkpt lat="43.15413" lon="5.76375">
        <ele>37.6991</ele>
        <time>2022-08-19T05:02:15Z</time>
      </trkpt>
      <trkpt lat="43.15423" lon="5.76378">
        <ele>37.773586</ele>
        <time>2022-08-19T05:02:17Z</time>
      </trkpt>
      <trkpt lat="43.15433" lon="5.7638">
        <ele>37.765175</ele>
        <time>2022-08-19T05:02:19Z</time>
      </trkpt>
      <trkpt lat="43.15443" lon="5.76382">
        <ele>37.656792</ele>
        <time>2022-08-19T05:02:21Z</time>
      </trkpt>
      <trkpt lat="43.15452" lon="5.76384">
        <ele>37.557106</ele>
        <time>2022-08-19T05:02:23Z</time>
      </trkpt>
      <trkpt lat="43.15462" lon="5.76386">
        <ele>37.273537</ele>
        <time>2022-08-19T05:02:25Z</time>
      </trkpt>
      <trkpt lat="43.15472" lon="5.76389">
        <ele>36.894348</ele>
        <time>2022-08-19T05:02:27Z</time>
      </trkpt>
      <trkpt lat="43.15481" lon="5.76391">
        <ele>36.674824</ele>
        <time>2022-08-19T05:02:29Z</time>
      </trkpt>
      <trkpt lat="43.15491" lon="5.76393">
        <ele>36.183918</ele>
        <time>2022-08-19T05:02:31Z</time>
      </trkpt>
      <trkpt lat="43.15501" lon="5.76395">
        <ele>35.916573</ele>
        <time>2022-08-19T05:02:33Z</time>
      </trkpt>
      <trkpt lat="43.15511" lon="5.76397">
        <ele>35.350731</ele>
        <time>2022-08-19T05:02:35Z</time>
      </trkpt>
      <trkpt lat="43.15521" lon="5.76399">
        <ele>35.058613</ele>
        <time>2022-08-19T05:02:37Z</time>
      </trkpt>
      <trkpt lat="43.1553" lon="5.76401">
        <ele>34.470512</ele>
        <time>2022-08-19T05:02:39Z</time>
      </trkpt>
      <trkpt lat="43.1554" lon="5.76403">
        <ele>34.179707</ele>
        <time>2022-08-19T05:02:41Z</time>
      </trkpt>
      <trkpt lat="43.15551" lon="5.76405">
        <ele>33.614788</ele>
        <time>2022-08-19T05:02:43Z</time>
      </trkpt>
      <trkpt lat="43.15562" lon="5.76407">
        <ele>33.343788</ele>
        <time>2022-08-19T05:02:45Z</time>
      </trkpt>
      <trkpt lat="43.15572" lon="5.76409">
        <ele>32.83025</ele>
        <time>2022-08-19T05:02:47Z</time>
      </trkpt>
      <trkpt lat="43.15583" lon="5.76412">
        <ele>32.362034</ele>
        <time>2022-08-19T05:02:49Z</time>
      </trkpt>
      <trkpt lat="43.15594" lon="5.76415">
        <ele>32.148434</ele>
        <time>2022-08-19T05:02:51Z</time>
      </trkpt>
      <trkpt lat="43.15604" lon="5.76418">
        <ele>31.771063</ele>
        <time>2022-08-19T05:02:53Z</time>
      </trkpt>
      <trkpt lat="43.15615" lon="5.76421">
        <ele>31.610447</ele>
        <time>2022-08-19T05:02:55Z</time>
      </trkpt>
      <trkpt lat="43.15625" lon="5.76422">
        <ele>31.350758</ele>
        <time>2022-08-19T05:02:57Z</time>
      </trkpt>
      <trkpt lat="43.15635" lon="5.76423">
        <ele>31.253561</ele>
        <time>2022-08-19T05:02:59Z</time>
      </trkpt>
      <trkpt lat="43.15646" lon="5.76423">
        <ele>31.129444</ele>
        <time>2022-08-19T05:03:01Z</time>
      </trkpt>
      <trkpt lat="43.15656" lon="5.76422">
        <ele>31.10354</ele>
        <time>2022-08-19T05:03:03Z</time>
      </trkpt>
      <trkpt lat="43.15668" lon="5.76423">
        <ele>31.121967</ele>
        <time>2022-08-19T05:03:05Z</time>
      </trkpt>
      <trkpt lat="43.1568" lon="5.76424">
        <ele>31.164831</ele>
        <time>2022-08-19T05:03:07Z</time>
      </trkpt>
      <trkpt lat="43.15691" lon="5.76426">
        <ele>31.317038</ele>
        <time>2022-08-19T05:03:09Z</time>
      </trkpt>
      <trkpt lat="43.15701" lon="5.76433">
        <ele>31.558002</ele>
        <time>2022-08-19T05:03:11Z</time>
      </trkpt>
      <trkpt lat="43.1571" lon="5.7644">
        <ele>31.710318</ele>
        <time>2022-08-19T05:03:13Z</time>
      </trkpt>
      <trkpt lat="43.15719" lon="5.76447">
        <ele>32.06855</ele>
        <time>2022-08-19T05:03:15Z</time>
      </trkpt>
      <trkpt lat="43.15728" lon="5.76455">
        <ele>32.268944</ele>
        <time>2022-08-19T05:03:17Z</time>
      </trkpt>
      <trkpt lat="43.15736" lon="5.76462">
        <ele>32.699135</ele>
        <time>2022-08-19T05:03:19Z</time>
      </trkpt>
      <trkpt lat="43.15746" lon="5.76469">
        <ele>32.925026</ele>
        <time>2022-08-19T05:03:21Z</time>
      </trkpt>
      <trkpt lat="43.15754" lon="5.76476">
        <ele>33.392551</ele>
        <time>2022-08-19T05:03:23Z</time>
      </trkpt>
      <trkpt lat="43.15763" lon="5.76482">
        <ele>33.632523</ele>
        <time>2022-08-19T05:03:25Z</time>
      </trkpt>
      <trkpt lat="43.15771" lon="5.76488">
        <ele>34.121441</ele>
        <time>2022-08-19T05:03:27Z</time>
      </trkpt>
      <trkpt lat="43.1578" lon="5.76494">
        <ele>34.61668</ele>
        <time>2022-08-19T05:03:29Z</time>
      </trkpt>
      <trkpt lat="43.15789" lon="5.76499">
        <ele>34.86367</ele>
        <time>2022-08-19T05:03:31Z</time>
      </trkpt>
      <trkpt lat="43.15797" lon="5.76504">
        <ele>35.349064</ele>
        <time>2022-08-19T05:03:33Z</time>
      </trkpt>
      <trkpt lat="43.15806" lon="5.76509">
        <ele>35.585114</ele>
        <time>2022-08-19T05:03:35Z</time>
      </trkpt>
      <trkpt lat="43.15815" lon="5.76512">
        <ele>36.038376</ele>
        <time>2022-08-19T05:03:37Z</time>
      </trkpt>
      <trkpt lat="43.15825" lon="5.76514">
        <ele>36.253975</ele>
        <time>2022-08-19T05:03:39Z</time>
      </trkpt>
      <trkpt lat="43.15834" lon="5.76515">
        <ele>36.661125</ele>
        <time>2022-08-19T05:03:41Z</time>
      </trkpt>
      <trkpt lat="43.15844" lon="5.76515">
        <ele>36.852417</ele>
        <time>2022-08-19T05:03:43Z</time>
      </trkpt>
      <trkpt lat="43.15852" lon="5.76515">
        <ele>37.210739</ele>
        <time>2022-08-19T05:03:45Z</time>
      </trkpt>
      <trkpt lat="43.1586" lon="5.76515">
        <ele>37.377937</ele>
        <time>2022-08-19T05:03:47Z</time>
      </trkpt>
      <trkpt lat="43.15865" lon="5.76514">
        <ele>37.689201</ele>
        <time>2022-08-19T05:03:49Z</time>
      </trkpt>
      <trkpt lat="43.15873" lon="5.76512">
        <ele>37.96912</ele>
        <time>2022-08-19T05:03:51Z</time>
      </trkpt>
      <trkpt lat="43.15882" lon="5.7651">
        <ele>38.09692</ele>
        <time>2022-08-19T05:03:53Z</time>
      </trkpt>
      <trkpt lat="43.1589" lon="5.76505">
        <ele>38.327595</ele>
        <time>2022-08-19T05:03:55Z</time>
      </trkpt>
      <trkpt lat="43.15897" lon="5.76498">
        <ele>38.430721</ele>
        <time>2022-08-19T05:03:57Z</time>
      </trkpt>
      <trkpt lat="43.15903" lon="5.7649">
        <ele>38.617249</ele>
        <time>2022-08-19T05:03:59Z</time>
      </trkpt>
      <trkpt lat="43.15908" lon="5.7648">
        <ele>38.704445</ele>
        <time>2022-08-19T05:04:01Z</time>
      </trkpt>
      <trkpt lat="43.15913" lon="5.76469">
        <ele>38.881252</ele>
        <time>2022-08-19T05:04:03Z</time>
      </trkpt>
      <trkpt lat="43.15919" lon="5.76458">
        <ele>38.977638</ele>
        <time>2022-08-19T05:04:05Z</time>
      </trkpt>
      <trkpt lat="43.15925" lon="5.76445">
        <ele>39.204506</ele>
        <time>2022-08-19T05:04:07Z</time>
      </trkpt>
      <trkpt lat="43.15931" lon="5.76431">
        <ele>39.497032</ele>
        <time>2022-08-19T05:04:09Z</time>
      </trkpt>
      <trkpt lat="43.15939" lon="5.76417">
        <ele>39.674358</ele>
        <time>2022-08-19T05:04:11Z</time>
      </trkpt>
      <trkpt lat="43.15948" lon="5.76405">
        <ele>40.104137</ele>
        <time>2022-08-19T05:04:13Z</time>
      </trkpt>
      <trkpt lat="43.15959" lon="5.76395">
        <ele>40.361156</ele>
        <time>2022-08-19T05:04:15Z</time>
      </trkpt>
      <trkpt lat="43.15968" lon="5.76387">
        <ele>40.965981</ele>
        <time>2022-08-19T05:04:17Z</time>
      </trkpt>
      <trkpt lat="43.15978" lon="5.7638">
        <ele>41.313496</ele>
        <time>2022-08-19T05:04:19Z</time>
      </trkpt>
      <trkpt lat="43.15988" lon="5.76374">
        <ele>42.093464</ele>
        <time>2022-08-19T05:04:21Z</time>
      </trkpt>
      <trkpt lat="43.15999" lon="5.76371">
        <ele>42.521656</ele>
        <time>2022-08-19T05:04:23Z</time>
      </trkpt>
      <trkpt lat="43.1601" lon="5.76368">
        <ele>43.43586</ele>
        <time>2022-08-19T05:04:25Z</time>
      </trkpt>
      <trkpt lat="43.16019" lon="5.76367">
        <ele>44.397636</ele>
        <time>2022-08-19T05:04:27Z</time>
      </trkpt>
      <trkpt lat="43.16028" lon="5.76366">
        <ele>44.888355</ele>
        <time>2022-08-19T05:04:29Z</time>
      </trkpt>
      <trkpt lat="43.16037" lon="5.76366">
        <ele>45.87788</ele>
        <time>2022-08-19T05:04:31Z</time>
      </trkpt>
      <trkpt lat="43.16049" lon="5.76368">
        <ele>46.373211</ele>
        <time>2022-08-19T05:04:33Z</time>
      </trkpt>
      <trkpt lat="43.1606" lon="5.7637">
        <ele>47.353924</ele>
        <time>2022-08-19T05:04:35Z</time>
      </trkpt>
      <trkpt lat="43.16069" lon="5.76374">
        <ele>47.833679</ele>
        <time>2022-08-19T05:04:37Z</time>
      </trkpt>
      <trkpt lat="43.16078" lon="5.76377">
        <ele>48.7593</ele>
        <time>2022-08-19T05:04:39Z</time>
      </trkpt>
      <trkpt lat="43.16087" lon="5.76381">
        <ele>49.619141</ele>
        <time>2022-08-19T05:04:41Z</time>
      </trkpt>
      <trkpt lat="43.16097" lon="5.76385">
        <ele>50.015881</ele>
        <time>2022-08-19T05:04:43Z</time>
      </trkpt>
      <trkpt lat="43.16106" lon="5.76389">
        <ele>50.74511</ele>
        <time>2022-08-19T05:04:45Z</time>
      </trkpt>
      <trkpt lat="43.16114" lon="5.76392">
        <ele>51.075653</ele>
        <time>2022-08-19T05:04:47Z</time>
      </trkpt>
      <trkpt lat="43.16124" lon="5.76396">
        <ele>51.65609</ele>
        <time>2022-08-19T05:04:49Z</time>
      </trkpt>
      <trkpt lat="43.16133" lon="5.76399">
        <ele>52.117352</ele>
        <time>2022-08-19T05:04:51Z</time>
      </trkpt>
      <trkpt lat="43.16142" lon="5.76403">
        <ele>52.297321</ele>
        <time>2022-08-19T05:04:53Z</time>
      </trkpt>
      <trkpt lat="43.16151" lon="5.76406">
        <ele>52.543022</ele>
        <time>2022-08-19T05:04:55Z</time>
      </trkpt>
      <trkpt lat="43.1616" lon="5.7641">
        <ele>52.604424</ele>
        <time>2022-08-19T05:04:57Z</time>
      </trkpt>
      <trkpt lat="43.1617" lon="5.76413">
        <ele>52.594959</ele>
        <time>2022-08-19T05:04:59Z</time>
      </trkpt>
      <trkpt lat="43.1618" lon="5.76416">
        <ele>52.520836</ele>
        <time>2022-08-19T05:05:01Z</time>
      </trkpt>
      <trkpt lat="43.1619" lon="5.76419">
        <ele>52.223328</ele>
        <time>2022-08-19T05:05:03Z</time>
      </trkpt>
      <trkpt lat="43.16201" lon="5.76422">
        <ele>51.71286</ele>
        <time>2022-08-19T05:05:05Z</time>
      </trkpt>
      <trkpt lat="43.1621" lon="5.76425">
        <ele>51.374889</ele>
        <time>2022-08-19T05:05:07Z</time>
      </trkpt>
      <trkpt lat="43.1622" lon="5.76427">
        <ele>50.538506</ele>
        <time>2022-08-19T05:05:09Z</time>
      </trkpt>
      <trkpt lat="43.1623" lon="5.76429">
        <ele>50.044758</ele>
        <time>2022-08-19T05:05:11Z</time>
      </trkpt>
      <trkpt lat="43.1624" lon="5.76431">
        <ele>48.921986</ele>
        <time>2022-08-19T05:05:13Z</time>
      </trkpt>
      <trkpt lat="43.16249" lon="5.76433">
        <ele>48.302338</ele>
        <time>2022-08-19T05:05:15Z</time>
      </trkpt>
      <trkpt lat="43.16258" lon="5.76435">
        <ele>46.975147</ele>
        <time>2022-08-19T05:05:17Z</time>
      </trkpt>
      <trkpt lat="43.16268" lon="5.76436">
        <ele>46.278313</ele>
        <time>2022-08-19T05:05:19Z</time>
      </trkpt>
      <trkpt lat="43.16278" lon="5.76437">
        <ele>44.846832</ele>
        <time>2022-08-19T05:05:21Z</time>
      </trkpt>
      <trkpt lat="43.16288" lon="5.76439">
        <ele>43.408936</ele>
        <time>2022-08-19T05:05:23Z</time>
      </trkpt>
      <trkpt lat="43.16298" lon="5.76441">
        <ele>42.704102</ele>
        <time>2022-08-19T05:05:25Z</time>
      </trkpt>
      <trkpt lat="43.16308" lon="5.76443">
        <ele>41.349861</ele>
        <time>2022-08-19T05:05:27Z</time>
      </trkpt>
      <trkpt lat="43.16319" lon="5.76445">
        <ele>40.711372</ele>
        <time>2022-08-19T05:05:29Z</time>
      </trkpt>
      <trkpt lat="43.16329" lon="5.76448">
        <ele>39.523277</ele>
        <time>2022-08-19T05:05:31Z</time>
      </trkpt>
      <trkpt lat="43.1634" lon="5.76452">
        <ele>38.986</ele>
        <time>2022-08-19T05:05:33Z</time>
      </trkpt>
      <trkpt lat="43.16349" lon="5.76458">
        <ele>38.039783</ele>
        <time>2022-08-19T05:05:35Z</time>
      </trkpt>
      <trkpt lat="43.16358" lon="5.76464">
        <ele>37.625469</ele>
        <time>2022-08-19T05:05:37Z</time>
      </trkpt>
      <trkpt lat="43.16366" lon="5.7647">
        <ele>36.935722</ele>
        <time>2022-08-19T05:05:39Z</time>
      </trkpt>
      <trkpt lat="43.16374" lon="5.76478">
        <ele>36.42614</ele>
        <time>2022-08-19T05:05:41Z</time>
      </trkpt>
      <trkpt lat="43.16381" lon="5.76484">
        <ele>36.235371</ele>
        <time>2022-08-19T05:05:43Z</time>
      </trkpt>
      <trkpt lat="43.16388" lon="5.7649">
        <ele>35.973763</ele>
        <time>2022-08-19T05:05:45Z</time>
      </trkpt>
      <trkpt lat="43.16394" lon="5.76495">
        <ele>35.899982</ele>
        <time>2022-08-19T05:05:47Z</time>
      </trkpt>
      <trkpt lat="43.164" lon="5.76501">
        <ele>35.861526</ele>
        <time>2022-08-19T05:05:49Z</time>
      </trkpt>
      <trkpt lat="43.16406" lon="5.76508">
        <ele>35.895241</ele>
        <time>2022-08-19T05:05:51Z</time>
      </trkpt>
      <trkpt lat="43.16412" lon="5.76515">
        <ele>36.064278</ele>
        <time>2022-08-19T05:05:53Z</time>
      </trkpt>
      <trkpt lat="43.1642" lon="5.76522">
        <ele>36.198868</ele>
        <time>2022-08-19T05:05:55Z</time>
      </trkpt>
      <trkpt lat="43.16426" lon="5.7653">
        <ele>36.56916</ele>
        <time>2022-08-19T05:05:57Z</time>
      </trkpt>
      <trkpt lat="43.16433" lon="5.76539">
        <ele>36.805893</ele>
        <time>2022-08-19T05:05:59Z</time>
      </trkpt>
      <trkpt lat="43.16439" lon="5.76548">
        <ele>37.380337</ele>
        <time>2022-08-19T05:06:01Z</time>
      </trkpt>
      <trkpt lat="43.16444" lon="5.76558">
        <ele>37.714973</ele>
        <time>2022-08-19T05:06:03Z</time>
      </trkpt>
      <trkpt lat="43.1645" lon="5.76568">
        <ele>38.468651</ele>
        <time>2022-08-19T05:06:05Z</time>
      </trkpt>
      <trkpt lat="43.16456" lon="5.76579">
        <ele>38.883152</ele>
        <time>2022-08-19T05:06:07Z</time>
      </trkpt>
      <trkpt lat="43.16461" lon="5.76589">
        <ele>39.776604</ele>
        <time>2022-08-19T05:06:09Z</time>
      </trkpt>
      <trkpt lat="43.16467" lon="5.76599">
        <ele>40.743706</ele>
        <time>2022-08-19T05:06:11Z</time>
      </trkpt>
      <trkpt lat="43.16472" lon="5.76611">
        <ele>41.247551</ele>
        <time>2022-08-19T05:06:13Z</time>
      </trkpt>
      <trkpt lat="43.16476" lon="5.76623">
        <ele>42.273262</ele>
        <time>2022-08-19T05:06:15Z</time>
      </trkpt>
      <trkpt lat="43.1648" lon="5.76636">
        <ele>42.784508</ele>
        <time>2022-08-19T05:06:17Z</time>
      </trkpt>
      <trkpt lat="43.16485" lon="5.76649">
        <ele>43.783329</ele>
        <time>2022-08-19T05:06:19Z</time>
      </trkpt>
      <trkpt lat="43.16488" lon="5.76663">
        <ele>44.264572</ele>
        <time>2022-08-19T05:06:21Z</time>
      </trkpt>
      <trkpt lat="43.16494" lon="5.76675">
        <ele>45.179497</ele>
        <time>2022-08-19T05:06:23Z</time>
      </trkpt>
      <trkpt lat="43.16498" lon="5.76688">
        <ele>46.020535</ele>
        <time>2022-08-19T05:06:25Z</time>
      </trkpt>
      <trkpt lat="43.16503" lon="5.76702">
        <ele>46.409874</ele>
        <time>2022-08-19T05:06:27Z</time>
      </trkpt>
      <trkpt lat="43.16503" lon="5.76716">
        <ele>47.120644</ele>
        <time>2022-08-19T05:06:29Z</time>
      </trkpt>
      <trkpt lat="43.16506" lon="5.76728">
        <ele>47.440514</ele>
        <time>2022-08-19T05:06:31Z</time>
      </trkpt>
      <trkpt lat="43.16508" lon="5.76742">
        <ele>48.010193</ele>
        <time>2022-08-19T05:06:33Z</time>
      </trkpt>
      <trkpt lat="43.16514" lon="5.76756">
        <ele>48.262154</ele>
        <time>2022-08-19T05:06:35Z</time>
      </trkpt>
      <trkpt lat="43.16519" lon="5.76769">
        <ele>48.708782</ele>
        <time>2022-08-19T05:06:37Z</time>
      </trkpt>
      <trkpt lat="43.16524" lon="5.76782">
        <ele>48.906189</ele>
        <time>2022-08-19T05:06:39Z</time>
      </trkpt>
      <trkpt lat="43.16531" lon="5.76794">
        <ele>49.25071</ele>
        <time>2022-08-19T05:06:41Z</time>
      </trkpt>
      <trkpt lat="43.1654" lon="5.76805">
        <ele>49.526955</ele>
        <time>2022-08-19T05:06:43Z</time>
      </trkpt>
      <trkpt lat="43.16549" lon="5.76814">
        <ele>49.640923</ele>
        <time>2022-08-19T05:06:45Z</time>
      </trkpt>
      <trkpt lat="43.16559" lon="5.76822">
        <ele>49.824436</ele>
        <time>2022-08-19T05:06:47Z</time>
      </trkpt>
      <trkpt lat="43.16568" lon="5.76828">
        <ele>49.894146</ele>
        <time>2022-08-19T05:06:49Z</time>
      </trkpt>
      <trkpt lat="43.16579" lon="5.76833">
        <ele>49.984596</ele>
        <time>2022-08-19T05:06:51Z</time>
      </trkpt>
      <trkpt lat="43.1659" lon="5.76837">
        <ele>50.003395</ele>
        <time>2022-08-19T05:06:53Z</time>
      </trkpt>
      <trkpt lat="43.16602" lon="5.76839">
        <ele>49.986549</ele>
        <time>2022-08-19T05:06:55Z</time>
      </trkpt>
      <trkpt lat="43.16613" lon="5.76841">
        <ele>49.950985</ele>
        <time>2022-08-19T05:06:57Z</time>
      </trkpt>
      <trkpt lat="43.16624" lon="5.76843">
        <ele>49.828369</ele>
        <time>2022-08-19T05:06:59Z</time>
      </trkpt>
      <trkpt lat="43.16636" lon="5.76847">
        <ele>49.643002</ele>
        <time>2022-08-19T05:07:01Z</time>
      </trkpt>
      <trkpt lat="43.16646" lon="5.76851">
        <ele>49.529045</ele>
        <time>2022-08-19T05:07:03Z</time>
      </trkpt>
      <trkpt lat="43.16657" lon="5.76856">
        <ele>49.261375</ele>
        <time>2022-08-19T05:07:05Z</time>
      </trkpt>
      <trkpt lat="43.16666" lon="5.76861">
        <ele>49.110916</ele>
        <time>2022-08-19T05:07:07Z</time>
      </trkpt>
      <trkpt lat="43.16676" lon="5.76866">
        <ele>48.77718</ele>
        <time>2022-08-19T05:07:09Z</time>
      </trkpt>
      <trkpt lat="43.16686" lon="5.76872">
        <ele>48.409702</ele>
        <time>2022-08-19T05:07:11Z</time>
      </trkpt>
      <trkpt lat="43.16694" lon="5.76879">
        <ele>48.216972</ele>
        <time>2022-08-19T05:07:13Z</time>
      </trkpt>
      <trkpt lat="43.16703" lon="5.76887">
        <ele>47.820179</ele>
        <time>2022-08-19T05:07:15Z</time>
      </trkpt>
      <trkpt lat="43.16711" lon="5.76893">
        <ele>47.618366</ele>
        <time>2022-08-19T05:07:17Z</time>
      </trkpt>
      <trkpt lat="43.16719" lon="5.769">
        <ele>47.212936</ele>
        <time>2022-08-19T05:07:19Z</time>
      </trkpt>
      <trkpt lat="43.16728" lon="5.76906">
        <ele>47.011261</ele>
        <time>2022-08-19T05:07:21Z</time>
      </trkpt>
      <trkpt lat="43.16735" lon="5.76911">
        <ele>46.614525</ele>
        <time>2022-08-19T05:07:23Z</time>
      </trkpt>
      <trkpt lat="43.16742" lon="5.76916">
        <ele>46.230431</ele>
        <time>2022-08-19T05:07:25Z</time>
      </trkpt>
      <trkpt lat="43.16751" lon="5.76921">
        <ele>46.043972</ele>
        <time>2022-08-19T05:07:27Z</time>
      </trkpt>
      <trkpt lat="43.16759" lon="5.76928">
        <ele>45.685436</ele>
        <time>2022-08-19T05:07:29Z</time>
      </trkpt>
      <trkpt lat="43.16768" lon="5.76935">
        <ele>45.516338</ele>
        <time>2022-08-19T05:07:31Z</time>
      </trkpt>
      <trkpt lat="43.16777" lon="5.76942">
        <ele>45.207985</ele>
        <time>2022-08-19T05:07:33Z</time>
      </trkpt>
      <trkpt lat="43.16786" lon="5.7695">
        <ele>45.069328</ele>
        <time>2022-08-19T05:07:35Z</time>
      </trkpt>
      <trkpt lat="43.16795" lon="5.76958">
        <ele>44.827827</ele>
        <time>2022-08-19T05:07:37Z</time>
      </trkpt>
      <trkpt lat="43.16804" lon="5.76965">
        <ele>44.629517</ele>
        <time>2022-08-19T05:07:39Z</time>
      </trkpt>
      <trkpt lat="43.16812" lon="5.76972">
        <ele>44.545906</ele>
        <time>2022-08-19T05:07:41Z</time>
      </trkpt>
      <trkpt lat="43.1682" lon="5.76981">
        <ele>44.415909</ele>
        <time>2022-08-19T05:07:43Z</time>
      </trkpt>
      <trkpt lat="43.16827" lon="5.7699">
        <ele>44.374382</ele>
        <time>2022-08-19T05:07:45Z</time>
      </trkpt>
      <trkpt lat="43.16834" lon="5.77001">
        <ele>44.35384</ele>
        <time>2022-08-19T05:07:47Z</time>
      </trkpt>
      <trkpt lat="43.16839" lon="5.77012">
        <ele>44.42944</ele>
        <time>2022-08-19T05:07:49Z</time>
      </trkpt>
      <trkpt lat="43.16844" lon="5.77023">
        <ele>44.504494</ele>
        <time>2022-08-19T05:07:51Z</time>
      </trkpt>
      <trkpt lat="43.16848" lon="5.77035">
        <ele>44.723694</ele>
        <time>2022-08-19T05:07:53Z</time>
      </trkpt>
      <trkpt lat="43.16851" lon="5.77048">
        <ele>44.864769</ele>
        <time>2022-08-19T05:07:55Z</time>
      </trkpt>
      <trkpt lat="43.16855" lon="5.77059">
        <ele>45.200027</ele>
        <time>2022-08-19T05:07:57Z</time>
      </trkpt>
      <trkpt lat="43.16857" lon="5.77072">
        <ele>45.391045</ele>
        <time>2022-08-19T05:07:59Z</time>
      </trkpt>
      <trkpt lat="43.16859" lon="5.77084">
        <ele>45.811398</ele>
        <time>2022-08-19T05:08:01Z</time>
      </trkpt>
      <trkpt lat="43.16862" lon="5.77096">
        <ele>46.265633</ele>
        <time>2022-08-19T05:08:03Z</time>
      </trkpt>
      <trkpt lat="43.16865" lon="5.77108">
        <ele>46.498714</ele>
        <time>2022-08-19T05:08:05Z</time>
      </trkpt>
      <trkpt lat="43.16869" lon="5.77118">
        <ele>46.964237</ele>
        <time>2022-08-19T05:08:07Z</time>
      </trkpt>
      <trkpt lat="43.16874" lon="5.77128">
        <ele>47.193478</ele>
        <time>2022-08-19T05:08:09Z</time>
      </trkpt>
      <trkpt lat="43.16878" lon="5.77138">
        <ele>47.640945</ele>
        <time>2022-08-19T05:08:11Z</time>
      </trkpt>
      <trkpt lat="43.16884" lon="5.77147">
        <ele>47.858837</ele>
        <time>2022-08-19T05:08:13Z</time>
      </trkpt>
      <trkpt lat="43.1689" lon="5.77153">
        <ele>48.283058</ele>
        <time>2022-08-19T05:08:15Z</time>
      </trkpt>
      <trkpt lat="43.16898" lon="5.77157">
        <ele>48.489563</ele>
        <time>2022-08-19T05:08:17Z</time>
      </trkpt>
      <trkpt lat="43.16906" lon="5.77161">
        <ele>48.891899</ele>
        <time>2022-08-19T05:08:19Z</time>
      </trkpt>
      <trkpt lat="43.16916" lon="5.77164">
        <ele>49.282627</ele>
        <time>2022-08-19T05:08:21Z</time>
      </trkpt>
      <trkpt lat="43.16925" lon="5.77166">
        <ele>49.474571</ele>
        <time>2022-08-19T05:08:23Z</time>
      </trkpt>
      <trkpt lat="43.16935" lon="5.77168">
        <ele>49.857689</ele>
        <time>2022-08-19T05:08:25Z</time>
      </trkpt>
      <trkpt lat="43.16946" lon="5.77168">
        <ele>50.050186</ele>
        <time>2022-08-19T05:08:27Z</time>
      </trkpt>
      <trkpt lat="43.16957" lon="5.77168">
        <ele>50.439224</ele>
        <time>2022-08-19T05:08:29Z</time>
      </trkpt>
      <trkpt lat="43.16968" lon="5.77169">
        <ele>50.841805</ele>
        <time>2022-08-19T05:08:31Z</time>
      </trkpt>
      <trkpt lat="43.1698" lon="5.77169">
        <ele>51.050941</ele>
        <time>2022-08-19T05:08:33Z</time>
      </trkpt>
      <trkpt lat="43.1699" lon="5.77169">
        <ele>51.48336</ele>
        <time>2022-08-19T05:08:35Z</time>
      </trkpt>
      <trkpt lat="43.17001" lon="5.77168">
        <ele>51.703785</ele>
        <time>2022-08-19T05:08:37Z</time>
      </trkpt>
      <trkpt lat="43.17012" lon="5.77167">
        <ele>52.147339</ele>
        <time>2022-08-19T05:08:39Z</time>
      </trkpt>
      <trkpt lat="43.17022" lon="5.77165">
        <ele>52.370506</ele>
        <time>2022-08-19T05:08:41Z</time>
      </trkpt>
      <trkpt lat="43.17033" lon="5.77163">
        <ele>52.82243</ele>
        <time>2022-08-19T05:08:43Z</time>
      </trkpt>
      <trkpt lat="43.17043" lon="5.77161">
        <ele>53.052483</ele>
        <time>2022-08-19T05:08:45Z</time>
      </trkpt>
      <trkpt lat="43.17054" lon="5.77158">
        <ele>53.522602</ele>
        <time>2022-08-19T05:08:47Z</time>
      </trkpt>
      <trkpt lat="43.17064" lon="5.77154">
        <ele>54.012474</ele>
        <time>2022-08-19T05:08:49Z</time>
      </trkpt>
      <trkpt lat="43.17074" lon="5.77151">
        <ele>54.269135</ele>
        <time>2022-08-19T05:08:51Z</time>
      </trkpt>
      <trkpt lat="43.17084" lon="5.77147">
        <ele>54.818775</ele>
        <time>2022-08-19T05:08:53Z</time>
      </trkpt>
      <trkpt lat="43.17094" lon="5.77143">
        <ele>55.11512</ele>
        <time>2022-08-19T05:08:55Z</time>
      </trkpt>
      <trkpt lat="43.17103" lon="5.77138">
        <ele>55.753822</ele>
        <time>2022-08-19T05:08:57Z</time>
      </trkpt>
      <trkpt lat="43.17112" lon="5.77133">
        <ele>56.094105</ele>
        <time>2022-08-19T05:08:59Z</time>
      </trkpt>
      <trkpt lat="43.17121" lon="5.77128">
        <ele>56.808399</ele>
        <time>2022-08-19T05:09:01Z</time>
      </trkpt>
      <trkpt lat="43.1713" lon="5.77122">
        <ele>57.179962</ele>
        <time>2022-08-19T05:09:03Z</time>
      </trkpt>
      <trkpt lat="43.17138" lon="5.77116">
        <ele>57.947792</ele>
        <time>2022-08-19T05:09:05Z</time>
      </trkpt>
      <trkpt lat="43.17146" lon="5.7711">
        <ele>58.746117</ele>
        <time>2022-08-19T05:09:07Z</time>
      </trkpt>
      <trkpt lat="43.17154" lon="5.77104">
        <ele>59.155647</ele>
        <time>2022-08-19T05:09:09Z</time>
      </trkpt>
      <trkpt lat="43.17161" lon="5.77096">
        <ele>59.988884</ele>
        <time>2022-08-19T05:09:11Z</time>
      </trkpt>
      <trkpt lat="43.17169" lon="5.7709">
        <ele>60.40852</ele>
        <time>2022-08-19T05:09:13Z</time>
      </trkpt>
      <trkpt lat="43.17177" lon="5.77084">
        <ele>61.245636</ele>
        <time>2022-08-19T05:09:15Z</time>
      </trkpt>
      <trkpt lat="43.17185" lon="5.77078">
        <ele>62.067772</ele>
        <time>2022-08-19T05:09:17Z</time>
      </trkpt>
      <trkpt lat="43.17194" lon="5.77075">
        <ele>62.469166</ele>
        <time>2022-08-19T05:09:19Z</time>
      </trkpt>
      <trkpt lat="43.17203" lon="5.77073">
        <ele>63.242546</ele>
        <time>2022-08-19T05:09:21Z</time>
      </trkpt>
      <trkpt lat="43.17212" lon="5.77072">
        <ele>63.609276</ele>
        <time>2022-08-19T05:09:23Z</time>
      </trkpt>
      <trkpt lat="43.17222" lon="5.77072">
        <ele>64.287392</ele>
        <time>2022-08-19T05:09:25Z</time>
      </trkpt>
      <trkpt lat="43.17233" lon="5.77072">
        <ele>64.592918</ele>
        <time>2022-08-19T05:09:27Z</time>
      </trkpt>
      <trkpt lat="43.17243" lon="5.77073">
        <ele>65.123016</ele>
        <time>2022-08-19T05:09:29Z</time>
      </trkpt>
      <trkpt lat="43.17254" lon="5.77073">
        <ele>65.343307</ele>
        <time>2022-08-19T05:09:31Z</time>
      </trkpt>
      <trkpt lat="43.17264" lon="5.77074">
        <ele>65.68605</ele>
        <time>2022-08-19T05:09:33Z</time>
      </trkpt>
      <trkpt lat="43.17275" lon="5.77074">
        <ele>65.893951</ele>
        <time>2022-08-19T05:09:35Z</time>
      </trkpt>
      <trkpt lat="43.17286" lon="5.77074">
        <ele>65.946999</ele>
        <time>2022-08-19T05:09:37Z</time>
      </trkpt>
      <trkpt lat="43.17296" lon="5.77075">
        <ele>65.952179</ele>
        <time>2022-08-19T05:09:39Z</time>
      </trkpt>
      <trkpt lat="43.17307" lon="5.77075">
        <ele>65.904251</ele>
        <time>2022-08-19T05:09:41Z</time>
      </trkpt>
      <trkpt lat="43.17318" lon="5.77075">
        <ele>65.708519</ele>
        <time>2022-08-19T05:09:43Z</time>
      </trkpt>
      <trkpt lat="43.17328" lon="5.77075">
        <ele>65.56179</ele>
        <time>2022-08-19T05:09:45Z</time>
      </trkpt>
      <trkpt lat="43.17339" lon="5.77075">
        <ele>65.178665</ele>
        <time>2022-08-19T05:09:47Z</time>
      </trkpt>
      <trkpt lat="43.1735" lon="5.77075">
        <ele>64.693848</ele>
        <time>2022-08-19T05:09:49Z</time>
      </trkpt>
      <trkpt lat="43.17362" lon="5.77075">
        <ele>64.42083</ele>
        <time>2022-08-19T05:09:51Z</time>
      </trkpt>
      <trkpt lat="43.17373" lon="5.77075">
        <ele>63.824352</ele>
        <time>2022-08-19T05:09:53Z</time>
      </trkpt>
      <trkpt lat="43.17385" lon="5.77076">
        <ele>63.505707</ele>
        <time>2022-08-19T05:09:55Z</time>
      </trkpt>
      <trkpt lat="43.17396" lon="5.77076">
        <ele>62.841747</ele>
        <time>2022-08-19T05:09:57Z</time>
      </trkpt>
      <trkpt lat="43.17407" lon="5.77076">
        <ele>62.501747</ele>
        <time>2022-08-19T05:09:59Z</time>
      </trkpt>
      <trkpt lat="43.17419" lon="5.77077">
        <ele>61.813698</ele>
        <time>2022-08-19T05:10:01Z</time>
      </trkpt>
      <trkpt lat="43.1743" lon="5.7708">
        <ele>61.12159</ele>
        <time>2022-08-19T05:10:03Z</time>
      </trkpt>
      <trkpt lat="43.17442" lon="5.77086">
        <ele>60.775848</ele>
        <time>2022-08-19T05:10:05Z</time>
      </trkpt>
      <trkpt lat="43.17452" lon="5.77095">
        <ele>60.087852</ele>
        <time>2022-08-19T05:10:07Z</time>
      </trkpt>
      <trkpt lat="43.17461" lon="5.77106">
        <ele>59.746746</ele>
        <time>2022-08-19T05:10:09Z</time>
      </trkpt>
      <trkpt lat="43.17469" lon="5.77118">
        <ele>59.070946</ele>
        <time>2022-08-19T05:10:11Z</time>
      </trkpt>
      <trkpt lat="43.17477" lon="5.77129">
        <ele>58.736366</ele>
        <time>2022-08-19T05:10:13Z</time>
      </trkpt>
      <trkpt lat="43.17485" lon="5.77141">
        <ele>58.076618</ele>
        <time>2022-08-19T05:10:15Z</time>
      </trkpt>
      <trkpt lat="43.17493" lon="5.77154">
        <ele>57.754322</ele>
        <time>2022-08-19T05:10:17Z</time>
      </trkpt>
      <trkpt lat="43.17501" lon="5.77166">
        <ele>57.135815</ele>
        <time>2022-08-19T05:10:19Z</time>
      </trkpt>
      <trkpt lat="43.17508" lon="5.77178">
        <ele>56.844795</ele>
        <time>2022-08-19T05:10:21Z</time>
      </trkpt>
      <trkpt lat="43.17516" lon="5.7719">
        <ele>56.308247</ele>
        <time>2022-08-19T05:10:23Z</time>
      </trkpt>
      <trkpt lat="43.17524" lon="5.772">
        <ele>56.06501</ele>
        <time>2022-08-19T05:10:25Z</time>
      </trkpt>
      <trkpt lat="43.17532" lon="5.7721">
        <ele>55.631226</ele>
        <time>2022-08-19T05:10:27Z</time>
      </trkpt>
      <trkpt lat="43.17541" lon="5.7722">
        <ele>55.441505</ele>
        <time>2022-08-19T05:10:29Z</time>
      </trkpt>
      <trkpt lat="43.1755" lon="5.77228">
        <ele>55.117237</ele>
        <time>2022-08-19T05:10:31Z</time>
      </trkpt>
      <trkpt lat="43.1756" lon="5.77234">
        <ele>54.86496</ele>
        <time>2022-08-19T05:10:33Z</time>
      </trkpt>
      <trkpt lat="43.17569" lon="5.7724">
        <ele>54.764046</ele>
        <time>2022-08-19T05:10:35Z</time>
      </trkpt>
      <trkpt lat="43.17577" lon="5.77246">
        <ele>54.607838</ele>
        <time>2022-08-19T05:10:37Z</time>
      </trkpt>
      <trkpt lat="43.17585" lon="5.77252">
        <ele>54.551018</ele>
        <time>2022-08-19T05:10:39Z</time>
      </trkpt>
      <trkpt lat="43.17591" lon="5.77259">
        <ele>54.477814</ele>
        <time>2022-08-19T05:10:41Z</time>
      </trkpt>
      <trkpt lat="43.17598" lon="5.77267">
        <ele>54.460396</ele>
        <time>2022-08-19T05:10:43Z</time>
      </trkpt>
      <trkpt lat="43.17604" lon="5.77275">
        <ele>54.460552</ele>
        <time>2022-08-19T05:10:45Z</time>
      </trkpt>
      <trkpt lat="43.1761" lon="5.77284">
        <ele>54.496166</ele>
        <time>2022-08-19T05:10:47Z</time>
      </trkpt>
      <trkpt lat="43.17615" lon="5.77292">
        <ele>54.52182</ele>
        <time>2022-08-19T05:10:49Z</time>
      </trkpt>
      <trkpt lat="43.1762" lon="5.77302">
        <ele>54.579254</ele>
        <time>2022-08-19T05:10:51Z</time>
      </trkpt>
      <trkpt lat="43.17625" lon="5.77311">
        <ele>54.608665</ele>
        <time>2022-08-19T05:10:53Z</time>
      </trkpt>
      <trkpt lat="43.1763" lon="5.7732">
        <ele>54.665081</ele>
        <time>2022-08-19T05:10:55Z</time>
      </trkpt>
      <trkpt lat="43.17634" lon="5.77329">
        <ele>54.69101</ele>
        <time>2022-08-19T05:10:57Z</time>
      </trkpt>
      <trkpt lat="43.17639" lon="5.77339">
        <ele>54.736946</ele>
        <time>2022-08-19T05:10:59Z</time>
      </trkpt>
      <trkpt lat="43.17644" lon="5.77348">
        <ele>54.757927</ele>
        <time>2022-08-19T05:11:01Z</time>
      </trkpt>
      <trkpt lat="43.17648" lon="5.77357">
        <ele>54.804321</ele>
        <time>2022-08-19T05:11:03Z</time>
      </trkpt>
      <trkpt lat="43.17653" lon="5.77367">
        <ele>54.834259</ele>
        <time>2022-08-19T05:11:05Z</time>
      </trkpt>
      <trkpt lat="43.17658" lon="5.77377">
        <ele>54.91798</ele>
        <time>2022-08-19T05:11:07Z</time>
      </trkpt>
      <trkpt lat="43.17663" lon="5.77386">
        <ele>55.040718</ele>
        <time>2022-08-19T05:11:09Z</time>
      </trkpt>
      <trkpt lat="43.17669" lon="5.77394">
        <ele>55.117523</ele>
        <time>2022-08-19T05:11:11Z</time>
      </trkpt>
      <trkpt lat="43.17674" lon="5.77404">
        <ele>55.300152</ele>
        <time>2022-08-19T05:11:13Z</time>
      </trkpt>
      <trkpt lat="43.17679" lon="5.77414">
        <ele>55.405823</ele>
        <time>2022-08-19T05:11:15Z</time>
      </trkpt>
      <trkpt lat="43.17684" lon="5.77423">
        <ele>55.648262</ele>
        <time>2022-08-19T05:11:17Z</time>
      </trkpt>
      <trkpt lat="43.17688" lon="5.77433">
        <ele>55.787193</ele>
        <time>2022-08-19T05:11:19Z</time>
      </trkpt>
      <trkpt lat="43.17693" lon="5.77442">
        <ele>56.106312</ele>
        <time>2022-08-19T05:11:21Z</time>
      </trkpt>
      <trkpt lat="43.17697" lon="5.77452">
        <ele>56.484547</ele>
        <time>2022-08-19T05:11:23Z</time>
      </trkpt>
      <trkpt lat="43.17702" lon="5.77461">
        <ele>56.696095</ele>
        <time>2022-08-19T05:11:25Z</time>
      </trkpt>
      <trkpt lat="43.17707" lon="5.77469">
        <ele>57.163109</ele>
        <time>2022-08-19T05:11:27Z</time>
      </trkpt>
      <trkpt lat="43.17713" lon="5.77476">
        <ele>57.418201</ele>
        <time>2022-08-19T05:11:29Z</time>
      </trkpt>
      <trkpt lat="43.17719" lon="5.77483">
        <ele>57.961212</ele>
        <time>2022-08-19T05:11:31Z</time>
      </trkpt>
      <trkpt lat="43.17726" lon="5.77488">
        <ele>58.253151</ele>
        <time>2022-08-19T05:11:33Z</time>
      </trkpt>
      <trkpt lat="43.17734" lon="5.77492">
        <ele>58.874859</ele>
        <time>2022-08-19T05:11:35Z</time>
      </trkpt>
      <trkpt lat="43.17741" lon="5.77494">
        <ele>59.20332</ele>
        <time>2022-08-19T05:11:37Z</time>
      </trkpt>
      <trkpt lat="43.1775" lon="5.77495">
        <ele>59.889435</ele>
        <time>2022-08-19T05:11:39Z</time>
      </trkpt>
      <trkpt lat="43.17758" lon="5.77494">
        <ele>60.604095</ele>
        <time>2022-08-19T05:11:41Z</time>
      </trkpt>
      <trkpt lat="43.17765" lon="5.77494">
        <ele>60.968109</ele>
        <time>2022-08-19T05:11:43Z</time>
      </trkpt>
      <trkpt lat="43.17773" lon="5.77494">
        <ele>61.703102</ele>
        <time>2022-08-19T05:11:45Z</time>
      </trkpt>
      <trkpt lat="43.17781" lon="5.77494">
        <ele>62.072365</ele>
        <time>2022-08-19T05:11:47Z</time>
      </trkpt>
      <trkpt lat="43.1779" lon="5.77496">
        <ele>62.811462</ele>
        <time>2022-08-19T05:11:49Z</time>
      </trkpt>
      <trkpt lat="43.17798" lon="5.77498">
        <ele>63.180462</ele>
        <time>2022-08-19T05:11:51Z</time>
      </trkpt>
      <trkpt lat="43.17806" lon="5.77501">
        <ele>63.913567</ele>
        <time>2022-08-19T05:11:53Z</time>
      </trkpt>
      <trkpt lat="43.17814" lon="5.77505">
        <ele>64.275604</ele>
        <time>2022-08-19T05:11:55Z</time>
      </trkpt>
      <trkpt lat="43.17822" lon="5.77508">
        <ele>64.98568</ele>
        <time>2022-08-19T05:11:57Z</time>
      </trkpt>
      <trkpt lat="43.17829" lon="5.77513">
        <ele>65.67247</ele>
        <time>2022-08-19T05:11:59Z</time>
      </trkpt>
      <trkpt lat="43.17836" lon="5.77517">
        <ele>66.00618</ele>
        <time>2022-08-19T05:12:01Z</time>
      </trkpt>
      <trkpt lat="43.17844" lon="5.77521">
        <ele>66.653793</ele>
        <time>2022-08-19T05:12:03Z</time>
      </trkpt>
      <trkpt lat="43.17851" lon="5.77526">
        <ele>66.968437</ele>
        <time>2022-08-19T05:12:05Z</time>
      </trkpt>
      <trkpt lat="43.17857" lon="5.7753">
        <ele>67.57972</ele>
        <time>2022-08-19T05:12:07Z</time>
      </trkpt>
      <trkpt lat="43.17864" lon="5.77535">
        <ele>68.163116</ele>
        <time>2022-08-19T05:12:09Z</time>
      </trkpt>
      <trkpt lat="43.17869" lon="5.77539">
        <ele>68.442055</ele>
        <time>2022-08-19T05:12:11Z</time>
      </trkpt>
      <trkpt lat="43.17876" lon="5.77545">
        <ele>68.970245</ele>
        <time>2022-08-19T05:12:13Z</time>
      </trkpt>
      <trkpt lat="43.17881" lon="5.77551">
        <ele>69.219307</ele>
        <time>2022-08-19T05:12:15Z</time>
      </trkpt>
      <trkpt lat="43.17887" lon="5.77558">
        <ele>69.688545</ele>
        <time>2022-08-19T05:12:17Z</time>
      </trkpt>
      <trkpt lat="43.17893" lon="5.77565">
        <ele>69.909508</ele>
        <time>2022-08-19T05:12:19Z</time>
      </trkpt>
      <trkpt lat="43.17899" lon="5.77572">
        <ele>70.330826</ele>
        <time>2022-08-19T05:12:21Z</time>
      </trkpt>
      <trkpt lat="43.17905" lon="5.7758">
        <ele>70.725151</ele>
        <time>2022-08-19T05:12:23Z</time>
      </trkpt>
      <trkpt lat="43.17911" lon="5.77587">
        <ele>70.912277</ele>
        <time>2022-08-19T05:12:25Z</time>
      </trkpt>
      <trkpt lat="43.17917" lon="5.77593">
        <ele>71.270752</ele>
        <time>2022-08-19T05:12:27Z</time>
      </trkpt>
      <trkpt lat="43.17923" lon="5.776">
        <ele>71.44413</ele>
        <time>2022-08-19T05:12:29Z</time>
      </trkpt>
      <trkpt lat="43.17929" lon="5.77607">
        <ele>71.783615</ele>
        <time>2022-08-19T05:12:31Z</time>
      </trkpt>
      <trkpt lat="43.17936" lon="5.77614">
        <ele>71.951706</ele>
        <time>2022-08-19T05:12:33Z</time>
      </trkpt>
      <trkpt lat="43.17942" lon="5.7762">
        <ele>72.289963</ele>
        <time>2022-08-19T05:12:35Z</time>
      </trkpt>
      <trkpt lat="43.17949" lon="5.77627">
        <ele>72.637848</ele>
        <time>2022-08-19T05:12:37Z</time>
      </trkpt>
      <trkpt lat="43.17956" lon="5.77633">
        <ele>72.817101</ele>
        <time>2022-08-19T05:12:39Z</time>
      </trkpt>
      <trkpt lat="43.17962" lon="5.77639">
        <ele>73.187332</ele>
        <time>2022-08-19T05:12:41Z</time>
      </trkpt>
      <trkpt lat="43.1797" lon="5.77644">
        <ele>73.377808</ele>
        <time>2022-08-19T05:12:43Z</time>
      </trkpt>
      <trkpt lat="43.17978" lon="5.77647">
        <ele>73.766701</ele>
        <time>2022-08-19T05:12:45Z</time>
      </trkpt>
      <trkpt lat="43.17985" lon="5.77651">
        <ele>73.963089</ele>
        <time>2022-08-19T05:12:47Z</time>
      </trkpt>
      <trkpt lat="43.17992" lon="5.77654">
        <ele>74.353745</ele>
        <time>2022-08-19T05:12:49Z</time>
      </trkpt>
      <trkpt lat="43.18" lon="5.77656">
        <ele>74.734581</ele>
        <time>2022-08-19T05:12:51Z</time>
      </trkpt>
      <trkpt lat="43.18008" lon="5.77657">
        <ele>74.918968</ele>
        <time>2022-08-19T05:12:53Z</time>
      </trkpt>
      <trkpt lat="43.18018" lon="5.77658">
        <ele>75.271469</ele>
        <time>2022-08-19T05:12:55Z</time>
      </trkpt>
      <trkpt lat="43.18026" lon="5.77657">
        <ele>75.437782</ele>
        <time>2022-08-19T05:12:57Z</time>
      </trkpt>
      <trkpt lat="43.18035" lon="5.77657">
        <ele>75.746788</ele>
        <time>2022-08-19T05:12:59Z</time>
      </trkpt>
      <trkpt lat="43.18044" lon="5.77658">
        <ele>75.888245</ele>
        <time>2022-08-19T05:13:01Z</time>
      </trkpt>
      <trkpt lat="43.18052" lon="5.77658">
        <ele>76.143242</ele>
        <time>2022-08-19T05:13:03Z</time>
      </trkpt>
      <trkpt lat="43.1806" lon="5.77658">
        <ele>76.256638</ele>
        <time>2022-08-19T05:13:05Z</time>
      </trkpt>
      <trkpt lat="43.18068" lon="5.77658">
        <ele>76.456421</ele>
        <time>2022-08-19T05:13:07Z</time>
      </trkpt>
      <trkpt lat="43.18076" lon="5.77658">
        <ele>76.62188</ele>
        <time>2022-08-19T05:13:09Z</time>
      </trkpt>
      <trkpt lat="43.18084" lon="5.77659">
        <ele>76.692154</ele>
        <time>2022-08-19T05:13:11Z</time>
      </trkpt>
      <trkpt lat="43.18092" lon="5.7766">
        <ele>76.808304</ele>
        <time>2022-08-19T05:13:13Z</time>
      </trkpt>
      <trkpt lat="43.18101" lon="5.77661">
        <ele>76.854408</ele>
        <time>2022-08-19T05:13:15Z</time>
      </trkpt>
      <trkpt lat="43.18109" lon="5.77663">
        <ele>76.92308</ele>
        <time>2022-08-19T05:13:17Z</time>
      </trkpt>
      <trkpt lat="43.18117" lon="5.77664">
        <ele>76.961472</ele>
        <time>2022-08-19T05:13:19Z</time>
      </trkpt>
      <trkpt lat="43.18125" lon="5.77667">
        <ele>76.970039</ele>
        <time>2022-08-19T05:13:21Z</time>
      </trkpt>
      <trkpt lat="43.18133" lon="5.7767">
        <ele>76.96756</ele>
        <time>2022-08-19T05:13:23Z</time>
      </trkpt>
      <trkpt lat="43.1814" lon="5.77674">
        <ele>76.9571</ele>
        <time>2022-08-19T05:13:25Z</time>
      </trkpt>
      <trkpt lat="43.18148" lon="5.77679">
        <ele>76.918442</ele>
        <time>2022-08-19T05:13:27Z</time>
      </trkpt>
      <trkpt lat="43.18156" lon="5.77684">
        <ele>76.890564</ele>
        <time>2022-08-19T05:13:29Z</time>
      </trkpt>
      <trkpt lat="43.18164" lon="5.7769">
        <ele>76.819038</ele>
        <time>2022-08-19T05:13:31Z</time>
      </trkpt>
      <trkpt lat="43.18171" lon="5.77697">
        <ele>76.729362</ele>
        <time>2022-08-19T05:13:33Z</time>
      </trkpt>
      <trkpt lat="43.18179" lon="5.77703">
        <ele>76.678833</ele>
        <time>2022-08-19T05:13:35Z</time>
      </trkpt>
      <trkpt lat="43.18186" lon="5.7771">
        <ele>76.570206</ele>
        <time>2022-08-19T05:13:37Z</time>
      </trkpt>
      <trkpt lat="43.18193" lon="5.77717">
        <ele>76.51506</ele>
        <time>2022-08-19T05:13:39Z</time>
      </trkpt>
      <trkpt lat="43.182" lon="5.77722">
        <ele>76.412552</ele>
        <time>2022-08-19T05:13:41Z</time>
      </trkpt>
      <trkpt lat="43.18207" lon="5.77728">
        <ele>76.368698</ele>
        <time>2022-08-19T05:13:43Z</time>
      </trkpt>
      <trkpt lat="43.18213" lon="5.77734">
        <ele>76.301956</ele>
        <time>2022-08-19T05:13:45Z</time>
      </trkpt>
      <trkpt lat="43.1822" lon="5.7774">
        <ele>76.269058</ele>
        <time>2022-08-19T05:13:47Z</time>
      </trkpt>
      <trkpt lat="43.18227" lon="5.77745">
        <ele>76.267113</ele>
        <time>2022-08-19T05:13:49Z</time>
      </trkpt>
      <trkpt lat="43.18234" lon="5.77751">
        <ele>76.29538</ele>
        <time>2022-08-19T05:13:51Z</time>
      </trkpt>
      <trkpt lat="43.18238" lon="5.77756">
        <ele>76.326393</ele>
        <time>2022-08-19T05:13:53Z</time>
      </trkpt>
      <trkpt lat="43.18244" lon="5.77763">
        <ele>76.423264</ele>
        <time>2022-08-19T05:13:55Z</time>
      </trkpt>
      <trkpt lat="43.1825" lon="5.77769">
        <ele>76.488388</ele>
        <time>2022-08-19T05:13:57Z</time>
      </trkpt>
      <trkpt lat="43.18257" lon="5.77775">
        <ele>76.649666</ele>
        <time>2022-08-19T05:13:59Z</time>
      </trkpt>
      <trkpt lat="43.18263" lon="5.7778">
        <ele>76.745224</ele>
        <time>2022-08-19T05:14:01Z</time>
      </trkpt>
      <trkpt lat="43.18269" lon="5.77787">
        <ele>76.966484</ele>
        <time>2022-08-19T05:14:03Z</time>
      </trkpt>
      <trkpt lat="43.18276" lon="5.77793">
        <ele>77.092636</ele>
        <time>2022-08-19T05:14:05Z</time>
      </trkpt>
      <trkpt lat="43.18283" lon="5.778">
        <ele>77.376755</ele>
        <time>2022-08-19T05:14:07Z</time>
      </trkpt>
      <trkpt lat="43.1829" lon="5.77806">
        <ele>77.703339</ele>
        <time>2022-08-19T05:14:09Z</time>
      </trkpt>
      <trkpt lat="43.18298" lon="5.77813">
        <ele>77.8825</ele>
        <time>2022-08-19T05:14:11Z</time>
      </trkpt>
      <trkpt lat="43.18305" lon="5.77819">
        <ele>78.272949</ele>
        <time>2022-08-19T05:14:13Z</time>
      </trkpt>
      <trkpt lat="43.18313" lon="5.77825">
        <ele>78.484573</ele>
        <time>2022-08-19T05:14:15Z</time>
      </trkpt>
      <trkpt lat="43.1832" lon="5.7783">
        <ele>78.941116</ele>
        <time>2022-08-19T05:14:17Z</time>
      </trkpt>
      <trkpt lat="43.18327" lon="5.77834">
        <ele>79.442612</ele>
        <time>2022-08-19T05:14:19Z</time>
      </trkpt>
      <trkpt lat="43.18334" lon="5.77839">
        <ele>79.710251</ele>
        <time>2022-08-19T05:14:21Z</time>
      </trkpt>
      <trkpt lat="43.18341" lon="5.77844">
        <ele>80.278831</ele>
        <time>2022-08-19T05:14:23Z</time>
      </trkpt>
      <trkpt lat="43.18348" lon="5.77849">
        <ele>80.579567</ele>
        <time>2022-08-19T05:14:25Z</time>
      </trkpt>
      <trkpt lat="43.18354" lon="5.77853">
        <ele>81.213455</ele>
        <time>2022-08-19T05:14:27Z</time>
      </trkpt>
      <trkpt lat="43.18362" lon="5.77857">
        <ele>81.545746</ele>
        <time>2022-08-19T05:14:29Z</time>
      </trkpt>
      <trkpt lat="43.18369" lon="5.7786">
        <ele>82.235703</ele>
        <time>2022-08-19T05:14:31Z</time>
      </trkpt>
      <trkpt lat="43.18376" lon="5.77864">
        <ele>82.950638</ele>
        <time>2022-08-19T05:14:33Z</time>
      </trkpt>
      <trkpt lat="43.18383" lon="5.77867">
        <ele>83.315269</ele>
        <time>2022-08-19T05:14:35Z</time>
      </trkpt>
      <trkpt lat="43.18391" lon="5.7787">
        <ele>84.056572</ele>
        <time>2022-08-19T05:14:37Z</time>
      </trkpt>
      <trkpt lat="43.18398" lon="5.77874">
        <ele>84.432541</ele>
        <time>2022-08-19T05:14:39Z</time>
      </trkpt>
      <trkpt lat="43.18406" lon="5.77878">
        <ele>85.193214</ele>
        <time>2022-08-19T05:14:41Z</time>
      </trkpt>
      <trkpt lat="43.18413" lon="5.77882">
        <ele>85.577538</ele>
        <time>2022-08-19T05:14:43Z</time>
      </trkpt>
      <trkpt lat="43.18421" lon="5.77886">
        <ele>86.353577</ele>
        <time>2022-08-19T05:14:45Z</time>
      </trkpt>
      <trkpt lat="43.18428" lon="5.7789">
        <ele>87.139145</ele>
        <time>2022-08-19T05:14:47Z</time>
      </trkpt>
      <trkpt lat="43.18435" lon="5.77895">
        <ele>87.535034</ele>
        <time>2022-08-19T05:14:49Z</time>
      </trkpt>
      <trkpt lat="43.18442" lon="5.77899">
        <ele>88.330673</ele>
        <time>2022-08-19T05:14:51Z</time>
      </trkpt>
      <trkpt lat="43.18449" lon="5.77904">
        <ele>88.729256</ele>
        <time>2022-08-19T05:14:53Z</time>
      </trkpt>
      <trkpt lat="43.18456" lon="5.77908">
        <ele>89.525665</ele>
        <time>2022-08-19T05:14:55Z</time>
      </trkpt>
      <trkpt lat="43.18464" lon="5.77913">
        <ele>89.922363</ele>
        <time>2022-08-19T05:14:57Z</time>
      </trkpt>
      <trkpt lat="43.1847" lon="5.77918">
        <ele>90.709373</ele>
        <time>2022-08-19T05:14:59Z</time>
      </trkpt>
      <trkpt lat="43.18477" lon="5.77923">
        <ele>91.482704</ele>
        <time>2022-08-19T05:15:01Z</time>
      </trkpt>
      <trkpt lat="43.18483" lon="5.77929">
        <ele>91.862564</ele>
        <time>2022-08-19T05:15:03Z</time>
      </trkpt>
      <trkpt lat="43.18489" lon="5.77935">
        <ele>92.606461</ele>
        <time>2022-08-19T05:15:05Z</time>
      </trkpt>
      <trkpt lat="43.18495" lon="5.77941">
        <ele>92.969955</ele>
        <time>2022-08-19T05:15:07Z</time>
      </trkpt>
      <trkpt lat="43.18501" lon="5.77948">
        <ele>93.679283</ele>
        <time>2022-08-19T05:15:09Z</time>
      </trkpt>
      <trkpt lat="43.18507" lon="5.77954">
        <ele>94.024979</ele>
        <time>2022-08-19T05:15:11Z</time>
      </trkpt>
      <trkpt lat="43.18514" lon="5.7796">
        <ele>94.697952</ele>
        <time>2022-08-19T05:15:13Z</time>
      </trkpt>
      <trkpt lat="43.18521" lon="5.77967">
        <ele>95.024696</ele>
        <time>2022-08-19T05:15:15Z</time>
      </trkpt>
      <trkpt lat="43.18528" lon="5.77973">
        <ele>95.656395</ele>
        <time>2022-08-19T05:15:17Z</time>
      </trkpt>
      <trkpt lat="43.18534" lon="5.7798">
        <ele>95.960228</ele>
        <time>2022-08-19T05:15:19Z</time>
      </trkpt>
      <trkpt lat="43.18541" lon="5.77987">
        <ele>96.541344</ele>
        <time>2022-08-19T05:15:21Z</time>
      </trkpt>
      <trkpt lat="43.18546" lon="5.77995">
        <ele>96.818077</ele>
        <time>2022-08-19T05:15:23Z</time>
      </trkpt>
      <trkpt lat="43.18552" lon="5.78004">
        <ele>97.343323</ele>
        <time>2022-08-19T05:15:25Z</time>
      </trkpt>
      <trkpt lat="43.18557" lon="5.78012">
        <ele>97.830368</ele>
        <time>2022-08-19T05:15:27Z</time>
      </trkpt>
      <trkpt lat="43.18561" lon="5.78021">
        <ele>98.059799</ele>
        <time>2022-08-19T05:15:29Z</time>
      </trkpt>
      <trkpt lat="43.18566" lon="5.7803">
        <ele>98.492294</ele>
        <time>2022-08-19T05:15:31Z</time>
      </trkpt>
      <trkpt lat="43.1857" lon="5.78038">
        <ele>98.696739</ele>
        <time>2022-08-19T05:15:33Z</time>
      </trkpt>
      <trkpt lat="43.18575" lon="5.78046">
        <ele>99.085182</ele>
        <time>2022-08-19T05:15:35Z</time>
      </trkpt>
      <trkpt lat="43.1858" lon="5.78054">
        <ele>99.449852</ele>
        <time>2022-08-19T05:15:37Z</time>
      </trkpt>
      <trkpt lat="43.18584" lon="5.78062">
        <ele>99.624374</ele>
        <time>2022-08-19T05:15:39Z</time>
      </trkpt>
      <trkpt lat="43.18589" lon="5.7807">
        <ele>99.96067</ele>
        <time>2022-08-19T05:15:41Z</time>
      </trkpt>
      <trkpt lat="43.18593" lon="5.78078">
        <ele>100.123634</ele>
        <time>2022-08-19T05:15:43Z</time>
      </trkpt>
      <trkpt lat="43.18598" lon="5.78086">
        <ele>100.441124</ele>
        <time>2022-08-19T05:15:45Z</time>
      </trkpt>
      <trkpt lat="43.18603" lon="5.78094">
        <ele>100.596176</ele>
        <time>2022-08-19T05:15:47Z</time>
      </trkpt>
      <trkpt lat="43.18608" lon="5.78101">
        <ele>100.900681</ele>
        <time>2022-08-19T05:15:49Z</time>
      </trkpt>
      <trkpt lat="43.18613" lon="5.78109">
        <ele>101.201126</ele>
        <time>2022-08-19T05:15:51Z</time>
      </trkpt>
      <trkpt lat="43.18619" lon="5.78116">
        <ele>101.351158</ele>
        <time>2022-08-19T05:15:53Z</time>
      </trkpt>
      <trkpt lat="43.18625" lon="5.78123">
        <ele>101.652969</ele>
        <time>2022-08-19T05:15:55Z</time>
      </trkpt>
      <trkpt lat="43.1863" lon="5.78129">
        <ele>101.805283</ele>
        <time>2022-08-19T05:15:57Z</time>
      </trkpt>
      <trkpt lat="43.18637" lon="5.78135">
        <ele>102.113464</ele>
        <time>2022-08-19T05:15:59Z</time>
      </trkpt>
      <trkpt lat="43.18644" lon="5.78139">
        <ele>102.269104</ele>
        <time>2022-08-19T05:16:01Z</time>
      </trkpt>
      <trkpt lat="43.18651" lon="5.78144">
        <ele>102.583389</ele>
        <time>2022-08-19T05:16:03Z</time>
      </trkpt>
      <trkpt lat="43.18658" lon="5.78148">
        <ele>102.902817</ele>
        <time>2022-08-19T05:16:05Z</time>
      </trkpt>
      <trkpt lat="43.18665" lon="5.78152">
        <ele>103.065445</ele>
        <time>2022-08-19T05:16:07Z</time>
      </trkpt>
      <trkpt lat="43.18672" lon="5.78156">
        <ele>103.398972</ele>
        <time>2022-08-19T05:16:09Z</time>
      </trkpt>
      <trkpt lat="43.1868" lon="5.7816">
        <ele>103.570999</ele>
        <time>2022-08-19T05:16:11Z</time>
      </trkpt>
      <trkpt lat="43.18688" lon="5.78164">
        <ele>103.928688</ele>
        <time>2022-08-19T05:16:13Z</time>
      </trkpt>
      <trkpt lat="43.18696" lon="5.78168">
        <ele>104.115639</ele>
        <time>2022-08-19T05:16:15Z</time>
      </trkpt>
      <trkpt lat="43.18704" lon="5.78174">
        <ele>104.508011</ele>
        <time>2022-08-19T05:16:17Z</time>
      </trkpt>
      <trkpt lat="43.18712" lon="5.78178">
        <ele>104.927139</ele>
        <time>2022-08-19T05:16:19Z</time>
      </trkpt>
      <trkpt lat="43.18718" lon="5.78183">
        <ele>105.146828</ele>
        <time>2022-08-19T05:16:21Z</time>
      </trkpt>
      <trkpt lat="43.18725" lon="5.78186">
        <ele>105.605576</ele>
        <time>2022-08-19T05:16:23Z</time>
      </trkpt>
      <trkpt lat="43.18733" lon="5.78189">
        <ele>105.843552</ele>
        <time>2022-08-19T05:16:25Z</time>
      </trkpt>
      <trkpt lat="43.18739" lon="5.78193">
        <ele>106.33252</ele>
        <time>2022-08-19T05:16:27Z</time>
      </trkpt>
      <trkpt lat="43.18746" lon="5.78197">
        <ele>106.581299</ele>
        <time>2022-08-19T05:16:29Z</time>
      </trkpt>
      <trkpt lat="43.18752" lon="5.78201">
        <ele>107.082901</ele>
        <time>2022-08-19T05:16:31Z</time>
      </trkpt>
      <trkpt lat="43.1876" lon="5.78205">
        <ele>107.585655</ele>
        <time>2022-08-19T05:16:33Z</time>
      </trkpt>
      <trkpt lat="43.18769" lon="5.78211">
        <ele>107.836472</ele>
        <time>2022-08-19T05:16:35Z</time>
      </trkpt>
      <trkpt lat="43.18776" lon="5.78215">
        <ele>108.336197</ele>
        <time>2022-08-19T05:16:37Z</time>
      </trkpt>
      <trkpt lat="43.18781" lon="5.78219">
        <ele>108.585129</ele>
        <time>2022-08-19T05:16:39Z</time>
      </trkpt>
      <trkpt lat="43.18787" lon="5.78224">
        <ele>109.081787</ele>
        <time>2022-08-19T05:16:41Z</time>
      </trkpt>
      <trkpt lat="43.18794" lon="5.78227">
        <ele>109.329674</ele>
        <time>2022-08-19T05:16:43Z</time>
      </trkpt>
      <trkpt lat="43.18802" lon="5.78231">
        <ele>109.824402</ele>
        <time>2022-08-19T05:16:45Z</time>
      </trkpt>
      <trkpt lat="43.1881" lon="5.78235">
        <ele>110.071022</ele>
        <time>2022-08-19T05:16:47Z</time>
      </trkpt>
      <trkpt lat="43.18818" lon="5.78237">
        <ele>110.562744</ele>
        <time>2022-08-19T05:16:49Z</time>
      </trkpt>
      <trkpt lat="43.18825" lon="5.78239">
        <ele>110.807701</ele>
        <time>2022-08-19T05:16:51Z</time>
      </trkpt>
      <trkpt lat="43.18832" lon="5.78241">
        <ele>111.295303</ele>
        <time>2022-08-19T05:16:53Z</time>
      </trkpt>
      <trkpt lat="43.1884" lon="5.78242">
        <ele>111.776367</ele>
        <time>2022-08-19T05:16:55Z</time>
      </trkpt>
      <trkpt lat="43.18848" lon="5.78242">
        <ele>112.013046</ele>
        <time>2022-08-19T05:16:57Z</time>
      </trkpt>
      <trkpt lat="43.18856" lon="5.78242">
        <ele>112.476059</ele>
        <time>2022-08-19T05:16:59Z</time>
      </trkpt>
      <trkpt lat="43.18864" lon="5.78241">
        <ele>112.701584</ele>
        <time>2022-08-19T05:17:01Z</time>
      </trkpt>
      <trkpt lat="43.18872" lon="5.78241">
        <ele>113.138596</ele>
        <time>2022-08-19T05:17:03Z</time>
      </trkpt>
      <trkpt lat="43.18879" lon="5.78242">
        <ele>113.349327</ele>
        <time>2022-08-19T05:17:05Z</time>
      </trkpt>
      <trkpt lat="43.18887" lon="5.78244">
        <ele>113.753616</ele>
        <time>2022-08-19T05:17:07Z</time>
      </trkpt>
      <trkpt lat="43.18895" lon="5.78247">
        <ele>114.133865</ele>
        <time>2022-08-19T05:17:09Z</time>
      </trkpt>
      <trkpt lat="43.18903" lon="5.7825">
        <ele>114.315125</ele>
        <time>2022-08-19T05:17:11Z</time>
      </trkpt>
      <trkpt lat="43.1891" lon="5.78254">
        <ele>114.661011</ele>
        <time>2022-08-19T05:17:13Z</time>
      </trkpt>
      <trkpt lat="43.18916" lon="5.78258">
        <ele>114.826134</ele>
        <time>2022-08-19T05:17:15Z</time>
      </trkpt>
      <trkpt lat="43.18922" lon="5.78263">
        <ele>115.142944</ele>
        <time>2022-08-19T05:17:17Z</time>
      </trkpt>
      <trkpt lat="43.18929" lon="5.78268">
        <ele>115.446922</ele>
        <time>2022-08-19T05:17:19Z</time>
      </trkpt>
      <trkpt lat="43.18935" lon="5.78273">
        <ele>115.596291</ele>
        <time>2022-08-19T05:17:21Z</time>
      </trkpt>
      <trkpt lat="43.1894" lon="5.78278">
        <ele>115.893631</ele>
        <time>2022-08-19T05:17:23Z</time>
      </trkpt>
      <trkpt lat="43.18947" lon="5.78283">
        <ele>116.042725</ele>
        <time>2022-08-19T05:17:25Z</time>
      </trkpt>
      <trkpt lat="43.18953" lon="5.78289">
        <ele>116.343834</ele>
        <time>2022-08-19T05:17:27Z</time>
      </trkpt>
      <trkpt lat="43.18959" lon="5.78294">
        <ele>116.496155</ele>
        <time>2022-08-19T05:17:29Z</time>
      </trkpt>
      <trkpt lat="43.18966" lon="5.78298">
        <ele>116.804848</ele>
        <time>2022-08-19T05:17:31Z</time>
      </trkpt>
      <trkpt lat="43.18973" lon="5.78303">
        <ele>116.961777</ele>
        <time>2022-08-19T05:17:33Z</time>
      </trkpt>
      <trkpt lat="43.1898" lon="5.78308">
        <ele>117.282669</ele>
        <time>2022-08-19T05:17:35Z</time>
      </trkpt>
      <trkpt lat="43.18986" lon="5.78315">
        <ele>117.614243</ele>
        <time>2022-08-19T05:17:37Z</time>
      </trkpt>
      <trkpt lat="43.18992" lon="5.78321">
        <ele>117.784103</ele>
        <time>2022-08-19T05:17:39Z</time>
      </trkpt>
      <trkpt lat="43.19" lon="5.78327">
        <ele>118.132668</ele>
        <time>2022-08-19T05:17:41Z</time>
      </trkpt>
      <trkpt lat="43.19006" lon="5.78333">
        <ele>118.31205</ele>
        <time>2022-08-19T05:17:43Z</time>
      </trkpt>
      <trkpt lat="43.19012" lon="5.78341">
        <ele>118.68367</ele>
        <time>2022-08-19T05:17:45Z</time>
      </trkpt>
      <trkpt lat="43.19018" lon="5.78348">
        <ele>118.876968</ele>
        <time>2022-08-19T05:17:47Z</time>
      </trkpt>
      <trkpt lat="43.19025" lon="5.78355">
        <ele>119.281479</ele>
        <time>2022-08-19T05:17:49Z</time>
      </trkpt>
      <trkpt lat="43.19031" lon="5.78361">
        <ele>119.493591</ele>
        <time>2022-08-19T05:17:51Z</time>
      </trkpt>
      <trkpt lat="43.19038" lon="5.78367">
        <ele>119.939499</ele>
        <time>2022-08-19T05:17:53Z</time>
      </trkpt>
      <trkpt lat="43.19045" lon="5.78373">
        <ele>120.415733</ele>
        <time>2022-08-19T05:17:55Z</time>
      </trkpt>
      <trkpt lat="43.19051" lon="5.7838">
        <ele>120.665268</ele>
        <time>2022-08-19T05:17:57Z</time>
      </trkpt>
      <trkpt lat="43.19058" lon="5.78386">
        <ele>121.185837</ele>
        <time>2022-08-19T05:17:59Z</time>
      </trkpt>
      <trkpt lat="43.19064" lon="5.78392">
        <ele>121.456139</ele>
        <time>2022-08-19T05:18:01Z</time>
      </trkpt>
      <trkpt lat="43.1907" lon="5.78398">
        <ele>122.01561</ele>
        <time>2022-08-19T05:18:03Z</time>
      </trkpt>
      <trkpt lat="43.19077" lon="5.78405">
        <ele>122.304123</ele>
        <time>2022-08-19T05:18:05Z</time>
      </trkpt>
      <trkpt lat="43.19084" lon="5.78411">
        <ele>122.898132</ele>
        <time>2022-08-19T05:18:07Z</time>
      </trkpt>
      <trkpt lat="43.1909" lon="5.78417">
        <ele>123.514992</ele>
        <time>2022-08-19T05:18:09Z</time>
      </trkpt>
      <trkpt lat="43.19096" lon="5.78425">
        <ele>123.832253</ele>
        <time>2022-08-19T05:18:11Z</time>
      </trkpt>
      <trkpt lat="43.19103" lon="5.78432">
        <ele>124.484657</ele>
        <time>2022-08-19T05:18:13Z</time>
      </trkpt>
      <trkpt lat="43.19109" lon="5.78439">
        <ele>124.819595</ele>
        <time>2022-08-19T05:18:15Z</time>
      </trkpt>
      <trkpt lat="43.19115" lon="5.78447">
        <ele>125.505753</ele>
        <time>2022-08-19T05:18:17Z</time>
      </trkpt>
      <trkpt lat="43.1912" lon="5.78455">
        <ele>125.855942</ele>
        <time>2022-08-19T05:18:19Z</time>
      </trkpt>
      <trkpt lat="43.19126" lon="5.78464">
        <ele>126.568214</ele>
        <time>2022-08-19T05:18:21Z</time>
      </trkpt>
      <trkpt lat="43.19131" lon="5.78472">
        <ele>126.929611</ele>
        <time>2022-08-19T05:18:23Z</time>
      </trkpt>
      <trkpt lat="43.19135" lon="5.78482">
        <ele>127.661453</ele>
        <time>2022-08-19T05:18:25Z</time>
      </trkpt>
      <trkpt lat="43.1914" lon="5.78491">
        <ele>128.031342</ele>
        <time>2022-08-19T05:18:27Z</time>
      </trkpt>
      <trkpt lat="43.19143" lon="5.78501">
        <ele>128.778122</ele>
        <time>2022-08-19T05:18:29Z</time>
      </trkpt>
      <trkpt lat="43.19146" lon="5.78511">
        <ele>129.532166</ele>
        <time>2022-08-19T05:18:31Z</time>
      </trkpt>
      <trkpt lat="43.19149" lon="5.78521">
        <ele>129.910233</ele>
        <time>2022-08-19T05:18:33Z</time>
      </trkpt>
      <trkpt lat="43.19151" lon="5.7853">
        <ele>130.663391</ele>
        <time>2022-08-19T05:18:35Z</time>
      </trkpt>
      <trkpt lat="43.19153" lon="5.7854">
        <ele>131.036346</ele>
        <time>2022-08-19T05:18:37Z</time>
      </trkpt>
      <trkpt lat="43.19154" lon="5.7855">
        <ele>131.770721</ele>
        <time>2022-08-19T05:18:39Z</time>
      </trkpt>
      <trkpt lat="43.19155" lon="5.7856">
        <ele>132.130753</ele>
        <time>2022-08-19T05:18:41Z</time>
      </trkpt>
      <trkpt lat="43.19156" lon="5.7857">
        <ele>132.834686</ele>
        <time>2022-08-19T05:18:43Z</time>
      </trkpt>
      <trkpt lat="43.19156" lon="5.7858">
        <ele>133.515732</ele>
        <time>2022-08-19T05:18:45Z</time>
      </trkpt>
      <trkpt lat="43.19156" lon="5.7859">
        <ele>133.847626</ele>
        <time>2022-08-19T05:18:47Z</time>
      </trkpt>
      <trkpt lat="43.19156" lon="5.786">
        <ele>134.495148</ele>
        <time>2022-08-19T05:18:49Z</time>
      </trkpt>
      <trkpt lat="43.19157" lon="5.78609">
        <ele>134.811401</ele>
        <time>2022-08-19T05:18:51Z</time>
      </trkpt>
      <trkpt lat="43.19157" lon="5.78619">
        <ele>135.429413</ele>
        <time>2022-08-19T05:18:53Z</time>
      </trkpt>
      <trkpt lat="43.19156" lon="5.78629">
        <ele>135.731049</ele>
        <time>2022-08-19T05:18:55Z</time>
      </trkpt>
      <trkpt lat="43.19156" lon="5.78639">
        <ele>136.319214</ele>
        <time>2022-08-19T05:18:57Z</time>
      </trkpt>
      <trkpt lat="43.19156" lon="5.78649">
        <ele>136.885666</ele>
        <time>2022-08-19T05:18:59Z</time>
      </trkpt>
      <trkpt lat="43.19156" lon="5.7866">
        <ele>137.160126</ele>
        <time>2022-08-19T05:19:01Z</time>
      </trkpt>
      <trkpt lat="43.19156" lon="5.7867">
        <ele>137.69046</ele>
        <time>2022-08-19T05:19:03Z</time>
      </trkpt>
      <trkpt lat="43.19156" lon="5.7868">
        <ele>137.94603</ele>
        <time>2022-08-19T05:19:05Z</time>
      </trkpt>
      <trkpt lat="43.19156" lon="5.78691">
        <ele>138.437531</ele>
        <time>2022-08-19T05:19:07Z</time>
      </trkpt>
      <trkpt lat="43.19156" lon="5.78702">
        <ele>138.673431</ele>
        <time>2022-08-19T05:19:09Z</time>
      </trkpt>
      <trkpt lat="43.19156" lon="5.78713">
        <ele>139.127075</ele>
        <time>2022-08-19T05:19:11Z</time>
      </trkpt>
      <trkpt lat="43.19157" lon="5.78723">
        <ele>139.559113</ele>
        <time>2022-08-19T05:19:13Z</time>
      </trkpt>
      <trkpt lat="43.19158" lon="5.78733">
        <ele>139.767792</ele>
        <time>2022-08-19T05:19:15Z</time>
      </trkpt>
      <trkpt lat="43.19159" lon="5.78743">
        <ele>140.172333</ele>
        <time>2022-08-19T05:19:17Z</time>
      </trkpt>
      <trkpt lat="43.19161" lon="5.78753">
        <ele>140.368805</ele>
        <time>2022-08-19T05:19:19Z</time>
      </trkpt>
      <trkpt lat="43.19164" lon="5.78763">
        <ele>140.751968</ele>
        <time>2022-08-19T05:19:21Z</time>
      </trkpt>
      <trkpt lat="43.19166" lon="5.78772">
        <ele>140.939255</ele>
        <time>2022-08-19T05:19:23Z</time>
      </trkpt>
      <trkpt lat="43.19169" lon="5.78781">
        <ele>141.307938</ele>
        <time>2022-08-19T05:19:25Z</time>
      </trkpt>
      <trkpt lat="43.19172" lon="5.7879">
        <ele>141.673172</ele>
        <time>2022-08-19T05:19:27Z</time>
      </trkpt>
      <trkpt lat="43.19175" lon="5.788">
        <ele>141.855621</ele>
        <time>2022-08-19T05:19:29Z</time>
      </trkpt>
      <trkpt lat="43.19178" lon="5.78809">
        <ele>142.22139</ele>
        <time>2022-08-19T05:19:31Z</time>
      </trkpt>
      <trkpt lat="43.19181" lon="5.78818">
        <ele>142.40506</ele>
        <time>2022-08-19T05:19:33Z</time>
      </trkpt>
      <trkpt lat="43.19185" lon="5.78828">
        <ele>142.774948</ele>
        <time>2022-08-19T05:19:35Z</time>
      </trkpt>
      <trkpt lat="43.19189" lon="5.78837">
        <ele>142.961334</ele>
        <time>2022-08-19T05:19:37Z</time>
      </trkpt>
      <trkpt lat="43.19193" lon="5.78847">
        <ele>143.336761</ele>
        <time>2022-08-19T05:19:39Z</time>
      </trkpt>
      <trkpt lat="43.19197" lon="5.78856">
        <ele>143.714874</ele>
        <time>2022-08-19T05:19:41Z</time>
      </trkpt>
      <trkpt lat="43.19199" lon="5.78865">
        <ele>143.904831</ele>
        <time>2022-08-19T05:19:43Z</time>
      </trkpt>
      <trkpt lat="43.19202" lon="5.78875">
        <ele>144.286591</ele>
        <time>2022-08-19T05:19:45Z</time>
      </trkpt>
      <trkpt lat="43.19204" lon="5.78885">
        <ele>144.478394</ele>
        <time>2022-08-19T05:19:47Z</time>
      </trkpt>
      <trkpt lat="43.19205" lon="5.78896">
        <ele>144.8638</ele>
        <time>2022-08-19T05:19:49Z</time>
      </trkpt>
      <trkpt lat="43.19206" lon="5.78906">
        <ele>145.057465</ele>
        <time>2022-08-19T05:19:51Z</time>
      </trkpt>
      <trkpt lat="43.19207" lon="5.78916">
        <ele>145.446823</ele>
        <time>2022-08-19T05:19:53Z</time>
      </trkpt>
      <trkpt lat="43.19209" lon="5.78927">
        <ele>145.839432</ele>
        <time>2022-08-19T05:19:55Z</time>
      </trkpt>
      <trkpt lat="43.19209" lon="5.78938">
        <ele>146.03833</ele>
        <time>2022-08-19T05:19:57Z</time>
      </trkpt>
      <trkpt lat="43.1921" lon="5.78948">
        <ele>146.446381</ele>
        <time>2022-08-19T05:19:59Z</time>
      </trkpt>
      <trkpt lat="43.19212" lon="5.78959">
        <ele>146.657318</ele>
        <time>2022-08-19T05:20:01Z</time>
      </trkpt>
      <trkpt lat="43.19213" lon="5.7897">
        <ele>147.095428</ele>
        <time>2022-08-19T05:20:03Z</time>
      </trkpt>
      <trkpt lat="43.19214" lon="5.7898">
        <ele>147.322708</ele>
        <time>2022-08-19T05:20:05Z</time>
      </trkpt>
      <trkpt lat="43.19215" lon="5.78991">
        <ele>147.792999</ele>
        <time>2022-08-19T05:20:07Z</time>
      </trkpt>
      <trkpt lat="43.19215" lon="5.79001">
        <ele>148.035934</ele>
        <time>2022-08-19T05:20:09Z</time>
      </trkpt>
      <trkpt lat="43.19217" lon="5.79012">
        <ele>148.540558</ele>
        <time>2022-08-19T05:20:11Z</time>
      </trkpt>
      <trkpt lat="43.19217" lon="5.79022">
        <ele>149.076599</ele>
        <time>2022-08-19T05:20:13Z</time>
      </trkpt>
      <trkpt lat="43.19218" lon="5.79032">
        <ele>149.358063</ele>
        <time>2022-08-19T05:20:15Z</time>
      </trkpt>
      <trkpt lat="43.19219" lon="5.79042">
        <ele>149.949234</ele>
        <time>2022-08-19T05:20:17Z</time>
      </trkpt>
      <trkpt lat="43.1922" lon="5.79053">
        <ele>150.254318</ele>
        <time>2022-08-19T05:20:19Z</time>
      </trkpt>
      <trkpt lat="43.19222" lon="5.79063">
        <ele>150.897171</ele>
        <time>2022-08-19T05:20:21Z</time>
      </trkpt>
      <trkpt lat="43.19224" lon="5.79073">
        <ele>151.587326</ele>
        <time>2022-08-19T05:20:23Z</time>
      </trkpt>
      <trkpt lat="43.19226" lon="5.79082">
        <ele>151.951416</ele>
        <time>2022-08-19T05:20:25Z</time>
      </trkpt>
      <trkpt lat="43.19228" lon="5.79092">
        <ele>152.718872</ele>
        <time>2022-08-19T05:20:27Z</time>
      </trkpt>
      <trkpt lat="43.19231" lon="5.79101">
        <ele>153.122314</ele>
        <time>2022-08-19T05:20:29Z</time>
      </trkpt>
      <trkpt lat="43.19234" lon="5.79111">
        <ele>153.968231</ele>
        <time>2022-08-19T05:20:31Z</time>
      </trkpt>
      <trkpt lat="43.19238" lon="5.7912">
        <ele>154.863434</ele>
        <time>2022-08-19T05:20:33Z</time>
      </trkpt>
      <trkpt lat="43.19241" lon="5.79129">
        <ele>155.328461</ele>
        <time>2022-08-19T05:20:35Z</time>
      </trkpt>
      <trkpt lat="43.19246" lon="5.79137">
        <ele>156.291229</ele>
        <time>2022-08-19T05:20:37Z</time>
      </trkpt>
      <trkpt lat="43.19251" lon="5.79144">
        <ele>156.78801</ele>
        <time>2022-08-19T05:20:39Z</time>
      </trkpt>
      <trkpt lat="43.19255" lon="5.79152">
        <ele>157.808563</ele>
        <time>2022-08-19T05:20:41Z</time>
      </trkpt>
      <trkpt lat="43.1926" lon="5.7916">
        <ele>158.330688</ele>
        <time>2022-08-19T05:20:43Z</time>
      </trkpt>
      <trkpt lat="43.19265" lon="5.7917">
        <ele>159.395355</ele>
        <time>2022-08-19T05:20:45Z</time>
      </trkpt>
      <trkpt lat="43.19272" lon="5.79176">
        <ele>160.4814</ele>
        <time>2022-08-19T05:20:47Z</time>
      </trkpt>
      <trkpt lat="43.19279" lon="5.79182">
        <ele>161.029144</ele>
        <time>2022-08-19T05:20:49Z</time>
      </trkpt>
      <trkpt lat="43.19286" lon="5.7919">
        <ele>162.126678</ele>
        <time>2022-08-19T05:20:51Z</time>
      </trkpt>
      <trkpt lat="43.19292" lon="5.79196">
        <ele>162.674957</ele>
        <time>2022-08-19T05:20:53Z</time>
      </trkpt>
      <trkpt lat="43.19297" lon="5.79205">
        <ele>163.77182</ele>
        <time>2022-08-19T05:20:55Z</time>
      </trkpt>
      <trkpt lat="43.19304" lon="5.79209">
        <ele>164.321503</ele>
        <time>2022-08-19T05:20:57Z</time>
      </trkpt>
      <trkpt lat="43.1931" lon="5.79215">
        <ele>165.423416</ele>
        <time>2022-08-19T05:20:59Z</time>
      </trkpt>
      <trkpt lat="43.19317" lon="5.79222">
        <ele>165.97348</ele>
        <time>2022-08-19T05:21:01Z</time>
      </trkpt>
      <trkpt lat="43.19323" lon="5.79227">
        <ele>167.063522</ele>
        <time>2022-08-19T05:21:03Z</time>
      </trkpt>
      <trkpt lat="43.19329" lon="5.79235">
        <ele>168.130783</ele>
        <time>2022-08-19T05:21:05Z</time>
      </trkpt>
      <trkpt lat="43.19336" lon="5.79241">
        <ele>168.654022</ele>
        <time>2022-08-19T05:21:07Z</time>
      </trkpt>
      <trkpt lat="43.19342" lon="5.79249">
        <ele>169.682739</ele>
        <time>2022-08-19T05:21:09Z</time>
      </trkpt>
      <trkpt lat="43.19348" lon="5.79255">
        <ele>170.18718</ele>
        <time>2022-08-19T05:21:11Z</time>
      </trkpt>
      <trkpt lat="43.19354" lon="5.79263">
        <ele>171.168503</ele>
        <time>2022-08-19T05:21:13Z</time>
      </trkpt>
      <trkpt lat="43.19358" lon="5.79271">
        <ele>171.644608</ele>
        <time>2022-08-19T05:21:15Z</time>
      </trkpt>
      <trkpt lat="43.19363" lon="5.7928">
        <ele>172.56636</ele>
        <time>2022-08-19T05:21:17Z</time>
      </trkpt>
      <trkpt lat="43.19367" lon="5.79288">
        <ele>173.01181</ele>
        <time>2022-08-19T05:21:19Z</time>
      </trkpt>
      <trkpt lat="43.1937" lon="5.79297">
        <ele>173.87146</ele>
        <time>2022-08-19T05:21:21Z</time>
      </trkpt>
      <trkpt lat="43.19373" lon="5.79307">
        <ele>174.689453</ele>
        <time>2022-08-19T05:21:23Z</time>
      </trkpt>
      <trkpt lat="43.19376" lon="5.79317">
        <ele>175.082794</ele>
        <time>2022-08-19T05:21:25Z</time>
      </trkpt>
      <trkpt lat="43.1938" lon="5.79327">
        <ele>175.838913</ele>
        <time>2022-08-19T05:21:27Z</time>
      </trkpt>
      <trkpt lat="43.19386" lon="5.79339">
        <ele>176.202057</ele>
        <time>2022-08-19T05:21:29Z</time>
      </trkpt>
      <trkpt lat="43.19389" lon="5.79349">
        <ele>176.900711</ele>
        <time>2022-08-19T05:21:31Z</time>
      </trkpt>
      <trkpt lat="43.19396" lon="5.7936">
        <ele>177.237106</ele>
        <time>2022-08-19T05:21:33Z</time>
      </trkpt>
      <trkpt lat="43.19397" lon="5.79369">
        <ele>177.885742</ele>
        <time>2022-08-19T05:21:35Z</time>
      </trkpt>
      <trkpt lat="43.19399" lon="5.79377">
        <ele>178.19841</ele>
        <time>2022-08-19T05:21:37Z</time>
      </trkpt>
      <trkpt lat="43.19403" lon="5.79385">
        <ele>178.800873</ele>
        <time>2022-08-19T05:21:39Z</time>
      </trkpt>
      <trkpt lat="43.19407" lon="5.79394">
        <ele>179.374588</ele>
        <time>2022-08-19T05:21:41Z</time>
      </trkpt>
      <trkpt lat="43.1941" lon="5.79403">
        <ele>179.651154</ele>
        <time>2022-08-19T05:21:43Z</time>
      </trkpt>
      <trkpt lat="43.19415" lon="5.79413">
        <ele>180.182693</ele>
        <time>2022-08-19T05:21:45Z</time>
      </trkpt>
      <trkpt lat="43.19423" lon="5.79421">
        <ele>180.436554</ele>
        <time>2022-08-19T05:21:47Z</time>
      </trkpt>
      <trkpt lat="43.19429" lon="5.79428">
        <ele>180.91861</ele>
        <time>2022-08-19T05:21:49Z</time>
      </trkpt>
      <trkpt lat="43.19437" lon="5.79436">
        <ele>181.14711</ele>
        <time>2022-08-19T05:21:51Z</time>
      </trkpt>
      <trkpt lat="43.19444" lon="5.79444">
        <ele>181.580536</ele>
        <time>2022-08-19T05:21:53Z</time>
      </trkpt>
      <trkpt lat="43.1945" lon="5.79451">
        <ele>181.98497</ele>
        <time>2022-08-19T05:21:55Z</time>
      </trkpt>
      <trkpt lat="43.19457" lon="5.79459">
        <ele>182.176941</ele>
        <time>2022-08-19T05:21:57Z</time>
      </trkpt>
      <trkpt lat="43.19465" lon="5.79467">
        <ele>182.541229</ele>
        <time>2022-08-19T05:21:59Z</time>
      </trkpt>
      <trkpt lat="43.19471" lon="5.79474">
        <ele>182.714233</ele>
        <time>2022-08-19T05:22:01Z</time>
      </trkpt>
      <trkpt lat="43.19478" lon="5.79482">
        <ele>183.044174</ele>
        <time>2022-08-19T05:22:03Z</time>
      </trkpt>
      <trkpt lat="43.19484" lon="5.7949">
        <ele>183.355774</ele>
        <time>2022-08-19T05:22:05Z</time>
      </trkpt>
      <trkpt lat="43.1949" lon="5.79498">
        <ele>183.505463</ele>
        <time>2022-08-19T05:22:07Z</time>
      </trkpt>
      <trkpt lat="43.19496" lon="5.79505">
        <ele>183.794388</ele>
        <time>2022-08-19T05:22:09Z</time>
      </trkpt>
      <trkpt lat="43.19502" lon="5.79513">
        <ele>183.934479</ele>
        <time>2022-08-19T05:22:11Z</time>
      </trkpt>
      <trkpt lat="43.19507" lon="5.79521">
        <ele>184.207474</ele>
        <time>2022-08-19T05:22:13Z</time>
      </trkpt>
      <trkpt lat="43.19513" lon="5.79528">
        <ele>184.340652</ele>
        <time>2022-08-19T05:22:15Z</time>
      </trkpt>
      <trkpt lat="43.1952" lon="5.79536">
        <ele>184.60083</ele>
        <time>2022-08-19T05:22:17Z</time>
      </trkpt>
      <trkpt lat="43.19526" lon="5.79547">
        <ele>184.72821</ele>
        <time>2022-08-19T05:22:19Z</time>
      </trkpt>
      <trkpt lat="43.19532" lon="5.79557">
        <ele>184.980438</ele>
        <time>2022-08-19T05:22:21Z</time>
      </trkpt>
      <trkpt lat="43.19539" lon="5.79566">
        <ele>185.107208</ele>
        <time>2022-08-19T05:22:23Z</time>
      </trkpt>
      <trkpt lat="43.19546" lon="5.79577">
        <ele>185.367844</ele>
        <time>2022-08-19T05:22:25Z</time>
      </trkpt>
      <trkpt lat="43.19552" lon="5.79588">
        <ele>185.642883</ele>
        <time>2022-08-19T05:22:27Z</time>
      </trkpt>
      <trkpt lat="43.19559" lon="5.79599">
        <ele>185.787003</ele>
        <time>2022-08-19T05:22:29Z</time>
      </trkpt>
      <trkpt lat="43.19566" lon="5.79611">
        <ele>186.090561</ele>
        <time>2022-08-19T05:22:31Z</time>
      </trkpt>
      <trkpt lat="43.1957" lon="5.79626">
        <ele>186.250854</ele>
        <time>2022-08-19T05:22:33Z</time>
      </trkpt>
      <trkpt lat="43.19576" lon="5.79643">
        <ele>186.59024</ele>
        <time>2022-08-19T05:22:35Z</time>
      </trkpt>
      <trkpt lat="43.19582" lon="5.79662">
        <ele>186.769806</ele>
        <time>2022-08-19T05:22:37Z</time>
      </trkpt>
      <trkpt lat="43.19589" lon="5.79681">
        <ele>187.149124</ele>
        <time>2022-08-19T05:22:39Z</time>
      </trkpt>
      <trkpt lat="43.19595" lon="5.79701">
        <ele>187.554993</ele>
        <time>2022-08-19T05:22:41Z</time>
      </trkpt>
      <trkpt lat="43.19603" lon="5.79721">
        <ele>187.767456</ele>
        <time>2022-08-19T05:22:43Z</time>
      </trkpt>
      <trkpt lat="43.19609" lon="5.7974">
        <ele>188.20932</ele>
        <time>2022-08-19T05:22:45Z</time>
      </trkpt>
      <trkpt lat="43.19611" lon="5.79761">
        <ele>188.437408</ele>
        <time>2022-08-19T05:22:47Z</time>
      </trkpt>
      <trkpt lat="43.19609" lon="5.79782">
        <ele>188.906097</ele>
        <time>2022-08-19T05:22:49Z</time>
      </trkpt>
      <trkpt lat="43.1961" lon="5.79802">
        <ele>189.147751</ele>
        <time>2022-08-19T05:22:51Z</time>
      </trkpt>
      <trkpt lat="43.1961" lon="5.79822">
        <ele>189.649857</ele>
        <time>2022-08-19T05:22:53Z</time>
      </trkpt>
      <trkpt lat="43.19609" lon="5.79842">
        <ele>189.910553</ele>
        <time>2022-08-19T05:22:55Z</time>
      </trkpt>
      <trkpt lat="43.19607" lon="5.79861">
        <ele>190.445831</ele>
        <time>2022-08-19T05:22:57Z</time>
      </trkpt>
      <trkpt lat="43.19606" lon="5.79881">
        <ele>190.988159</ele>
        <time>2022-08-19T05:22:59Z</time>
      </trkpt>
      <trkpt lat="43.19604" lon="5.799">
        <ele>191.259277</ele>
        <time>2022-08-19T05:23:01Z</time>
      </trkpt>
      <trkpt lat="43.19601" lon="5.79921">
        <ele>191.801788</ele>
        <time>2022-08-19T05:23:03Z</time>
      </trkpt>
      <trkpt lat="43.196" lon="5.79942">
        <ele>192.347977</ele>
        <time>2022-08-19T05:23:05Z</time>
      </trkpt>
      <trkpt lat="43.19598" lon="5.79964">
        <ele>192.624176</ele>
        <time>2022-08-19T05:23:07Z</time>
      </trkpt>
      <trkpt lat="43.19597" lon="5.79986">
        <ele>193.183228</ele>
        <time>2022-08-19T05:23:09Z</time>
      </trkpt>
      <trkpt lat="43.19596" lon="5.80007">
        <ele>193.464554</ele>
        <time>2022-08-19T05:23:11Z</time>
      </trkpt>
      <trkpt lat="43.19595" lon="5.8003">
        <ele>194.023285</ele>
        <time>2022-08-19T05:23:13Z</time>
      </trkpt>
      <trkpt lat="43.19593" lon="5.80052">
        <ele>194.295685</ele>
        <time>2022-08-19T05:23:15Z</time>
      </trkpt>
      <trkpt lat="43.19592" lon="5.80074">
        <ele>194.784668</ele>
        <time>2022-08-19T05:23:17Z</time>
      </trkpt>
      <trkpt lat="43.1959" lon="5.80098">
        <ele>194.974609</ele>
        <time>2022-08-19T05:23:19Z</time>
      </trkpt>
      <trkpt lat="43.1959" lon="5.8012">
        <ele>195.175903</ele>
        <time>2022-08-19T05:23:21Z</time>
      </trkpt>
      <trkpt lat="43.19589" lon="5.80143">
        <ele>195.118652</ele>
        <time>2022-08-19T05:23:23Z</time>
      </trkpt>
      <trkpt lat="43.19587" lon="5.80167">
        <ele>195.009125</ele>
        <time>2022-08-19T05:23:25Z</time>
      </trkpt>
      <trkpt lat="43.19586" lon="5.80189">
        <ele>194.682343</ele>
        <time>2022-08-19T05:23:27Z</time>
      </trkpt>
      <trkpt lat="43.19585" lon="5.80212">
        <ele>194.480682</ele>
        <time>2022-08-19T05:23:29Z</time>
      </trkpt>
      <trkpt lat="43.19584" lon="5.80235">
        <ele>194.02359</ele>
        <time>2022-08-19T05:23:31Z</time>
      </trkpt>
      <trkpt lat="43.19583" lon="5.80259">
        <ele>193.77359</ele>
        <time>2022-08-19T05:23:33Z</time>
      </trkpt>
      <trkpt lat="43.19581" lon="5.80284">
        <ele>193.239334</ele>
        <time>2022-08-19T05:23:35Z</time>
      </trkpt>
      <trkpt lat="43.19577" lon="5.80308">
        <ele>192.667297</ele>
        <time>2022-08-19T05:23:37Z</time>
      </trkpt>
      <trkpt lat="43.19575" lon="5.80332">
        <ele>192.368866</ele>
        <time>2022-08-19T05:23:39Z</time>
      </trkpt>
      <trkpt lat="43.19576" lon="5.80357">
        <ele>191.744232</ele>
        <time>2022-08-19T05:23:41Z</time>
      </trkpt>
      <trkpt lat="43.19576" lon="5.80381">
        <ele>191.414154</ele>
        <time>2022-08-19T05:23:43Z</time>
      </trkpt>
      <trkpt lat="43.19575" lon="5.80404">
        <ele>190.708923</ele>
        <time>2022-08-19T05:23:45Z</time>
      </trkpt>
      <trkpt lat="43.19575" lon="5.80422">
        <ele>190.332321</ele>
        <time>2022-08-19T05:23:47Z</time>
      </trkpt>
      <trkpt lat="43.19574" lon="5.8044">
        <ele>189.533295</ele>
        <time>2022-08-19T05:23:49Z</time>
      </trkpt>
      <trkpt lat="43.19572" lon="5.80457">
        <ele>188.680847</ele>
        <time>2022-08-19T05:23:51Z</time>
      </trkpt>
      <trkpt lat="43.19571" lon="5.80475">
        <ele>188.234375</ele>
        <time>2022-08-19T05:23:53Z</time>
      </trkpt>
      <trkpt lat="43.1957" lon="5.80492">
        <ele>187.300507</ele>
        <time>2022-08-19T05:23:55Z</time>
      </trkpt>
      <trkpt lat="43.19569" lon="5.8051">
        <ele>186.812775</ele>
        <time>2022-08-19T05:23:57Z</time>
      </trkpt>
      <trkpt lat="43.19568" lon="5.8053">
        <ele>185.795319</ele>
        <time>2022-08-19T05:23:59Z</time>
      </trkpt>
      <trkpt lat="43.19567" lon="5.80551">
        <ele>185.266251</ele>
        <time>2022-08-19T05:24:01Z</time>
      </trkpt>
      <trkpt lat="43.19566" lon="5.80571">
        <ele>184.169601</ele>
        <time>2022-08-19T05:24:03Z</time>
      </trkpt>
      <trkpt lat="43.19565" lon="5.8059">
        <ele>183.027481</ele>
        <time>2022-08-19T05:24:05Z</time>
      </trkpt>
      <trkpt lat="43.19564" lon="5.80604">
        <ele>182.450241</ele>
        <time>2022-08-19T05:24:07Z</time>
      </trkpt>
      <trkpt lat="43.19564" lon="5.80616">
        <ele>181.341721</ele>
        <time>2022-08-19T05:24:09Z</time>
      </trkpt>
      <trkpt lat="43.19561" lon="5.80629">
        <ele>180.840393</ele>
        <time>2022-08-19T05:24:11Z</time>
      </trkpt>
      <trkpt lat="43.19558" lon="5.80643">
        <ele>179.989563</ele>
        <time>2022-08-19T05:24:13Z</time>
      </trkpt>
      <trkpt lat="43.1956" lon="5.80655">
        <ele>179.635361</ele>
        <time>2022-08-19T05:24:15Z</time>
      </trkpt>
      <trkpt lat="43.19566" lon="5.80662">
        <ele>179.025177</ele>
        <time>2022-08-19T05:24:17Z</time>
      </trkpt>
      <trkpt lat="43.19575" lon="5.80661">
        <ele>178.748856</ele>
        <time>2022-08-19T05:24:19Z</time>
      </trkpt>
      <trkpt lat="43.19581" lon="5.80649">
        <ele>178.221695</ele>
        <time>2022-08-19T05:24:21Z</time>
      </trkpt>
      <trkpt lat="43.19585" lon="5.80635">
        <ele>177.707245</ele>
        <time>2022-08-19T05:24:23Z</time>
      </trkpt>
      <trkpt lat="43.19592" lon="5.80622">
        <ele>177.451752</ele>
        <time>2022-08-19T05:24:25Z</time>
      </trkpt>
      <trkpt lat="43.19604" lon="5.80614">
        <ele>176.945099</ele>
        <time>2022-08-19T05:24:27Z</time>
      </trkpt>
      <trkpt lat="43.19616" lon="5.80606">
        <ele>176.695114</ele>
        <time>2022-08-19T05:24:29Z</time>
      </trkpt>
      <trkpt lat="43.19629" lon="5.80599">
        <ele>176.204987</ele>
        <time>2022-08-19T05:24:31Z</time>
      </trkpt>
      <trkpt lat="43.19643" lon="5.80594">
        <ele>175.96637</ele>
        <time>2022-08-19T05:24:33Z</time>
      </trkpt>
      <trkpt lat="43.19659" lon="5.80591">
        <ele>175.506927</ele>
        <time>2022-08-19T05:24:35Z</time>
      </trkpt>
      <trkpt lat="43.19673" lon="5.8059">
        <ele>175.077728</ele>
        <time>2022-08-19T05:24:37Z</time>
      </trkpt>
      <trkpt lat="43.19687" lon="5.80591">
        <ele>174.875732</ele>
        <time>2022-08-19T05:24:39Z</time>
      </trkpt>
      <trkpt lat="43.19698" lon="5.80592">
        <ele>174.496277</ele>
        <time>2022-08-19T05:24:41Z</time>
      </trkpt>
      <trkpt lat="43.19713" lon="5.80597">
        <ele>174.317886</ele>
        <time>2022-08-19T05:24:43Z</time>
      </trkpt>
      <trkpt lat="43.19727" lon="5.80601">
        <ele>173.982269</ele>
        <time>2022-08-19T05:24:45Z</time>
      </trkpt>
      <trkpt lat="43.19742" lon="5.80608">
        <ele>173.824982</ele>
        <time>2022-08-19T05:24:47Z</time>
      </trkpt>
      <trkpt lat="43.19756" lon="5.80617">
        <ele>173.530945</ele>
        <time>2022-08-19T05:24:49Z</time>
      </trkpt>
      <trkpt lat="43.1977" lon="5.80627">
        <ele>173.261917</ele>
        <time>2022-08-19T05:24:51Z</time>
      </trkpt>
      <trkpt lat="43.19784" lon="5.80636">
        <ele>173.135544</ele>
        <time>2022-08-19T05:24:53Z</time>
      </trkpt>
      <trkpt lat="43.198" lon="5.80645">
        <ele>172.896408</ele>
        <time>2022-08-19T05:24:55Z</time>
      </trkpt>
      <trkpt lat="43.19815" lon="5.80655">
        <ele>172.783356</ele>
        <time>2022-08-19T05:24:57Z</time>
      </trkpt>
      <trkpt lat="43.19831" lon="5.80665">
        <ele>172.57045</ele>
        <time>2022-08-19T05:24:59Z</time>
      </trkpt>
      <trkpt lat="43.19847" lon="5.80675">
        <ele>172.470596</ele>
        <time>2022-08-19T05:25:01Z</time>
      </trkpt>
      <trkpt lat="43.19859" lon="5.80684">
        <ele>172.279022</ele>
        <time>2022-08-19T05:25:03Z</time>
      </trkpt>
      <trkpt lat="43.19873" lon="5.80694">
        <ele>172.183319</ele>
        <time>2022-08-19T05:25:05Z</time>
      </trkpt>
      <trkpt lat="43.19885" lon="5.80704">
        <ele>171.980255</ele>
        <time>2022-08-19T05:25:07Z</time>
      </trkpt>
      <trkpt lat="43.19899" lon="5.80713">
        <ele>171.869202</ele>
        <time>2022-08-19T05:25:09Z</time>
      </trkpt>
      <trkpt lat="43.19911" lon="5.80721">
        <ele>171.62735</ele>
        <time>2022-08-19T05:25:11Z</time>
      </trkpt>
      <trkpt lat="43.19925" lon="5.80727">
        <ele>171.354614</ele>
        <time>2022-08-19T05:25:13Z</time>
      </trkpt>
      <trkpt lat="43.1994" lon="5.80735">
        <ele>171.204315</ele>
        <time>2022-08-19T05:25:15Z</time>
      </trkpt>
      <trkpt lat="43.19958" lon="5.80742">
        <ele>170.872528</ele>
        <time>2022-08-19T05:25:17Z</time>
      </trkpt>
      <trkpt lat="43.19979" lon="5.80754">
        <ele>170.493332</ele>
        <time>2022-08-19T05:25:19Z</time>
      </trkpt>
      <trkpt lat="43.19996" lon="5.80765">
        <ele>170.28392</ele>
        <time>2022-08-19T05:25:21Z</time>
      </trkpt>
      <trkpt lat="43.20011" lon="5.80776">
        <ele>169.825134</ele>
        <time>2022-08-19T05:25:23Z</time>
      </trkpt>
      <trkpt lat="43.20025" lon="5.80783">
        <ele>169.577881</ele>
        <time>2022-08-19T05:25:25Z</time>
      </trkpt>
      <trkpt lat="43.20038" lon="5.80789">
        <ele>169.05603</ele>
        <time>2022-08-19T05:25:27Z</time>
      </trkpt>
      <trkpt lat="43.20051" lon="5.80794">
        <ele>168.784805</ele>
        <time>2022-08-19T05:25:29Z</time>
      </trkpt>
      <trkpt lat="43.20062" lon="5.80798">
        <ele>168.230026</ele>
        <time>2022-08-19T05:25:31Z</time>
      </trkpt>
      <trkpt lat="43.20074" lon="5.808">
        <ele>167.949554</ele>
        <time>2022-08-19T05:25:33Z</time>
      </trkpt>
      <trkpt lat="43.20084" lon="5.80802">
        <ele>167.388382</ele>
        <time>2022-08-19T05:25:35Z</time>
      </trkpt>
      <trkpt lat="43.20095" lon="5.80804">
        <ele>167.10878</ele>
        <time>2022-08-19T05:25:37Z</time>
      </trkpt>
      <trkpt lat="43.20106" lon="5.80805">
        <ele>166.551849</ele>
        <time>2022-08-19T05:25:39Z</time>
      </trkpt>
      <trkpt lat="43.20116" lon="5.80806">
        <ele>165.999054</ele>
        <time>2022-08-19T05:25:41Z</time>
      </trkpt>
      <trkpt lat="43.20125" lon="5.80806">
        <ele>165.726028</ele>
        <time>2022-08-19T05:25:43Z</time>
      </trkpt>
      <trkpt lat="43.20135" lon="5.80805">
        <ele>165.192947</ele>
        <time>2022-08-19T05:25:45Z</time>
      </trkpt>
      <trkpt lat="43.20145" lon="5.80805">
        <ele>164.935089</ele>
        <time>2022-08-19T05:25:47Z</time>
      </trkpt>
      <trkpt lat="43.20154" lon="5.80804">
        <ele>164.439301</ele>
        <time>2022-08-19T05:25:49Z</time>
      </trkpt>
      <trkpt lat="43.20164" lon="5.80804">
        <ele>163.97049</ele>
        <time>2022-08-19T05:25:51Z</time>
      </trkpt>
      <trkpt lat="43.20173" lon="5.80802">
        <ele>163.746918</ele>
        <time>2022-08-19T05:25:53Z</time>
      </trkpt>
      <trkpt lat="43.20182" lon="5.80802">
        <ele>163.327576</ele>
        <time>2022-08-19T05:25:55Z</time>
      </trkpt>
      <trkpt lat="43.20192" lon="5.80801">
        <ele>163.135468</ele>
        <time>2022-08-19T05:25:57Z</time>
      </trkpt>
      <trkpt lat="43.20202" lon="5.808">
        <ele>162.794968</ele>
        <time>2022-08-19T05:25:59Z</time>
      </trkpt>
      <trkpt lat="43.20211" lon="5.80799">
        <ele>162.648407</ele>
        <time>2022-08-19T05:26:01Z</time>
      </trkpt>
      <trkpt lat="43.2022" lon="5.80798">
        <ele>162.395569</ele>
        <time>2022-08-19T05:26:03Z</time>
      </trkpt>
      <trkpt lat="43.20229" lon="5.80796">
        <ele>162.293457</ele>
        <time>2022-08-19T05:26:05Z</time>
      </trkpt>
      <trkpt lat="43.20239" lon="5.80795">
        <ele>162.136032</ele>
        <time>2022-08-19T05:26:07Z</time>
      </trkpt>
      <trkpt lat="43.20248" lon="5.80794">
        <ele>162.040009</ele>
        <time>2022-08-19T05:26:09Z</time>
      </trkpt>
      <trkpt lat="43.20257" lon="5.80793">
        <ele>162.016571</ele>
        <time>2022-08-19T05:26:11Z</time>
      </trkpt>
      <trkpt lat="43.20267" lon="5.80792">
        <ele>162.025177</ele>
        <time>2022-08-19T05:26:13Z</time>
      </trkpt>
      <trkpt lat="43.20276" lon="5.8079">
        <ele>162.058868</ele>
        <time>2022-08-19T05:26:15Z</time>
      </trkpt>
      <trkpt lat="43.20285" lon="5.80789">
        <ele>162.183701</ele>
        <time>2022-08-19T05:26:17Z</time>
      </trkpt>
      <trkpt lat="43.20294" lon="5.80788">
        <ele>162.272797</ele>
        <time>2022-08-19T05:26:19Z</time>
      </trkpt>
      <trkpt lat="43.20303" lon="5.80787">
        <ele>162.498795</ele>
        <time>2022-08-19T05:26:21Z</time>
      </trkpt>
      <trkpt lat="43.20312" lon="5.80786">
        <ele>162.781952</ele>
        <time>2022-08-19T05:26:23Z</time>
      </trkpt>
      <trkpt lat="43.20322" lon="5.80786">
        <ele>162.942963</ele>
        <time>2022-08-19T05:26:25Z</time>
      </trkpt>
      <trkpt lat="43.20332" lon="5.80787">
        <ele>163.303131</ele>
        <time>2022-08-19T05:26:27Z</time>
      </trkpt>
      <trkpt lat="43.20342" lon="5.80789">
        <ele>163.503021</ele>
        <time>2022-08-19T05:26:29Z</time>
      </trkpt>
      <trkpt lat="43.2035" lon="5.80791">
        <ele>163.944519</ele>
        <time>2022-08-19T05:26:31Z</time>
      </trkpt>
      <trkpt lat="43.20359" lon="5.80794">
        <ele>164.185944</ele>
        <time>2022-08-19T05:26:33Z</time>
      </trkpt>
      <trkpt lat="43.20369" lon="5.80797">
        <ele>164.708282</ele>
        <time>2022-08-19T05:26:35Z</time>
      </trkpt>
      <trkpt lat="43.20377" lon="5.80801">
        <ele>164.988373</ele>
        <time>2022-08-19T05:26:37Z</time>
      </trkpt>
      <trkpt lat="43.20387" lon="5.80806">
        <ele>165.582993</ele>
        <time>2022-08-19T05:26:39Z</time>
      </trkpt>
      <trkpt lat="43.20396" lon="5.80811">
        <ele>166.211319</ele>
        <time>2022-08-19T05:26:41Z</time>
      </trkpt>
      <trkpt lat="43.20404" lon="5.80817">
        <ele>166.533951</ele>
        <time>2022-08-19T05:26:43Z</time>
      </trkpt>
      <trkpt lat="43.20413" lon="5.80824">
        <ele>167.192245</ele>
        <time>2022-08-19T05:26:45Z</time>
      </trkpt>
      <trkpt lat="43.2042" lon="5.80831">
        <ele>167.526154</ele>
        <time>2022-08-19T05:26:47Z</time>
      </trkpt>
      <trkpt lat="43.20428" lon="5.80838">
        <ele>168.200546</ele>
        <time>2022-08-19T05:26:49Z</time>
      </trkpt>
      <trkpt lat="43.20436" lon="5.80844">
        <ele>168.880844</ele>
        <time>2022-08-19T05:26:51Z</time>
      </trkpt>
      <trkpt lat="43.20444" lon="5.80851">
        <ele>169.223038</ele>
        <time>2022-08-19T05:26:53Z</time>
      </trkpt>
      <trkpt lat="43.20452" lon="5.80858">
        <ele>169.912613</ele>
        <time>2022-08-19T05:26:55Z</time>
      </trkpt>
      <trkpt lat="43.20459" lon="5.80864">
        <ele>170.260803</ele>
        <time>2022-08-19T05:26:57Z</time>
      </trkpt>
      <trkpt lat="43.20467" lon="5.80871">
        <ele>170.965027</ele>
        <time>2022-08-19T05:26:59Z</time>
      </trkpt>
      <trkpt lat="43.20475" lon="5.80877">
        <ele>171.320496</ele>
        <time>2022-08-19T05:27:01Z</time>
      </trkpt>
      <trkpt lat="43.20483" lon="5.80883">
        <ele>172.034363</ele>
        <time>2022-08-19T05:27:03Z</time>
      </trkpt>
      <trkpt lat="43.20491" lon="5.8089">
        <ele>172.745209</ele>
        <time>2022-08-19T05:27:05Z</time>
      </trkpt>
      <trkpt lat="43.20499" lon="5.80898">
        <ele>173.09761</ele>
        <time>2022-08-19T05:27:07Z</time>
      </trkpt>
      <trkpt lat="43.20508" lon="5.80906">
        <ele>173.795166</ele>
        <time>2022-08-19T05:27:09Z</time>
      </trkpt>
      <trkpt lat="43.20516" lon="5.80914">
        <ele>174.140198</ele>
        <time>2022-08-19T05:27:11Z</time>
      </trkpt>
      <trkpt lat="43.20524" lon="5.80921">
        <ele>174.821762</ele>
        <time>2022-08-19T05:27:13Z</time>
      </trkpt>
      <trkpt lat="43.20533" lon="5.8093">
        <ele>175.157455</ele>
        <time>2022-08-19T05:27:15Z</time>
      </trkpt>
      <trkpt lat="43.20541" lon="5.80937">
        <ele>175.815308</ele>
        <time>2022-08-19T05:27:17Z</time>
      </trkpt>
      <trkpt lat="43.2055" lon="5.80945">
        <ele>176.449799</ele>
        <time>2022-08-19T05:27:19Z</time>
      </trkpt>
      <trkpt lat="43.20559" lon="5.80952">
        <ele>176.756699</ele>
        <time>2022-08-19T05:27:21Z</time>
      </trkpt>
      <trkpt lat="43.20567" lon="5.8096">
        <ele>177.349762</ele>
        <time>2022-08-19T05:27:23Z</time>
      </trkpt>
      <trkpt lat="43.20576" lon="5.80968">
        <ele>177.636581</ele>
        <time>2022-08-19T05:27:25Z</time>
      </trkpt>
      <trkpt lat="43.20585" lon="5.80976">
        <ele>178.194107</ele>
        <time>2022-08-19T05:27:27Z</time>
      </trkpt>
      <trkpt lat="43.20595" lon="5.80984">
        <ele>178.465652</ele>
        <time>2022-08-19T05:27:29Z</time>
      </trkpt>
      <trkpt lat="43.20604" lon="5.80993">
        <ele>178.997284</ele>
        <time>2022-08-19T05:27:31Z</time>
      </trkpt>
      <trkpt lat="43.20614" lon="5.81001">
        <ele>179.261826</ele>
        <time>2022-08-19T05:27:33Z</time>
      </trkpt>
      <trkpt lat="43.20624" lon="5.8101">
        <ele>179.7854</ele>
        <time>2022-08-19T05:27:35Z</time>
      </trkpt>
      <trkpt lat="43.20635" lon="5.81019">
        <ele>180.308197</ele>
        <time>2022-08-19T05:27:37Z</time>
      </trkpt>
      <trkpt lat="43.20644" lon="5.81028">
        <ele>180.57106</ele>
        <time>2022-08-19T05:27:39Z</time>
      </trkpt>
      <trkpt lat="43.20654" lon="5.81037">
        <ele>181.102081</ele>
        <time>2022-08-19T05:27:41Z</time>
      </trkpt>
      <trkpt lat="43.20664" lon="5.81046">
        <ele>181.370331</ele>
        <time>2022-08-19T05:27:43Z</time>
      </trkpt>
      <trkpt lat="43.20674" lon="5.81055">
        <ele>181.907501</ele>
        <time>2022-08-19T05:27:45Z</time>
      </trkpt>
      <trkpt lat="43.20684" lon="5.81064">
        <ele>182.172882</ele>
        <time>2022-08-19T05:27:47Z</time>
      </trkpt>
      <trkpt lat="43.20694" lon="5.81073">
        <ele>182.688583</ele>
        <time>2022-08-19T05:27:49Z</time>
      </trkpt>
      <trkpt lat="43.20704" lon="5.81082">
        <ele>183.175232</ele>
        <time>2022-08-19T05:27:51Z</time>
      </trkpt>
      <trkpt lat="43.20714" lon="5.81091">
        <ele>183.405441</ele>
        <time>2022-08-19T05:27:53Z</time>
      </trkpt>
      <trkpt lat="43.20724" lon="5.811">
        <ele>183.836456</ele>
        <time>2022-08-19T05:27:55Z</time>
      </trkpt>
      <trkpt lat="43.20734" lon="5.8111">
        <ele>184.035843</ele>
        <time>2022-08-19T05:27:57Z</time>
      </trkpt>
      <trkpt lat="43.20744" lon="5.81119">
        <ele>184.39743</ele>
        <time>2022-08-19T05:27:59Z</time>
      </trkpt>
      <trkpt lat="43.20755" lon="5.8113">
        <ele>184.557526</ele>
        <time>2022-08-19T05:28:01Z</time>
      </trkpt>
      <trkpt lat="43.20765" lon="5.81139">
        <ele>184.831985</ele>
        <time>2022-08-19T05:28:03Z</time>
      </trkpt>
      <trkpt lat="43.20776" lon="5.8115">
        <ele>184.946091</ele>
        <time>2022-08-19T05:28:05Z</time>
      </trkpt>
      <trkpt lat="43.20787" lon="5.81159">
        <ele>185.12851</ele>
        <time>2022-08-19T05:28:07Z</time>
      </trkpt>
      <trkpt lat="43.20799" lon="5.81168">
        <ele>185.248169</ele>
        <time>2022-08-19T05:28:09Z</time>
      </trkpt>
      <trkpt lat="43.20811" lon="5.81177">
        <ele>185.283203</ele>
        <time>2022-08-19T05:28:11Z</time>
      </trkpt>
      <trkpt lat="43.20823" lon="5.81184">
        <ele>185.300934</ele>
        <time>2022-08-19T05:28:13Z</time>
      </trkpt>
      <trkpt lat="43.20835" lon="5.8119">
        <ele>185.282806</ele>
        <time>2022-08-19T05:28:15Z</time>
      </trkpt>
      <trkpt lat="43.20847" lon="5.81195">
        <ele>185.190063</ele>
        <time>2022-08-19T05:28:17Z</time>
      </trkpt>
      <trkpt lat="43.2086" lon="5.81199">
        <ele>185.114288</ele>
        <time>2022-08-19T05:28:19Z</time>
      </trkpt>
      <trkpt lat="43.20873" lon="5.81201">
        <ele>184.903885</ele>
        <time>2022-08-19T05:28:21Z</time>
      </trkpt>
      <trkpt lat="43.20886" lon="5.81202">
        <ele>184.770721</ele>
        <time>2022-08-19T05:28:23Z</time>
      </trkpt>
      <trkpt lat="43.20899" lon="5.81202">
        <ele>184.456253</ele>
        <time>2022-08-19T05:28:25Z</time>
      </trkpt>
      <trkpt lat="43.20911" lon="5.81201">
        <ele>184.277802</ele>
        <time>2022-08-19T05:28:27Z</time>
      </trkpt>
      <trkpt lat="43.20923" lon="5.812">
        <ele>183.883011</ele>
        <time>2022-08-19T05:28:29Z</time>
      </trkpt>
      <trkpt lat="43.20933" lon="5.81198">
        <ele>183.438232</ele>
        <time>2022-08-19T05:28:31Z</time>
      </trkpt>
      <trkpt lat="43.20943" lon="5.81195">
        <ele>183.197983</ele>
        <time>2022-08-19T05:28:33Z</time>
      </trkpt>
      <trkpt lat="43.20952" lon="5.81191">
        <ele>182.692032</ele>
        <time>2022-08-19T05:28:35Z</time>
      </trkpt>
      <trkpt lat="43.20961" lon="5.81187">
        <ele>182.433731</ele>
        <time>2022-08-19T05:28:37Z</time>
      </trkpt>
      <trkpt lat="43.2097" lon="5.81183">
        <ele>181.924133</ele>
        <time>2022-08-19T05:28:39Z</time>
      </trkpt>
      <trkpt lat="43.20979" lon="5.81179">
        <ele>181.43956</ele>
        <time>2022-08-19T05:28:41Z</time>
      </trkpt>
      <trkpt lat="43.20987" lon="5.81177">
        <ele>181.210571</ele>
        <time>2022-08-19T05:28:43Z</time>
      </trkpt>
      <trkpt lat="43.20997" lon="5.81174">
        <ele>180.783951</ele>
        <time>2022-08-19T05:28:45Z</time>
      </trkpt>
      <trkpt lat="43.21005" lon="5.81171">
        <ele>180.588089</ele>
        <time>2022-08-19T05:28:47Z</time>
      </trkpt>
      <trkpt lat="43.21013" lon="5.81168">
        <ele>180.237457</ele>
        <time>2022-08-19T05:28:49Z</time>
      </trkpt>
      <trkpt lat="43.21022" lon="5.81165">
        <ele>180.085907</ele>
        <time>2022-08-19T05:28:51Z</time>
      </trkpt>
      <trkpt lat="43.2103" lon="5.81161">
        <ele>179.837585</ele>
        <time>2022-08-19T05:28:53Z</time>
      </trkpt>
      <trkpt lat="43.21038" lon="5.81159">
        <ele>179.742706</ele>
        <time>2022-08-19T05:28:55Z</time>
      </trkpt>
      <trkpt lat="43.21046" lon="5.81156">
        <ele>179.614304</ele>
        <time>2022-08-19T05:28:57Z</time>
      </trkpt>
      <trkpt lat="43.21053" lon="5.81154">
        <ele>179.570343</ele>
        <time>2022-08-19T05:28:59Z</time>
      </trkpt>
      <trkpt lat="43.21059" lon="5.81151">
        <ele>179.581024</ele>
        <time>2022-08-19T05:29:01Z</time>
      </trkpt>
      <trkpt lat="43.21067" lon="5.81147">
        <ele>179.668411</ele>
        <time>2022-08-19T05:29:03Z</time>
      </trkpt>
      <trkpt lat="43.21075" lon="5.81145">
        <ele>179.74527</ele>
        <time>2022-08-19T05:29:05Z</time>
      </trkpt>
      <trkpt lat="43.21082" lon="5.81141">
        <ele>179.966919</ele>
        <time>2022-08-19T05:29:07Z</time>
      </trkpt>
      <trkpt lat="43.2109" lon="5.81139">
        <ele>180.1129</ele>
        <time>2022-08-19T05:29:09Z</time>
      </trkpt>
      <trkpt lat="43.21098" lon="5.81137">
        <ele>180.477402</ele>
        <time>2022-08-19T05:29:11Z</time>
      </trkpt>
      <trkpt lat="43.21107" lon="5.81134">
        <ele>180.939728</ele>
        <time>2022-08-19T05:29:13Z</time>
      </trkpt>
      <trkpt lat="43.21119" lon="5.81132">
        <ele>181.207321</ele>
        <time>2022-08-19T05:29:15Z</time>
      </trkpt>
      <trkpt lat="43.21127" lon="5.81129">
        <ele>181.498901</ele>
        <time>2022-08-19T05:29:17Z</time>
      </trkpt>
      <trkpt lat="43.21135" lon="5.81126">
        <ele>181.814407</ele>
        <time>2022-08-19T05:29:19Z</time>
      </trkpt>
      <trkpt lat="43.21142" lon="5.81123">
        <ele>182.517609</ele>
        <time>2022-08-19T05:29:21Z</time>
      </trkpt>
      <trkpt lat="43.2115" lon="5.8112">
        <ele>183.3125</ele>
        <time>2022-08-19T05:29:23Z</time>
      </trkpt>
      <trkpt lat="43.21158" lon="5.81119">
        <ele>183.739212</ele>
        <time>2022-08-19T05:29:25Z</time>
      </trkpt>
      <trkpt lat="43.21166" lon="5.81117">
        <ele>184.634109</ele>
        <time>2022-08-19T05:29:27Z</time>
      </trkpt>
      <trkpt lat="43.21175" lon="5.81118">
        <ele>185.095444</ele>
        <time>2022-08-19T05:29:29Z</time>
      </trkpt>
      <trkpt lat="43.21183" lon="5.8112">
        <ele>186.034546</ele>
        <time>2022-08-19T05:29:31Z</time>
      </trkpt>
      <trkpt lat="43.21191" lon="5.81122">
        <ele>186.992599</ele>
        <time>2022-08-19T05:29:33Z</time>
      </trkpt>
      <trkpt lat="43.212" lon="5.81126">
        <ele>187.479431</ele>
        <time>2022-08-19T05:29:35Z</time>
      </trkpt>
      <trkpt lat="43.21208" lon="5.81133">
        <ele>188.46962</ele>
        <time>2022-08-19T05:29:37Z</time>
      </trkpt>
      <trkpt lat="43.21217" lon="5.81138">
        <ele>188.97052</ele>
        <time>2022-08-19T05:29:39Z</time>
      </trkpt>
      <trkpt lat="43.21224" lon="5.81145">
        <ele>189.969574</ele>
        <time>2022-08-19T05:29:41Z</time>
      </trkpt>
      <trkpt lat="43.21231" lon="5.81153">
        <ele>190.461166</ele>
        <time>2022-08-19T05:29:43Z</time>
      </trkpt>
      <trkpt lat="43.21238" lon="5.81162">
        <ele>191.415817</ele>
        <time>2022-08-19T05:29:45Z</time>
      </trkpt>
      <trkpt lat="43.21244" lon="5.81172">
        <ele>191.87619</ele>
        <time>2022-08-19T05:29:47Z</time>
      </trkpt>
      <trkpt lat="43.21249" lon="5.81183">
        <ele>192.760101</ele>
        <time>2022-08-19T05:29:49Z</time>
      </trkpt>
      <trkpt lat="43.21254" lon="5.81194">
        <ele>193.594452</ele>
        <time>2022-08-19T05:29:51Z</time>
      </trkpt>
      <trkpt lat="43.21258" lon="5.81207">
        <ele>193.994202</ele>
        <time>2022-08-19T05:29:53Z</time>
      </trkpt>
      <trkpt lat="43.21262" lon="5.81221">
        <ele>194.762909</ele>
        <time>2022-08-19T05:29:55Z</time>
      </trkpt>
      <trkpt lat="43.21266" lon="5.81236">
        <ele>195.134537</ele>
        <time>2022-08-19T05:29:57Z</time>
      </trkpt>
      <trkpt lat="43.2127" lon="5.81252">
        <ele>195.856674</ele>
        <time>2022-08-19T05:29:59Z</time>
      </trkpt>
      <trkpt lat="43.21272" lon="5.81268">
        <ele>196.553192</ele>
        <time>2022-08-19T05:30:01Z</time>
      </trkpt>
      <trkpt lat="43.21275" lon="5.81285">
        <ele>196.891998</ele>
        <time>2022-08-19T05:30:03Z</time>
      </trkpt>
      <trkpt lat="43.21278" lon="5.81302">
        <ele>197.549927</ele>
        <time>2022-08-19T05:30:05Z</time>
      </trkpt>
      <trkpt lat="43.21281" lon="5.8132">
        <ele>197.868668</ele>
        <time>2022-08-19T05:30:07Z</time>
      </trkpt>
      <trkpt lat="43.21285" lon="5.81338">
        <ele>198.485214</ele>
        <time>2022-08-19T05:30:09Z</time>
      </trkpt>
      <trkpt lat="43.21288" lon="5.81356">
        <ele>198.782364</ele>
        <time>2022-08-19T05:30:11Z</time>
      </trkpt>
      <trkpt lat="43.21291" lon="5.81375">
        <ele>199.358124</ele>
        <time>2022-08-19T05:30:13Z</time>
      </trkpt>
      <trkpt lat="43.21294" lon="5.81394">
        <ele>199.640244</ele>
        <time>2022-08-19T05:30:15Z</time>
      </trkpt>
      <trkpt lat="43.21297" lon="5.81412">
        <ele>200.20668</ele>
        <time>2022-08-19T05:30:17Z</time>
      </trkpt>
      <trkpt lat="43.21299" lon="5.8143">
        <ele>200.788834</ele>
        <time>2022-08-19T05:30:19Z</time>
      </trkpt>
      <trkpt lat="43.21303" lon="5.81448">
        <ele>201.088287</ele>
        <time>2022-08-19T05:30:21Z</time>
      </trkpt>
      <trkpt lat="43.2131" lon="5.81462">
        <ele>201.702896</ele>
        <time>2022-08-19T05:30:23Z</time>
      </trkpt>
      <trkpt lat="43.21322" lon="5.81471">
        <ele>202.015579</ele>
        <time>2022-08-19T05:30:25Z</time>
      </trkpt>
      <trkpt lat="43.21333" lon="5.81472">
        <ele>202.639984</ele>
        <time>2022-08-19T05:30:27Z</time>
      </trkpt>
      <trkpt lat="43.21346" lon="5.81469">
        <ele>202.945801</ele>
        <time>2022-08-19T05:30:29Z</time>
      </trkpt>
      <trkpt lat="43.21355" lon="5.81461">
        <ele>203.537552</ele>
        <time>2022-08-19T05:30:31Z</time>
      </trkpt>
      <trkpt lat="43.21362" lon="5.81449">
        <ele>204.096878</ele>
        <time>2022-08-19T05:30:33Z</time>
      </trkpt>
      <trkpt lat="43.21367" lon="5.81436">
        <ele>204.361969</ele>
        <time>2022-08-19T05:30:35Z</time>
      </trkpt>
      <trkpt lat="43.21369" lon="5.81422">
        <ele>204.858917</ele>
        <time>2022-08-19T05:30:37Z</time>
      </trkpt>
      <trkpt lat="43.2137" lon="5.81409">
        <ele>205.089325</ele>
        <time>2022-08-19T05:30:39Z</time>
      </trkpt>
      <trkpt lat="43.2137" lon="5.81395">
        <ele>205.512039</ele>
        <time>2022-08-19T05:30:41Z</time>
      </trkpt>
      <trkpt lat="43.21372" lon="5.81382">
        <ele>205.703979</ele>
        <time>2022-08-19T05:30:43Z</time>
      </trkpt>
      <trkpt lat="43.21373" lon="5.8137">
        <ele>206.049072</ele>
        <time>2022-08-19T05:30:45Z</time>
      </trkpt>
      <trkpt lat="43.21373" lon="5.81357">
        <ele>206.201584</ele>
        <time>2022-08-19T05:30:47Z</time>
      </trkpt>
      <trkpt lat="43.21375" lon="5.81343">
        <ele>206.462006</ele>
        <time>2022-08-19T05:30:49Z</time>
      </trkpt>
      <trkpt lat="43.21377" lon="5.81331">
        <ele>206.657303</ele>
        <time>2022-08-19T05:30:51Z</time>
      </trkpt>
      <trkpt lat="43.2138" lon="5.81319">
        <ele>206.729294</ele>
        <time>2022-08-19T05:30:53Z</time>
      </trkpt>
      <trkpt lat="43.21381" lon="5.81307">
        <ele>206.821335</ele>
        <time>2022-08-19T05:30:55Z</time>
      </trkpt>
      <trkpt lat="43.21383" lon="5.81293">
        <ele>206.841827</ele>
        <time>2022-08-19T05:30:57Z</time>
      </trkpt>
      <trkpt lat="43.21384" lon="5.8128">
        <ele>206.831665</ele>
        <time>2022-08-19T05:30:59Z</time>
      </trkpt>
      <trkpt lat="43.21386" lon="5.81266">
        <ele>206.800247</ele>
        <time>2022-08-19T05:31:01Z</time>
      </trkpt>
      <trkpt lat="43.21387" lon="5.81254">
        <ele>206.682404</ele>
        <time>2022-08-19T05:31:03Z</time>
      </trkpt>
      <trkpt lat="43.21389" lon="5.81242">
        <ele>206.486618</ele>
        <time>2022-08-19T05:31:05Z</time>
      </trkpt>
      <trkpt lat="43.21391" lon="5.8123">
        <ele>206.35762</ele>
        <time>2022-08-19T05:31:07Z</time>
      </trkpt>
      <trkpt lat="43.21393" lon="5.81217">
        <ele>206.034637</ele>
        <time>2022-08-19T05:31:09Z</time>
      </trkpt>
      <trkpt lat="43.21394" lon="5.81206">
        <ele>205.840485</ele>
        <time>2022-08-19T05:31:11Z</time>
      </trkpt>
      <trkpt lat="43.21397" lon="5.81193">
        <ele>205.388474</ele>
        <time>2022-08-19T05:31:13Z</time>
      </trkpt>
      <trkpt lat="43.21402" lon="5.81181">
        <ele>205.131714</ele>
        <time>2022-08-19T05:31:15Z</time>
      </trkpt>
      <trkpt lat="43.21406" lon="5.8117">
        <ele>204.563522</ele>
        <time>2022-08-19T05:31:17Z</time>
      </trkpt>
      <trkpt lat="43.21411" lon="5.81161">
        <ele>203.942245</ele>
        <time>2022-08-19T05:31:19Z</time>
      </trkpt>
      <trkpt lat="43.21417" lon="5.81151">
        <ele>203.620972</ele>
        <time>2022-08-19T05:31:21Z</time>
      </trkpt>
      <trkpt lat="43.21422" lon="5.81141">
        <ele>202.97673</ele>
        <time>2022-08-19T05:31:23Z</time>
      </trkpt>
      <trkpt lat="43.21427" lon="5.8113">
        <ele>202.661453</ele>
        <time>2022-08-19T05:31:25Z</time>
      </trkpt>
      <trkpt lat="43.21433" lon="5.8112">
        <ele>202.059006</ele>
        <time>2022-08-19T05:31:27Z</time>
      </trkpt>
      <trkpt lat="43.21438" lon="5.81109">
        <ele>201.77507</ele>
        <time>2022-08-19T05:31:29Z</time>
      </trkpt>
      <trkpt lat="43.21442" lon="5.81099">
        <ele>201.245438</ele>
        <time>2022-08-19T05:31:31Z</time>
      </trkpt>
      <trkpt lat="43.21447" lon="5.8109">
        <ele>200.7659</ele>
        <time>2022-08-19T05:31:33Z</time>
      </trkpt>
      <trkpt lat="43.21452" lon="5.81082">
        <ele>200.54306</ele>
        <time>2022-08-19T05:31:35Z</time>
      </trkpt>
      <trkpt lat="43.21458" lon="5.81073">
        <ele>200.127106</ele>
        <time>2022-08-19T05:31:37Z</time>
      </trkpt>
      <trkpt lat="43.21466" lon="5.81066">
        <ele>199.932587</ele>
        <time>2022-08-19T05:31:39Z</time>
      </trkpt>
      <trkpt lat="43.21475" lon="5.81062">
        <ele>199.567169</ele>
        <time>2022-08-19T05:31:41Z</time>
      </trkpt>
      <trkpt lat="43.21486" lon="5.81058">
        <ele>199.395798</ele>
        <time>2022-08-19T05:31:43Z</time>
      </trkpt>
      <trkpt lat="43.21494" lon="5.81058">
        <ele>199.082031</ele>
        <time>2022-08-19T05:31:45Z</time>
      </trkpt>
      <trkpt lat="43.21502" lon="5.8106">
        <ele>198.824753</ele>
        <time>2022-08-19T05:31:47Z</time>
      </trkpt>
      <trkpt lat="43.2151" lon="5.81062">
        <ele>198.72464</ele>
        <time>2022-08-19T05:31:49Z</time>
      </trkpt>
      <trkpt lat="43.21517" lon="5.81068">
        <ele>198.591919</ele>
        <time>2022-08-19T05:31:51Z</time>
      </trkpt>
      <trkpt lat="43.21523" lon="5.81075">
        <ele>198.562103</ele>
        <time>2022-08-19T05:31:53Z</time>
      </trkpt>
      <trkpt lat="43.21529" lon="5.81083">
        <ele>198.580612</ele>
        <time>2022-08-19T05:31:55Z</time>
      </trkpt>
      <trkpt lat="43.21535" lon="5.81089">
        <ele>198.630615</ele>
        <time>2022-08-19T05:31:57Z</time>
      </trkpt>
      <trkpt lat="43.21541" lon="5.81096">
        <ele>198.813675</ele>
        <time>2022-08-19T05:31:59Z</time>
      </trkpt>
      <trkpt lat="43.21547" lon="5.81102">
        <ele>199.103729</ele>
        <time>2022-08-19T05:32:01Z</time>
      </trkpt>
      <trkpt lat="43.21554" lon="5.81107">
        <ele>199.286453</ele>
        <time>2022-08-19T05:32:03Z</time>
      </trkpt>
      <trkpt lat="43.21561" lon="5.81109">
        <ele>199.72403</ele>
        <time>2022-08-19T05:32:05Z</time>
      </trkpt>
      <trkpt lat="43.21569" lon="5.81111">
        <ele>199.977814</ele>
        <time>2022-08-19T05:32:07Z</time>
      </trkpt>
      <trkpt lat="43.21578" lon="5.81111">
        <ele>200.550659</ele>
        <time>2022-08-19T05:32:09Z</time>
      </trkpt>
      <trkpt lat="43.21586" lon="5.8111">
        <ele>200.866623</ele>
        <time>2022-08-19T05:32:11Z</time>
      </trkpt>
      <trkpt lat="43.21593" lon="5.81107">
        <ele>201.549805</ele>
        <time>2022-08-19T05:32:13Z</time>
      </trkpt>
      <trkpt lat="43.216" lon="5.81102">
        <ele>201.91481</ele>
        <time>2022-08-19T05:32:15Z</time>
      </trkpt>
      <trkpt lat="43.21606" lon="5.81096">
        <ele>202.686829</ele>
        <time>2022-08-19T05:32:17Z</time>
      </trkpt>
      <trkpt lat="43.21611" lon="5.81089">
        <ele>203.508118</ele>
        <time>2022-08-19T05:32:19Z</time>
      </trkpt>
      <trkpt lat="43.21617" lon="5.8108">
        <ele>203.934753</ele>
        <time>2022-08-19T05:32:21Z</time>
      </trkpt>
      <trkpt lat="43.21621" lon="5.8107">
        <ele>204.817184</ele>
        <time>2022-08-19T05:32:23Z</time>
      </trkpt>
      <trkpt lat="43.21624" lon="5.81059">
        <ele>205.272491</ele>
        <time>2022-08-19T05:32:25Z</time>
      </trkpt>
      <trkpt lat="43.21624" lon="5.81048">
        <ele>206.20816</ele>
        <time>2022-08-19T05:32:27Z</time>
      </trkpt>
      <trkpt lat="43.21624" lon="5.81037">
        <ele>206.686401</ele>
        <time>2022-08-19T05:32:29Z</time>
      </trkpt>
      <trkpt lat="43.21623" lon="5.81025">
        <ele>207.658279</ele>
        <time>2022-08-19T05:32:31Z</time>
      </trkpt>
      <trkpt lat="43.21623" lon="5.81013">
        <ele>208.640991</ele>
        <time>2022-08-19T05:32:33Z</time>
      </trkpt>
      <trkpt lat="43.21623" lon="5.81001">
        <ele>209.129837</ele>
        <time>2022-08-19T05:32:35Z</time>
      </trkpt>
      <trkpt lat="43.21625" lon="5.8099">
        <ele>210.082489</ele>
        <time>2022-08-19T05:32:37Z</time>
      </trkpt>
      <trkpt lat="43.21627" lon="5.80979">
        <ele>210.538208</ele>
        <time>2022-08-19T05:32:39Z</time>
      </trkpt>
      <trkpt lat="43.21631" lon="5.80969">
        <ele>211.394928</ele>
        <time>2022-08-19T05:32:41Z</time>
      </trkpt>
      <trkpt lat="43.21636" lon="5.80959">
        <ele>211.793777</ele>
        <time>2022-08-19T05:32:43Z</time>
      </trkpt>
      <trkpt lat="43.21641" lon="5.80951">
        <ele>212.53157</ele>
        <time>2022-08-19T05:32:45Z</time>
      </trkpt>
      <trkpt lat="43.21648" lon="5.80944">
        <ele>213.192215</ele>
        <time>2022-08-19T05:32:47Z</time>
      </trkpt>
      <trkpt lat="43.21655" lon="5.80937">
        <ele>213.495392</ele>
        <time>2022-08-19T05:32:49Z</time>
      </trkpt>
      <trkpt lat="43.21662" lon="5.80932">
        <ele>214.054413</ele>
        <time>2022-08-19T05:32:51Z</time>
      </trkpt>
      <trkpt lat="43.21669" lon="5.80928">
        <ele>214.313766</ele>
        <time>2022-08-19T05:32:53Z</time>
      </trkpt>
      <trkpt lat="43.21676" lon="5.80923">
        <ele>214.801315</ele>
        <time>2022-08-19T05:32:55Z</time>
      </trkpt>
      <trkpt lat="43.21684" lon="5.80917">
        <ele>215.031525</ele>
        <time>2022-08-19T05:32:57Z</time>
      </trkpt>
      <trkpt lat="43.21692" lon="5.80912">
        <ele>215.469193</ele>
        <time>2022-08-19T05:32:59Z</time>
      </trkpt>
      <trkpt lat="43.21699" lon="5.80907">
        <ele>215.677338</ele>
        <time>2022-08-19T05:33:01Z</time>
      </trkpt>
      <trkpt lat="43.21706" lon="5.80901">
        <ele>216.074615</ele>
        <time>2022-08-19T05:33:03Z</time>
      </trkpt>
      <trkpt lat="43.21713" lon="5.80895">
        <ele>216.264038</ele>
        <time>2022-08-19T05:33:05Z</time>
      </trkpt>
      <trkpt lat="43.21719" lon="5.80888">
        <ele>216.623413</ele>
        <time>2022-08-19T05:33:07Z</time>
      </trkpt>
      <trkpt lat="43.21727" lon="5.80882">
        <ele>216.956879</ele>
        <time>2022-08-19T05:33:09Z</time>
      </trkpt>
      <trkpt lat="43.21735" lon="5.80877">
        <ele>217.114868</ele>
        <time>2022-08-19T05:33:11Z</time>
      </trkpt>
      <trkpt lat="43.21742" lon="5.80871">
        <ele>217.417999</ele>
        <time>2022-08-19T05:33:13Z</time>
      </trkpt>
      <trkpt lat="43.2175" lon="5.80865">
        <ele>217.56546</ele>
        <time>2022-08-19T05:33:15Z</time>
      </trkpt>
      <trkpt lat="43.21757" lon="5.8086">
        <ele>217.858444</ele>
        <time>2022-08-19T05:33:17Z</time>
      </trkpt>
      <trkpt lat="43.21764" lon="5.80854">
        <ele>218.157028</ele>
        <time>2022-08-19T05:33:19Z</time>
      </trkpt>
      <trkpt lat="43.21772" lon="5.80849">
        <ele>218.311325</ele>
        <time>2022-08-19T05:33:21Z</time>
      </trkpt>
      <trkpt lat="43.21779" lon="5.80843">
        <ele>218.635895</ele>
        <time>2022-08-19T05:33:23Z</time>
      </trkpt>
      <trkpt lat="43.21787" lon="5.80838">
        <ele>218.80954</ele>
        <time>2022-08-19T05:33:25Z</time>
      </trkpt>
      <trkpt lat="43.21795" lon="5.80833">
        <ele>219.188797</ele>
        <time>2022-08-19T05:33:27Z</time>
      </trkpt>
      <trkpt lat="43.21803" lon="5.8083">
        <ele>219.619675</ele>
        <time>2022-08-19T05:33:29Z</time>
      </trkpt>
      <trkpt lat="43.21812" lon="5.80827">
        <ele>219.855865</ele>
        <time>2022-08-19T05:33:31Z</time>
      </trkpt>
      <trkpt lat="43.2182" lon="5.80826">
        <ele>220.105713</ele>
        <time>2022-08-19T05:33:33Z</time>
      </trkpt>
      <trkpt lat="43.21829" lon="5.80827">
        <ele>220.644318</ele>
        <time>2022-08-19T05:33:35Z</time>
      </trkpt>
      <trkpt lat="43.21837" lon="5.80832">
        <ele>221.227097</ele>
        <time>2022-08-19T05:33:37Z</time>
      </trkpt>
      <trkpt lat="43.21844" lon="5.80838">
        <ele>221.531342</ele>
        <time>2022-08-19T05:33:39Z</time>
      </trkpt>
      <trkpt lat="43.2185" lon="5.80847">
        <ele>222.157959</ele>
        <time>2022-08-19T05:33:41Z</time>
      </trkpt>
      <trkpt lat="43.21854" lon="5.80857">
        <ele>222.478348</ele>
        <time>2022-08-19T05:33:43Z</time>
      </trkpt>
      <trkpt lat="43.21857" lon="5.80868">
        <ele>223.127762</ele>
        <time>2022-08-19T05:33:45Z</time>
      </trkpt>
      <trkpt lat="43.21858" lon="5.80879">
        <ele>223.780762</ele>
        <time>2022-08-19T05:33:47Z</time>
      </trkpt>
      <trkpt lat="43.21858" lon="5.80891">
        <ele>224.106354</ele>
        <time>2022-08-19T05:33:49Z</time>
      </trkpt>
      <trkpt lat="43.21857" lon="5.80902">
        <ele>224.754303</ele>
        <time>2022-08-19T05:33:51Z</time>
      </trkpt>
      <trkpt lat="43.21855" lon="5.80913">
        <ele>225.076691</ele>
        <time>2022-08-19T05:33:53Z</time>
      </trkpt>
      <trkpt lat="43.21852" lon="5.80924">
        <ele>225.717133</ele>
        <time>2022-08-19T05:33:55Z</time>
      </trkpt>
      <trkpt lat="43.21849" lon="5.80935">
        <ele>226.034332</ele>
        <time>2022-08-19T05:33:57Z</time>
      </trkpt>
      <trkpt lat="43.21846" lon="5.80945">
        <ele>226.658981</ele>
        <time>2022-08-19T05:33:59Z</time>
      </trkpt>
      <trkpt lat="43.21843" lon="5.80956">
        <ele>227.272064</ele>
        <time>2022-08-19T05:34:01Z</time>
      </trkpt>
      <trkpt lat="43.21841" lon="5.80966">
        <ele>227.575043</ele>
        <time>2022-08-19T05:34:03Z</time>
      </trkpt>
      <trkpt lat="43.21838" lon="5.80977">
        <ele>228.171829</ele>
        <time>2022-08-19T05:34:05Z</time>
      </trkpt>
      <trkpt lat="43.21835" lon="5.80987">
        <ele>228.464447</ele>
        <time>2022-08-19T05:34:07Z</time>
      </trkpt>
      <trkpt lat="43.21832" lon="5.80998">
        <ele>229.034866</ele>
        <time>2022-08-19T05:34:09Z</time>
      </trkpt>
      <trkpt lat="43.2183" lon="5.81009">
        <ele>229.311966</ele>
        <time>2022-08-19T05:34:11Z</time>
      </trkpt>
      <trkpt lat="43.21827" lon="5.8102">
        <ele>229.848877</ele>
        <time>2022-08-19T05:34:13Z</time>
      </trkpt>
      <trkpt lat="43.21825" lon="5.81032">
        <ele>230.360992</ele>
        <time>2022-08-19T05:34:15Z</time>
      </trkpt>
      <trkpt lat="43.21824" lon="5.81043">
        <ele>230.607376</ele>
        <time>2022-08-19T05:34:17Z</time>
      </trkpt>
      <trkpt lat="43.21823" lon="5.81054">
        <ele>231.079987</ele>
        <time>2022-08-19T05:34:19Z</time>
      </trkpt>
      <trkpt lat="43.21823" lon="5.81066">
        <ele>231.306</ele>
        <time>2022-08-19T05:34:21Z</time>
      </trkpt>
      <trkpt lat="43.21824" lon="5.81079">
        <ele>231.737701</ele>
        <time>2022-08-19T05:34:23Z</time>
      </trkpt>
      <trkpt lat="43.21824" lon="5.81091">
        <ele>231.943207</ele>
        <time>2022-08-19T05:34:25Z</time>
      </trkpt>
      <trkpt lat="43.21824" lon="5.81103">
        <ele>232.333099</ele>
        <time>2022-08-19T05:34:27Z</time>
      </trkpt>
      <trkpt lat="43.21825" lon="5.81115">
        <ele>232.695755</ele>
        <time>2022-08-19T05:34:29Z</time>
      </trkpt>
      <trkpt lat="43.21826" lon="5.81127">
        <ele>232.866898</ele>
        <time>2022-08-19T05:34:31Z</time>
      </trkpt>
      <trkpt lat="43.21827" lon="5.81138">
        <ele>233.185944</ele>
        <time>2022-08-19T05:34:33Z</time>
      </trkpt>
      <trkpt lat="43.21827" lon="5.8115">
        <ele>233.332077</ele>
        <time>2022-08-19T05:34:35Z</time>
      </trkpt>
      <trkpt lat="43.21828" lon="5.81161">
        <ele>233.594482</ele>
        <time>2022-08-19T05:34:37Z</time>
      </trkpt>
      <trkpt lat="43.21829" lon="5.81173">
        <ele>233.81572</ele>
        <time>2022-08-19T05:34:39Z</time>
      </trkpt>
      <trkpt lat="43.2183" lon="5.81184">
        <ele>233.911087</ele>
        <time>2022-08-19T05:34:41Z</time>
      </trkpt>
      <trkpt lat="43.2183" lon="5.81195">
        <ele>234.072952</ele>
        <time>2022-08-19T05:34:43Z</time>
      </trkpt>
      <trkpt lat="43.21831" lon="5.81206">
        <ele>234.140961</ele>
        <time>2022-08-19T05:34:45Z</time>
      </trkpt>
      <trkpt lat="43.21832" lon="5.81218">
        <ele>234.258224</ele>
        <time>2022-08-19T05:34:47Z</time>
      </trkpt>
      <trkpt lat="43.21832" lon="5.8123">
        <ele>234.362503</ele>
        <time>2022-08-19T05:34:49Z</time>
      </trkpt>
      <trkpt lat="43.21833" lon="5.81241">
        <ele>234.412674</ele>
        <time>2022-08-19T05:34:51Z</time>
      </trkpt>
      <trkpt lat="43.21833" lon="5.81252">
        <ele>234.510712</ele>
        <time>2022-08-19T05:34:53Z</time>
      </trkpt>
      <trkpt lat="43.21833" lon="5.81263">
        <ele>234.559174</ele>
        <time>2022-08-19T05:34:55Z</time>
      </trkpt>
      <trkpt lat="43.21834" lon="5.81275">
        <ele>234.655792</ele>
        <time>2022-08-19T05:34:57Z</time>
      </trkpt>
      <trkpt lat="43.21835" lon="5.81285">
        <ele>234.704498</ele>
        <time>2022-08-19T05:34:59Z</time>
      </trkpt>
      <trkpt lat="43.21837" lon="5.81296">
        <ele>234.805222</ele>
        <time>2022-08-19T05:35:01Z</time>
      </trkpt>
      <trkpt lat="43.21838" lon="5.81308">
        <ele>234.858276</ele>
        <time>2022-08-19T05:35:03Z</time>
      </trkpt>
      <trkpt lat="43.21841" lon="5.81318">
        <ele>234.972443</ele>
        <time>2022-08-19T05:35:05Z</time>
      </trkpt>
      <trkpt lat="43.21845" lon="5.81329">
        <ele>235.099411</ele>
        <time>2022-08-19T05:35:07Z</time>
      </trkpt>
      <trkpt lat="43.2185" lon="5.81338">
        <ele>235.168777</ele>
        <time>2022-08-19T05:35:09Z</time>
      </trkpt>
      <trkpt lat="43.21857" lon="5.81346">
        <ele>235.322067</ele>
        <time>2022-08-19T05:35:11Z</time>
      </trkpt>
      <trkpt lat="43.21863" lon="5.81353">
        <ele>235.406708</ele>
        <time>2022-08-19T05:35:13Z</time>
      </trkpt>
      <trkpt lat="43.21871" lon="5.81358">
        <ele>235.591965</ele>
        <time>2022-08-19T05:35:15Z</time>
      </trkpt>
      <trkpt lat="43.21878" lon="5.81363">
        <ele>235.692062</ele>
        <time>2022-08-19T05:35:17Z</time>
      </trkpt>
      <trkpt lat="43.21886" lon="5.81366">
        <ele>235.906326</ele>
        <time>2022-08-19T05:35:19Z</time>
      </trkpt>
      <trkpt lat="43.21894" lon="5.81368">
        <ele>236.020142</ele>
        <time>2022-08-19T05:35:21Z</time>
      </trkpt>
      <trkpt lat="43.21902" lon="5.81369">
        <ele>236.260742</ele>
        <time>2022-08-19T05:35:23Z</time>
      </trkpt>
      <trkpt lat="43.21909" lon="5.81368">
        <ele>236.387726</ele>
        <time>2022-08-19T05:35:25Z</time>
      </trkpt>
      <trkpt lat="43.21917" lon="5.81367">
        <ele>236.655151</ele>
        <time>2022-08-19T05:35:27Z</time>
      </trkpt>
      <trkpt lat="43.21925" lon="5.81365">
        <ele>236.939163</ele>
        <time>2022-08-19T05:35:29Z</time>
      </trkpt>
      <trkpt lat="43.21933" lon="5.81363">
        <ele>237.086472</ele>
        <time>2022-08-19T05:35:31Z</time>
      </trkpt>
      <trkpt lat="43.2194" lon="5.8136">
        <ele>237.389694</ele>
        <time>2022-08-19T05:35:33Z</time>
      </trkpt>
      <trkpt lat="43.21949" lon="5.81357">
        <ele>237.544724</ele>
        <time>2022-08-19T05:35:35Z</time>
      </trkpt>
      <trkpt lat="43.21956" lon="5.81353">
        <ele>237.857834</ele>
        <time>2022-08-19T05:35:37Z</time>
      </trkpt>
      <trkpt lat="43.21965" lon="5.8135">
        <ele>238.014236</ele>
        <time>2022-08-19T05:35:39Z</time>
      </trkpt>
      <trkpt lat="43.21973" lon="5.81347">
        <ele>238.324554</ele>
        <time>2022-08-19T05:35:41Z</time>
      </trkpt>
      <trkpt lat="43.2198" lon="5.81343">
        <ele>238.632477</ele>
        <time>2022-08-19T05:35:43Z</time>
      </trkpt>
      <trkpt lat="43.21988" lon="5.81339">
        <ele>238.785965</ele>
        <time>2022-08-19T05:35:45Z</time>
      </trkpt>
      <trkpt lat="43.21996" lon="5.81335">
        <ele>239.091995</ele>
        <time>2022-08-19T05:35:47Z</time>
      </trkpt>
      <trkpt lat="43.22004" lon="5.81331">
        <ele>239.244385</ele>
        <time>2022-08-19T05:35:49Z</time>
      </trkpt>
      <trkpt lat="43.22012" lon="5.81325">
        <ele>239.547409</ele>
        <time>2022-08-19T05:35:51Z</time>
      </trkpt>
      <trkpt lat="43.2202" lon="5.8132">
        <ele>239.697662</ele>
        <time>2022-08-19T05:35:53Z</time>
      </trkpt>
      <trkpt lat="43.22028" lon="5.81315">
        <ele>239.993851</ele>
        <time>2022-08-19T05:35:55Z</time>
      </trkpt>
      <trkpt lat="43.22035" lon="5.8131">
        <ele>240.28418</ele>
        <time>2022-08-19T05:35:57Z</time>
      </trkpt>
      <trkpt lat="43.22043" lon="5.81304">
        <ele>240.428864</ele>
        <time>2022-08-19T05:35:59Z</time>
      </trkpt>
      <trkpt lat="43.22051" lon="5.81299">
        <ele>240.721802</ele>
        <time>2022-08-19T05:36:01Z</time>
      </trkpt>
      <trkpt lat="43.22059" lon="5.81293">
        <ele>240.871292</ele>
        <time>2022-08-19T05:36:03Z</time>
      </trkpt>
      <trkpt lat="43.22066" lon="5.81288">
        <ele>241.176682</ele>
        <time>2022-08-19T05:36:05Z</time>
      </trkpt>
      <trkpt lat="43.22073" lon="5.81282">
        <ele>241.332245</ele>
        <time>2022-08-19T05:36:07Z</time>
      </trkpt>
      <trkpt lat="43.22081" lon="5.81276">
        <ele>241.647461</ele>
        <time>2022-08-19T05:36:09Z</time>
      </trkpt>
      <trkpt lat="43.22088" lon="5.81271">
        <ele>241.965775</ele>
        <time>2022-08-19T05:36:11Z</time>
      </trkpt>
      <trkpt lat="43.22096" lon="5.81266">
        <ele>242.12558</ele>
        <time>2022-08-19T05:36:13Z</time>
      </trkpt>
      <trkpt lat="43.22103" lon="5.8126">
        <ele>242.446381</ele>
        <time>2022-08-19T05:36:15Z</time>
      </trkpt>
      <trkpt lat="43.2211" lon="5.81255">
        <ele>242.607834</ele>
        <time>2022-08-19T05:36:17Z</time>
      </trkpt>
      <trkpt lat="43.22118" lon="5.8125">
        <ele>242.935333</ele>
        <time>2022-08-19T05:36:19Z</time>
      </trkpt>
      <trkpt lat="43.22125" lon="5.81244">
        <ele>243.102386</ele>
        <time>2022-08-19T05:36:21Z</time>
      </trkpt>
      <trkpt lat="43.22133" lon="5.81239">
        <ele>243.44487</ele>
        <time>2022-08-19T05:36:23Z</time>
      </trkpt>
      <trkpt lat="43.22141" lon="5.81233">
        <ele>243.620148</ele>
        <time>2022-08-19T05:36:25Z</time>
      </trkpt>
      <trkpt lat="43.22149" lon="5.81229">
        <ele>243.977295</ele>
        <time>2022-08-19T05:36:27Z</time>
      </trkpt>
      <trkpt lat="43.22156" lon="5.81224">
        <ele>244.158417</ele>
        <time>2022-08-19T05:36:29Z</time>
      </trkpt>
      <trkpt lat="43.22163" lon="5.81219">
        <ele>244.524078</ele>
        <time>2022-08-19T05:36:31Z</time>
      </trkpt>
      <trkpt lat="43.22171" lon="5.81215">
        <ele>244.889969</ele>
        <time>2022-08-19T05:36:33Z</time>
      </trkpt>
      <trkpt lat="43.22179" lon="5.81212">
        <ele>245.071121</ele>
        <time>2022-08-19T05:36:35Z</time>
      </trkpt>
      <trkpt lat="43.22188" lon="5.81209">
        <ele>245.428146</ele>
        <time>2022-08-19T05:36:37Z</time>
      </trkpt>
      <trkpt lat="43.22196" lon="5.81208">
        <ele>245.604645</ele>
        <time>2022-08-19T05:36:39Z</time>
      </trkpt>
      <trkpt lat="43.22204" lon="5.81207">
        <ele>245.95755</ele>
        <time>2022-08-19T05:36:41Z</time>
      </trkpt>
      <trkpt lat="43.22212" lon="5.81208">
        <ele>246.136353</ele>
        <time>2022-08-19T05:36:43Z</time>
      </trkpt>
      <trkpt lat="43.2222" lon="5.81209">
        <ele>246.505447</ele>
        <time>2022-08-19T05:36:45Z</time>
      </trkpt>
      <trkpt lat="43.22229" lon="5.81212">
        <ele>246.899857</ele>
        <time>2022-08-19T05:36:47Z</time>
      </trkpt>
      <trkpt lat="43.22237" lon="5.81215">
        <ele>247.109543</ele>
        <time>2022-08-19T05:36:49Z</time>
      </trkpt>
      <trkpt lat="43.22246" lon="5.81218">
        <ele>247.556885</ele>
        <time>2022-08-19T05:36:51Z</time>
      </trkpt>
      <trkpt lat="43.22254" lon="5.8122">
        <ele>247.794678</ele>
        <time>2022-08-19T05:36:53Z</time>
      </trkpt>
      <trkpt lat="43.22263" lon="5.81223">
        <ele>248.299713</ele>
        <time>2022-08-19T05:36:55Z</time>
      </trkpt>
      <trkpt lat="43.22271" lon="5.81225">
        <ele>248.566895</ele>
        <time>2022-08-19T05:36:57Z</time>
      </trkpt>
      <trkpt lat="43.22279" lon="5.81227">
        <ele>249.131439</ele>
        <time>2022-08-19T05:36:59Z</time>
      </trkpt>
      <trkpt lat="43.22286" lon="5.81229">
        <ele>249.429291</ele>
        <time>2022-08-19T05:37:01Z</time>
      </trkpt>
      <trkpt lat="43.22294" lon="5.81231">
        <ele>250.058319</ele>
        <time>2022-08-19T05:37:03Z</time>
      </trkpt>
      <trkpt lat="43.22302" lon="5.81233">
        <ele>250.733078</ele>
        <time>2022-08-19T05:37:05Z</time>
      </trkpt>
      <trkpt lat="43.2231" lon="5.81235">
        <ele>251.087891</ele>
        <time>2022-08-19T05:37:07Z</time>
      </trkpt>
      <trkpt lat="43.22318" lon="5.81237">
        <ele>251.832123</ele>
        <time>2022-08-19T05:37:09Z</time>
      </trkpt>
      <trkpt lat="43.22327" lon="5.81238">
        <ele>252.221344</ele>
        <time>2022-08-19T05:37:11Z</time>
      </trkpt>
      <trkpt lat="43.22335" lon="5.81238">
        <ele>253.0336</ele>
        <time>2022-08-19T05:37:13Z</time>
      </trkpt>
      <trkpt lat="43.22344" lon="5.81237">
        <ele>253.888748</ele>
        <time>2022-08-19T05:37:15Z</time>
      </trkpt>
      <trkpt lat="43.22353" lon="5.81234">
        <ele>254.331131</ele>
        <time>2022-08-19T05:37:17Z</time>
      </trkpt>
      <trkpt lat="43.2236" lon="5.8123">
        <ele>255.240997</ele>
        <time>2022-08-19T05:37:19Z</time>
      </trkpt>
      <trkpt lat="43.22368" lon="5.81225">
        <ele>255.706085</ele>
        <time>2022-08-19T05:37:21Z</time>
      </trkpt>
      <trkpt lat="43.22376" lon="5.8122">
        <ele>256.649719</ele>
        <time>2022-08-19T05:37:23Z</time>
      </trkpt>
      <trkpt lat="43.22383" lon="5.81214">
        <ele>257.12558</ele>
        <time>2022-08-19T05:37:25Z</time>
      </trkpt>
      <trkpt lat="43.2239" lon="5.81209">
        <ele>258.080719</ele>
        <time>2022-08-19T05:37:27Z</time>
      </trkpt>
      <trkpt lat="43.22397" lon="5.81204">
        <ele>259.034607</ele>
        <time>2022-08-19T05:37:29Z</time>
      </trkpt>
      <trkpt lat="43.22405" lon="5.81199">
        <ele>259.509003</ele>
        <time>2022-08-19T05:37:31Z</time>
      </trkpt>
      <trkpt lat="43.22411" lon="5.81192">
        <ele>260.448669</ele>
        <time>2022-08-19T05:37:33Z</time>
      </trkpt>
      <trkpt lat="43.22418" lon="5.81185">
        <ele>260.912231</ele>
        <time>2022-08-19T05:37:35Z</time>
      </trkpt>
      <trkpt lat="43.22424" lon="5.81178">
        <ele>261.821136</ele>
        <time>2022-08-19T05:37:37Z</time>
      </trkpt>
      <trkpt lat="43.2243" lon="5.8117">
        <ele>262.263367</ele>
        <time>2022-08-19T05:37:39Z</time>
      </trkpt>
      <trkpt lat="43.22435" lon="5.81161">
        <ele>263.114105</ele>
        <time>2022-08-19T05:37:41Z</time>
      </trkpt>
      <trkpt lat="43.22441" lon="5.81152">
        <ele>263.519196</ele>
        <time>2022-08-19T05:37:43Z</time>
      </trkpt>
      <trkpt lat="43.22445" lon="5.81143">
        <ele>264.281677</ele>
        <time>2022-08-19T05:37:45Z</time>
      </trkpt>
      <trkpt lat="43.22449" lon="5.81132">
        <ele>264.974121</ele>
        <time>2022-08-19T05:37:47Z</time>
      </trkpt>
      <trkpt lat="43.22452" lon="5.81122">
        <ele>265.292419</ele>
        <time>2022-08-19T05:37:49Z</time>
      </trkpt>
      <trkpt lat="43.22456" lon="5.81111">
        <ele>265.869446</ele>
        <time>2022-08-19T05:37:51Z</time>
      </trkpt>
      <trkpt lat="43.2246" lon="5.811">
        <ele>266.126343</ele>
        <time>2022-08-19T05:37:53Z</time>
      </trkpt>
      <trkpt lat="43.22465" lon="5.8109">
        <ele>266.572052</ele>
        <time>2022-08-19T05:37:55Z</time>
      </trkpt>
      <trkpt lat="43.22471" lon="5.81081">
        <ele>266.760193</ele>
        <time>2022-08-19T05:37:57Z</time>
      </trkpt>
      <trkpt lat="43.22477" lon="5.81074">
        <ele>267.065521</ele>
        <time>2022-08-19T05:37:59Z</time>
      </trkpt>
      <trkpt lat="43.22484" lon="5.81068">
        <ele>267.183472</ele>
        <time>2022-08-19T05:38:01Z</time>
      </trkpt>
      <trkpt lat="43.22492" lon="5.81062">
        <ele>267.354736</ele>
        <time>2022-08-19T05:38:03Z</time>
      </trkpt>
      <trkpt lat="43.225" lon="5.81057">
        <ele>267.450439</ele>
        <time>2022-08-19T05:38:05Z</time>
      </trkpt>
      <trkpt lat="43.22507" lon="5.81053">
        <ele>267.474701</ele>
        <time>2022-08-19T05:38:07Z</time>
      </trkpt>
      <trkpt lat="43.22515" lon="5.8105">
        <ele>267.487762</ele>
        <time>2022-08-19T05:38:09Z</time>
      </trkpt>
      <trkpt lat="43.22523" lon="5.81048">
        <ele>267.481903</ele>
        <time>2022-08-19T05:38:11Z</time>
      </trkpt>
      <trkpt lat="43.22531" lon="5.81046">
        <ele>267.460358</ele>
        <time>2022-08-19T05:38:13Z</time>
      </trkpt>
      <trkpt lat="43.22539" lon="5.81046">
        <ele>267.44516</ele>
        <time>2022-08-19T05:38:15Z</time>
      </trkpt>
      <trkpt lat="43.22546" lon="5.81047">
        <ele>267.446075</ele>
        <time>2022-08-19T05:38:17Z</time>
      </trkpt>
      <trkpt lat="43.22554" lon="5.81049">
        <ele>267.475067</ele>
        <time>2022-08-19T05:38:19Z</time>
      </trkpt>
      <trkpt lat="43.22562" lon="5.81051">
        <ele>267.5065</ele>
        <time>2022-08-19T05:38:21Z</time>
      </trkpt>
      <trkpt lat="43.22569" lon="5.81053">
        <ele>267.609314</ele>
        <time>2022-08-19T05:38:23Z</time>
      </trkpt>
      <trkpt lat="43.22577" lon="5.81054">
        <ele>267.681946</ele>
        <time>2022-08-19T05:38:25Z</time>
      </trkpt>
      <trkpt lat="43.22585" lon="5.81055">
        <ele>267.871948</ele>
        <time>2022-08-19T05:38:27Z</time>
      </trkpt>
      <trkpt lat="43.22593" lon="5.81055">
        <ele>268.124268</ele>
        <time>2022-08-19T05:38:29Z</time>
      </trkpt>
      <trkpt lat="43.22601" lon="5.81054">
        <ele>268.274994</ele>
        <time>2022-08-19T05:38:31Z</time>
      </trkpt>
      <trkpt lat="43.22609" lon="5.81052">
        <ele>268.625183</ele>
        <time>2022-08-19T05:38:33Z</time>
      </trkpt>
      <trkpt lat="43.22616" lon="5.81048">
        <ele>268.82312</ele>
        <time>2022-08-19T05:38:35Z</time>
      </trkpt>
      <trkpt lat="43.22623" lon="5.81043">
        <ele>269.259186</ele>
        <time>2022-08-19T05:38:37Z</time>
      </trkpt>
      <trkpt lat="43.22631" lon="5.81037">
        <ele>269.495514</ele>
        <time>2022-08-19T05:38:39Z</time>
      </trkpt>
      <trkpt lat="43.22639" lon="5.81031">
        <ele>270.001801</ele>
        <time>2022-08-19T05:38:41Z</time>
      </trkpt>
      <trkpt lat="43.22646" lon="5.81025">
        <ele>270.550934</ele>
        <time>2022-08-19T05:38:43Z</time>
      </trkpt>
      <trkpt lat="43.22654" lon="5.81019">
        <ele>270.841125</ele>
        <time>2022-08-19T05:38:45Z</time>
      </trkpt>
      <trkpt lat="43.22661" lon="5.81013">
        <ele>271.448364</ele>
        <time>2022-08-19T05:38:47Z</time>
      </trkpt>
      <trkpt lat="43.22668" lon="5.81007">
        <ele>271.766754</ele>
        <time>2022-08-19T05:38:49Z</time>
      </trkpt>
      <trkpt lat="43.22674" lon="5.81002">
        <ele>272.430664</ele>
        <time>2022-08-19T05:38:51Z</time>
      </trkpt>
      <trkpt lat="43.22681" lon="5.80996">
        <ele>272.774506</ele>
        <time>2022-08-19T05:38:53Z</time>
      </trkpt>
      <trkpt lat="43.22688" lon="5.80991">
        <ele>273.479309</ele>
        <time>2022-08-19T05:38:55Z</time>
      </trkpt>
      <trkpt lat="43.22695" lon="5.80985">
        <ele>274.197571</ele>
        <time>2022-08-19T05:38:57Z</time>
      </trkpt>
      <trkpt lat="43.22702" lon="5.8098">
        <ele>274.558899</ele>
        <time>2022-08-19T05:38:59Z</time>
      </trkpt>
      <trkpt lat="43.22709" lon="5.80973">
        <ele>275.28125</ele>
        <time>2022-08-19T05:39:01Z</time>
      </trkpt>
      <trkpt lat="43.22717" lon="5.80968">
        <ele>275.640167</ele>
        <time>2022-08-19T05:39:03Z</time>
      </trkpt>
      <trkpt lat="43.22724" lon="5.80961">
        <ele>276.347351</ele>
        <time>2022-08-19T05:39:05Z</time>
      </trkpt>
      <trkpt lat="43.22731" lon="5.80956">
        <ele>276.692963</ele>
        <time>2022-08-19T05:39:07Z</time>
      </trkpt>
      <trkpt lat="43.22738" lon="5.8095">
        <ele>277.361969</ele>
        <time>2022-08-19T05:39:09Z</time>
      </trkpt>
      <trkpt lat="43.22745" lon="5.80945">
        <ele>277.993378</ele>
        <time>2022-08-19T05:39:11Z</time>
      </trkpt>
      <trkpt lat="43.22752" lon="5.80939">
        <ele>278.291718</ele>
        <time>2022-08-19T05:39:13Z</time>
      </trkpt>
      <trkpt lat="43.22759" lon="5.80934">
        <ele>278.848572</ele>
        <time>2022-08-19T05:39:15Z</time>
      </trkpt>
      <trkpt lat="43.22767" lon="5.80928">
        <ele>279.105255</ele>
        <time>2022-08-19T05:39:17Z</time>
      </trkpt>
      <trkpt lat="43.22774" lon="5.80923">
        <ele>279.572876</ele>
        <time>2022-08-19T05:39:19Z</time>
      </trkpt>
      <trkpt lat="43.22781" lon="5.80917">
        <ele>279.783112</ele>
        <time>2022-08-19T05:39:21Z</time>
      </trkpt>
      <trkpt lat="43.22788" lon="5.80912">
        <ele>280.156067</ele>
        <time>2022-08-19T05:39:23Z</time>
      </trkpt>
      <trkpt lat="43.22795" lon="5.80906">
        <ele>280.46875</ele>
        <time>2022-08-19T05:39:25Z</time>
      </trkpt>
      <trkpt lat="43.22802" lon="5.809">
        <ele>280.60437</ele>
        <time>2022-08-19T05:39:27Z</time>
      </trkpt>
      <trkpt lat="43.22809" lon="5.80894">
        <ele>280.839355</ele>
        <time>2022-08-19T05:39:29Z</time>
      </trkpt>
      <trkpt lat="43.22817" lon="5.80888">
        <ele>280.942078</ele>
        <time>2022-08-19T05:39:31Z</time>
      </trkpt>
      <trkpt lat="43.22824" lon="5.80883">
        <ele>281.12973</ele>
        <time>2022-08-19T05:39:33Z</time>
      </trkpt>
      <trkpt lat="43.22831" lon="5.80877">
        <ele>281.21991</ele>
        <time>2022-08-19T05:39:35Z</time>
      </trkpt>
      <trkpt lat="43.22838" lon="5.80871">
        <ele>281.404602</ele>
        <time>2022-08-19T05:39:37Z</time>
      </trkpt>
      <trkpt lat="43.22846" lon="5.80865">
        <ele>281.601868</ele>
        <time>2022-08-19T05:39:39Z</time>
      </trkpt>
      <trkpt lat="43.22853" lon="5.80859">
        <ele>281.70636</ele>
        <time>2022-08-19T05:39:41Z</time>
      </trkpt>
      <trkpt lat="43.2286" lon="5.80853">
        <ele>281.930023</ele>
        <time>2022-08-19T05:39:43Z</time>
      </trkpt>
      <trkpt lat="43.22868" lon="5.80847">
        <ele>282.050659</ele>
        <time>2022-08-19T05:39:45Z</time>
      </trkpt>
      <trkpt lat="43.22875" lon="5.80841">
        <ele>282.313812</ele>
        <time>2022-08-19T05:39:47Z</time>
      </trkpt>
      <trkpt lat="43.22883" lon="5.80835">
        <ele>282.457581</ele>
        <time>2022-08-19T05:39:49Z</time>
      </trkpt>
      <trkpt lat="43.2289" lon="5.8083">
        <ele>282.771606</ele>
        <time>2022-08-19T05:39:51Z</time>
      </trkpt>
      <trkpt lat="43.22897" lon="5.80824">
        <ele>283.122559</ele>
        <time>2022-08-19T05:39:53Z</time>
      </trkpt>
      <trkpt lat="43.22904" lon="5.80818">
        <ele>283.312256</ele>
        <time>2022-08-19T05:39:55Z</time>
      </trkpt>
      <trkpt lat="43.22911" lon="5.80812">
        <ele>283.720459</ele>
        <time>2022-08-19T05:39:57Z</time>
      </trkpt>
      <trkpt lat="43.22918" lon="5.80804">
        <ele>283.938904</ele>
        <time>2022-08-19T05:39:59Z</time>
      </trkpt>
      <trkpt lat="43.22924" lon="5.80796">
        <ele>284.403625</ele>
        <time>2022-08-19T05:40:01Z</time>
      </trkpt>
      <trkpt lat="43.2293" lon="5.80787">
        <ele>284.648865</ele>
        <time>2022-08-19T05:40:03Z</time>
      </trkpt>
      <trkpt lat="43.22936" lon="5.80778">
        <ele>285.161682</ele>
        <time>2022-08-19T05:40:05Z</time>
      </trkpt>
      <trkpt lat="43.22941" lon="5.80769">
        <ele>285.427795</ele>
        <time>2022-08-19T05:40:07Z</time>
      </trkpt>
      <trkpt lat="43.22946" lon="5.80759">
        <ele>285.976074</ele>
        <time>2022-08-19T05:40:09Z</time>
      </trkpt>
      <trkpt lat="43.22951" lon="5.80749">
        <ele>286.540924</ele>
        <time>2022-08-19T05:40:11Z</time>
      </trkpt>
      <trkpt lat="43.22957" lon="5.8074">
        <ele>286.827087</ele>
        <time>2022-08-19T05:40:13Z</time>
      </trkpt>
      <trkpt lat="43.22962" lon="5.8073">
        <ele>287.402496</ele>
        <time>2022-08-19T05:40:15Z</time>
      </trkpt>
      <trkpt lat="43.22967" lon="5.80721">
        <ele>287.690613</ele>
        <time>2022-08-19T05:40:17Z</time>
      </trkpt>
      <trkpt lat="43.22973" lon="5.80712">
        <ele>288.266602</ele>
        <time>2022-08-19T05:40:19Z</time>
      </trkpt>
      <trkpt lat="43.22978" lon="5.80702">
        <ele>288.55426</ele>
        <time>2022-08-19T05:40:21Z</time>
      </trkpt>
      <trkpt lat="43.22983" lon="5.80693">
        <ele>289.124695</ele>
        <time>2022-08-19T05:40:23Z</time>
      </trkpt>
      <trkpt lat="43.22988" lon="5.80683">
        <ele>289.405121</ele>
        <time>2022-08-19T05:40:25Z</time>
      </trkpt>
      <trkpt lat="43.22993" lon="5.80674">
        <ele>289.950531</ele>
        <time>2022-08-19T05:40:27Z</time>
      </trkpt>
      <trkpt lat="43.22998" lon="5.80664">
        <ele>290.214691</ele>
        <time>2022-08-19T05:40:29Z</time>
      </trkpt>
      <trkpt lat="43.23004" lon="5.80655">
        <ele>290.725586</ele>
        <time>2022-08-19T05:40:31Z</time>
      </trkpt>
      <trkpt lat="43.2301" lon="5.80645">
        <ele>291.213318</ele>
        <time>2022-08-19T05:40:33Z</time>
      </trkpt>
      <trkpt lat="43.23015" lon="5.80636">
        <ele>291.44809</ele>
        <time>2022-08-19T05:40:35Z</time>
      </trkpt>
      <trkpt lat="43.2302" lon="5.80626">
        <ele>291.897461</ele>
        <time>2022-08-19T05:40:37Z</time>
      </trkpt>
      <trkpt lat="43.23026" lon="5.80617">
        <ele>292.111237</ele>
        <time>2022-08-19T05:40:39Z</time>
      </trkpt>
      <trkpt lat="43.23032" lon="5.80607">
        <ele>292.51709</ele>
        <time>2022-08-19T05:40:41Z</time>
      </trkpt>
      <trkpt lat="43.23037" lon="5.80598">
        <ele>292.710205</ele>
        <time>2022-08-19T05:40:43Z</time>
      </trkpt>
      <trkpt lat="43.23042" lon="5.80589">
        <ele>293.080627</ele>
        <time>2022-08-19T05:40:45Z</time>
      </trkpt>
      <trkpt lat="43.23048" lon="5.80579">
        <ele>293.434784</ele>
        <time>2022-08-19T05:40:47Z</time>
      </trkpt>
      <trkpt lat="43.23053" lon="5.8057">
        <ele>293.607391</ele>
        <time>2022-08-19T05:40:49Z</time>
      </trkpt>
      <trkpt lat="43.23058" lon="5.8056">
        <ele>293.947052</ele>
        <time>2022-08-19T05:40:51Z</time>
      </trkpt>
      <trkpt lat="43.23064" lon="5.80551">
        <ele>294.115021</ele>
        <time>2022-08-19T05:40:53Z</time>
      </trkpt>
      <trkpt lat="43.2307" lon="5.80543">
        <ele>294.449249</ele>
        <time>2022-08-19T05:40:55Z</time>
      </trkpt>
      <trkpt lat="43.23076" lon="5.80535">
        <ele>294.615967</ele>
        <time>2022-08-19T05:40:57Z</time>
      </trkpt>
      <trkpt lat="43.23083" lon="5.80529">
        <ele>294.951965</ele>
        <time>2022-08-19T05:40:59Z</time>
      </trkpt>
      <trkpt lat="43.2309" lon="5.80524">
        <ele>295.299255</ele>
        <time>2022-08-19T05:41:01Z</time>
      </trkpt>
      <trkpt lat="43.23098" lon="5.80519">
        <ele>295.481018</ele>
        <time>2022-08-19T05:41:03Z</time>
      </trkpt>
      <trkpt lat="43.23106" lon="5.80517">
        <ele>295.869812</ele>
        <time>2022-08-19T05:41:05Z</time>
      </trkpt>
      <trkpt lat="43.23114" lon="5.80516">
        <ele>296.080444</ele>
        <time>2022-08-19T05:41:07Z</time>
      </trkpt>
      <trkpt lat="43.23122" lon="5.80516">
        <ele>296.543121</ele>
        <time>2022-08-19T05:41:09Z</time>
      </trkpt>
      <trkpt lat="43.23131" lon="5.80517">
        <ele>296.797791</ele>
        <time>2022-08-19T05:41:11Z</time>
      </trkpt>
      <trkpt lat="43.23139" lon="5.80519">
        <ele>297.354919</ele>
        <time>2022-08-19T05:41:13Z</time>
      </trkpt>
      <trkpt lat="43.23148" lon="5.80522">
        <ele>297.966461</ele>
        <time>2022-08-19T05:41:15Z</time>
      </trkpt>
      <trkpt lat="43.23156" lon="5.80525">
        <ele>298.287659</ele>
        <time>2022-08-19T05:41:17Z</time>
      </trkpt>
      <trkpt lat="43.23164" lon="5.8053">
        <ele>298.953827</ele>
        <time>2022-08-19T05:41:19Z</time>
      </trkpt>
      <trkpt lat="43.23171" lon="5.80536">
        <ele>299.297668</ele>
        <time>2022-08-19T05:41:21Z</time>
      </trkpt>
      <trkpt lat="43.23177" lon="5.80544">
        <ele>300.006165</ele>
        <time>2022-08-19T05:41:23Z</time>
      </trkpt>
      <trkpt lat="43.23182" lon="5.80554">
        <ele>300.744141</ele>
        <time>2022-08-19T05:41:25Z</time>
      </trkpt>
      <trkpt lat="43.23185" lon="5.80566">
        <ele>301.125305</ele>
        <time>2022-08-19T05:41:27Z</time>
      </trkpt>
      <trkpt lat="43.23187" lon="5.80577">
        <ele>301.914307</ele>
        <time>2022-08-19T05:41:29Z</time>
      </trkpt>
      <trkpt lat="43.23186" lon="5.80589">
        <ele>302.322327</ele>
        <time>2022-08-19T05:41:31Z</time>
      </trkpt>
      <trkpt lat="43.23183" lon="5.80601">
        <ele>303.161499</ele>
        <time>2022-08-19T05:41:33Z</time>
      </trkpt>
      <trkpt lat="43.2318" lon="5.80611">
        <ele>303.589691</ele>
        <time>2022-08-19T05:41:35Z</time>
      </trkpt>
      <trkpt lat="43.23177" lon="5.80622">
        <ele>304.455322</ele>
        <time>2022-08-19T05:41:37Z</time>
      </trkpt>
      <trkpt lat="43.23173" lon="5.80633">
        <ele>305.32547</ele>
        <time>2022-08-19T05:41:39Z</time>
      </trkpt>
      <trkpt lat="43.23169" lon="5.80643">
        <ele>305.759888</ele>
        <time>2022-08-19T05:41:41Z</time>
      </trkpt>
      <trkpt lat="43.23164" lon="5.80654">
        <ele>306.625519</ele>
        <time>2022-08-19T05:41:43Z</time>
      </trkpt>
      <trkpt lat="43.23161" lon="5.80665">
        <ele>307.057312</ele>
        <time>2022-08-19T05:41:45Z</time>
      </trkpt>
      <trkpt lat="43.23157" lon="5.80675">
        <ele>307.923065</ele>
        <time>2022-08-19T05:41:47Z</time>
      </trkpt>
      <trkpt lat="43.23153" lon="5.80686">
        <ele>308.794983</ele>
        <time>2022-08-19T05:41:49Z</time>
      </trkpt>
      <trkpt lat="43.2315" lon="5.80696">
        <ele>309.232727</ele>
        <time>2022-08-19T05:41:51Z</time>
      </trkpt>
      <trkpt lat="43.23146" lon="5.80707">
        <ele>310.108948</ele>
        <time>2022-08-19T05:41:53Z</time>
      </trkpt>
      <trkpt lat="43.23142" lon="5.80717">
        <ele>310.54599</ele>
        <time>2022-08-19T05:41:55Z</time>
      </trkpt>
      <trkpt lat="43.23138" lon="5.80728">
        <ele>311.412445</ele>
        <time>2022-08-19T05:41:57Z</time>
      </trkpt>
      <trkpt lat="43.23134" lon="5.80739">
        <ele>311.838531</ele>
        <time>2022-08-19T05:41:59Z</time>
      </trkpt>
      <trkpt lat="43.2313" lon="5.80749">
        <ele>312.668976</ele>
        <time>2022-08-19T05:42:01Z</time>
      </trkpt>
      <trkpt lat="43.23126" lon="5.8076">
        <ele>313.071472</ele>
        <time>2022-08-19T05:42:03Z</time>
      </trkpt>
      <trkpt lat="43.23123" lon="5.8077">
        <ele>313.852966</ele>
        <time>2022-08-19T05:42:05Z</time>
      </trkpt>
      <trkpt lat="43.23119" lon="5.80781">
        <ele>314.612732</ele>
        <time>2022-08-19T05:42:07Z</time>
      </trkpt>
      <trkpt lat="43.23116" lon="5.80791">
        <ele>314.987762</ele>
        <time>2022-08-19T05:42:09Z</time>
      </trkpt>
      <trkpt lat="43.23114" lon="5.80803">
        <ele>315.729065</ele>
        <time>2022-08-19T05:42:11Z</time>
      </trkpt>
      <trkpt lat="43.23113" lon="5.80815">
        <ele>316.455719</ele>
        <time>2022-08-19T05:42:13Z</time>
      </trkpt>
      <trkpt lat="43.23115" lon="5.80827">
        <ele>316.812805</ele>
        <time>2022-08-19T05:42:15Z</time>
      </trkpt>
      <trkpt lat="43.23118" lon="5.80839">
        <ele>317.51709</ele>
        <time>2022-08-19T05:42:17Z</time>
      </trkpt>
      <trkpt lat="43.23123" lon="5.80849">
        <ele>317.866028</ele>
        <time>2022-08-19T05:42:19Z</time>
      </trkpt>
      <trkpt lat="43.23129" lon="5.80858">
        <ele>318.557892</ele>
        <time>2022-08-19T05:42:21Z</time>
      </trkpt>
      <trkpt lat="43.23136" lon="5.80865">
        <ele>318.899261</ele>
        <time>2022-08-19T05:42:23Z</time>
      </trkpt>
      <trkpt lat="43.23143" lon="5.80869">
        <ele>319.568512</ele>
        <time>2022-08-19T05:42:25Z</time>
      </trkpt>
      <trkpt lat="43.23152" lon="5.80871">
        <ele>319.896057</ele>
        <time>2022-08-19T05:42:27Z</time>
      </trkpt>
      <trkpt lat="43.2316" lon="5.80871">
        <ele>320.540192</ele>
        <time>2022-08-19T05:42:29Z</time>
      </trkpt>
      <trkpt lat="43.23168" lon="5.80868">
        <ele>320.858826</ele>
        <time>2022-08-19T05:42:31Z</time>
      </trkpt>
      <trkpt lat="43.23175" lon="5.80864">
        <ele>321.493347</ele>
        <time>2022-08-19T05:42:33Z</time>
      </trkpt>
      <trkpt lat="43.23183" lon="5.80859">
        <ele>322.126129</ele>
        <time>2022-08-19T05:42:35Z</time>
      </trkpt>
      <trkpt lat="43.23189" lon="5.80852">
        <ele>322.441315</ele>
        <time>2022-08-19T05:42:37Z</time>
      </trkpt>
      <trkpt lat="43.23196" lon="5.80846">
        <ele>323.06723</ele>
        <time>2022-08-19T05:42:39Z</time>
      </trkpt>
      <trkpt lat="43.23203" lon="5.80839">
        <ele>323.377167</ele>
        <time>2022-08-19T05:42:41Z</time>
      </trkpt>
      <trkpt lat="43.23209" lon="5.80831">
        <ele>323.987396</ele>
        <time>2022-08-19T05:42:43Z</time>
      </trkpt>
      <trkpt lat="43.23216" lon="5.80823">
        <ele>324.285797</ele>
        <time>2022-08-19T05:42:45Z</time>
      </trkpt>
      <trkpt lat="43.23222" lon="5.80816">
        <ele>324.8638</ele>
        <time>2022-08-19T05:42:47Z</time>
      </trkpt>
      <trkpt lat="43.23229" lon="5.80808">
        <ele>325.141907</ele>
        <time>2022-08-19T05:42:49Z</time>
      </trkpt>
      <trkpt lat="43.23235" lon="5.808">
        <ele>325.673065</ele>
        <time>2022-08-19T05:42:51Z</time>
      </trkpt>
      <trkpt lat="43.23242" lon="5.80793">
        <ele>326.16684</ele>
        <time>2022-08-19T05:42:53Z</time>
      </trkpt>
      <trkpt lat="43.23248" lon="5.80785">
        <ele>326.399261</ele>
        <time>2022-08-19T05:42:55Z</time>
      </trkpt>
      <trkpt lat="43.23254" lon="5.80778">
        <ele>326.836639</ele>
        <time>2022-08-19T05:42:57Z</time>
      </trkpt>
      <trkpt lat="43.2326" lon="5.8077">
        <ele>327.042297</ele>
        <time>2022-08-19T05:42:59Z</time>
      </trkpt>
      <trkpt lat="43.23266" lon="5.80762">
        <ele>327.429382</ele>
        <time>2022-08-19T05:43:01Z</time>
      </trkpt>
      <trkpt lat="43.23272" lon="5.80753">
        <ele>327.612305</ele>
        <time>2022-08-19T05:43:03Z</time>
      </trkpt>
      <trkpt lat="43.23276" lon="5.80744">
        <ele>327.96051</ele>
        <time>2022-08-19T05:43:05Z</time>
      </trkpt>
      <trkpt lat="43.23281" lon="5.80735">
        <ele>328.284424</ele>
        <time>2022-08-19T05:43:07Z</time>
      </trkpt>
      <trkpt lat="43.23286" lon="5.80726">
        <ele>328.433746</ele>
        <time>2022-08-19T05:43:09Z</time>
      </trkpt>
      <trkpt lat="43.2329" lon="5.80716">
        <ele>328.699646</ele>
        <time>2022-08-19T05:43:11Z</time>
      </trkpt>
      <trkpt lat="43.23294" lon="5.80707">
        <ele>328.815735</ele>
        <time>2022-08-19T05:43:13Z</time>
      </trkpt>
      <trkpt lat="43.23298" lon="5.80697">
        <ele>329.020111</ele>
        <time>2022-08-19T05:43:15Z</time>
      </trkpt>
      <trkpt lat="43.23303" lon="5.80687">
        <ele>329.110992</ele>
        <time>2022-08-19T05:43:17Z</time>
      </trkpt>
      <trkpt lat="43.23307" lon="5.80677">
        <ele>329.27298</ele>
        <time>2022-08-19T05:43:19Z</time>
      </trkpt>
      <trkpt lat="43.23312" lon="5.80668">
        <ele>329.407532</ele>
        <time>2022-08-19T05:43:21Z</time>
      </trkpt>
      <trkpt lat="43.23318" lon="5.80659">
        <ele>329.463959</ele>
        <time>2022-08-19T05:43:23Z</time>
      </trkpt>
      <trkpt lat="43.23324" lon="5.80651">
        <ele>329.555573</ele>
        <time>2022-08-19T05:43:25Z</time>
      </trkpt>
      <trkpt lat="43.23329" lon="5.80643">
        <ele>329.59198</ele>
        <time>2022-08-19T05:43:27Z</time>
      </trkpt>
      <trkpt lat="43.23335" lon="5.80635">
        <ele>329.650299</ele>
        <time>2022-08-19T05:43:29Z</time>
      </trkpt>
      <trkpt lat="43.23341" lon="5.80626">
        <ele>329.674652</ele>
        <time>2022-08-19T05:43:31Z</time>
      </trkpt>
      <trkpt lat="43.23348" lon="5.80618">
        <ele>329.722534</ele>
        <time>2022-08-19T05:43:33Z</time>
      </trkpt>
      <trkpt lat="43.23352" lon="5.80609">
        <ele>329.782043</ele>
        <time>2022-08-19T05:43:35Z</time>
      </trkpt>
      <trkpt lat="43.23357" lon="5.80599">
        <ele>329.820068</ele>
        <time>2022-08-19T05:43:37Z</time>
      </trkpt>
      <trkpt lat="43.23362" lon="5.8059">
        <ele>329.917572</ele>
        <time>2022-08-19T05:43:39Z</time>
      </trkpt>
      <trkpt lat="43.23366" lon="5.80581">
        <ele>329.978058</ele>
        <time>2022-08-19T05:43:41Z</time>
      </trkpt>
      <trkpt lat="43.23369" lon="5.80571">
        <ele>330.124786</ele>
        <time>2022-08-19T05:43:43Z</time>
      </trkpt>
      <trkpt lat="43.23372" lon="5.8056">
        <ele>330.210938</ele>
        <time>2022-08-19T05:43:45Z</time>
      </trkpt>
      <trkpt lat="43.23376" lon="5.8055">
        <ele>330.405579</ele>
        <time>2022-08-19T05:43:47Z</time>
      </trkpt>
      <trkpt lat="43.23378" lon="5.80539">
        <ele>330.512329</ele>
        <time>2022-08-19T05:43:49Z</time>
      </trkpt>
      <trkpt lat="43.23382" lon="5.80529">
        <ele>330.739746</ele>
        <time>2022-08-19T05:43:51Z</time>
      </trkpt>
      <trkpt lat="43.23385" lon="5.80518">
        <ele>330.980011</ele>
        <time>2022-08-19T05:43:53Z</time>
      </trkpt>
      <trkpt lat="43.23389" lon="5.80507">
        <ele>331.103058</ele>
        <time>2022-08-19T05:43:55Z</time>
      </trkpt>
      <trkpt lat="43.23392" lon="5.80496">
        <ele>331.353241</ele>
        <time>2022-08-19T05:43:57Z</time>
      </trkpt>
      <trkpt lat="43.23396" lon="5.80485">
        <ele>331.480438</ele>
        <time>2022-08-19T05:43:59Z</time>
      </trkpt>
      <trkpt lat="43.234" lon="5.80475">
        <ele>331.740417</ele>
        <time>2022-08-19T05:44:01Z</time>
      </trkpt>
      <trkpt lat="43.23404" lon="5.80464">
        <ele>331.873474</ele>
        <time>2022-08-19T05:44:03Z</time>
      </trkpt>
      <trkpt lat="43.23407" lon="5.80454">
        <ele>332.145416</ele>
        <time>2022-08-19T05:44:05Z</time>
      </trkpt>
      <trkpt lat="43.23411" lon="5.80444">
        <ele>332.422974</ele>
        <time>2022-08-19T05:44:07Z</time>
      </trkpt>
      <trkpt lat="43.23415" lon="5.80433">
        <ele>332.562927</ele>
        <time>2022-08-19T05:44:09Z</time>
      </trkpt>
      <trkpt lat="43.23418" lon="5.80423">
        <ele>332.843903</ele>
        <time>2022-08-19T05:44:11Z</time>
      </trkpt>
      <trkpt lat="43.23422" lon="5.80413">
        <ele>332.984314</ele>
        <time>2022-08-19T05:44:13Z</time>
      </trkpt>
      <trkpt lat="43.23426" lon="5.80402">
        <ele>333.262756</ele>
        <time>2022-08-19T05:44:15Z</time>
      </trkpt>
      <trkpt lat="43.23431" lon="5.80392">
        <ele>333.399567</ele>
        <time>2022-08-19T05:44:17Z</time>
      </trkpt>
      <trkpt lat="43.23437" lon="5.80383">
        <ele>333.665222</ele>
        <time>2022-08-19T05:44:19Z</time>
      </trkpt>
      <trkpt lat="43.23442" lon="5.80374">
        <ele>333.917236</ele>
        <time>2022-08-19T05:44:21Z</time>
      </trkpt>
      <trkpt lat="43.23448" lon="5.80365">
        <ele>334.03656</ele>
        <time>2022-08-19T05:44:23Z</time>
      </trkpt>
      <trkpt lat="43.23454" lon="5.80356">
        <ele>334.258057</ele>
        <time>2022-08-19T05:44:25Z</time>
      </trkpt>
      <trkpt lat="43.23459" lon="5.80347">
        <ele>334.359192</ele>
        <time>2022-08-19T05:44:27Z</time>
      </trkpt>
      <trkpt lat="43.23465" lon="5.80338">
        <ele>334.542419</ele>
        <time>2022-08-19T05:44:29Z</time>
      </trkpt>
      <trkpt lat="43.23471" lon="5.80329">
        <ele>334.625519</ele>
        <time>2022-08-19T05:44:31Z</time>
      </trkpt>
      <trkpt lat="43.23476" lon="5.8032">
        <ele>334.778809</ele>
        <time>2022-08-19T05:44:33Z</time>
      </trkpt>
      <trkpt lat="43.23483" lon="5.80311">
        <ele>334.850647</ele>
        <time>2022-08-19T05:44:35Z</time>
      </trkpt>
      <trkpt lat="43.23488" lon="5.80302">
        <ele>334.9888</ele>
        <time>2022-08-19T05:44:37Z</time>
      </trkpt>
      <trkpt lat="43.23493" lon="5.80293">
        <ele>335.056702</ele>
        <time>2022-08-19T05:44:39Z</time>
      </trkpt>
      <trkpt lat="43.23499" lon="5.80285">
        <ele>335.193451</ele>
        <time>2022-08-19T05:44:41Z</time>
      </trkpt>
      <trkpt lat="43.23505" lon="5.80276">
        <ele>335.335571</ele>
        <time>2022-08-19T05:44:43Z</time>
      </trkpt>
      <trkpt lat="43.23511" lon="5.80268">
        <ele>335.409973</ele>
        <time>2022-08-19T05:44:45Z</time>
      </trkpt>
      <trkpt lat="43.23517" lon="5.8026">
        <ele>335.567688</ele>
        <time>2022-08-19T05:44:47Z</time>
      </trkpt>
      <trkpt lat="43.23522" lon="5.80252">
        <ele>335.651306</ele>
        <time>2022-08-19T05:44:49Z</time>
      </trkpt>
      <trkpt lat="43.23529" lon="5.80244">
        <ele>335.828064</ele>
        <time>2022-08-19T05:44:51Z</time>
      </trkpt>
      <trkpt lat="43.23535" lon="5.80237">
        <ele>336.017578</ele>
        <time>2022-08-19T05:44:53Z</time>
      </trkpt>
      <trkpt lat="43.23542" lon="5.80229">
        <ele>336.117859</ele>
        <time>2022-08-19T05:44:55Z</time>
      </trkpt>
      <trkpt lat="43.23548" lon="5.80222">
        <ele>336.33374</ele>
        <time>2022-08-19T05:44:57Z</time>
      </trkpt>
      <trkpt lat="43.23555" lon="5.80214">
        <ele>336.451385</ele>
        <time>2022-08-19T05:44:59Z</time>
      </trkpt>
      <trkpt lat="43.23562" lon="5.80207">
        <ele>336.71051</ele>
        <time>2022-08-19T05:45:01Z</time>
      </trkpt>
      <trkpt lat="43.23568" lon="5.80199">
        <ele>336.852722</ele>
        <time>2022-08-19T05:45:03Z</time>
      </trkpt>
      <trkpt lat="43.23574" lon="5.80192">
        <ele>337.164337</ele>
        <time>2022-08-19T05:45:05Z</time>
      </trkpt>
      <trkpt lat="43.23581" lon="5.80186">
        <ele>337.334076</ele>
        <time>2022-08-19T05:45:07Z</time>
      </trkpt>
      <trkpt lat="43.23588" lon="5.80179">
        <ele>337.702179</ele>
        <time>2022-08-19T05:45:09Z</time>
      </trkpt>
      <trkpt lat="43.23595" lon="5.80173">
        <ele>338.107391</ele>
        <time>2022-08-19T05:45:11Z</time>
      </trkpt>
      <trkpt lat="43.23604" lon="5.80167">
        <ele>338.32312</ele>
        <time>2022-08-19T05:45:13Z</time>
      </trkpt>
      <trkpt lat="43.23612" lon="5.80164">
        <ele>338.779053</ele>
        <time>2022-08-19T05:45:15Z</time>
      </trkpt>
      <trkpt lat="43.23621" lon="5.80163">
        <ele>339.018463</ele>
        <time>2022-08-19T05:45:17Z</time>
      </trkpt>
      <trkpt lat="43.2363" lon="5.80165">
        <ele>339.51532</ele>
        <time>2022-08-19T05:45:19Z</time>
      </trkpt>
      <trkpt lat="43.23637" lon="5.80169">
        <ele>340.03775</ele>
        <time>2022-08-19T05:45:21Z</time>
      </trkpt>
      <trkpt lat="43.23645" lon="5.80173">
        <ele>340.311096</ele>
        <time>2022-08-19T05:45:23Z</time>
      </trkpt>
      <trkpt lat="43.23651" lon="5.8018">
        <ele>340.885437</ele>
        <time>2022-08-19T05:45:25Z</time>
      </trkpt>
      <trkpt lat="43.23657" lon="5.80187">
        <ele>341.187927</ele>
        <time>2022-08-19T05:45:27Z</time>
      </trkpt>
      <trkpt lat="43.23663" lon="5.80194">
        <ele>341.82782</ele>
        <time>2022-08-19T05:45:29Z</time>
      </trkpt>
      <trkpt lat="43.2367" lon="5.80202">
        <ele>342.520294</ele>
        <time>2022-08-19T05:45:31Z</time>
      </trkpt>
      <trkpt lat="43.23677" lon="5.8021">
        <ele>342.888275</ele>
        <time>2022-08-19T05:45:33Z</time>
      </trkpt>
      <trkpt lat="43.23683" lon="5.80218">
        <ele>343.664459</ele>
        <time>2022-08-19T05:45:35Z</time>
      </trkpt>
      <trkpt lat="43.23689" lon="5.80226">
        <ele>344.068481</ele>
        <time>2022-08-19T05:45:37Z</time>
      </trkpt>
      <trkpt lat="43.23695" lon="5.80233">
        <ele>344.896332</ele>
        <time>2022-08-19T05:45:39Z</time>
      </trkpt>
      <trkpt lat="43.23701" lon="5.80241">
        <ele>345.74411</ele>
        <time>2022-08-19T05:45:41Z</time>
      </trkpt>
      <trkpt lat="43.23708" lon="5.80248">
        <ele>346.176025</ele>
        <time>2022-08-19T05:45:43Z</time>
      </trkpt>
      <trkpt lat="43.23716" lon="5.80258">
        <ele>347.057556</ele>
        <time>2022-08-19T05:45:45Z</time>
      </trkpt>
      <trkpt lat="43.23722" lon="5.80266">
        <ele>347.507782</ele>
        <time>2022-08-19T05:45:47Z</time>
      </trkpt>
      <trkpt lat="43.2373" lon="5.80273">
        <ele>348.430847</ele>
        <time>2022-08-19T05:45:49Z</time>
      </trkpt>
      <trkpt lat="43.23736" lon="5.8028">
        <ele>348.905457</ele>
        <time>2022-08-19T05:45:51Z</time>
      </trkpt>
      <trkpt lat="43.23742" lon="5.80288">
        <ele>349.884491</ele>
        <time>2022-08-19T05:45:53Z</time>
      </trkpt>
      <trkpt lat="43.23748" lon="5.80294">
        <ele>350.904663</ele>
        <time>2022-08-19T05:45:55Z</time>
      </trkpt>
      <trkpt lat="43.23755" lon="5.80301">
        <ele>351.430054</ele>
        <time>2022-08-19T05:45:57Z</time>
      </trkpt>
      <trkpt lat="43.23763" lon="5.80307">
        <ele>352.497101</ele>
        <time>2022-08-19T05:45:59Z</time>
      </trkpt>
      <trkpt lat="43.2377" lon="5.80311">
        <ele>353.043823</ele>
        <time>2022-08-19T05:46:01Z</time>
      </trkpt>
      <trkpt lat="43.23779" lon="5.80315">
        <ele>354.160431</ele>
        <time>2022-08-19T05:46:03Z</time>
      </trkpt>
      <trkpt lat="43.23788" lon="5.80318">
        <ele>355.301575</ele>
        <time>2022-08-19T05:46:05Z</time>
      </trkpt>
      <trkpt lat="43.23797" lon="5.80316">
        <ele>355.879272</ele>
        <time>2022-08-19T05:46:07Z</time>
      </trkpt>
      <trkpt lat="43.23806" lon="5.80315">
        <ele>357.0448</ele>
        <time>2022-08-19T05:46:09Z</time>
      </trkpt>
      <trkpt lat="43.23814" lon="5.80311">
        <ele>357.627502</ele>
        <time>2022-08-19T05:46:11Z</time>
      </trkpt>
      <trkpt lat="43.23823" lon="5.80308">
        <ele>358.772827</ele>
        <time>2022-08-19T05:46:13Z</time>
      </trkpt>
      <trkpt lat="43.23832" lon="5.80304">
        <ele>359.328674</ele>
        <time>2022-08-19T05:46:15Z</time>
      </trkpt>
      <trkpt lat="43.23839" lon="5.80301">
        <ele>360.392151</ele>
        <time>2022-08-19T05:46:17Z</time>
      </trkpt>
      <trkpt lat="43.23846" lon="5.80297">
        <ele>360.895142</ele>
        <time>2022-08-19T05:46:19Z</time>
      </trkpt>
      <trkpt lat="43.23854" lon="5.80293">
        <ele>361.835754</ele>
        <time>2022-08-19T05:46:21Z</time>
      </trkpt>
      <trkpt lat="43.23863" lon="5.80289">
        <ele>362.683411</ele>
        <time>2022-08-19T05:46:23Z</time>
      </trkpt>
      <trkpt lat="43.23869" lon="5.80284">
        <ele>363.072327</ele>
        <time>2022-08-19T05:46:25Z</time>
      </trkpt>
      <trkpt lat="43.23877" lon="5.80279">
        <ele>363.788055</ele>
        <time>2022-08-19T05:46:27Z</time>
      </trkpt>
      <trkpt lat="43.23884" lon="5.80273">
        <ele>364.119507</ele>
        <time>2022-08-19T05:46:29Z</time>
      </trkpt>
      <trkpt lat="43.2389" lon="5.80267">
        <ele>364.734741</ele>
        <time>2022-08-19T05:46:31Z</time>
      </trkpt>
      <trkpt lat="43.23896" lon="5.80259">
        <ele>365.017395</ele>
        <time>2022-08-19T05:46:33Z</time>
      </trkpt>
      <trkpt lat="43.23903" lon="5.80251">
        <ele>365.526611</ele>
        <time>2022-08-19T05:46:35Z</time>
      </trkpt>
      <trkpt lat="43.23908" lon="5.80243">
        <ele>365.953369</ele>
        <time>2022-08-19T05:46:37Z</time>
      </trkpt>
      <trkpt lat="43.23915" lon="5.80235">
        <ele>366.13147</ele>
        <time>2022-08-19T05:46:39Z</time>
      </trkpt>
      <trkpt lat="43.23921" lon="5.80226">
        <ele>366.407379</ele>
        <time>2022-08-19T05:46:41Z</time>
      </trkpt>
      <trkpt lat="43.23926" lon="5.80216">
        <ele>366.502686</ele>
        <time>2022-08-19T05:46:43Z</time>
      </trkpt>
      <trkpt lat="43.23932" lon="5.80207">
        <ele>366.607483</ele>
        <time>2022-08-19T05:46:45Z</time>
      </trkpt>
      <trkpt lat="43.23938" lon="5.80197">
        <ele>366.617676</ele>
        <time>2022-08-19T05:46:47Z</time>
      </trkpt>
      <trkpt lat="43.23943" lon="5.80188">
        <ele>366.564392</ele>
        <time>2022-08-19T05:46:49Z</time>
      </trkpt>
      <trkpt lat="43.23949" lon="5.8018">
        <ele>366.420685</ele>
        <time>2022-08-19T05:46:51Z</time>
      </trkpt>
      <trkpt lat="43.23955" lon="5.80172">
        <ele>366.317078</ele>
        <time>2022-08-19T05:46:53Z</time>
      </trkpt>
      <trkpt lat="43.23962" lon="5.80165">
        <ele>366.052704</ele>
        <time>2022-08-19T05:46:55Z</time>
      </trkpt>
      <trkpt lat="43.2397" lon="5.80159">
        <ele>365.89386</ele>
        <time>2022-08-19T05:46:57Z</time>
      </trkpt>
      <trkpt lat="43.23977" lon="5.80154">
        <ele>365.526733</ele>
        <time>2022-08-19T05:46:59Z</time>
      </trkpt>
      <trkpt lat="43.23985" lon="5.80149">
        <ele>365.321869</ele>
        <time>2022-08-19T05:47:01Z</time>
      </trkpt>
      <trkpt lat="43.23994" lon="5.80145">
        <ele>364.884064</ele>
        <time>2022-08-19T05:47:03Z</time>
      </trkpt>
      <trkpt lat="43.24001" lon="5.80141">
        <ele>364.428528</ele>
        <time>2022-08-19T05:47:05Z</time>
      </trkpt>
      <trkpt lat="43.2401" lon="5.80138">
        <ele>364.201355</ele>
        <time>2022-08-19T05:47:07Z</time>
      </trkpt>
      <trkpt lat="43.24018" lon="5.80137">
        <ele>363.760986</ele>
        <time>2022-08-19T05:47:09Z</time>
      </trkpt>
      <trkpt lat="43.24027" lon="5.80137">
        <ele>363.551453</ele>
        <time>2022-08-19T05:47:11Z</time>
      </trkpt>
      <trkpt lat="43.24035" lon="5.80136">
        <ele>363.158478</ele>
        <time>2022-08-19T05:47:13Z</time>
      </trkpt>
      <trkpt lat="43.24044" lon="5.80136">
        <ele>362.975891</ele>
        <time>2022-08-19T05:47:15Z</time>
      </trkpt>
      <trkpt lat="43.24051" lon="5.80135">
        <ele>362.638184</ele>
        <time>2022-08-19T05:47:17Z</time>
      </trkpt>
      <trkpt lat="43.2406" lon="5.80136">
        <ele>362.336975</ele>
        <time>2022-08-19T05:47:19Z</time>
      </trkpt>
      <trkpt lat="43.24067" lon="5.80136">
        <ele>362.200745</ele>
        <time>2022-08-19T05:47:21Z</time>
      </trkpt>
      <trkpt lat="43.24075" lon="5.80136">
        <ele>361.961426</ele>
        <time>2022-08-19T05:47:23Z</time>
      </trkpt>
      <trkpt lat="43.24084" lon="5.80137">
        <ele>361.860413</ele>
        <time>2022-08-19T05:47:25Z</time>
      </trkpt>
      <trkpt lat="43.24092" lon="5.80139">
        <ele>361.699951</ele>
        <time>2022-08-19T05:47:27Z</time>
      </trkpt>
      <trkpt lat="43.24101" lon="5.80141">
        <ele>361.643066</ele>
        <time>2022-08-19T05:47:29Z</time>
      </trkpt>
      <trkpt lat="43.24108" lon="5.80145">
        <ele>361.586121</ele>
        <time>2022-08-19T05:47:31Z</time>
      </trkpt>
      <trkpt lat="43.24115" lon="5.8015">
        <ele>361.590515</ele>
        <time>2022-08-19T05:47:33Z</time>
      </trkpt>
      <trkpt lat="43.24122" lon="5.80156">
        <ele>361.674377</ele>
        <time>2022-08-19T05:47:35Z</time>
      </trkpt>
      <trkpt lat="43.24128" lon="5.80162">
        <ele>361.871063</ele>
        <time>2022-08-19T05:47:37Z</time>
      </trkpt>
      <trkpt lat="43.24135" lon="5.80169">
        <ele>362.017212</ele>
        <time>2022-08-19T05:47:39Z</time>
      </trkpt>
      <trkpt lat="43.2414" lon="5.80177">
        <ele>362.414185</ele>
        <time>2022-08-19T05:47:41Z</time>
      </trkpt>
      <trkpt lat="43.24145" lon="5.80187">
        <ele>362.667297</ele>
        <time>2022-08-19T05:47:43Z</time>
      </trkpt>
      <trkpt lat="43.24147" lon="5.80198">
        <ele>363.290833</ele>
        <time>2022-08-19T05:47:45Z</time>
      </trkpt>
      <trkpt lat="43.24146" lon="5.80209">
        <ele>363.665833</ele>
        <time>2022-08-19T05:47:47Z</time>
      </trkpt>
      <trkpt lat="43.24144" lon="5.80219">
        <ele>364.553345</ele>
        <time>2022-08-19T05:47:49Z</time>
      </trkpt>
      <trkpt lat="43.24141" lon="5.80228">
        <ele>365.066864</ele>
        <time>2022-08-19T05:47:51Z</time>
      </trkpt>
      <trkpt lat="43.24139" lon="5.80238">
        <ele>366.214386</ele>
        <time>2022-08-19T05:47:53Z</time>
      </trkpt>
      <trkpt lat="43.24139" lon="5.80248">
        <ele>367.47644</ele>
        <time>2022-08-19T05:47:55Z</time>
      </trkpt>
      <trkpt lat="43.24139" lon="5.80258">
        <ele>368.133514</ele>
        <time>2022-08-19T05:47:57Z</time>
      </trkpt>
      <trkpt lat="43.24139" lon="5.80268">
        <ele>369.480591</ele>
        <time>2022-08-19T05:47:59Z</time>
      </trkpt>
      <trkpt lat="43.2414" lon="5.80279">
        <ele>370.166473</ele>
        <time>2022-08-19T05:48:01Z</time>
      </trkpt>
      <trkpt lat="43.24142" lon="5.8029">
        <ele>371.557434</ele>
        <time>2022-08-19T05:48:03Z</time>
      </trkpt>
      <trkpt lat="43.24144" lon="5.80302">
        <ele>372.261505</ele>
        <time>2022-08-19T05:48:05Z</time>
      </trkpt>
      <trkpt lat="43.24146" lon="5.80313">
        <ele>373.682404</ele>
        <time>2022-08-19T05:48:07Z</time>
      </trkpt>
      <trkpt lat="43.24148" lon="5.80324">
        <ele>374.396454</ele>
        <time>2022-08-19T05:48:09Z</time>
      </trkpt>
      <trkpt lat="43.2415" lon="5.80336">
        <ele>375.823914</ele>
        <time>2022-08-19T05:48:11Z</time>
      </trkpt>
      <trkpt lat="43.24151" lon="5.80348">
        <ele>377.243225</ele>
        <time>2022-08-19T05:48:13Z</time>
      </trkpt>
      <trkpt lat="43.24153" lon="5.80361">
        <ele>377.947693</ele>
        <time>2022-08-19T05:48:15Z</time>
      </trkpt>
      <trkpt lat="43.24154" lon="5.80373">
        <ele>379.341827</ele>
        <time>2022-08-19T05:48:17Z</time>
      </trkpt>
      <trkpt lat="43.24155" lon="5.80385">
        <ele>380.029022</ele>
        <time>2022-08-19T05:48:19Z</time>
      </trkpt>
      <trkpt lat="43.24155" lon="5.80397">
        <ele>381.372192</ele>
        <time>2022-08-19T05:48:21Z</time>
      </trkpt>
      <trkpt lat="43.24155" lon="5.80409">
        <ele>382.022003</ele>
        <time>2022-08-19T05:48:23Z</time>
      </trkpt>
      <trkpt lat="43.24155" lon="5.8042">
        <ele>383.26416</ele>
        <time>2022-08-19T05:48:25Z</time>
      </trkpt>
      <trkpt lat="43.24155" lon="5.80432">
        <ele>384.413025</ele>
        <time>2022-08-19T05:48:27Z</time>
      </trkpt>
      <trkpt lat="43.24154" lon="5.80444">
        <ele>384.945709</ele>
        <time>2022-08-19T05:48:29Z</time>
      </trkpt>
      <trkpt lat="43.24153" lon="5.80456">
        <ele>385.913605</ele>
        <time>2022-08-19T05:48:31Z</time>
      </trkpt>
      <trkpt lat="43.24152" lon="5.80467">
        <ele>386.343964</ele>
        <time>2022-08-19T05:48:33Z</time>
      </trkpt>
      <trkpt lat="43.24151" lon="5.80479">
        <ele>387.086121</ele>
        <time>2022-08-19T05:48:35Z</time>
      </trkpt>
      <trkpt lat="43.24149" lon="5.80491">
        <ele>387.392792</ele>
        <time>2022-08-19T05:48:37Z</time>
      </trkpt>
      <trkpt lat="43.24147" lon="5.80503">
        <ele>387.862854</ele>
        <time>2022-08-19T05:48:39Z</time>
      </trkpt>
      <trkpt lat="43.24145" lon="5.80515">
        <ele>388.02356</ele>
        <time>2022-08-19T05:48:41Z</time>
      </trkpt>
      <trkpt lat="43.24143" lon="5.80527">
        <ele>388.208801</ele>
        <time>2022-08-19T05:48:43Z</time>
      </trkpt>
      <trkpt lat="43.2414" lon="5.80539">
        <ele>388.247955</ele>
        <time>2022-08-19T05:48:45Z</time>
      </trkpt>
      <trkpt lat="43.24138" lon="5.80551">
        <ele>388.263428</ele>
        <time>2022-08-19T05:48:47Z</time>
      </trkpt>
      <trkpt lat="43.24135" lon="5.80562">
        <ele>388.23642</ele>
        <time>2022-08-19T05:48:49Z</time>
      </trkpt>
      <trkpt lat="43.24133" lon="5.80573">
        <ele>388.213684</ele>
        <time>2022-08-19T05:48:51Z</time>
      </trkpt>
      <trkpt lat="43.24131" lon="5.80584">
        <ele>388.15271</ele>
        <time>2022-08-19T05:48:53Z</time>
      </trkpt>
      <trkpt lat="43.24128" lon="5.80596">
        <ele>388.114746</ele>
        <time>2022-08-19T05:48:55Z</time>
      </trkpt>
      <trkpt lat="43.24126" lon="5.80607">
        <ele>388.026154</ele>
        <time>2022-08-19T05:48:57Z</time>
      </trkpt>
      <trkpt lat="43.24123" lon="5.80618">
        <ele>387.977417</ele>
        <time>2022-08-19T05:48:59Z</time>
      </trkpt>
      <trkpt lat="43.24121" lon="5.80629">
        <ele>387.877502</ele>
        <time>2022-08-19T05:49:01Z</time>
      </trkpt>
      <trkpt lat="43.24119" lon="5.80641">
        <ele>387.780945</ele>
        <time>2022-08-19T05:49:03Z</time>
      </trkpt>
      <trkpt lat="43.24117" lon="5.80652">
        <ele>387.735352</ele>
        <time>2022-08-19T05:49:05Z</time>
      </trkpt>
      <trkpt lat="43.24117" lon="5.80663">
        <ele>387.652832</ele>
        <time>2022-08-19T05:49:07Z</time>
      </trkpt>
      <trkpt lat="43.24116" lon="5.80674">
        <ele>387.618439</ele>
        <time>2022-08-19T05:49:09Z</time>
      </trkpt>
      <trkpt lat="43.24116" lon="5.80686">
        <ele>387.573303</ele>
        <time>2022-08-19T05:49:11Z</time>
      </trkpt>
      <trkpt lat="43.24116" lon="5.80697">
        <ele>387.576263</ele>
        <time>2022-08-19T05:49:13Z</time>
      </trkpt>
      <trkpt lat="43.24117" lon="5.80709">
        <ele>387.601624</ele>
        <time>2022-08-19T05:49:15Z</time>
      </trkpt>
      <trkpt lat="43.2412" lon="5.8072">
        <ele>387.708344</ele>
        <time>2022-08-19T05:49:17Z</time>
      </trkpt>
      <trkpt lat="43.24123" lon="5.8073">
        <ele>387.793304</ele>
        <time>2022-08-19T05:49:19Z</time>
      </trkpt>
      <trkpt lat="43.24127" lon="5.80741">
        <ele>388.035919</ele>
        <time>2022-08-19T05:49:21Z</time>
      </trkpt>
      <trkpt lat="43.24132" lon="5.80751">
        <ele>388.197144</ele>
        <time>2022-08-19T05:49:23Z</time>
      </trkpt>
      <trkpt lat="43.24138" lon="5.8076">
        <ele>388.604706</ele>
        <time>2022-08-19T05:49:25Z</time>
      </trkpt>
      <trkpt lat="43.24145" lon="5.80768">
        <ele>388.852936</ele>
        <time>2022-08-19T05:49:27Z</time>
      </trkpt>
      <trkpt lat="43.24153" lon="5.80773">
        <ele>389.441345</ele>
        <time>2022-08-19T05:49:29Z</time>
      </trkpt>
      <trkpt lat="43.2416" lon="5.80778">
        <ele>390.1521</ele>
        <time>2022-08-19T05:49:31Z</time>
      </trkpt>
      <trkpt lat="43.24168" lon="5.8078">
        <ele>390.548096</ele>
        <time>2022-08-19T05:49:33Z</time>
      </trkpt>
      <trkpt lat="43.24176" lon="5.80781">
        <ele>391.400085</ele>
        <time>2022-08-19T05:49:35Z</time>
      </trkpt>
      <trkpt lat="43.24184" lon="5.80782">
        <ele>391.847504</ele>
        <time>2022-08-19T05:49:37Z</time>
      </trkpt>
      <trkpt lat="43.24193" lon="5.80781">
        <ele>392.7724</ele>
        <time>2022-08-19T05:49:39Z</time>
      </trkpt>
      <trkpt lat="43.24205" lon="5.80775">
        <ele>393.731201</ele>
        <time>2022-08-19T05:49:42Z</time>
      </trkpt>
      <trkpt lat="43.24214" lon="5.80771">
        <ele>394.720856</ele>
        <time>2022-08-19T05:49:44Z</time>
      </trkpt>
      <trkpt lat="43.24222" lon="5.80765">
        <ele>395.226715</ele>
        <time>2022-08-19T05:49:46Z</time>
      </trkpt>
      <trkpt lat="43.2423" lon="5.80758">
        <ele>396.262756</ele>
        <time>2022-08-19T05:49:48Z</time>
      </trkpt>
      <trkpt lat="43.24237" lon="5.80751">
        <ele>396.797668</ele>
        <time>2022-08-19T05:49:50Z</time>
      </trkpt>
      <trkpt lat="43.24244" lon="5.80742">
        <ele>397.919952</ele>
        <time>2022-08-19T05:49:52Z</time>
      </trkpt>
      <trkpt lat="43.24251" lon="5.80734">
        <ele>399.136261</ele>
        <time>2022-08-19T05:49:54Z</time>
      </trkpt>
      <trkpt lat="43.24257" lon="5.80725">
        <ele>399.785645</ele>
        <time>2022-08-19T05:49:56Z</time>
      </trkpt>
      <trkpt lat="43.24263" lon="5.80716">
        <ele>401.173645</ele>
        <time>2022-08-19T05:49:58Z</time>
      </trkpt>
      <trkpt lat="43.2427" lon="5.80706">
        <ele>401.913513</ele>
        <time>2022-08-19T05:50:00Z</time>
      </trkpt>
      <trkpt lat="43.24276" lon="5.80697">
        <ele>403.486511</ele>
        <time>2022-08-19T05:50:02Z</time>
      </trkpt>
      <trkpt lat="43.24283" lon="5.80687">
        <ele>404.319397</ele>
        <time>2022-08-19T05:50:04Z</time>
      </trkpt>
      <trkpt lat="43.2429" lon="5.80677">
        <ele>406.077698</ele>
        <time>2022-08-19T05:50:06Z</time>
      </trkpt>
      <trkpt lat="43.24297" lon="5.80667">
        <ele>407.002747</ele>
        <time>2022-08-19T05:50:08Z</time>
      </trkpt>
      <trkpt lat="43.24304" lon="5.80658">
        <ele>408.929993</ele>
        <time>2022-08-19T05:50:10Z</time>
      </trkpt>
      <trkpt lat="43.24311" lon="5.80649">
        <ele>410.900299</ele>
        <time>2022-08-19T05:50:12Z</time>
      </trkpt>
      <trkpt lat="43.24319" lon="5.8064">
        <ele>411.892975</ele>
        <time>2022-08-19T05:50:14Z</time>
      </trkpt>
      <trkpt lat="43.24327" lon="5.80631">
        <ele>413.867676</ele>
        <time>2022-08-19T05:50:16Z</time>
      </trkpt>
      <trkpt lat="43.24335" lon="5.80624">
        <ele>414.842834</ele>
        <time>2022-08-19T05:50:18Z</time>
      </trkpt>
      <trkpt lat="43.24343" lon="5.80617">
        <ele>416.756042</ele>
        <time>2022-08-19T05:50:20Z</time>
      </trkpt>
      <trkpt lat="43.24352" lon="5.80611">
        <ele>418.606873</ele>
        <time>2022-08-19T05:50:22Z</time>
      </trkpt>
      <trkpt lat="43.24361" lon="5.80606">
        <ele>419.506653</ele>
        <time>2022-08-19T05:50:24Z</time>
      </trkpt>
      <trkpt lat="43.2437" lon="5.80602">
        <ele>421.256989</ele>
        <time>2022-08-19T05:50:26Z</time>
      </trkpt>
      <trkpt lat="43.24379" lon="5.80598">
        <ele>422.109436</ele>
        <time>2022-08-19T05:50:28Z</time>
      </trkpt>
      <trkpt lat="43.2439" lon="5.80595">
        <ele>423.771576</ele>
        <time>2022-08-19T05:50:30Z</time>
      </trkpt>
      <trkpt lat="43.244" lon="5.80593">
        <ele>424.581604</ele>
        <time>2022-08-19T05:50:32Z</time>
      </trkpt>
      <trkpt lat="43.2441" lon="5.80592">
        <ele>426.160095</ele>
        <time>2022-08-19T05:50:34Z</time>
      </trkpt>
      <trkpt lat="43.2442" lon="5.80591">
        <ele>426.928711</ele>
        <time>2022-08-19T05:50:36Z</time>
      </trkpt>
      <trkpt lat="43.24431" lon="5.80592">
        <ele>428.423645</ele>
        <time>2022-08-19T05:50:38Z</time>
      </trkpt>
      <trkpt lat="43.24441" lon="5.80592">
        <ele>429.851563</ele>
        <time>2022-08-19T05:50:40Z</time>
      </trkpt>
      <trkpt lat="43.24451" lon="5.80593">
        <ele>430.533203</ele>
        <time>2022-08-19T05:50:42Z</time>
      </trkpt>
      <trkpt lat="43.24461" lon="5.80595">
        <ele>431.814789</ele>
        <time>2022-08-19T05:50:44Z</time>
      </trkpt>
      <trkpt lat="43.24471" lon="5.80596">
        <ele>432.410461</ele>
        <time>2022-08-19T05:50:46Z</time>
      </trkpt>
      <trkpt lat="43.24482" lon="5.80598">
        <ele>433.503998</ele>
        <time>2022-08-19T05:50:48Z</time>
      </trkpt>
      <trkpt lat="43.24494" lon="5.80599">
        <ele>433.999908</ele>
        <time>2022-08-19T05:50:50Z</time>
      </trkpt>
      <trkpt lat="43.24505" lon="5.806">
        <ele>434.883942</ele>
        <time>2022-08-19T05:50:52Z</time>
      </trkpt>
      <trkpt lat="43.24517" lon="5.80602">
        <ele>435.618835</ele>
        <time>2022-08-19T05:50:54Z</time>
      </trkpt>
      <trkpt lat="43.24528" lon="5.80603">
        <ele>435.928528</ele>
        <time>2022-08-19T05:50:56Z</time>
      </trkpt>
      <trkpt lat="43.2454" lon="5.80605">
        <ele>436.429749</ele>
        <time>2022-08-19T05:50:58Z</time>
      </trkpt>
      <trkpt lat="43.24551" lon="5.80606">
        <ele>436.62323</ele>
        <time>2022-08-19T05:51:00Z</time>
      </trkpt>
      <trkpt lat="43.24561" lon="5.80608">
        <ele>436.923767</ele>
        <time>2022-08-19T05:51:02Z</time>
      </trkpt>
      <trkpt lat="43.24572" lon="5.80609">
        <ele>437.0401</ele>
        <time>2022-08-19T05:51:04Z</time>
      </trkpt>
      <trkpt lat="43.24582" lon="5.80611">
        <ele>437.217957</ele>
        <time>2022-08-19T05:51:06Z</time>
      </trkpt>
      <trkpt lat="43.24593" lon="5.80612">
        <ele>437.343262</ele>
        <time>2022-08-19T05:51:08Z</time>
      </trkpt>
      <trkpt lat="43.24603" lon="5.80613">
        <ele>437.391663</ele>
        <time>2022-08-19T05:51:10Z</time>
      </trkpt>
      <trkpt lat="43.24613" lon="5.80614">
        <ele>437.469086</ele>
        <time>2022-08-19T05:51:12Z</time>
      </trkpt>
      <trkpt lat="43.24623" lon="5.80615">
        <ele>437.502106</ele>
        <time>2022-08-19T05:51:14Z</time>
      </trkpt>
      <trkpt lat="43.24633" lon="5.80617">
        <ele>437.565979</ele>
        <time>2022-08-19T05:51:16Z</time>
      </trkpt>
      <trkpt lat="43.24643" lon="5.80618">
        <ele>437.599518</ele>
        <time>2022-08-19T05:51:18Z</time>
      </trkpt>
      <trkpt lat="43.24653" lon="5.80618">
        <ele>437.673828</ele>
        <time>2022-08-19T05:51:20Z</time>
      </trkpt>
      <trkpt lat="43.24662" lon="5.8062">
        <ele>437.761658</ele>
        <time>2022-08-19T05:51:22Z</time>
      </trkpt>
      <trkpt lat="43.24672" lon="5.80621">
        <ele>437.811768</ele>
        <time>2022-08-19T05:51:24Z</time>
      </trkpt>
      <trkpt lat="43.24682" lon="5.80622">
        <ele>437.926208</ele>
        <time>2022-08-19T05:51:26Z</time>
      </trkpt>
      <trkpt lat="43.24691" lon="5.80623">
        <ele>437.991058</ele>
        <time>2022-08-19T05:51:28Z</time>
      </trkpt>
      <trkpt lat="43.24702" lon="5.80624">
        <ele>438.136963</ele>
        <time>2022-08-19T05:51:30Z</time>
      </trkpt>
      <trkpt lat="43.24712" lon="5.80626">
        <ele>438.218018</ele>
        <time>2022-08-19T05:51:32Z</time>
      </trkpt>
      <trkpt lat="43.24722" lon="5.80627">
        <ele>438.396545</ele>
        <time>2022-08-19T05:51:34Z</time>
      </trkpt>
      <trkpt lat="43.24733" lon="5.80628">
        <ele>438.59726</ele>
        <time>2022-08-19T05:51:36Z</time>
      </trkpt>
      <trkpt lat="43.24744" lon="5.80629">
        <ele>438.706207</ele>
        <time>2022-08-19T05:51:38Z</time>
      </trkpt>
      <trkpt lat="43.24754" lon="5.80631">
        <ele>438.941101</ele>
        <time>2022-08-19T05:51:40Z</time>
      </trkpt>
      <trkpt lat="43.24765" lon="5.80633">
        <ele>439.067047</ele>
        <time>2022-08-19T05:51:42Z</time>
      </trkpt>
      <trkpt lat="43.24776" lon="5.80634">
        <ele>439.335449</ele>
        <time>2022-08-19T05:51:44Z</time>
      </trkpt>
      <trkpt lat="43.24786" lon="5.80636">
        <ele>439.4776</ele>
        <time>2022-08-19T05:51:46Z</time>
      </trkpt>
      <trkpt lat="43.24797" lon="5.80637">
        <ele>439.776367</ele>
        <time>2022-08-19T05:51:48Z</time>
      </trkpt>
      <trkpt lat="43.24807" lon="5.80638">
        <ele>440.093079</ele>
        <time>2022-08-19T05:51:50Z</time>
      </trkpt>
      <trkpt lat="43.24818" lon="5.80639">
        <ele>440.257813</ele>
        <time>2022-08-19T05:51:52Z</time>
      </trkpt>
      <trkpt lat="43.24828" lon="5.80641">
        <ele>440.600037</ele>
        <time>2022-08-19T05:51:54Z</time>
      </trkpt>
      <trkpt lat="43.24838" lon="5.80642">
        <ele>440.777588</ele>
        <time>2022-08-19T05:51:56Z</time>
      </trkpt>
      <trkpt lat="43.24848" lon="5.80644">
        <ele>441.145844</ele>
        <time>2022-08-19T05:51:58Z</time>
      </trkpt>
      <trkpt lat="43.24858" lon="5.80645">
        <ele>441.336578</ele>
        <time>2022-08-19T05:52:00Z</time>
      </trkpt>
      <trkpt lat="43.24868" lon="5.80646">
        <ele>441.732269</ele>
        <time>2022-08-19T05:52:02Z</time>
      </trkpt>
      <trkpt lat="43.24878" lon="5.80647">
        <ele>442.149017</ele>
        <time>2022-08-19T05:52:04Z</time>
      </trkpt>
      <trkpt lat="43.24888" lon="5.80649">
        <ele>442.366028</ele>
        <time>2022-08-19T05:52:06Z</time>
      </trkpt>
      <trkpt lat="43.24897" lon="5.8065">
        <ele>442.81781</ele>
        <time>2022-08-19T05:52:08Z</time>
      </trkpt>
      <trkpt lat="43.24907" lon="5.80651">
        <ele>443.052734</ele>
        <time>2022-08-19T05:52:10Z</time>
      </trkpt>
      <trkpt lat="43.24917" lon="5.80652">
        <ele>443.541107</ele>
        <time>2022-08-19T05:52:12Z</time>
      </trkpt>
      <trkpt lat="43.24927" lon="5.80654">
        <ele>443.794342</ele>
        <time>2022-08-19T05:52:14Z</time>
      </trkpt>
      <trkpt lat="43.24937" lon="5.80655">
        <ele>444.317963</ele>
        <time>2022-08-19T05:52:16Z</time>
      </trkpt>
      <trkpt lat="43.24947" lon="5.80656">
        <ele>444.587952</ele>
        <time>2022-08-19T05:52:18Z</time>
      </trkpt>
      <trkpt lat="43.24957" lon="5.80657">
        <ele>445.143219</ele>
        <time>2022-08-19T05:52:20Z</time>
      </trkpt>
      <trkpt lat="43.24966" lon="5.80658">
        <ele>445.718262</ele>
        <time>2022-08-19T05:52:22Z</time>
      </trkpt>
      <trkpt lat="43.24976" lon="5.8066">
        <ele>446.012695</ele>
        <time>2022-08-19T05:52:24Z</time>
      </trkpt>
      <trkpt lat="43.24986" lon="5.80661">
        <ele>446.613525</ele>
        <time>2022-08-19T05:52:26Z</time>
      </trkpt>
      <trkpt lat="43.24996" lon="5.80662">
        <ele>446.919189</ele>
        <time>2022-08-19T05:52:28Z</time>
      </trkpt>
      <trkpt lat="43.25006" lon="5.80663">
        <ele>447.53891</ele>
        <time>2022-08-19T05:52:30Z</time>
      </trkpt>
      <trkpt lat="43.25017" lon="5.80665">
        <ele>447.852722</ele>
        <time>2022-08-19T05:52:32Z</time>
      </trkpt>
      <trkpt lat="43.25028" lon="5.80666">
        <ele>448.487396</ele>
        <time>2022-08-19T05:52:34Z</time>
      </trkpt>
      <trkpt lat="43.25038" lon="5.80668">
        <ele>448.808289</ele>
        <time>2022-08-19T05:52:36Z</time>
      </trkpt>
      <trkpt lat="43.25049" lon="5.8067">
        <ele>449.45639</ele>
        <time>2022-08-19T05:52:38Z</time>
      </trkpt>
      <trkpt lat="43.25061" lon="5.80671">
        <ele>450.109924</ele>
        <time>2022-08-19T05:52:40Z</time>
      </trkpt>
      <trkpt lat="43.25073" lon="5.80672">
        <ele>450.436371</ele>
        <time>2022-08-19T05:52:42Z</time>
      </trkpt>
      <trkpt lat="43.25084" lon="5.80674">
        <ele>451.081879</ele>
        <time>2022-08-19T05:52:44Z</time>
      </trkpt>
      <trkpt lat="43.25096" lon="5.80675">
        <ele>451.39859</ele>
        <time>2022-08-19T05:52:46Z</time>
      </trkpt>
      <trkpt lat="43.25106" lon="5.80676">
        <ele>452.016174</ele>
        <time>2022-08-19T05:52:48Z</time>
      </trkpt>
      <trkpt lat="43.25118" lon="5.80678">
        <ele>452.31601</ele>
        <time>2022-08-19T05:52:50Z</time>
      </trkpt>
      <trkpt lat="43.2513" lon="5.80679">
        <ele>452.895813</ele>
        <time>2022-08-19T05:52:52Z</time>
      </trkpt>
      <trkpt lat="43.25142" lon="5.80681">
        <ele>453.445648</ele>
        <time>2022-08-19T05:52:54Z</time>
      </trkpt>
      <trkpt lat="43.25155" lon="5.80683">
        <ele>453.708313</ele>
        <time>2022-08-19T05:52:56Z</time>
      </trkpt>
      <trkpt lat="43.25167" lon="5.80684">
        <ele>454.206696</ele>
        <time>2022-08-19T05:52:58Z</time>
      </trkpt>
      <trkpt lat="43.25178" lon="5.80686">
        <ele>454.442535</ele>
        <time>2022-08-19T05:53:00Z</time>
      </trkpt>
      <trkpt lat="43.2519" lon="5.80688">
        <ele>454.88681</ele>
        <time>2022-08-19T05:53:02Z</time>
      </trkpt>
      <trkpt lat="43.25202" lon="5.8069">
        <ele>455.295166</ele>
        <time>2022-08-19T05:53:04Z</time>
      </trkpt>
      <trkpt lat="43.25214" lon="5.80692">
        <ele>455.48642</ele>
        <time>2022-08-19T05:53:06Z</time>
      </trkpt>
      <trkpt lat="43.25227" lon="5.80694">
        <ele>455.844666</ele>
        <time>2022-08-19T05:53:08Z</time>
      </trkpt>
      <trkpt lat="43.2524" lon="5.80695">
        <ele>456.012207</ele>
        <time>2022-08-19T05:53:10Z</time>
      </trkpt>
      <trkpt lat="43.25253" lon="5.80696">
        <ele>456.324646</ele>
        <time>2022-08-19T05:53:12Z</time>
      </trkpt>
      <trkpt lat="43.25266" lon="5.80697">
        <ele>456.46991</ele>
        <time>2022-08-19T05:53:14Z</time>
      </trkpt>
      <trkpt lat="43.25278" lon="5.80698">
        <ele>456.738953</ele>
        <time>2022-08-19T05:53:16Z</time>
      </trkpt>
      <trkpt lat="43.2529" lon="5.80699">
        <ele>456.862885</ele>
        <time>2022-08-19T05:53:18Z</time>
      </trkpt>
      <trkpt lat="43.25302" lon="5.80701">
        <ele>457.0896</ele>
        <time>2022-08-19T05:53:20Z</time>
      </trkpt>
      <trkpt lat="43.25314" lon="5.80702">
        <ele>457.288086</ele>
        <time>2022-08-19T05:53:22Z</time>
      </trkpt>
      <trkpt lat="43.25326" lon="5.80704">
        <ele>457.376556</ele>
        <time>2022-08-19T05:53:24Z</time>
      </trkpt>
      <trkpt lat="43.25339" lon="5.80707">
        <ele>457.531403</ele>
        <time>2022-08-19T05:53:26Z</time>
      </trkpt>
      <trkpt lat="43.25352" lon="5.80711">
        <ele>457.597717</ele>
        <time>2022-08-19T05:53:28Z</time>
      </trkpt>
      <trkpt lat="43.25365" lon="5.80717">
        <ele>457.708588</ele>
        <time>2022-08-19T05:53:30Z</time>
      </trkpt>
      <trkpt lat="43.25378" lon="5.80724">
        <ele>457.754395</ele>
        <time>2022-08-19T05:53:32Z</time>
      </trkpt>
      <trkpt lat="43.25391" lon="5.80731">
        <ele>457.833099</ele>
        <time>2022-08-19T05:53:34Z</time>
      </trkpt>
      <trkpt lat="43.25405" lon="5.80738">
        <ele>457.869385</ele>
        <time>2022-08-19T05:53:36Z</time>
      </trkpt>
      <trkpt lat="43.25419" lon="5.80745">
        <ele>457.942078</ele>
        <time>2022-08-19T05:53:38Z</time>
      </trkpt>
      <trkpt lat="43.25431" lon="5.80752">
        <ele>457.97998</ele>
        <time>2022-08-19T05:53:40Z</time>
      </trkpt>
      <trkpt lat="43.25444" lon="5.80759">
        <ele>458.060364</ele>
        <time>2022-08-19T05:53:42Z</time>
      </trkpt>
      <trkpt lat="43.25456" lon="5.80766">
        <ele>458.103333</ele>
        <time>2022-08-19T05:53:44Z</time>
      </trkpt>
      <trkpt lat="43.25469" lon="5.80772">
        <ele>458.195801</ele>
        <time>2022-08-19T05:53:46Z</time>
      </trkpt>
      <trkpt lat="43.25481" lon="5.80777">
        <ele>458.297455</ele>
        <time>2022-08-19T05:53:48Z</time>
      </trkpt>
      <trkpt lat="43.25494" lon="5.80781">
        <ele>458.351379</ele>
        <time>2022-08-19T05:53:50Z</time>
      </trkpt>
      <trkpt lat="43.25508" lon="5.80783">
        <ele>458.463562</ele>
        <time>2022-08-19T05:53:52Z</time>
      </trkpt>
      <trkpt lat="43.25522" lon="5.80784">
        <ele>458.521332</ele>
        <time>2022-08-19T05:53:54Z</time>
      </trkpt>
      <trkpt lat="43.25535" lon="5.80783">
        <ele>458.639099</ele>
        <time>2022-08-19T05:53:56Z</time>
      </trkpt>
      <trkpt lat="43.25548" lon="5.8078">
        <ele>458.698639</ele>
        <time>2022-08-19T05:53:58Z</time>
      </trkpt>
      <trkpt lat="43.25562" lon="5.80777">
        <ele>458.818054</ele>
        <time>2022-08-19T05:54:00Z</time>
      </trkpt>
      <trkpt lat="43.25575" lon="5.80772">
        <ele>458.93692</ele>
        <time>2022-08-19T05:54:02Z</time>
      </trkpt>
      <trkpt lat="43.25588" lon="5.80768">
        <ele>458.995789</ele>
        <time>2022-08-19T05:54:04Z</time>
      </trkpt>
      <trkpt lat="43.256" lon="5.80763">
        <ele>459.111511</ele>
        <time>2022-08-19T05:54:06Z</time>
      </trkpt>
      <trkpt lat="43.25612" lon="5.80758">
        <ele>459.16803</ele>
        <time>2022-08-19T05:54:08Z</time>
      </trkpt>
      <trkpt lat="43.25625" lon="5.80754">
        <ele>459.280182</ele>
        <time>2022-08-19T05:54:10Z</time>
      </trkpt>
      <trkpt lat="43.25637" lon="5.8075">
        <ele>459.337158</ele>
        <time>2022-08-19T05:54:12Z</time>
      </trkpt>
      <trkpt lat="43.25649" lon="5.80746">
        <ele>459.457031</ele>
        <time>2022-08-19T05:54:14Z</time>
      </trkpt>
      <trkpt lat="43.2566" lon="5.80742">
        <ele>459.587341</ele>
        <time>2022-08-19T05:54:16Z</time>
      </trkpt>
      <trkpt lat="43.25671" lon="5.80738">
        <ele>459.656738</ele>
        <time>2022-08-19T05:54:18Z</time>
      </trkpt>
      <trkpt lat="43.25683" lon="5.80735">
        <ele>459.802429</ele>
        <time>2022-08-19T05:54:20Z</time>
      </trkpt>
      <trkpt lat="43.25694" lon="5.80732">
        <ele>459.877686</ele>
        <time>2022-08-19T05:54:22Z</time>
      </trkpt>
      <trkpt lat="43.25706" lon="5.80729">
        <ele>460.029541</ele>
        <time>2022-08-19T05:54:24Z</time>
      </trkpt>
      <trkpt lat="43.25717" lon="5.80726">
        <ele>460.104919</ele>
        <time>2022-08-19T05:54:26Z</time>
      </trkpt>
      <trkpt lat="43.25729" lon="5.80723">
        <ele>460.25177</ele>
        <time>2022-08-19T05:54:28Z</time>
      </trkpt>
      <trkpt lat="43.2574" lon="5.8072">
        <ele>460.32251</ele>
        <time>2022-08-19T05:54:30Z</time>
      </trkpt>
      <trkpt lat="43.25752" lon="5.80716">
        <ele>460.457764</ele>
        <time>2022-08-19T05:54:32Z</time>
      </trkpt>
      <trkpt lat="43.25763" lon="5.80712">
        <ele>460.522156</ele>
        <time>2022-08-19T05:54:34Z</time>
      </trkpt>
      <trkpt lat="43.25774" lon="5.80708">
        <ele>460.644135</ele>
        <time>2022-08-19T05:54:36Z</time>
      </trkpt>
      <trkpt lat="43.25785" lon="5.80705">
        <ele>460.756989</ele>
        <time>2022-08-19T05:54:38Z</time>
      </trkpt>
      <trkpt lat="43.25795" lon="5.80701">
        <ele>460.810364</ele>
        <time>2022-08-19T05:54:40Z</time>
      </trkpt>
      <trkpt lat="43.25806" lon="5.80698">
        <ele>460.912689</ele>
        <time>2022-08-19T05:54:42Z</time>
      </trkpt>
      <trkpt lat="43.25816" lon="5.80694">
        <ele>460.962494</ele>
        <time>2022-08-19T05:54:44Z</time>
      </trkpt>
      <trkpt lat="43.25827" lon="5.80691">
        <ele>461.062408</ele>
        <time>2022-08-19T05:54:46Z</time>
      </trkpt>
      <trkpt lat="43.25837" lon="5.80687">
        <ele>461.113922</ele>
        <time>2022-08-19T05:54:48Z</time>
      </trkpt>
      <trkpt lat="43.25848" lon="5.80683">
        <ele>461.222961</ele>
        <time>2022-08-19T05:54:50Z</time>
      </trkpt>
      <trkpt lat="43.25859" lon="5.80679">
        <ele>461.342346</ele>
        <time>2022-08-19T05:54:52Z</time>
      </trkpt>
      <trkpt lat="43.2587" lon="5.80675">
        <ele>461.406403</ele>
        <time>2022-08-19T05:54:54Z</time>
      </trkpt>
      <trkpt lat="43.25881" lon="5.80669">
        <ele>461.543884</ele>
        <time>2022-08-19T05:54:56Z</time>
      </trkpt>
      <trkpt lat="43.25892" lon="5.80664">
        <ele>461.617279</ele>
        <time>2022-08-19T05:54:58Z</time>
      </trkpt>
      <trkpt lat="43.25902" lon="5.80657">
        <ele>461.77179</ele>
        <time>2022-08-19T05:55:00Z</time>
      </trkpt>
      <trkpt lat="43.25913" lon="5.80651">
        <ele>461.851257</ele>
        <time>2022-08-19T05:55:02Z</time>
      </trkpt>
      <trkpt lat="43.25923" lon="5.80644">
        <ele>462.010193</ele>
        <time>2022-08-19T05:55:04Z</time>
      </trkpt>
      <trkpt lat="43.25934" lon="5.80638">
        <ele>462.165192</ele>
        <time>2022-08-19T05:55:06Z</time>
      </trkpt>
      <trkpt lat="43.25946" lon="5.80633">
        <ele>462.241028</ele>
        <time>2022-08-19T05:55:08Z</time>
      </trkpt>
      <trkpt lat="43.25958" lon="5.80627">
        <ele>462.390625</ele>
        <time>2022-08-19T05:55:10Z</time>
      </trkpt>
      <trkpt lat="43.25969" lon="5.80622">
        <ele>462.465637</ele>
        <time>2022-08-19T05:55:12Z</time>
      </trkpt>
      <trkpt lat="43.25981" lon="5.80618">
        <ele>462.619141</ele>
        <time>2022-08-19T05:55:14Z</time>
      </trkpt>
      <trkpt lat="43.25993" lon="5.80613">
        <ele>462.698822</ele>
        <time>2022-08-19T05:55:16Z</time>
      </trkpt>
      <trkpt lat="43.26004" lon="5.80608">
        <ele>462.865906</ele>
        <time>2022-08-19T05:55:18Z</time>
      </trkpt>
      <trkpt lat="43.26016" lon="5.80604">
        <ele>463.044037</ele>
        <time>2022-08-19T05:55:20Z</time>
      </trkpt>
      <trkpt lat="43.26028" lon="5.80602">
        <ele>463.137146</ele>
        <time>2022-08-19T05:55:22Z</time>
      </trkpt>
      <trkpt lat="43.2604" lon="5.80602">
        <ele>463.330994</ele>
        <time>2022-08-19T05:55:24Z</time>
      </trkpt>
      <trkpt lat="43.26051" lon="5.80604">
        <ele>463.431641</ele>
        <time>2022-08-19T05:55:26Z</time>
      </trkpt>
      <trkpt lat="43.26062" lon="5.80609">
        <ele>463.640625</ele>
        <time>2022-08-19T05:55:28Z</time>
      </trkpt>
      <trkpt lat="43.26073" lon="5.80614">
        <ele>463.749023</ele>
        <time>2022-08-19T05:55:30Z</time>
      </trkpt>
      <trkpt lat="43.26083" lon="5.8062">
        <ele>463.973724</ele>
        <time>2022-08-19T05:55:32Z</time>
      </trkpt>
      <trkpt lat="43.26094" lon="5.80626">
        <ele>464.20932</ele>
        <time>2022-08-19T05:55:34Z</time>
      </trkpt>
      <trkpt lat="43.26104" lon="5.80634">
        <ele>464.331238</ele>
        <time>2022-08-19T05:55:36Z</time>
      </trkpt>
      <trkpt lat="43.26113" lon="5.80642">
        <ele>464.582703</ele>
        <time>2022-08-19T05:55:38Z</time>
      </trkpt>
      <trkpt lat="43.26123" lon="5.80652">
        <ele>464.712006</ele>
        <time>2022-08-19T05:55:40Z</time>
      </trkpt>
      <trkpt lat="43.26132" lon="5.80661">
        <ele>464.978119</ele>
        <time>2022-08-19T05:55:42Z</time>
      </trkpt>
      <trkpt lat="43.26141" lon="5.80671">
        <ele>465.115417</ele>
        <time>2022-08-19T05:55:44Z</time>
      </trkpt>
      <trkpt lat="43.26151" lon="5.80681">
        <ele>465.399994</ele>
        <time>2022-08-19T05:55:46Z</time>
      </trkpt>
      <trkpt lat="43.2616" lon="5.80691">
        <ele>465.547607</ele>
        <time>2022-08-19T05:55:48Z</time>
      </trkpt>
      <trkpt lat="43.26169" lon="5.807">
        <ele>465.853851</ele>
        <time>2022-08-19T05:55:50Z</time>
      </trkpt>
      <trkpt lat="43.26179" lon="5.8071">
        <ele>466.012207</ele>
        <time>2022-08-19T05:55:52Z</time>
      </trkpt>
      <trkpt lat="43.26188" lon="5.8072">
        <ele>466.338959</ele>
        <time>2022-08-19T05:55:54Z</time>
      </trkpt>
      <trkpt lat="43.26197" lon="5.8073">
        <ele>466.678131</ele>
        <time>2022-08-19T05:55:56Z</time>
      </trkpt>
      <trkpt lat="43.26206" lon="5.8074">
        <ele>466.85199</ele>
        <time>2022-08-19T05:55:58Z</time>
      </trkpt>
      <trkpt lat="43.26214" lon="5.80749">
        <ele>467.206726</ele>
        <time>2022-08-19T05:56:00Z</time>
      </trkpt>
      <trkpt lat="43.26223" lon="5.80758">
        <ele>467.387024</ele>
        <time>2022-08-19T05:56:02Z</time>
      </trkpt>
      <trkpt lat="43.26232" lon="5.80767">
        <ele>467.74884</ele>
        <time>2022-08-19T05:56:04Z</time>
      </trkpt>
      <trkpt lat="43.26241" lon="5.80775">
        <ele>467.931305</ele>
        <time>2022-08-19T05:56:06Z</time>
      </trkpt>
      <trkpt lat="43.26251" lon="5.80783">
        <ele>468.297791</ele>
        <time>2022-08-19T05:56:08Z</time>
      </trkpt>
      <trkpt lat="43.2626" lon="5.80789">
        <ele>468.664551</ele>
        <time>2022-08-19T05:56:10Z</time>
      </trkpt>
      <trkpt lat="43.26271" lon="5.80793">
        <ele>468.847595</ele>
        <time>2022-08-19T05:56:12Z</time>
      </trkpt>
      <trkpt lat="43.26281" lon="5.80795">
        <ele>469.030457</ele>
        <time>2022-08-19T05:56:14Z</time>
      </trkpt>
      <trkpt lat="43.26292" lon="5.80795">
        <ele>469.396088</ele>
        <time>2022-08-19T05:56:16Z</time>
      </trkpt>
      <trkpt lat="43.26304" lon="5.80793">
        <ele>469.76236</ele>
        <time>2022-08-19T05:56:18Z</time>
      </trkpt>
      <trkpt lat="43.26314" lon="5.80789">
        <ele>469.945709</ele>
        <time>2022-08-19T05:56:20Z</time>
      </trkpt>
      <trkpt lat="43.26325" lon="5.80784">
        <ele>470.312836</ele>
        <time>2022-08-19T05:56:22Z</time>
      </trkpt>
      <trkpt lat="43.26334" lon="5.80778">
        <ele>470.49649</ele>
        <time>2022-08-19T05:56:24Z</time>
      </trkpt>
      <trkpt lat="43.26344" lon="5.80771">
        <ele>470.863617</ele>
        <time>2022-08-19T05:56:26Z</time>
      </trkpt>
      <trkpt lat="43.26354" lon="5.80764">
        <ele>471.229187</ele>
        <time>2022-08-19T05:56:28Z</time>
      </trkpt>
      <trkpt lat="43.26364" lon="5.80757">
        <ele>471.410645</ele>
        <time>2022-08-19T05:56:30Z</time>
      </trkpt>
      <trkpt lat="43.26374" lon="5.80749">
        <ele>471.767578</ele>
        <time>2022-08-19T05:56:32Z</time>
      </trkpt>
      <trkpt lat="43.26383" lon="5.80742">
        <ele>471.941406</ele>
        <time>2022-08-19T05:56:34Z</time>
      </trkpt>
      <trkpt lat="43.26393" lon="5.80734">
        <ele>472.275299</ele>
        <time>2022-08-19T05:56:36Z</time>
      </trkpt>
      <trkpt lat="43.26402" lon="5.80727">
        <ele>472.434235</ele>
        <time>2022-08-19T05:56:38Z</time>
      </trkpt>
      <trkpt lat="43.26412" lon="5.8072">
        <ele>472.73526</ele>
        <time>2022-08-19T05:56:40Z</time>
      </trkpt>
      <trkpt lat="43.26422" lon="5.80712">
        <ele>472.877777</ele>
        <time>2022-08-19T05:56:42Z</time>
      </trkpt>
      <trkpt lat="43.26432" lon="5.80704">
        <ele>473.149323</ele>
        <time>2022-08-19T05:56:44Z</time>
      </trkpt>
      <trkpt lat="43.26442" lon="5.80697">
        <ele>473.405823</ele>
        <time>2022-08-19T05:56:46Z</time>
      </trkpt>
      <trkpt lat="43.26452" lon="5.80689">
        <ele>473.529633</ele>
        <time>2022-08-19T05:56:48Z</time>
      </trkpt>
      <trkpt lat="43.26462" lon="5.80681">
        <ele>473.771057</ele>
        <time>2022-08-19T05:56:50Z</time>
      </trkpt>
      <trkpt lat="43.26473" lon="5.80673">
        <ele>473.889648</ele>
        <time>2022-08-19T05:56:52Z</time>
      </trkpt>
      <trkpt lat="43.26484" lon="5.80665">
        <ele>474.126404</ele>
        <time>2022-08-19T05:56:54Z</time>
      </trkpt>
      <trkpt lat="43.26495" lon="5.80656">
        <ele>474.245209</ele>
        <time>2022-08-19T05:56:56Z</time>
      </trkpt>
      <trkpt lat="43.26507" lon="5.80647">
        <ele>474.48111</ele>
        <time>2022-08-19T05:56:58Z</time>
      </trkpt>
      <trkpt lat="43.26519" lon="5.80638">
        <ele>474.714905</ele>
        <time>2022-08-19T05:57:00Z</time>
      </trkpt>
      <trkpt lat="43.26531" lon="5.80628">
        <ele>474.831207</ele>
        <time>2022-08-19T05:57:02Z</time>
      </trkpt>
      <trkpt lat="43.26544" lon="5.80619">
        <ele>475.062347</ele>
        <time>2022-08-19T05:57:04Z</time>
      </trkpt>
      <trkpt lat="43.26556" lon="5.8061">
        <ele>475.177307</ele>
        <time>2022-08-19T05:57:06Z</time>
      </trkpt>
      <trkpt lat="43.26568" lon="5.806">
        <ele>475.407074</ele>
        <time>2022-08-19T05:57:08Z</time>
      </trkpt>
      <trkpt lat="43.2658" lon="5.8059">
        <ele>475.522217</ele>
        <time>2022-08-19T05:57:10Z</time>
      </trkpt>
      <trkpt lat="43.26593" lon="5.8058">
        <ele>475.753326</ele>
        <time>2022-08-19T05:57:12Z</time>
      </trkpt>
      <trkpt lat="43.26605" lon="5.80571">
        <ele>475.86908</ele>
        <time>2022-08-19T05:57:14Z</time>
      </trkpt>
      <trkpt lat="43.26618" lon="5.80561">
        <ele>476.099792</ele>
        <time>2022-08-19T05:57:16Z</time>
      </trkpt>
      <trkpt lat="43.26631" lon="5.80551">
        <ele>476.326416</ele>
        <time>2022-08-19T05:57:18Z</time>
      </trkpt>
      <trkpt lat="43.26644" lon="5.80541">
        <ele>476.437317</ele>
        <time>2022-08-19T05:57:20Z</time>
      </trkpt>
      <trkpt lat="43.26657" lon="5.80531">
        <ele>476.65567</ele>
        <time>2022-08-19T05:57:22Z</time>
      </trkpt>
      <trkpt lat="43.2667" lon="5.80521">
        <ele>476.764648</ele>
        <time>2022-08-19T05:57:24Z</time>
      </trkpt>
      <trkpt lat="43.26683" lon="5.80512">
        <ele>476.98584</ele>
        <time>2022-08-19T05:57:26Z</time>
      </trkpt>
      <trkpt lat="43.26696" lon="5.80503">
        <ele>477.098816</ele>
        <time>2022-08-19T05:57:28Z</time>
      </trkpt>
      <trkpt lat="43.26709" lon="5.80495">
        <ele>477.328949</ele>
        <time>2022-08-19T05:57:30Z</time>
      </trkpt>
      <trkpt lat="43.26722" lon="5.80488">
        <ele>477.44516</ele>
        <time>2022-08-19T05:57:32Z</time>
      </trkpt>
      <trkpt lat="43.26736" lon="5.80482">
        <ele>477.677094</ele>
        <time>2022-08-19T05:57:34Z</time>
      </trkpt>
      <trkpt lat="43.26749" lon="5.80476">
        <ele>477.902832</ele>
        <time>2022-08-19T05:57:36Z</time>
      </trkpt>
      <trkpt lat="43.26763" lon="5.8047">
        <ele>478.011566</ele>
        <time>2022-08-19T05:57:38Z</time>
      </trkpt>
      <trkpt lat="43.26777" lon="5.80464">
        <ele>478.217957</ele>
        <time>2022-08-19T05:57:40Z</time>
      </trkpt>
      <trkpt lat="43.2679" lon="5.80458">
        <ele>478.314453</ele>
        <time>2022-08-19T05:57:42Z</time>
      </trkpt>
      <trkpt lat="43.26804" lon="5.80452">
        <ele>478.489075</ele>
        <time>2022-08-19T05:57:44Z</time>
      </trkpt>
      <trkpt lat="43.26817" lon="5.80446">
        <ele>478.564697</ele>
        <time>2022-08-19T05:57:46Z</time>
      </trkpt>
      <trkpt lat="43.26831" lon="5.8044">
        <ele>478.687683</ele>
        <time>2022-08-19T05:57:48Z</time>
      </trkpt>
      <trkpt lat="43.26843" lon="5.80435">
        <ele>478.735901</ele>
        <time>2022-08-19T05:57:50Z</time>
      </trkpt>
      <trkpt lat="43.26856" lon="5.80429">
        <ele>478.803314</ele>
        <time>2022-08-19T05:57:52Z</time>
      </trkpt>
      <trkpt lat="43.26869" lon="5.80423">
        <ele>478.834229</ele>
        <time>2022-08-19T05:57:54Z</time>
      </trkpt>
      <trkpt lat="43.26882" lon="5.80417">
        <ele>478.836243</ele>
        <time>2022-08-19T05:57:56Z</time>
      </trkpt>
      <trkpt lat="43.26895" lon="5.80412">
        <ele>478.812073</ele>
        <time>2022-08-19T05:57:58Z</time>
      </trkpt>
      <trkpt lat="43.26907" lon="5.80406">
        <ele>478.785339</ele>
        <time>2022-08-19T05:58:00Z</time>
      </trkpt>
      <trkpt lat="43.2692" lon="5.804">
        <ele>478.703064</ele>
        <time>2022-08-19T05:58:02Z</time>
      </trkpt>
      <trkpt lat="43.26933" lon="5.80394">
        <ele>478.587402</ele>
        <time>2022-08-19T05:58:04Z</time>
      </trkpt>
      <trkpt lat="43.26946" lon="5.80388">
        <ele>478.520264</ele>
        <time>2022-08-19T05:58:06Z</time>
      </trkpt>
      <trkpt lat="43.26959" lon="5.80382">
        <ele>478.37442</ele>
        <time>2022-08-19T05:58:08Z</time>
      </trkpt>
      <trkpt lat="43.26973" lon="5.80376">
        <ele>478.297852</ele>
        <time>2022-08-19T05:58:10Z</time>
      </trkpt>
      <trkpt lat="43.26986" lon="5.8037">
        <ele>478.14093</ele>
        <time>2022-08-19T05:58:12Z</time>
      </trkpt>
      <trkpt lat="43.27" lon="5.80364">
        <ele>478.062408</ele>
        <time>2022-08-19T05:58:14Z</time>
      </trkpt>
      <trkpt lat="43.27013" lon="5.80359">
        <ele>477.911926</ele>
        <time>2022-08-19T05:58:16Z</time>
      </trkpt>
      <trkpt lat="43.27027" lon="5.80353">
        <ele>477.77655</ele>
        <time>2022-08-19T05:58:18Z</time>
      </trkpt>
      <trkpt lat="43.27039" lon="5.80348">
        <ele>477.716736</ele>
        <time>2022-08-19T05:58:20Z</time>
      </trkpt>
      <trkpt lat="43.27052" lon="5.80343">
        <ele>477.619873</ele>
        <time>2022-08-19T05:58:22Z</time>
      </trkpt>
      <trkpt lat="43.27064" lon="5.80339">
        <ele>477.556732</ele>
        <time>2022-08-19T05:58:24Z</time>
      </trkpt>
      <trkpt lat="43.27076" lon="5.80334">
        <ele>477.538513</ele>
        <time>2022-08-19T05:58:26Z</time>
      </trkpt>
      <trkpt lat="43.27087" lon="5.8033">
        <ele>477.528412</ele>
        <time>2022-08-19T05:58:28Z</time>
      </trkpt>
      <trkpt lat="43.27098" lon="5.80326">
        <ele>477.53595</ele>
        <time>2022-08-19T05:58:30Z</time>
      </trkpt>
      <trkpt lat="43.2711" lon="5.80322">
        <ele>477.574646</ele>
        <time>2022-08-19T05:58:32Z</time>
      </trkpt>
      <trkpt lat="43.27121" lon="5.80318">
        <ele>477.605804</ele>
        <time>2022-08-19T05:58:34Z</time>
      </trkpt>
      <trkpt lat="43.27134" lon="5.80313">
        <ele>477.693939</ele>
        <time>2022-08-19T05:58:36Z</time>
      </trkpt>
      <trkpt lat="43.27147" lon="5.80308">
        <ele>477.751892</ele>
        <time>2022-08-19T05:58:38Z</time>
      </trkpt>
      <trkpt lat="43.2716" lon="5.80303">
        <ele>477.896149</ele>
        <time>2022-08-19T05:58:40Z</time>
      </trkpt>
      <trkpt lat="43.27173" lon="5.80299">
        <ele>477.981628</ele>
        <time>2022-08-19T05:58:42Z</time>
      </trkpt>
      <trkpt lat="43.27186" lon="5.80293">
        <ele>478.176117</ele>
        <time>2022-08-19T05:58:44Z</time>
      </trkpt>
      <trkpt lat="43.272" lon="5.80288">
        <ele>478.397156</ele>
        <time>2022-08-19T05:58:46Z</time>
      </trkpt>
      <trkpt lat="43.27214" lon="5.80283">
        <ele>478.516449</ele>
        <time>2022-08-19T05:58:48Z</time>
      </trkpt>
      <trkpt lat="43.2723" lon="5.8028">
        <ele>478.767029</ele>
        <time>2022-08-19T05:58:50Z</time>
      </trkpt>
      <trkpt lat="43.27246" lon="5.80279">
        <ele>478.895416</ele>
        <time>2022-08-19T05:58:52Z</time>
      </trkpt>
      <trkpt lat="43.27263" lon="5.80279">
        <ele>479.151062</ele>
        <time>2022-08-19T05:58:54Z</time>
      </trkpt>
      <trkpt lat="43.27279" lon="5.8028">
        <ele>479.391541</ele>
        <time>2022-08-19T05:58:56Z</time>
      </trkpt>
      <trkpt lat="43.27296" lon="5.80283">
        <ele>479.499176</ele>
        <time>2022-08-19T05:58:58Z</time>
      </trkpt>
      <trkpt lat="43.27312" lon="5.80288">
        <ele>479.674896</ele>
        <time>2022-08-19T05:59:00Z</time>
      </trkpt>
      <trkpt lat="43.27329" lon="5.80295">
        <ele>479.738525</ele>
        <time>2022-08-19T05:59:02Z</time>
      </trkpt>
      <trkpt lat="43.27346" lon="5.80302">
        <ele>479.81366</ele>
        <time>2022-08-19T05:59:04Z</time>
      </trkpt>
      <trkpt lat="43.27363" lon="5.80309">
        <ele>479.805084</ele>
        <time>2022-08-19T05:59:06Z</time>
      </trkpt>
      <trkpt lat="43.2738" lon="5.80316">
        <ele>479.76239</ele>
        <time>2022-08-19T05:59:08Z</time>
      </trkpt>
      <trkpt lat="43.27397" lon="5.80324">
        <ele>479.598938</ele>
        <time>2022-08-19T05:59:10Z</time>
      </trkpt>
      <trkpt lat="43.27413" lon="5.80335">
        <ele>479.4729</ele>
        <time>2022-08-19T05:59:12Z</time>
      </trkpt>
      <trkpt lat="43.27427" lon="5.8035">
        <ele>479.128479</ele>
        <time>2022-08-19T05:59:14Z</time>
      </trkpt>
      <trkpt lat="43.2744" lon="5.80368">
        <ele>478.909821</ele>
        <time>2022-08-19T05:59:16Z</time>
      </trkpt>
      <trkpt lat="43.27454" lon="5.80384">
        <ele>478.383698</ele>
        <time>2022-08-19T05:59:18Z</time>
      </trkpt>
      <trkpt lat="43.27469" lon="5.80396">
        <ele>477.764496</ele>
        <time>2022-08-19T05:59:20Z</time>
      </trkpt>
      <trkpt lat="43.27485" lon="5.80404">
        <ele>477.420807</ele>
        <time>2022-08-19T05:59:22Z</time>
      </trkpt>
      <trkpt lat="43.275" lon="5.8041">
        <ele>476.675446</ele>
        <time>2022-08-19T05:59:24Z</time>
      </trkpt>
      <trkpt lat="43.27515" lon="5.80414">
        <ele>475.853119</ele>
        <time>2022-08-19T05:59:26Z</time>
      </trkpt>
      <trkpt lat="43.27527" lon="5.80404">
        <ele>475.410309</ele>
        <time>2022-08-19T05:59:28Z</time>
      </trkpt>
      <trkpt lat="43.2753" lon="5.80388">
        <ele>474.45752</ele>
        <time>2022-08-19T05:59:30Z</time>
      </trkpt>
      <trkpt lat="43.27529" lon="5.8037">
        <ele>473.9505</ele>
        <time>2022-08-19T05:59:32Z</time>
      </trkpt>
      <trkpt lat="43.27529" lon="5.80349">
        <ele>472.889343</ele>
        <time>2022-08-19T05:59:34Z</time>
      </trkpt>
      <trkpt lat="43.27528" lon="5.80328">
        <ele>472.342133</ele>
        <time>2022-08-19T05:59:36Z</time>
      </trkpt>
      <trkpt lat="43.27527" lon="5.80304">
        <ele>471.225677</ele>
        <time>2022-08-19T05:59:38Z</time>
      </trkpt>
      <trkpt lat="43.27527" lon="5.80281">
        <ele>470.661438</ele>
        <time>2022-08-19T05:59:40Z</time>
      </trkpt>
      <trkpt lat="43.27529" lon="5.80257">
        <ele>469.533539</ele>
        <time>2022-08-19T05:59:42Z</time>
      </trkpt>
      <trkpt lat="43.27532" lon="5.80234">
        <ele>468.423981</ele>
        <time>2022-08-19T05:59:44Z</time>
      </trkpt>
      <trkpt lat="43.27534" lon="5.8021">
        <ele>467.882996</ele>
        <time>2022-08-19T05:59:46Z</time>
      </trkpt>
      <trkpt lat="43.27535" lon="5.80186">
        <ele>466.844421</ele>
        <time>2022-08-19T05:59:48Z</time>
      </trkpt>
      <trkpt lat="43.27536" lon="5.80163">
        <ele>466.35318</ele>
        <time>2022-08-19T05:59:50Z</time>
      </trkpt>
      <trkpt lat="43.27536" lon="5.80139">
        <ele>465.43985</ele>
        <time>2022-08-19T05:59:52Z</time>
      </trkpt>
      <trkpt lat="43.27536" lon="5.80116">
        <ele>464.62149</ele>
        <time>2022-08-19T05:59:54Z</time>
      </trkpt>
      <trkpt lat="43.27535" lon="5.80094">
        <ele>464.247894</ele>
        <time>2022-08-19T05:59:56Z</time>
      </trkpt>
      <trkpt lat="43.27535" lon="5.80071">
        <ele>463.576233</ele>
        <time>2022-08-19T05:59:58Z</time>
      </trkpt>
      <trkpt lat="43.27534" lon="5.80049">
        <ele>463.27655</ele>
        <time>2022-08-19T06:00:00Z</time>
      </trkpt>
      <trkpt lat="43.27533" lon="5.80027">
        <ele>462.741699</ele>
        <time>2022-08-19T06:00:02Z</time>
      </trkpt>
      <trkpt lat="43.27533" lon="5.80004">
        <ele>462.496521</ele>
        <time>2022-08-19T06:00:04Z</time>
      </trkpt>
      <trkpt lat="43.27532" lon="5.7998">
        <ele>462.017181</ele>
        <time>2022-08-19T06:00:06Z</time>
      </trkpt>
      <trkpt lat="43.27532" lon="5.79957">
        <ele>461.771637</ele>
        <time>2022-08-19T06:00:08Z</time>
      </trkpt>
      <trkpt lat="43.27531" lon="5.79935">
        <ele>461.259338</ele>
        <time>2022-08-19T06:00:10Z</time>
      </trkpt>
      <trkpt lat="43.27529" lon="5.79914">
        <ele>460.737946</ele>
        <time>2022-08-19T06:00:12Z</time>
      </trkpt>
      <trkpt lat="43.27525" lon="5.79893">
        <ele>460.483978</ele>
        <time>2022-08-19T06:00:14Z</time>
      </trkpt>
      <trkpt lat="43.27521" lon="5.79872">
        <ele>460.000793</ele>
        <time>2022-08-19T06:00:16Z</time>
      </trkpt>
      <trkpt lat="43.27516" lon="5.79851">
        <ele>459.7771</ele>
        <time>2022-08-19T06:00:18Z</time>
      </trkpt>
      <trkpt lat="43.27511" lon="5.79831">
        <ele>459.37915</ele>
        <time>2022-08-19T06:00:20Z</time>
      </trkpt>
      <trkpt lat="43.27505" lon="5.7981">
        <ele>459.208557</ele>
        <time>2022-08-19T06:00:22Z</time>
      </trkpt>
      <trkpt lat="43.27501" lon="5.7979">
        <ele>458.925781</ele>
        <time>2022-08-19T06:00:24Z</time>
      </trkpt>
      <trkpt lat="43.27498" lon="5.79767">
        <ele>458.713531</ele>
        <time>2022-08-19T06:00:26Z</time>
      </trkpt>
      <trkpt lat="43.27496" lon="5.79745">
        <ele>458.629944</ele>
        <time>2022-08-19T06:00:28Z</time>
      </trkpt>
      <trkpt lat="43.27497" lon="5.79723">
        <ele>458.496735</ele>
        <time>2022-08-19T06:00:30Z</time>
      </trkpt>
      <trkpt lat="43.27498" lon="5.79701">
        <ele>458.442566</ele>
        <time>2022-08-19T06:00:32Z</time>
      </trkpt>
      <trkpt lat="43.27499" lon="5.7968">
        <ele>458.346741</ele>
        <time>2022-08-19T06:00:34Z</time>
      </trkpt>
      <trkpt lat="43.275" lon="5.79658">
        <ele>458.299866</ele>
        <time>2022-08-19T06:00:36Z</time>
      </trkpt>
      <trkpt lat="43.27502" lon="5.79637">
        <ele>458.195801</ele>
        <time>2022-08-19T06:00:38Z</time>
      </trkpt>
      <trkpt lat="43.27502" lon="5.79616">
        <ele>458.068024</ele>
        <time>2022-08-19T06:00:40Z</time>
      </trkpt>
      <trkpt lat="43.27503" lon="5.79595">
        <ele>457.99408</ele>
        <time>2022-08-19T06:00:42Z</time>
      </trkpt>
      <trkpt lat="43.27501" lon="5.79574">
        <ele>457.826721</ele>
        <time>2022-08-19T06:00:44Z</time>
      </trkpt>
      <trkpt lat="43.27497" lon="5.79553">
        <ele>457.733643</ele>
        <time>2022-08-19T06:00:46Z</time>
      </trkpt>
      <trkpt lat="43.27491" lon="5.79532">
        <ele>457.530121</ele>
        <time>2022-08-19T06:00:48Z</time>
      </trkpt>
      <trkpt lat="43.27485" lon="5.79512">
        <ele>457.421051</ele>
        <time>2022-08-19T06:00:50Z</time>
      </trkpt>
      <trkpt lat="43.27478" lon="5.79491">
        <ele>457.196442</ele>
        <time>2022-08-19T06:00:52Z</time>
      </trkpt>
      <trkpt lat="43.2747" lon="5.7947">
        <ele>457.086853</ele>
        <time>2022-08-19T06:00:54Z</time>
      </trkpt>
      <trkpt lat="43.27463" lon="5.79449">
        <ele>456.904144</ele>
        <time>2022-08-19T06:00:56Z</time>
      </trkpt>
      <trkpt lat="43.27457" lon="5.7943">
        <ele>456.845032</ele>
        <time>2022-08-19T06:00:58Z</time>
      </trkpt>
      <trkpt lat="43.27449" lon="5.79412">
        <ele>456.809631</ele>
        <time>2022-08-19T06:01:00Z</time>
      </trkpt>
      <trkpt lat="43.27438" lon="5.79396">
        <ele>456.868591</ele>
        <time>2022-08-19T06:01:02Z</time>
      </trkpt>
      <trkpt lat="43.27425" lon="5.79384">
        <ele>456.921631</ele>
        <time>2022-08-19T06:01:04Z</time>
      </trkpt>
      <trkpt lat="43.27411" lon="5.79372">
        <ele>457.056213</ele>
        <time>2022-08-19T06:01:06Z</time>
      </trkpt>
      <trkpt lat="43.27396" lon="5.79361">
        <ele>457.134827</ele>
        <time>2022-08-19T06:01:08Z</time>
      </trkpt>
      <trkpt lat="43.27382" lon="5.79351">
        <ele>457.312836</ele>
        <time>2022-08-19T06:01:10Z</time>
      </trkpt>
      <trkpt lat="43.27368" lon="5.79341">
        <ele>457.41156</ele>
        <time>2022-08-19T06:01:12Z</time>
      </trkpt>
      <trkpt lat="43.27354" lon="5.79332">
        <ele>457.623871</ele>
        <time>2022-08-19T06:01:14Z</time>
      </trkpt>
      <trkpt lat="43.27341" lon="5.79323">
        <ele>457.846039</ele>
        <time>2022-08-19T06:01:16Z</time>
      </trkpt>
      <trkpt lat="43.27328" lon="5.79314">
        <ele>457.957916</ele>
        <time>2022-08-19T06:01:18Z</time>
      </trkpt>
      <trkpt lat="43.27315" lon="5.79304">
        <ele>458.181641</ele>
        <time>2022-08-19T06:01:20Z</time>
      </trkpt>
      <trkpt lat="43.27301" lon="5.79295">
        <ele>458.293945</ele>
        <time>2022-08-19T06:01:22Z</time>
      </trkpt>
      <trkpt lat="43.27288" lon="5.79288">
        <ele>458.52124</ele>
        <time>2022-08-19T06:01:24Z</time>
      </trkpt>
      <trkpt lat="43.27274" lon="5.79283">
        <ele>458.63739</ele>
        <time>2022-08-19T06:01:26Z</time>
      </trkpt>
      <trkpt lat="43.2726" lon="5.79278">
        <ele>458.878754</ele>
        <time>2022-08-19T06:01:28Z</time>
      </trkpt>
      <trkpt lat="43.27247" lon="5.79273">
        <ele>459.137848</ele>
        <time>2022-08-19T06:01:30Z</time>
      </trkpt>
      <trkpt lat="43.27234" lon="5.79266">
        <ele>459.274963</ele>
        <time>2022-08-19T06:01:32Z</time>
      </trkpt>
      <trkpt lat="43.27223" lon="5.79256">
        <ele>459.562683</ele>
        <time>2022-08-19T06:01:34Z</time>
      </trkpt>
      <trkpt lat="43.27213" lon="5.79244">
        <ele>459.712067</ele>
        <time>2022-08-19T06:01:36Z</time>
      </trkpt>
      <trkpt lat="43.27204" lon="5.7923">
        <ele>460.017731</ele>
        <time>2022-08-19T06:01:38Z</time>
      </trkpt>
      <trkpt lat="43.27195" lon="5.79215">
        <ele>460.171936</ele>
        <time>2022-08-19T06:01:40Z</time>
      </trkpt>
      <trkpt lat="43.27186" lon="5.79201">
        <ele>460.476898</ele>
        <time>2022-08-19T06:01:42Z</time>
      </trkpt>
      <trkpt lat="43.27176" lon="5.79187">
        <ele>460.624847</ele>
        <time>2022-08-19T06:01:44Z</time>
      </trkpt>
      <trkpt lat="43.27166" lon="5.79175">
        <ele>460.907288</ele>
        <time>2022-08-19T06:01:46Z</time>
      </trkpt>
      <trkpt lat="43.27156" lon="5.79162">
        <ele>461.171478</ele>
        <time>2022-08-19T06:01:48Z</time>
      </trkpt>
      <trkpt lat="43.27146" lon="5.79148">
        <ele>461.297424</ele>
        <time>2022-08-19T06:01:50Z</time>
      </trkpt>
      <trkpt lat="43.27136" lon="5.79134">
        <ele>461.540619</ele>
        <time>2022-08-19T06:01:52Z</time>
      </trkpt>
      <trkpt lat="43.27126" lon="5.79119">
        <ele>461.657471</ele>
        <time>2022-08-19T06:01:54Z</time>
      </trkpt>
      <trkpt lat="43.27115" lon="5.79104">
        <ele>461.8815</ele>
        <time>2022-08-19T06:01:56Z</time>
      </trkpt>
      <trkpt lat="43.27103" lon="5.79087">
        <ele>461.988037</ele>
        <time>2022-08-19T06:01:58Z</time>
      </trkpt>
      <trkpt lat="43.27095" lon="5.79068">
        <ele>462.186523</ele>
        <time>2022-08-19T06:02:00Z</time>
      </trkpt>
      <trkpt lat="43.27089" lon="5.79047">
        <ele>462.358704</ele>
        <time>2022-08-19T06:02:02Z</time>
      </trkpt>
      <trkpt lat="43.27084" lon="5.79025">
        <ele>462.430664</ele>
        <time>2022-08-19T06:02:04Z</time>
      </trkpt>
      <trkpt lat="43.27081" lon="5.79004">
        <ele>462.534973</ele>
        <time>2022-08-19T06:02:06Z</time>
      </trkpt>
      <trkpt lat="43.27076" lon="5.78983">
        <ele>462.563568</ele>
        <time>2022-08-19T06:02:08Z</time>
      </trkpt>
      <trkpt lat="43.2707" lon="5.78963">
        <ele>462.569031</ele>
        <time>2022-08-19T06:02:10Z</time>
      </trkpt>
      <trkpt lat="43.27062" lon="5.78944">
        <ele>462.546387</ele>
        <time>2022-08-19T06:02:12Z</time>
      </trkpt>
      <trkpt lat="43.27053" lon="5.78927">
        <ele>462.456451</ele>
        <time>2022-08-19T06:02:14Z</time>
      </trkpt>
      <trkpt lat="43.27045" lon="5.7891">
        <ele>462.320221</ele>
        <time>2022-08-19T06:02:16Z</time>
      </trkpt>
      <trkpt lat="43.27038" lon="5.7889">
        <ele>462.239441</ele>
        <time>2022-08-19T06:02:18Z</time>
      </trkpt>
      <trkpt lat="43.27033" lon="5.78869">
        <ele>462.057037</ele>
        <time>2022-08-19T06:02:20Z</time>
      </trkpt>
      <trkpt lat="43.27029" lon="5.78847">
        <ele>461.954498</ele>
        <time>2022-08-19T06:02:22Z</time>
      </trkpt>
      <trkpt lat="43.27026" lon="5.78823">
        <ele>461.719482</ele>
        <time>2022-08-19T06:02:24Z</time>
      </trkpt>
      <trkpt lat="43.27022" lon="5.78798">
        <ele>461.583435</ele>
        <time>2022-08-19T06:02:26Z</time>
      </trkpt>
      <trkpt lat="43.2702" lon="5.78771">
        <ele>461.271301</ele>
        <time>2022-08-19T06:02:28Z</time>
      </trkpt>
      <trkpt lat="43.27016" lon="5.78744">
        <ele>461.097076</ele>
        <time>2022-08-19T06:02:30Z</time>
      </trkpt>
      <trkpt lat="43.27014" lon="5.78717">
        <ele>460.720856</ele>
        <time>2022-08-19T06:02:32Z</time>
      </trkpt>
      <trkpt lat="43.27012" lon="5.78689">
        <ele>460.315857</ele>
        <time>2022-08-19T06:02:34Z</time>
      </trkpt>
      <trkpt lat="43.27009" lon="5.78661">
        <ele>460.104095</ele>
        <time>2022-08-19T06:02:36Z</time>
      </trkpt>
      <trkpt lat="43.27005" lon="5.78633">
        <ele>459.668762</ele>
        <time>2022-08-19T06:02:38Z</time>
      </trkpt>
      <trkpt lat="43.26998" lon="5.78606">
        <ele>459.441315</ele>
        <time>2022-08-19T06:02:40Z</time>
      </trkpt>
      <trkpt lat="43.2699" lon="5.78579">
        <ele>458.962891</ele>
        <time>2022-08-19T06:02:42Z</time>
      </trkpt>
      <trkpt lat="43.26982" lon="5.78552">
        <ele>458.445709</ele>
        <time>2022-08-19T06:02:44Z</time>
      </trkpt>
      <trkpt lat="43.26975" lon="5.78525">
        <ele>458.168884</ele>
        <time>2022-08-19T06:02:46Z</time>
      </trkpt>
      <trkpt lat="43.26967" lon="5.78499">
        <ele>457.568054</ele>
        <time>2022-08-19T06:02:48Z</time>
      </trkpt>
      <trkpt lat="43.26959" lon="5.78473">
        <ele>457.239258</ele>
        <time>2022-08-19T06:02:50Z</time>
      </trkpt>
      <trkpt lat="43.26952" lon="5.78446">
        <ele>456.512695</ele>
        <time>2022-08-19T06:02:52Z</time>
      </trkpt>
      <trkpt lat="43.26944" lon="5.78419">
        <ele>456.114655</ele>
        <time>2022-08-19T06:02:54Z</time>
      </trkpt>
      <trkpt lat="43.26936" lon="5.78391">
        <ele>455.263855</ele>
        <time>2022-08-19T06:02:56Z</time>
      </trkpt>
      <trkpt lat="43.26929" lon="5.78362">
        <ele>454.820557</ele>
        <time>2022-08-19T06:02:58Z</time>
      </trkpt>
      <trkpt lat="43.26922" lon="5.78333">
        <ele>453.919525</ele>
        <time>2022-08-19T06:03:00Z</time>
      </trkpt>
      <trkpt lat="43.26915" lon="5.78303">
        <ele>453.021667</ele>
        <time>2022-08-19T06:03:02Z</time>
      </trkpt>
      <trkpt lat="43.26907" lon="5.78273">
        <ele>452.580475</ele>
        <time>2022-08-19T06:03:04Z</time>
      </trkpt>
      <trkpt lat="43.26899" lon="5.78243">
        <ele>451.718597</ele>
        <time>2022-08-19T06:03:06Z</time>
      </trkpt>
      <trkpt lat="43.26892" lon="5.78212">
        <ele>451.296631</ele>
        <time>2022-08-19T06:03:08Z</time>
      </trkpt>
      <trkpt lat="43.26885" lon="5.78182">
        <ele>450.464203</ele>
        <time>2022-08-19T06:03:10Z</time>
      </trkpt>
      <trkpt lat="43.26877" lon="5.78153">
        <ele>449.642517</ele>
        <time>2022-08-19T06:03:12Z</time>
      </trkpt>
      <trkpt lat="43.2687" lon="5.78127">
        <ele>449.236633</ele>
        <time>2022-08-19T06:03:14Z</time>
      </trkpt>
      <trkpt lat="43.26865" lon="5.78101">
        <ele>448.440674</ele>
        <time>2022-08-19T06:03:16Z</time>
      </trkpt>
      <trkpt lat="43.26864" lon="5.78075">
        <ele>448.05191</ele>
        <time>2022-08-19T06:03:18Z</time>
      </trkpt>
      <trkpt lat="43.26859" lon="5.78051">
        <ele>447.290863</ele>
        <time>2022-08-19T06:03:20Z</time>
      </trkpt>
      <trkpt lat="43.26849" lon="5.7803">
        <ele>446.916107</ele>
        <time>2022-08-19T06:03:22Z</time>
      </trkpt>
      <trkpt lat="43.2684" lon="5.78008">
        <ele>446.173584</ele>
        <time>2022-08-19T06:03:24Z</time>
      </trkpt>
      <trkpt lat="43.26833" lon="5.77983">
        <ele>445.805115</ele>
        <time>2022-08-19T06:03:26Z</time>
      </trkpt>
      <trkpt lat="43.26826" lon="5.77958">
        <ele>445.070892</ele>
        <time>2022-08-19T06:03:28Z</time>
      </trkpt>
      <trkpt lat="43.26819" lon="5.77933">
        <ele>444.704529</ele>
        <time>2022-08-19T06:03:30Z</time>
      </trkpt>
      <trkpt lat="43.26812" lon="5.77907">
        <ele>443.976868</ele>
        <time>2022-08-19T06:03:32Z</time>
      </trkpt>
      <trkpt lat="43.26805" lon="5.77881">
        <ele>443.259277</ele>
        <time>2022-08-19T06:03:34Z</time>
      </trkpt>
      <trkpt lat="43.26798" lon="5.77855">
        <ele>442.907562</ele>
        <time>2022-08-19T06:03:36Z</time>
      </trkpt>
      <trkpt lat="43.2679" lon="5.7783">
        <ele>442.227386</ele>
        <time>2022-08-19T06:03:38Z</time>
      </trkpt>
      <trkpt lat="43.26781" lon="5.77805">
        <ele>441.903168</ele>
        <time>2022-08-19T06:03:40Z</time>
      </trkpt>
      <trkpt lat="43.26772" lon="5.77781">
        <ele>441.296814</ele>
        <time>2022-08-19T06:03:42Z</time>
      </trkpt>
      <trkpt lat="43.26764" lon="5.77758">
        <ele>440.757568</ele>
        <time>2022-08-19T06:03:44Z</time>
      </trkpt>
      <trkpt lat="43.26754" lon="5.77734">
        <ele>440.51181</ele>
        <time>2022-08-19T06:03:46Z</time>
      </trkpt>
      <trkpt lat="43.26745" lon="5.77712">
        <ele>440.056793</ele>
        <time>2022-08-19T06:03:48Z</time>
      </trkpt>
      <trkpt lat="43.26733" lon="5.7769">
        <ele>439.841797</ele>
        <time>2022-08-19T06:03:50Z</time>
      </trkpt>
      <trkpt lat="43.26722" lon="5.77669">
        <ele>439.42511</ele>
        <time>2022-08-19T06:03:52Z</time>
      </trkpt>
      <trkpt lat="43.26711" lon="5.77649">
        <ele>439.218445</ele>
        <time>2022-08-19T06:03:54Z</time>
      </trkpt>
      <trkpt lat="43.26699" lon="5.77629">
        <ele>438.798004</ele>
        <time>2022-08-19T06:03:56Z</time>
      </trkpt>
      <trkpt lat="43.26688" lon="5.7761">
        <ele>438.581543</ele>
        <time>2022-08-19T06:03:58Z</time>
      </trkpt>
      <trkpt lat="43.26678" lon="5.77592">
        <ele>438.133789</ele>
        <time>2022-08-19T06:04:00Z</time>
      </trkpt>
      <trkpt lat="43.26666" lon="5.77572">
        <ele>437.666016</ele>
        <time>2022-08-19T06:04:02Z</time>
      </trkpt>
      <trkpt lat="43.26654" lon="5.77551">
        <ele>437.4245</ele>
        <time>2022-08-19T06:04:04Z</time>
      </trkpt>
      <trkpt lat="43.26642" lon="5.7753">
        <ele>436.925598</ele>
        <time>2022-08-19T06:04:06Z</time>
      </trkpt>
      <trkpt lat="43.26629" lon="5.77509">
        <ele>436.668152</ele>
        <time>2022-08-19T06:04:08Z</time>
      </trkpt>
      <trkpt lat="43.26618" lon="5.77486">
        <ele>436.138733</ele>
        <time>2022-08-19T06:04:10Z</time>
      </trkpt>
      <trkpt lat="43.26608" lon="5.77461">
        <ele>435.867523</ele>
        <time>2022-08-19T06:04:12Z</time>
      </trkpt>
      <trkpt lat="43.26599" lon="5.77436">
        <ele>435.31488</ele>
        <time>2022-08-19T06:04:14Z</time>
      </trkpt>
      <trkpt lat="43.26591" lon="5.7741">
        <ele>435.034576</ele>
        <time>2022-08-19T06:04:16Z</time>
      </trkpt>
      <trkpt lat="43.26584" lon="5.77384">
        <ele>434.46933</ele>
        <time>2022-08-19T06:04:18Z</time>
      </trkpt>
      <trkpt lat="43.26577" lon="5.77358">
        <ele>433.902344</ele>
        <time>2022-08-19T06:04:20Z</time>
      </trkpt>
      <trkpt lat="43.26569" lon="5.77332">
        <ele>433.619873</ele>
        <time>2022-08-19T06:04:22Z</time>
      </trkpt>
      <trkpt lat="43.26564" lon="5.77305">
        <ele>433.058014</ele>
        <time>2022-08-19T06:04:24Z</time>
      </trkpt>
      <trkpt lat="43.2656" lon="5.77278">
        <ele>432.778381</ele>
        <time>2022-08-19T06:04:26Z</time>
      </trkpt>
      <trkpt lat="43.26556" lon="5.77253">
        <ele>432.220154</ele>
        <time>2022-08-19T06:04:28Z</time>
      </trkpt>
      <trkpt lat="43.26553" lon="5.77228">
        <ele>431.662445</ele>
        <time>2022-08-19T06:04:30Z</time>
      </trkpt>
      <trkpt lat="43.2655" lon="5.77202">
        <ele>431.384674</ele>
        <time>2022-08-19T06:04:32Z</time>
      </trkpt>
      <trkpt lat="43.26547" lon="5.77177">
        <ele>430.835846</ele>
        <time>2022-08-19T06:04:34Z</time>
      </trkpt>
      <trkpt lat="43.26543" lon="5.77152">
        <ele>430.567383</ele>
        <time>2022-08-19T06:04:36Z</time>
      </trkpt>
      <trkpt lat="43.2654" lon="5.77128">
        <ele>430.047272</ele>
        <time>2022-08-19T06:04:38Z</time>
      </trkpt>
      <trkpt lat="43.26536" lon="5.77104">
        <ele>429.796692</ele>
        <time>2022-08-19T06:04:40Z</time>
      </trkpt>
      <trkpt lat="43.26533" lon="5.77081">
        <ele>429.315033</ele>
        <time>2022-08-19T06:04:42Z</time>
      </trkpt>
      <trkpt lat="43.2653" lon="5.77058">
        <ele>429.083191</ele>
        <time>2022-08-19T06:04:44Z</time>
      </trkpt>
      <trkpt lat="43.26528" lon="5.77035">
        <ele>428.63324</ele>
        <time>2022-08-19T06:04:46Z</time>
      </trkpt>
      <trkpt lat="43.26528" lon="5.7701">
        <ele>428.413422</ele>
        <time>2022-08-19T06:04:48Z</time>
      </trkpt>
      <trkpt lat="43.26529" lon="5.76988">
        <ele>427.982574</ele>
        <time>2022-08-19T06:04:50Z</time>
      </trkpt>
      <trkpt lat="43.26529" lon="5.76964">
        <ele>427.56488</ele>
        <time>2022-08-19T06:04:52Z</time>
      </trkpt>
      <trkpt lat="43.26529" lon="5.7694">
        <ele>427.362122</ele>
        <time>2022-08-19T06:04:54Z</time>
      </trkpt>
      <trkpt lat="43.26527" lon="5.76916">
        <ele>426.971252</ele>
        <time>2022-08-19T06:04:56Z</time>
      </trkpt>
      <trkpt lat="43.26524" lon="5.76892">
        <ele>426.784363</ele>
        <time>2022-08-19T06:04:58Z</time>
      </trkpt>
      <trkpt lat="43.26519" lon="5.76869">
        <ele>426.430664</ele>
        <time>2022-08-19T06:05:00Z</time>
      </trkpt>
      <trkpt lat="43.26511" lon="5.76845">
        <ele>426.107086</ele>
        <time>2022-08-19T06:05:02Z</time>
      </trkpt>
      <trkpt lat="43.26502" lon="5.76822">
        <ele>425.957367</ele>
        <time>2022-08-19T06:05:04Z</time>
      </trkpt>
      <trkpt lat="43.26494" lon="5.76798">
        <ele>425.683441</ele>
        <time>2022-08-19T06:05:06Z</time>
      </trkpt>
      <trkpt lat="43.26486" lon="5.76777">
        <ele>425.559509</ele>
        <time>2022-08-19T06:05:08Z</time>
      </trkpt>
      <trkpt lat="43.26478" lon="5.76756">
        <ele>425.339417</ele>
        <time>2022-08-19T06:05:10Z</time>
      </trkpt>
      <trkpt lat="43.2647" lon="5.76735">
        <ele>425.243073</ele>
        <time>2022-08-19T06:05:12Z</time>
      </trkpt>
      <trkpt lat="43.26462" lon="5.76714">
        <ele>425.075867</ele>
        <time>2022-08-19T06:05:14Z</time>
      </trkpt>
      <trkpt lat="43.26454" lon="5.76693">
        <ele>425.003815</ele>
        <time>2022-08-19T06:05:16Z</time>
      </trkpt>
      <trkpt lat="43.26446" lon="5.76672">
        <ele>424.879059</ele>
        <time>2022-08-19T06:05:18Z</time>
      </trkpt>
      <trkpt lat="43.26439" lon="5.76651">
        <ele>424.780182</ele>
        <time>2022-08-19T06:05:20Z</time>
      </trkpt>
      <trkpt lat="43.26431" lon="5.76631">
        <ele>424.741394</ele>
        <time>2022-08-19T06:05:22Z</time>
      </trkpt>
      <trkpt lat="43.26423" lon="5.76611">
        <ele>424.684326</ele>
        <time>2022-08-19T06:05:24Z</time>
      </trkpt>
      <trkpt lat="43.26416" lon="5.76591">
        <ele>424.663818</ele>
        <time>2022-08-19T06:05:26Z</time>
      </trkpt>
      <trkpt lat="43.26408" lon="5.76572">
        <ele>424.630768</ele>
        <time>2022-08-19T06:05:28Z</time>
      </trkpt>
      <trkpt lat="43.264" lon="5.76551">
        <ele>424.59848</ele>
        <time>2022-08-19T06:05:30Z</time>
      </trkpt>
      <trkpt lat="43.26392" lon="5.76531">
        <ele>424.579498</ele>
        <time>2022-08-19T06:05:32Z</time>
      </trkpt>
      <trkpt lat="43.26384" lon="5.7651">
        <ele>424.531067</ele>
        <time>2022-08-19T06:05:34Z</time>
      </trkpt>
      <trkpt lat="43.26376" lon="5.76489">
        <ele>424.500671</ele>
        <time>2022-08-19T06:05:36Z</time>
      </trkpt>
      <trkpt lat="43.26366" lon="5.76466">
        <ele>424.428314</ele>
        <time>2022-08-19T06:05:38Z</time>
      </trkpt>
      <trkpt lat="43.26358" lon="5.76441">
        <ele>424.387054</ele>
        <time>2022-08-19T06:05:40Z</time>
      </trkpt>
      <trkpt lat="43.26347" lon="5.76415">
        <ele>424.295227</ele>
        <time>2022-08-19T06:05:42Z</time>
      </trkpt>
      <trkpt lat="43.26337" lon="5.7639">
        <ele>424.244629</ele>
        <time>2022-08-19T06:05:44Z</time>
      </trkpt>
      <trkpt lat="43.26326" lon="5.76363">
        <ele>424.133484</ele>
        <time>2022-08-19T06:05:46Z</time>
      </trkpt>
      <trkpt lat="43.26316" lon="5.76337">
        <ele>424.008728</ele>
        <time>2022-08-19T06:05:48Z</time>
      </trkpt>
      <trkpt lat="43.26305" lon="5.7631">
        <ele>423.94101</ele>
        <time>2022-08-19T06:05:50Z</time>
      </trkpt>
      <trkpt lat="43.26295" lon="5.76285">
        <ele>423.796448</ele>
        <time>2022-08-19T06:05:52Z</time>
      </trkpt>
      <trkpt lat="43.26285" lon="5.76259">
        <ele>423.717865</ele>
        <time>2022-08-19T06:05:54Z</time>
      </trkpt>
      <trkpt lat="43.26275" lon="5.76234">
        <ele>423.546936</ele>
        <time>2022-08-19T06:05:56Z</time>
      </trkpt>
      <trkpt lat="43.26266" lon="5.7621">
        <ele>423.454163</ele>
        <time>2022-08-19T06:05:58Z</time>
      </trkpt>
      <trkpt lat="43.26256" lon="5.76186">
        <ele>423.253815</ele>
        <time>2022-08-19T06:06:00Z</time>
      </trkpt>
      <trkpt lat="43.26247" lon="5.76163">
        <ele>423.035004</ele>
        <time>2022-08-19T06:06:02Z</time>
      </trkpt>
      <trkpt lat="43.26238" lon="5.7614">
        <ele>422.920319</ele>
        <time>2022-08-19T06:06:04Z</time>
      </trkpt>
      <trkpt lat="43.26229" lon="5.76118">
        <ele>422.685852</ele>
        <time>2022-08-19T06:06:06Z</time>
      </trkpt>
      <trkpt lat="43.2622" lon="5.76096">
        <ele>422.568695</ele>
        <time>2022-08-19T06:06:08Z</time>
      </trkpt>
      <trkpt lat="43.26212" lon="5.76075">
        <ele>422.337341</ele>
        <time>2022-08-19T06:06:10Z</time>
      </trkpt>
      <trkpt lat="43.26204" lon="5.76055">
        <ele>422.222473</ele>
        <time>2022-08-19T06:06:12Z</time>
      </trkpt>
      <trkpt lat="43.26195" lon="5.76033">
        <ele>421.989594</ele>
        <time>2022-08-19T06:06:14Z</time>
      </trkpt>
      <trkpt lat="43.26186" lon="5.76012">
        <ele>421.87027</ele>
        <time>2022-08-19T06:06:16Z</time>
      </trkpt>
      <trkpt lat="43.26177" lon="5.7599">
        <ele>421.624817</ele>
        <time>2022-08-19T06:06:18Z</time>
      </trkpt>
      <trkpt lat="43.26168" lon="5.7597">
        <ele>421.373352</ele>
        <time>2022-08-19T06:06:20Z</time>
      </trkpt>
      <trkpt lat="43.26158" lon="5.7595">
        <ele>421.247742</ele>
        <time>2022-08-19T06:06:22Z</time>
      </trkpt>
      <trkpt lat="43.26148" lon="5.7593">
        <ele>421.003021</ele>
        <time>2022-08-19T06:06:24Z</time>
      </trkpt>
      <trkpt lat="43.26138" lon="5.75909">
        <ele>420.884918</ele>
        <time>2022-08-19T06:06:26Z</time>
      </trkpt>
      <trkpt lat="43.26127" lon="5.75888">
        <ele>420.6586</ele>
        <time>2022-08-19T06:06:28Z</time>
      </trkpt>
      <trkpt lat="43.26116" lon="5.75866">
        <ele>420.4422</ele>
        <time>2022-08-19T06:06:30Z</time>
      </trkpt>
      <trkpt lat="43.26105" lon="5.75844">
        <ele>420.335785</ele>
        <time>2022-08-19T06:06:32Z</time>
      </trkpt>
      <trkpt lat="43.26094" lon="5.75823">
        <ele>420.123352</ele>
        <time>2022-08-19T06:06:34Z</time>
      </trkpt>
      <trkpt lat="43.26083" lon="5.75802">
        <ele>420.01651</ele>
        <time>2022-08-19T06:06:36Z</time>
      </trkpt>
      <trkpt lat="43.26072" lon="5.75781">
        <ele>419.800232</ele>
        <time>2022-08-19T06:06:38Z</time>
      </trkpt>
      <trkpt lat="43.26062" lon="5.7576">
        <ele>419.69043</ele>
        <time>2022-08-19T06:06:40Z</time>
      </trkpt>
      <trkpt lat="43.26051" lon="5.75739">
        <ele>419.465729</ele>
        <time>2022-08-19T06:06:42Z</time>
      </trkpt>
      <trkpt lat="43.2604" lon="5.75718">
        <ele>419.234619</ele>
        <time>2022-08-19T06:06:44Z</time>
      </trkpt>
      <trkpt lat="43.2603" lon="5.75697">
        <ele>419.117371</ele>
        <time>2022-08-19T06:06:46Z</time>
      </trkpt>
      <trkpt lat="43.26019" lon="5.75676">
        <ele>418.880432</ele>
        <time>2022-08-19T06:06:48Z</time>
      </trkpt>
      <trkpt lat="43.26008" lon="5.75655">
        <ele>418.760559</ele>
        <time>2022-08-19T06:06:50Z</time>
      </trkpt>
      <trkpt lat="43.25997" lon="5.75635">
        <ele>418.516693</ele>
        <time>2022-08-19T06:06:52Z</time>
      </trkpt>
      <trkpt lat="43.25986" lon="5.75614">
        <ele>418.391937</ele>
        <time>2022-08-19T06:06:54Z</time>
      </trkpt>
      <trkpt lat="43.25975" lon="5.75594">
        <ele>418.13443</ele>
        <time>2022-08-19T06:06:56Z</time>
      </trkpt>
      <trkpt lat="43.25964" lon="5.75573">
        <ele>418.000305</ele>
        <time>2022-08-19T06:06:58Z</time>
      </trkpt>
      <trkpt lat="43.25955" lon="5.75553">
        <ele>417.719391</ele>
        <time>2022-08-19T06:07:00Z</time>
      </trkpt>
      <trkpt lat="43.25944" lon="5.75531">
        <ele>417.420502</ele>
        <time>2022-08-19T06:07:02Z</time>
      </trkpt>
      <trkpt lat="43.25932" lon="5.7551">
        <ele>417.264801</ele>
        <time>2022-08-19T06:07:04Z</time>
      </trkpt>
      <trkpt lat="43.25921" lon="5.75488">
        <ele>416.943115</ele>
        <time>2022-08-19T06:07:06Z</time>
      </trkpt>
      <trkpt lat="43.25908" lon="5.75466">
        <ele>416.777771</ele>
        <time>2022-08-19T06:07:08Z</time>
      </trkpt>
      <trkpt lat="43.25897" lon="5.75444">
        <ele>416.438812</ele>
        <time>2022-08-19T06:07:10Z</time>
      </trkpt>
      <trkpt lat="43.25884" lon="5.75421">
        <ele>416.264832</ele>
        <time>2022-08-19T06:07:12Z</time>
      </trkpt>
      <trkpt lat="43.25871" lon="5.75397">
        <ele>415.906433</ele>
        <time>2022-08-19T06:07:14Z</time>
      </trkpt>
      <trkpt lat="43.25858" lon="5.75373">
        <ele>415.721863</ele>
        <time>2022-08-19T06:07:16Z</time>
      </trkpt>
      <trkpt lat="43.25846" lon="5.7535">
        <ele>415.343445</ele>
        <time>2022-08-19T06:07:18Z</time>
      </trkpt>
      <trkpt lat="43.25834" lon="5.75328">
        <ele>414.956146</ele>
        <time>2022-08-19T06:07:20Z</time>
      </trkpt>
      <trkpt lat="43.25822" lon="5.75307">
        <ele>414.761383</ele>
        <time>2022-08-19T06:07:22Z</time>
      </trkpt>
      <trkpt lat="43.25811" lon="5.75286">
        <ele>414.376129</ele>
        <time>2022-08-19T06:07:24Z</time>
      </trkpt>
      <trkpt lat="43.258" lon="5.75265">
        <ele>414.188538</ele>
        <time>2022-08-19T06:07:26Z</time>
      </trkpt>
      <trkpt lat="43.25788" lon="5.75244">
        <ele>413.82901</ele>
        <time>2022-08-19T06:07:28Z</time>
      </trkpt>
      <trkpt lat="43.25777" lon="5.75223">
        <ele>413.65863</ele>
        <time>2022-08-19T06:07:30Z</time>
      </trkpt>
      <trkpt lat="43.25765" lon="5.75202">
        <ele>413.338715</ele>
        <time>2022-08-19T06:07:32Z</time>
      </trkpt>
      <trkpt lat="43.25755" lon="5.75182">
        <ele>413.046295</ele>
        <time>2022-08-19T06:07:34Z</time>
      </trkpt>
      <trkpt lat="43.25744" lon="5.75162">
        <ele>412.91095</ele>
        <time>2022-08-19T06:07:36Z</time>
      </trkpt>
      <trkpt lat="43.25732" lon="5.75144">
        <ele>412.661285</ele>
        <time>2022-08-19T06:07:38Z</time>
      </trkpt>
      <trkpt lat="43.25721" lon="5.75129">
        <ele>412.547028</ele>
        <time>2022-08-19T06:07:40Z</time>
      </trkpt>
      <trkpt lat="43.25711" lon="5.75112">
        <ele>412.339783</ele>
        <time>2022-08-19T06:07:42Z</time>
      </trkpt>
      <trkpt lat="43.25702" lon="5.75093">
        <ele>412.163666</ele>
        <time>2022-08-19T06:07:44Z</time>
      </trkpt>
      <trkpt lat="43.25694" lon="5.75075">
        <ele>412.088226</ele>
        <time>2022-08-19T06:07:46Z</time>
      </trkpt>
      <trkpt lat="43.25686" lon="5.75057">
        <ele>411.963715</ele>
        <time>2022-08-19T06:07:48Z</time>
      </trkpt>
      <trkpt lat="43.25678" lon="5.7504">
        <ele>411.915039</ele>
        <time>2022-08-19T06:07:50Z</time>
      </trkpt>
      <trkpt lat="43.25669" lon="5.75024">
        <ele>411.845612</ele>
        <time>2022-08-19T06:07:52Z</time>
      </trkpt>
      <trkpt lat="43.2566" lon="5.75007">
        <ele>411.824951</ele>
        <time>2022-08-19T06:07:54Z</time>
      </trkpt>
      <trkpt lat="43.25651" lon="5.74993">
        <ele>411.81134</ele>
        <time>2022-08-19T06:07:56Z</time>
      </trkpt>
      <trkpt lat="43.25639" lon="5.74984">
        <ele>411.833344</ele>
        <time>2022-08-19T06:07:58Z</time>
      </trkpt>
      <trkpt lat="43.25627" lon="5.74989">
        <ele>411.857239</ele>
        <time>2022-08-19T06:08:00Z</time>
      </trkpt>
      <trkpt lat="43.25615" lon="5.75">
        <ele>411.929291</ele>
        <time>2022-08-19T06:08:02Z</time>
      </trkpt>
      <trkpt lat="43.25605" lon="5.75013">
        <ele>411.977142</ele>
        <time>2022-08-19T06:08:04Z</time>
      </trkpt>
      <trkpt lat="43.25594" lon="5.75027">
        <ele>412.096039</ele>
        <time>2022-08-19T06:08:06Z</time>
      </trkpt>
      <trkpt lat="43.25584" lon="5.7504">
        <ele>412.167084</ele>
        <time>2022-08-19T06:08:08Z</time>
      </trkpt>
      <trkpt lat="43.25574" lon="5.75055">
        <ele>412.331848</ele>
        <time>2022-08-19T06:08:10Z</time>
      </trkpt>
      <trkpt lat="43.25563" lon="5.75069">
        <ele>412.523621</ele>
        <time>2022-08-19T06:08:12Z</time>
      </trkpt>
      <trkpt lat="43.25552" lon="5.75083">
        <ele>412.626801</ele>
        <time>2022-08-19T06:08:14Z</time>
      </trkpt>
      <trkpt lat="43.25542" lon="5.75098">
        <ele>412.839783</ele>
        <time>2022-08-19T06:08:16Z</time>
      </trkpt>
      <trkpt lat="43.2553" lon="5.75113">
        <ele>412.946869</ele>
        <time>2022-08-19T06:08:18Z</time>
      </trkpt>
      <trkpt lat="43.25519" lon="5.75128">
        <ele>413.157715</ele>
        <time>2022-08-19T06:08:20Z</time>
      </trkpt>
      <trkpt lat="43.25508" lon="5.75143">
        <ele>413.260559</ele>
        <time>2022-08-19T06:08:22Z</time>
      </trkpt>
      <trkpt lat="43.25497" lon="5.75158">
        <ele>413.460358</ele>
        <time>2022-08-19T06:08:24Z</time>
      </trkpt>
      <trkpt lat="43.25486" lon="5.75173">
        <ele>413.650818</ele>
        <time>2022-08-19T06:08:26Z</time>
      </trkpt>
      <trkpt lat="43.25475" lon="5.75187">
        <ele>413.741547</ele>
        <time>2022-08-19T06:08:28Z</time>
      </trkpt>
      <trkpt lat="43.25464" lon="5.75201">
        <ele>413.910706</ele>
        <time>2022-08-19T06:08:30Z</time>
      </trkpt>
      <trkpt lat="43.25453" lon="5.75216">
        <ele>413.987701</ele>
        <time>2022-08-19T06:08:32Z</time>
      </trkpt>
      <trkpt lat="43.25442" lon="5.7523">
        <ele>414.125671</ele>
        <time>2022-08-19T06:08:34Z</time>
      </trkpt>
      <trkpt lat="43.2543" lon="5.75245">
        <ele>414.184998</ele>
        <time>2022-08-19T06:08:36Z</time>
      </trkpt>
      <trkpt lat="43.25417" lon="5.75261">
        <ele>414.281494</ele>
        <time>2022-08-19T06:08:38Z</time>
      </trkpt>
      <trkpt lat="43.25406" lon="5.75277">
        <ele>414.343323</ele>
        <time>2022-08-19T06:08:40Z</time>
      </trkpt>
      <trkpt lat="43.25395" lon="5.75293">
        <ele>414.359436</ele>
        <time>2022-08-19T06:08:42Z</time>
      </trkpt>
      <trkpt lat="43.25383" lon="5.75309">
        <ele>414.360107</ele>
        <time>2022-08-19T06:08:44Z</time>
      </trkpt>
      <trkpt lat="43.25371" lon="5.75325">
        <ele>414.343933</ele>
        <time>2022-08-19T06:08:46Z</time>
      </trkpt>
      <trkpt lat="43.25359" lon="5.75343">
        <ele>414.275238</ele>
        <time>2022-08-19T06:08:48Z</time>
      </trkpt>
      <trkpt lat="43.25348" lon="5.7536">
        <ele>414.221741</ele>
        <time>2022-08-19T06:08:50Z</time>
      </trkpt>
      <trkpt lat="43.25336" lon="5.75376">
        <ele>414.075256</ele>
        <time>2022-08-19T06:08:52Z</time>
      </trkpt>
      <trkpt lat="43.25324" lon="5.75391">
        <ele>413.983154</ele>
        <time>2022-08-19T06:08:54Z</time>
      </trkpt>
      <trkpt lat="43.25312" lon="5.75404">
        <ele>413.764343</ele>
        <time>2022-08-19T06:08:56Z</time>
      </trkpt>
      <trkpt lat="43.25298" lon="5.75417">
        <ele>413.503601</ele>
        <time>2022-08-19T06:08:58Z</time>
      </trkpt>
      <trkpt lat="43.25284" lon="5.75429">
        <ele>413.35907</ele>
        <time>2022-08-19T06:09:00Z</time>
      </trkpt>
      <trkpt lat="43.2527" lon="5.75443">
        <ele>413.046814</ele>
        <time>2022-08-19T06:09:02Z</time>
      </trkpt>
      <trkpt lat="43.25256" lon="5.75456">
        <ele>412.881744</ele>
        <time>2022-08-19T06:09:04Z</time>
      </trkpt>
      <trkpt lat="43.25241" lon="5.75469">
        <ele>412.538879</ele>
        <time>2022-08-19T06:09:06Z</time>
      </trkpt>
      <trkpt lat="43.25227" lon="5.75483">
        <ele>412.361755</ele>
        <time>2022-08-19T06:09:08Z</time>
      </trkpt>
      <trkpt lat="43.25213" lon="5.75498">
        <ele>411.996094</ele>
        <time>2022-08-19T06:09:10Z</time>
      </trkpt>
      <trkpt lat="43.25199" lon="5.75512">
        <ele>411.807465</ele>
        <time>2022-08-19T06:09:12Z</time>
      </trkpt>
      <trkpt lat="43.25184" lon="5.75526">
        <ele>411.418945</ele>
        <time>2022-08-19T06:09:14Z</time>
      </trkpt>
      <trkpt lat="43.25169" lon="5.75541">
        <ele>411.014008</ele>
        <time>2022-08-19T06:09:16Z</time>
      </trkpt>
      <trkpt lat="43.25153" lon="5.75557">
        <ele>410.803772</ele>
        <time>2022-08-19T06:09:18Z</time>
      </trkpt>
      <trkpt lat="43.25136" lon="5.75574">
        <ele>410.362305</ele>
        <time>2022-08-19T06:09:20Z</time>
      </trkpt>
      <trkpt lat="43.2512" lon="5.75592">
        <ele>410.12851</ele>
        <time>2022-08-19T06:09:22Z</time>
      </trkpt>
      <trkpt lat="43.25104" lon="5.75613">
        <ele>409.627625</ele>
        <time>2022-08-19T06:09:24Z</time>
      </trkpt>
      <trkpt lat="43.25089" lon="5.75634">
        <ele>409.357941</ele>
        <time>2022-08-19T06:09:26Z</time>
      </trkpt>
      <trkpt lat="43.25073" lon="5.75656">
        <ele>408.773315</ele>
        <time>2022-08-19T06:09:28Z</time>
      </trkpt>
      <trkpt lat="43.25054" lon="5.75675">
        <ele>408.126526</ele>
        <time>2022-08-19T06:09:30Z</time>
      </trkpt>
      <trkpt lat="43.25036" lon="5.75695">
        <ele>407.781433</ele>
        <time>2022-08-19T06:09:32Z</time>
      </trkpt>
      <trkpt lat="43.25016" lon="5.75716">
        <ele>407.054016</ele>
        <time>2022-08-19T06:09:34Z</time>
      </trkpt>
      <trkpt lat="43.24996" lon="5.75737">
        <ele>406.675079</ele>
        <time>2022-08-19T06:09:36Z</time>
      </trkpt>
      <trkpt lat="43.24975" lon="5.7576">
        <ele>405.896332</ele>
        <time>2022-08-19T06:09:38Z</time>
      </trkpt>
      <trkpt lat="43.24953" lon="5.75783">
        <ele>405.499878</ele>
        <time>2022-08-19T06:09:40Z</time>
      </trkpt>
      <trkpt lat="43.24932" lon="5.75808">
        <ele>404.695892</ele>
        <time>2022-08-19T06:09:42Z</time>
      </trkpt>
      <trkpt lat="43.2491" lon="5.75832">
        <ele>403.858246</ele>
        <time>2022-08-19T06:09:44Z</time>
      </trkpt>
      <trkpt lat="43.24888" lon="5.75856">
        <ele>403.411438</ele>
        <time>2022-08-19T06:09:46Z</time>
      </trkpt>
      <trkpt lat="43.24867" lon="5.75881">
        <ele>402.432465</ele>
        <time>2022-08-19T06:09:48Z</time>
      </trkpt>
      <trkpt lat="43.24843" lon="5.75904">
        <ele>401.894928</ele>
        <time>2022-08-19T06:09:50Z</time>
      </trkpt>
      <trkpt lat="43.24818" lon="5.75923">
        <ele>400.738953</ele>
        <time>2022-08-19T06:09:52Z</time>
      </trkpt>
      <trkpt lat="43.24794" lon="5.75945">
        <ele>400.135498</ele>
        <time>2022-08-19T06:09:54Z</time>
      </trkpt>
      <trkpt lat="43.24772" lon="5.75971">
        <ele>398.917877</ele>
        <time>2022-08-19T06:09:56Z</time>
      </trkpt>
      <trkpt lat="43.24752" lon="5.75999">
        <ele>398.315186</ele>
        <time>2022-08-19T06:09:58Z</time>
      </trkpt>
      <trkpt lat="43.24732" lon="5.76027">
        <ele>397.124664</ele>
        <time>2022-08-19T06:10:00Z</time>
      </trkpt>
      <trkpt lat="43.24712" lon="5.76053">
        <ele>395.919861</ele>
        <time>2022-08-19T06:10:02Z</time>
      </trkpt>
      <trkpt lat="43.24691" lon="5.76077">
        <ele>395.285248</ele>
        <time>2022-08-19T06:10:04Z</time>
      </trkpt>
      <trkpt lat="43.2467" lon="5.761">
        <ele>393.895935</ele>
        <time>2022-08-19T06:10:06Z</time>
      </trkpt>
      <trkpt lat="43.24649" lon="5.76123">
        <ele>393.12793</ele>
        <time>2022-08-19T06:10:08Z</time>
      </trkpt>
      <trkpt lat="43.24628" lon="5.76148">
        <ele>391.43158</ele>
        <time>2022-08-19T06:10:10Z</time>
      </trkpt>
      <trkpt lat="43.24611" lon="5.76176">
        <ele>390.502747</ele>
        <time>2022-08-19T06:10:12Z</time>
      </trkpt>
      <trkpt lat="43.24597" lon="5.76207">
        <ele>388.487061</ele>
        <time>2022-08-19T06:10:14Z</time>
      </trkpt>
      <trkpt lat="43.2458" lon="5.76234">
        <ele>387.403137</ele>
        <time>2022-08-19T06:10:16Z</time>
      </trkpt>
      <trkpt lat="43.24556" lon="5.76249">
        <ele>385.089172</ele>
        <time>2022-08-19T06:10:18Z</time>
      </trkpt>
      <trkpt lat="43.24529" lon="5.76259">
        <ele>382.595947</ele>
        <time>2022-08-19T06:10:20Z</time>
      </trkpt>
      <trkpt lat="43.24502" lon="5.76268">
        <ele>381.289368</ele>
        <time>2022-08-19T06:10:22Z</time>
      </trkpt>
      <trkpt lat="43.24474" lon="5.76275">
        <ele>378.569031</ele>
        <time>2022-08-19T06:10:24Z</time>
      </trkpt>
      <trkpt lat="43.24445" lon="5.76283">
        <ele>377.159637</ele>
        <time>2022-08-19T06:10:26Z</time>
      </trkpt>
      <trkpt lat="43.24416" lon="5.76291">
        <ele>374.246918</ele>
        <time>2022-08-19T06:10:28Z</time>
      </trkpt>
      <trkpt lat="43.24386" lon="5.76303">
        <ele>372.747345</ele>
        <time>2022-08-19T06:10:30Z</time>
      </trkpt>
      <trkpt lat="43.24355" lon="5.76316">
        <ele>369.689392</ele>
        <time>2022-08-19T06:10:32Z</time>
      </trkpt>
      <trkpt lat="43.24326" lon="5.7633">
        <ele>366.557861</ele>
        <time>2022-08-19T06:10:34Z</time>
      </trkpt>
      <trkpt lat="43.243" lon="5.76342">
        <ele>364.967926</ele>
        <time>2022-08-19T06:10:36Z</time>
      </trkpt>
      <trkpt lat="43.24274" lon="5.76345">
        <ele>361.746735</ele>
        <time>2022-08-19T06:10:38Z</time>
      </trkpt>
      <trkpt lat="43.2425" lon="5.7633">
        <ele>360.119385</ele>
        <time>2022-08-19T06:10:40Z</time>
      </trkpt>
      <trkpt lat="43.24225" lon="5.76317">
        <ele>356.818756</ele>
        <time>2022-08-19T06:10:42Z</time>
      </trkpt>
      <trkpt lat="43.24197" lon="5.76321">
        <ele>355.130554</ele>
        <time>2022-08-19T06:10:44Z</time>
      </trkpt>
      <trkpt lat="43.24169" lon="5.76327">
        <ele>351.61615</ele>
        <time>2022-08-19T06:10:46Z</time>
      </trkpt>
      <trkpt lat="43.24139" lon="5.7632">
        <ele>347.845276</ele>
        <time>2022-08-19T06:10:48Z</time>
      </trkpt>
      <trkpt lat="43.24112" lon="5.76309">
        <ele>345.856445</ele>
        <time>2022-08-19T06:10:50Z</time>
      </trkpt>
      <trkpt lat="43.24083" lon="5.76308">
        <ele>341.714905</ele>
        <time>2022-08-19T06:10:52Z</time>
      </trkpt>
      <trkpt lat="43.24055" lon="5.76317">
        <ele>339.591522</ele>
        <time>2022-08-19T06:10:54Z</time>
      </trkpt>
      <trkpt lat="43.24028" lon="5.76332">
        <ele>335.310608</ele>
        <time>2022-08-19T06:10:56Z</time>
      </trkpt>
      <trkpt lat="43.24" lon="5.76348">
        <ele>333.163269</ele>
        <time>2022-08-19T06:10:58Z</time>
      </trkpt>
      <trkpt lat="43.23973" lon="5.76365">
        <ele>328.840179</ele>
        <time>2022-08-19T06:11:00Z</time>
      </trkpt>
      <trkpt lat="43.23945" lon="5.76382">
        <ele>324.453522</ele>
        <time>2022-08-19T06:11:02Z</time>
      </trkpt>
      <trkpt lat="43.23917" lon="5.76399">
        <ele>322.230774</ele>
        <time>2022-08-19T06:11:04Z</time>
      </trkpt>
      <trkpt lat="43.23888" lon="5.76417">
        <ele>317.722382</ele>
        <time>2022-08-19T06:11:06Z</time>
      </trkpt>
      <trkpt lat="43.23858" lon="5.76433">
        <ele>315.436584</ele>
        <time>2022-08-19T06:11:08Z</time>
      </trkpt>
      <trkpt lat="43.23827" lon="5.76448">
        <ele>310.805878</ele>
        <time>2022-08-19T06:11:10Z</time>
      </trkpt>
      <trkpt lat="43.23798" lon="5.76464">
        <ele>308.462524</ele>
        <time>2022-08-19T06:11:12Z</time>
      </trkpt>
      <trkpt lat="43.2377" lon="5.76483">
        <ele>303.719971</ele>
        <time>2022-08-19T06:11:14Z</time>
      </trkpt>
      <trkpt lat="43.23742" lon="5.76507">
        <ele>301.324554</ele>
        <time>2022-08-19T06:11:16Z</time>
      </trkpt>
      <trkpt lat="43.23716" lon="5.7653">
        <ele>296.495453</ele>
        <time>2022-08-19T06:11:18Z</time>
      </trkpt>
      <trkpt lat="43.2369" lon="5.76554">
        <ele>291.623352</ele>
        <time>2022-08-19T06:11:20Z</time>
      </trkpt>
      <trkpt lat="43.23664" lon="5.76581">
        <ele>289.170349</ele>
        <time>2022-08-19T06:11:22Z</time>
      </trkpt>
      <trkpt lat="43.23637" lon="5.76607">
        <ele>284.210968</ele>
        <time>2022-08-19T06:11:24Z</time>
      </trkpt>
      <trkpt lat="43.23609" lon="5.76632">
        <ele>281.721741</ele>
        <time>2022-08-19T06:11:26Z</time>
      </trkpt>
      <trkpt lat="43.2358" lon="5.76655">
        <ele>276.742188</ele>
        <time>2022-08-19T06:11:28Z</time>
      </trkpt>
      <trkpt lat="43.23549" lon="5.76674">
        <ele>274.256927</ele>
        <time>2022-08-19T06:11:30Z</time>
      </trkpt>
      <trkpt lat="43.23522" lon="5.76687">
        <ele>264.341919</ele>
        <time>2022-08-19T06:11:32Z</time>
      </trkpt>
      <trkpt lat="43.23496" lon="5.76698">
        <ele>264.341919</ele>
        <time>2022-08-19T06:11:34Z</time>
      </trkpt>
      <trkpt lat="43.23471" lon="5.76707">
        <ele>261.869019</ele>
        <time>2022-08-19T06:11:36Z</time>
      </trkpt>
      <trkpt lat="43.23446" lon="5.76704">
        <ele>256.949738</ele>
        <time>2022-08-19T06:11:38Z</time>
      </trkpt>
      <trkpt lat="43.23426" lon="5.76684">
        <ele>254.506866</ele>
        <time>2022-08-19T06:11:40Z</time>
      </trkpt>
      <trkpt lat="43.2341" lon="5.76656">
        <ele>249.652542</ele>
        <time>2022-08-19T06:11:42Z</time>
      </trkpt>
      <trkpt lat="43.23395" lon="5.76625">
        <ele>247.232574</ele>
        <time>2022-08-19T06:11:44Z</time>
      </trkpt>
      <trkpt lat="43.2338" lon="5.76597">
        <ele>242.403687</ele>
        <time>2022-08-19T06:11:46Z</time>
      </trkpt>
      <trkpt lat="43.2336" lon="5.7658">
        <ele>237.625122</ele>
        <time>2022-08-19T06:11:48Z</time>
      </trkpt>
      <trkpt lat="43.23333" lon="5.76574">
        <ele>235.281082</ele>
        <time>2022-08-19T06:11:50Z</time>
      </trkpt>
      <trkpt lat="43.23306" lon="5.76571">
        <ele>230.731812</ele>
        <time>2022-08-19T06:11:52Z</time>
      </trkpt>
      <trkpt lat="43.23278" lon="5.76568">
        <ele>228.536667</ele>
        <time>2022-08-19T06:11:54Z</time>
      </trkpt>
      <trkpt lat="43.23251" lon="5.76564">
        <ele>224.309296</ele>
        <time>2022-08-19T06:11:56Z</time>
      </trkpt>
      <trkpt lat="43.23222" lon="5.76561">
        <ele>222.275711</ele>
        <time>2022-08-19T06:11:58Z</time>
      </trkpt>
      <trkpt lat="43.23193" lon="5.76558">
        <ele>218.356842</ele>
        <time>2022-08-19T06:12:00Z</time>
      </trkpt>
      <trkpt lat="43.23165" lon="5.76555">
        <ele>214.619873</ele>
        <time>2022-08-19T06:12:02Z</time>
      </trkpt>
      <trkpt lat="43.23138" lon="5.76552">
        <ele>212.812912</ele>
        <time>2022-08-19T06:12:04Z</time>
      </trkpt>
      <trkpt lat="43.23111" lon="5.76549">
        <ele>209.305756</ele>
        <time>2022-08-19T06:12:06Z</time>
      </trkpt>
      <trkpt lat="43.23083" lon="5.76547">
        <ele>207.597382</ele>
        <time>2022-08-19T06:12:08Z</time>
      </trkpt>
      <trkpt lat="43.23057" lon="5.76543">
        <ele>204.263397</ele>
        <time>2022-08-19T06:12:10Z</time>
      </trkpt>
      <trkpt lat="43.23034" lon="5.76539">
        <ele>202.639038</ele>
        <time>2022-08-19T06:12:12Z</time>
      </trkpt>
      <trkpt lat="43.23014" lon="5.76535">
        <ele>199.485992</ele>
        <time>2022-08-19T06:12:14Z</time>
      </trkpt>
      <trkpt lat="43.22999" lon="5.76523">
        <ele>197.959091</ele>
        <time>2022-08-19T06:12:16Z</time>
      </trkpt>
      <trkpt lat="43.22992" lon="5.76503">
        <ele>195.009247</ele>
        <time>2022-08-19T06:12:18Z</time>
      </trkpt>
      <trkpt lat="43.22986" lon="5.76484">
        <ele>193.590073</ele>
        <time>2022-08-19T06:12:20Z</time>
      </trkpt>
      <trkpt lat="43.22983" lon="5.76465">
        <ele>190.87616</ele>
        <time>2022-08-19T06:12:22Z</time>
      </trkpt>
      <trkpt lat="43.22979" lon="5.76445">
        <ele>188.343353</ele>
        <time>2022-08-19T06:12:24Z</time>
      </trkpt>
      <trkpt lat="43.22976" lon="5.76426">
        <ele>187.149323</ele>
        <time>2022-08-19T06:12:26Z</time>
      </trkpt>
      <trkpt lat="43.22973" lon="5.76409">
        <ele>184.910751</ele>
        <time>2022-08-19T06:12:28Z</time>
      </trkpt>
      <trkpt lat="43.22971" lon="5.76392">
        <ele>183.865707</ele>
        <time>2022-08-19T06:12:30Z</time>
      </trkpt>
      <trkpt lat="43.22969" lon="5.76376">
        <ele>181.919785</ele>
        <time>2022-08-19T06:12:32Z</time>
      </trkpt>
      <trkpt lat="43.22966" lon="5.7636">
        <ele>181.016083</ele>
        <time>2022-08-19T06:12:34Z</time>
      </trkpt>
      <trkpt lat="43.22959" lon="5.76345">
        <ele>179.33075</ele>
        <time>2022-08-19T06:12:36Z</time>
      </trkpt>
      <trkpt lat="43.22952" lon="5.76333">
        <ele>177.781113</ele>
        <time>2022-08-19T06:12:38Z</time>
      </trkpt>
      <trkpt lat="43.22943" lon="5.76322">
        <ele>177.048126</ele>
        <time>2022-08-19T06:12:40Z</time>
      </trkpt>
      <trkpt lat="43.22933" lon="5.76311">
        <ele>175.653503</ele>
        <time>2022-08-19T06:12:42Z</time>
      </trkpt>
      <trkpt lat="43.22922" lon="5.763">
        <ele>174.989441</ele>
        <time>2022-08-19T06:12:44Z</time>
      </trkpt>
      <trkpt lat="43.22911" lon="5.76288">
        <ele>173.728256</ele>
        <time>2022-08-19T06:12:46Z</time>
      </trkpt>
      <trkpt lat="43.22899" lon="5.76276">
        <ele>173.133575</ele>
        <time>2022-08-19T06:12:48Z</time>
      </trkpt>
      <trkpt lat="43.22887" lon="5.76264">
        <ele>172.023468</ele>
        <time>2022-08-19T06:12:50Z</time>
      </trkpt>
      <trkpt lat="43.22875" lon="5.76256">
        <ele>171.511215</ele>
        <time>2022-08-19T06:12:52Z</time>
      </trkpt>
      <trkpt lat="43.2286" lon="5.76252">
        <ele>170.577377</ele>
        <time>2022-08-19T06:12:54Z</time>
      </trkpt>
      <trkpt lat="43.22846" lon="5.76248">
        <ele>169.762238</ele>
        <time>2022-08-19T06:12:56Z</time>
      </trkpt>
      <trkpt lat="43.2283" lon="5.76241">
        <ele>169.395859</ele>
        <time>2022-08-19T06:12:58Z</time>
      </trkpt>
      <trkpt lat="43.22813" lon="5.76236">
        <ele>168.736267</ele>
        <time>2022-08-19T06:13:00Z</time>
      </trkpt>
      <trkpt lat="43.22797" lon="5.7623">
        <ele>168.436172</ele>
        <time>2022-08-19T06:13:02Z</time>
      </trkpt>
      <trkpt lat="43.22781" lon="5.76226">
        <ele>167.872711</ele>
        <time>2022-08-19T06:13:04Z</time>
      </trkpt>
      <trkpt lat="43.22763" lon="5.76222">
        <ele>167.328018</ele>
        <time>2022-08-19T06:13:06Z</time>
      </trkpt>
      <trkpt lat="43.22747" lon="5.76218">
        <ele>167.055435</ele>
        <time>2022-08-19T06:13:08Z</time>
      </trkpt>
      <trkpt lat="43.22731" lon="5.76213">
        <ele>166.504074</ele>
        <time>2022-08-19T06:13:10Z</time>
      </trkpt>
      <trkpt lat="43.22717" lon="5.76204">
        <ele>166.225235</ele>
        <time>2022-08-19T06:13:12Z</time>
      </trkpt>
      <trkpt lat="43.22706" lon="5.7619">
        <ele>165.666122</ele>
        <time>2022-08-19T06:13:14Z</time>
      </trkpt>
      <trkpt lat="43.22699" lon="5.76173">
        <ele>165.388947</ele>
        <time>2022-08-19T06:13:16Z</time>
      </trkpt>
      <trkpt lat="43.22697" lon="5.76154">
        <ele>164.84877</ele>
        <time>2022-08-19T06:13:18Z</time>
      </trkpt>
      <trkpt lat="43.22694" lon="5.76135">
        <ele>164.589432</ele>
        <time>2022-08-19T06:13:20Z</time>
      </trkpt>
      <trkpt lat="43.22687" lon="5.76119">
        <ele>164.099319</ele>
        <time>2022-08-19T06:13:22Z</time>
      </trkpt>
      <trkpt lat="43.22675" lon="5.76113">
        <ele>163.869919</ele>
        <time>2022-08-19T06:13:24Z</time>
      </trkpt>
      <trkpt lat="43.22661" lon="5.76111">
        <ele>163.44101</ele>
        <time>2022-08-19T06:13:26Z</time>
      </trkpt>
      <trkpt lat="43.22648" lon="5.76109">
        <ele>163.044006</ele>
        <time>2022-08-19T06:13:28Z</time>
      </trkpt>
      <trkpt lat="43.22635" lon="5.76106">
        <ele>162.853958</ele>
        <time>2022-08-19T06:13:30Z</time>
      </trkpt>
      <trkpt lat="43.22622" lon="5.76105">
        <ele>162.483154</ele>
        <time>2022-08-19T06:13:32Z</time>
      </trkpt>
      <trkpt lat="43.22608" lon="5.76105">
        <ele>162.300735</ele>
        <time>2022-08-19T06:13:34Z</time>
      </trkpt>
      <trkpt lat="43.22595" lon="5.76104">
        <ele>161.941803</ele>
        <time>2022-08-19T06:13:36Z</time>
      </trkpt>
      <trkpt lat="43.22582" lon="5.76105">
        <ele>161.766861</ele>
        <time>2022-08-19T06:13:38Z</time>
      </trkpt>
      <trkpt lat="43.22569" lon="5.76104">
        <ele>161.430267</ele>
        <time>2022-08-19T06:13:40Z</time>
      </trkpt>
      <trkpt lat="43.22555" lon="5.76105">
        <ele>161.113434</ele>
        <time>2022-08-19T06:13:42Z</time>
      </trkpt>
      <trkpt lat="43.22541" lon="5.76107">
        <ele>160.961533</ele>
        <time>2022-08-19T06:13:44Z</time>
      </trkpt>
      <trkpt lat="43.22527" lon="5.76108">
        <ele>160.668091</ele>
        <time>2022-08-19T06:13:46Z</time>
      </trkpt>
      <trkpt lat="43.22513" lon="5.76109">
        <ele>160.525757</ele>
        <time>2022-08-19T06:13:48Z</time>
      </trkpt>
      <trkpt lat="43.22499" lon="5.76109">
        <ele>160.249771</ele>
        <time>2022-08-19T06:13:50Z</time>
      </trkpt>
      <trkpt lat="43.22486" lon="5.76108">
        <ele>159.985825</ele>
        <time>2022-08-19T06:13:52Z</time>
      </trkpt>
      <trkpt lat="43.22473" lon="5.76106">
        <ele>159.858444</ele>
        <time>2022-08-19T06:13:54Z</time>
      </trkpt>
      <trkpt lat="43.22461" lon="5.76102">
        <ele>159.612106</ele>
        <time>2022-08-19T06:13:56Z</time>
      </trkpt>
      <trkpt lat="43.22449" lon="5.76094">
        <ele>159.492767</ele>
        <time>2022-08-19T06:13:58Z</time>
      </trkpt>
      <trkpt lat="43.22437" lon="5.76082">
        <ele>159.260147</ele>
        <time>2022-08-19T06:14:00Z</time>
      </trkpt>
      <trkpt lat="43.22427" lon="5.76068">
        <ele>159.146179</ele>
        <time>2022-08-19T06:14:02Z</time>
      </trkpt>
      <trkpt lat="43.22417" lon="5.76052">
        <ele>158.921371</ele>
        <time>2022-08-19T06:14:04Z</time>
      </trkpt>
      <trkpt lat="43.22407" lon="5.76036">
        <ele>158.809814</ele>
        <time>2022-08-19T06:14:06Z</time>
      </trkpt>
      <trkpt lat="43.22397" lon="5.76019">
        <ele>158.585388</ele>
        <time>2022-08-19T06:14:08Z</time>
      </trkpt>
      <trkpt lat="43.22386" lon="5.76001">
        <ele>158.470749</ele>
        <time>2022-08-19T06:14:10Z</time>
      </trkpt>
      <trkpt lat="43.22373" lon="5.75986">
        <ele>158.231415</ele>
        <time>2022-08-19T06:14:12Z</time>
      </trkpt>
      <trkpt lat="43.22359" lon="5.75975">
        <ele>157.972931</ele>
        <time>2022-08-19T06:14:14Z</time>
      </trkpt>
      <trkpt lat="43.22344" lon="5.75966">
        <ele>157.835434</ele>
        <time>2022-08-19T06:14:16Z</time>
      </trkpt>
      <trkpt lat="43.22331" lon="5.75957">
        <ele>157.545105</ele>
        <time>2022-08-19T06:14:18Z</time>
      </trkpt>
      <trkpt lat="43.22318" lon="5.75944">
        <ele>157.392975</ele>
        <time>2022-08-19T06:14:20Z</time>
      </trkpt>
      <trkpt lat="43.22309" lon="5.7593">
        <ele>157.07753</ele>
        <time>2022-08-19T06:14:22Z</time>
      </trkpt>
      <trkpt lat="43.22301" lon="5.75914">
        <ele>156.916397</ele>
        <time>2022-08-19T06:14:24Z</time>
      </trkpt>
      <trkpt lat="43.22292" lon="5.75898">
        <ele>156.593445</ele>
        <time>2022-08-19T06:14:26Z</time>
      </trkpt>
      <trkpt lat="43.22286" lon="5.75881">
        <ele>156.277344</ele>
        <time>2022-08-19T06:14:28Z</time>
      </trkpt>
      <trkpt lat="43.22281" lon="5.75861">
        <ele>156.123795</ele>
        <time>2022-08-19T06:14:30Z</time>
      </trkpt>
      <trkpt lat="43.22279" lon="5.7584">
        <ele>155.828751</ele>
        <time>2022-08-19T06:14:32Z</time>
      </trkpt>
      <trkpt lat="43.22278" lon="5.75818">
        <ele>155.688873</ele>
        <time>2022-08-19T06:14:34Z</time>
      </trkpt>
      <trkpt lat="43.22277" lon="5.75796">
        <ele>155.431061</ele>
        <time>2022-08-19T06:14:36Z</time>
      </trkpt>
      <trkpt lat="43.22276" lon="5.75774">
        <ele>155.315735</ele>
        <time>2022-08-19T06:14:38Z</time>
      </trkpt>
      <trkpt lat="43.22276" lon="5.75751">
        <ele>155.116974</ele>
        <time>2022-08-19T06:14:40Z</time>
      </trkpt>
      <trkpt lat="43.22276" lon="5.75729">
        <ele>154.963684</ele>
        <time>2022-08-19T06:14:42Z</time>
      </trkpt>
      <trkpt lat="43.22274" lon="5.75706">
        <ele>154.905411</ele>
        <time>2022-08-19T06:14:44Z</time>
      </trkpt>
      <trkpt lat="43.22272" lon="5.75685">
        <ele>154.829117</ele>
        <time>2022-08-19T06:14:46Z</time>
      </trkpt>
      <trkpt lat="43.22269" lon="5.75664">
        <ele>154.812164</ele>
        <time>2022-08-19T06:14:48Z</time>
      </trkpt>
      <trkpt lat="43.22263" lon="5.75643">
        <ele>154.816391</ele>
        <time>2022-08-19T06:14:50Z</time>
      </trkpt>
      <trkpt lat="43.22254" lon="5.75624">
        <ele>154.83345</ele>
        <time>2022-08-19T06:14:52Z</time>
      </trkpt>
      <trkpt lat="43.22241" lon="5.75612">
        <ele>154.884171</ele>
        <time>2022-08-19T06:14:54Z</time>
      </trkpt>
      <trkpt lat="43.22227" lon="5.75605">
        <ele>154.934235</ele>
        <time>2022-08-19T06:14:56Z</time>
      </trkpt>
      <trkpt lat="43.22212" lon="5.75601">
        <ele>154.952179</ele>
        <time>2022-08-19T06:14:58Z</time>
      </trkpt>
      <trkpt lat="43.22198" lon="5.75597">
        <ele>154.966187</ele>
        <time>2022-08-19T06:15:00Z</time>
      </trkpt>
      <trkpt lat="43.22184" lon="5.75593">
        <ele>154.960922</ele>
        <time>2022-08-19T06:15:02Z</time>
      </trkpt>
      <trkpt lat="43.22171" lon="5.75589">
        <ele>154.931625</ele>
        <time>2022-08-19T06:15:04Z</time>
      </trkpt>
      <trkpt lat="43.22158" lon="5.75582">
        <ele>154.866211</ele>
        <time>2022-08-19T06:15:06Z</time>
      </trkpt>
      <trkpt lat="43.22148" lon="5.75572">
        <ele>154.820465</ele>
        <time>2022-08-19T06:15:08Z</time>
      </trkpt>
      <trkpt lat="43.22138" lon="5.75561">
        <ele>154.706757</ele>
        <time>2022-08-19T06:15:10Z</time>
      </trkpt>
      <trkpt lat="43.22129" lon="5.75548">
        <ele>154.640945</ele>
        <time>2022-08-19T06:15:12Z</time>
      </trkpt>
      <trkpt lat="43.22118" lon="5.75534">
        <ele>154.496094</ele>
        <time>2022-08-19T06:15:14Z</time>
      </trkpt>
      <trkpt lat="43.22107" lon="5.75518">
        <ele>154.417603</ele>
        <time>2022-08-19T06:15:16Z</time>
      </trkpt>
      <trkpt lat="43.22095" lon="5.75502">
        <ele>154.24675</ele>
        <time>2022-08-19T06:15:18Z</time>
      </trkpt>
      <trkpt lat="43.22082" lon="5.75484">
        <ele>154.054657</ele>
        <time>2022-08-19T06:15:20Z</time>
      </trkpt>
      <trkpt lat="43.22068" lon="5.75468">
        <ele>153.950439</ele>
        <time>2022-08-19T06:15:22Z</time>
      </trkpt>
      <trkpt lat="43.22052" lon="5.75454">
        <ele>153.726395</ele>
        <time>2022-08-19T06:15:24Z</time>
      </trkpt>
      <trkpt lat="43.22036" lon="5.75442">
        <ele>153.606522</ele>
        <time>2022-08-19T06:15:26Z</time>
      </trkpt>
      <trkpt lat="43.22017" lon="5.75431">
        <ele>153.351501</ele>
        <time>2022-08-19T06:15:28Z</time>
      </trkpt>
      <trkpt lat="43.22" lon="5.75417">
        <ele>153.217041</ele>
        <time>2022-08-19T06:15:30Z</time>
      </trkpt>
      <trkpt lat="43.21983" lon="5.75402">
        <ele>152.938995</ele>
        <time>2022-08-19T06:15:32Z</time>
      </trkpt>
      <trkpt lat="43.21964" lon="5.75389">
        <ele>152.797974</ele>
        <time>2022-08-19T06:15:34Z</time>
      </trkpt>
      <trkpt lat="43.21944" lon="5.75384">
        <ele>152.518265</ele>
        <time>2022-08-19T06:15:36Z</time>
      </trkpt>
      <trkpt lat="43.21924" lon="5.75389">
        <ele>152.246124</ele>
        <time>2022-08-19T06:15:38Z</time>
      </trkpt>
      <trkpt lat="43.21907" lon="5.75405">
        <ele>152.113892</ele>
        <time>2022-08-19T06:15:40Z</time>
      </trkpt>
      <trkpt lat="43.21891" lon="5.75421">
        <ele>151.858795</ele>
        <time>2022-08-19T06:15:42Z</time>
      </trkpt>
      <trkpt lat="43.21872" lon="5.75426">
        <ele>151.735809</ele>
        <time>2022-08-19T06:15:44Z</time>
      </trkpt>
      <trkpt lat="43.21854" lon="5.75422">
        <ele>151.505035</ele>
        <time>2022-08-19T06:15:46Z</time>
      </trkpt>
      <trkpt lat="43.21837" lon="5.7542">
        <ele>151.401703</ele>
        <time>2022-08-19T06:15:48Z</time>
      </trkpt>
      <trkpt lat="43.21819" lon="5.75425">
        <ele>151.231995</ele>
        <time>2022-08-19T06:15:50Z</time>
      </trkpt>
      <trkpt lat="43.21803" lon="5.75434">
        <ele>151.12291</ele>
        <time>2022-08-19T06:15:52Z</time>
      </trkpt>
      <trkpt lat="43.21789" lon="5.75445">
        <ele>151.087387</ele>
        <time>2022-08-19T06:15:54Z</time>
      </trkpt>
      <trkpt lat="43.21774" lon="5.75457">
        <ele>151.055801</ele>
        <time>2022-08-19T06:15:56Z</time>
      </trkpt>
      <trkpt lat="43.2176" lon="5.75468">
        <ele>151.056961</ele>
        <time>2022-08-19T06:15:58Z</time>
      </trkpt>
      <trkpt lat="43.21746" lon="5.75479">
        <ele>151.085632</ele>
        <time>2022-08-19T06:16:00Z</time>
      </trkpt>
      <trkpt lat="43.21733" lon="5.75491">
        <ele>151.110336</ele>
        <time>2022-08-19T06:16:02Z</time>
      </trkpt>
      <trkpt lat="43.21719" lon="5.75502">
        <ele>151.173386</ele>
        <time>2022-08-19T06:16:04Z</time>
      </trkpt>
      <trkpt lat="43.21706" lon="5.75513">
        <ele>151.241623</ele>
        <time>2022-08-19T06:16:06Z</time>
      </trkpt>
      <trkpt lat="43.21693" lon="5.75523">
        <ele>151.272446</ele>
        <time>2022-08-19T06:16:08Z</time>
      </trkpt>
      <trkpt lat="43.21679" lon="5.75533">
        <ele>151.318924</ele>
        <time>2022-08-19T06:16:10Z</time>
      </trkpt>
      <trkpt lat="43.21664" lon="5.75541">
        <ele>151.332504</ele>
        <time>2022-08-19T06:16:12Z</time>
      </trkpt>
      <trkpt lat="43.2165" lon="5.75548">
        <ele>151.33519</ele>
        <time>2022-08-19T06:16:14Z</time>
      </trkpt>
      <trkpt lat="43.21635" lon="5.75553">
        <ele>151.321732</ele>
        <time>2022-08-19T06:16:16Z</time>
      </trkpt>
      <trkpt lat="43.21619" lon="5.75555">
        <ele>151.257645</ele>
        <time>2022-08-19T06:16:18Z</time>
      </trkpt>
      <trkpt lat="43.21604" lon="5.75548">
        <ele>151.204468</ele>
        <time>2022-08-19T06:16:20Z</time>
      </trkpt>
      <trkpt lat="43.2159" lon="5.75539">
        <ele>151.051132</ele>
        <time>2022-08-19T06:16:22Z</time>
      </trkpt>
      <trkpt lat="43.21576" lon="5.75529">
        <ele>150.831955</ele>
        <time>2022-08-19T06:16:24Z</time>
      </trkpt>
      <trkpt lat="43.21561" lon="5.7552">
        <ele>150.696808</ele>
        <time>2022-08-19T06:16:26Z</time>
      </trkpt>
      <trkpt lat="43.21545" lon="5.75515">
        <ele>150.374191</ele>
        <time>2022-08-19T06:16:28Z</time>
      </trkpt>
      <trkpt lat="43.21529" lon="5.7551">
        <ele>150.187012</ele>
        <time>2022-08-19T06:16:30Z</time>
      </trkpt>
      <trkpt lat="43.21513" lon="5.75504">
        <ele>149.764038</ele>
        <time>2022-08-19T06:16:32Z</time>
      </trkpt>
      <trkpt lat="43.21498" lon="5.75494">
        <ele>149.53096</ele>
        <time>2022-08-19T06:16:34Z</time>
      </trkpt>
      <trkpt lat="43.21483" lon="5.7548">
        <ele>149.029221</ele>
        <time>2022-08-19T06:16:36Z</time>
      </trkpt>
      <trkpt lat="43.21468" lon="5.75469">
        <ele>148.488251</ele>
        <time>2022-08-19T06:16:38Z</time>
      </trkpt>
      <trkpt lat="43.21449" lon="5.75465">
        <ele>148.204865</ele>
        <time>2022-08-19T06:16:40Z</time>
      </trkpt>
      <trkpt lat="43.21431" lon="5.75471">
        <ele>147.611084</ele>
        <time>2022-08-19T06:16:42Z</time>
      </trkpt>
      <trkpt lat="43.21415" lon="5.75481">
        <ele>147.299606</ele>
        <time>2022-08-19T06:16:44Z</time>
      </trkpt>
      <trkpt lat="43.21398" lon="5.75491">
        <ele>146.643097</ele>
        <time>2022-08-19T06:16:46Z</time>
      </trkpt>
      <trkpt lat="43.21381" lon="5.75501">
        <ele>145.934128</ele>
        <time>2022-08-19T06:16:48Z</time>
      </trkpt>
      <trkpt lat="43.21365" lon="5.7551">
        <ele>145.558548</ele>
        <time>2022-08-19T06:16:50Z</time>
      </trkpt>
      <trkpt lat="43.21349" lon="5.7552">
        <ele>144.768433</ele>
        <time>2022-08-19T06:16:52Z</time>
      </trkpt>
      <trkpt lat="43.21332" lon="5.75531">
        <ele>144.35527</ele>
        <time>2022-08-19T06:16:54Z</time>
      </trkpt>
      <trkpt lat="43.21314" lon="5.75538">
        <ele>143.497116</ele>
        <time>2022-08-19T06:16:56Z</time>
      </trkpt>
      <trkpt lat="43.21295" lon="5.75541">
        <ele>143.053833</ele>
        <time>2022-08-19T06:16:58Z</time>
      </trkpt>
      <trkpt lat="43.21277" lon="5.75546">
        <ele>142.143753</ele>
        <time>2022-08-19T06:17:00Z</time>
      </trkpt>
      <trkpt lat="43.21259" lon="5.7555">
        <ele>141.678711</ele>
        <time>2022-08-19T06:17:02Z</time>
      </trkpt>
      <trkpt lat="43.21241" lon="5.75555">
        <ele>140.732758</ele>
        <time>2022-08-19T06:17:04Z</time>
      </trkpt>
      <trkpt lat="43.21223" lon="5.7556">
        <ele>139.77005</ele>
        <time>2022-08-19T06:17:06Z</time>
      </trkpt>
      <trkpt lat="43.21207" lon="5.75566">
        <ele>139.283524</ele>
        <time>2022-08-19T06:17:08Z</time>
      </trkpt>
      <trkpt lat="43.21191" lon="5.75569">
        <ele>138.3022</ele>
        <time>2022-08-19T06:17:10Z</time>
      </trkpt>
      <trkpt lat="43.21175" lon="5.75566">
        <ele>137.808273</ele>
        <time>2022-08-19T06:17:12Z</time>
      </trkpt>
      <trkpt lat="43.21164" lon="5.75553">
        <ele>136.81337</ele>
        <time>2022-08-19T06:17:14Z</time>
      </trkpt>
      <trkpt lat="43.21154" lon="5.75535">
        <ele>135.807007</ele>
        <time>2022-08-19T06:17:16Z</time>
      </trkpt>
      <trkpt lat="43.21153" lon="5.75518">
        <ele>135.301056</ele>
        <time>2022-08-19T06:17:18Z</time>
      </trkpt>
      <trkpt lat="43.21156" lon="5.75494">
        <ele>134.295624</ele>
        <time>2022-08-19T06:17:20Z</time>
      </trkpt>
      <trkpt lat="43.21161" lon="5.75469">
        <ele>133.803848</ele>
        <time>2022-08-19T06:17:22Z</time>
      </trkpt>
      <trkpt lat="43.21164" lon="5.75444">
        <ele>132.865753</ele>
        <time>2022-08-19T06:17:24Z</time>
      </trkpt>
      <trkpt lat="43.21168" lon="5.75421">
        <ele>132.427841</ele>
        <time>2022-08-19T06:17:26Z</time>
      </trkpt>
      <trkpt lat="43.21167" lon="5.75383">
        <ele>131.270172</ele>
        <time>2022-08-19T06:17:29Z</time>
      </trkpt>
      <trkpt lat="43.21158" lon="5.75366">
        <ele>130.937454</ele>
        <time>2022-08-19T06:17:31Z</time>
      </trkpt>
      <trkpt lat="43.21144" lon="5.75359">
        <ele>130.340302</ele>
        <time>2022-08-19T06:17:33Z</time>
      </trkpt>
      <trkpt lat="43.2113" lon="5.7536">
        <ele>130.067932</ele>
        <time>2022-08-19T06:17:35Z</time>
      </trkpt>
      <trkpt lat="43.21116" lon="5.75359">
        <ele>129.562408</ele>
        <time>2022-08-19T06:17:37Z</time>
      </trkpt>
      <trkpt lat="43.21105" lon="5.75352">
        <ele>129.092133</ele>
        <time>2022-08-19T06:17:39Z</time>
      </trkpt>
      <trkpt lat="43.21093" lon="5.75341">
        <ele>128.868332</ele>
        <time>2022-08-19T06:17:41Z</time>
      </trkpt>
      <trkpt lat="43.21078" lon="5.75322">
        <ele>128.429413</ele>
        <time>2022-08-19T06:17:43Z</time>
      </trkpt>
      <trkpt lat="43.21063" lon="5.75303">
        <ele>128.213394</ele>
        <time>2022-08-19T06:17:45Z</time>
      </trkpt>
      <trkpt lat="43.21047" lon="5.75286">
        <ele>127.790688</ele>
        <time>2022-08-19T06:17:47Z</time>
      </trkpt>
      <trkpt lat="43.21026" lon="5.75276">
        <ele>127.386742</ele>
        <time>2022-08-19T06:17:49Z</time>
      </trkpt>
      <trkpt lat="43.21006" lon="5.75275">
        <ele>127.192093</ele>
        <time>2022-08-19T06:17:51Z</time>
      </trkpt>
      <trkpt lat="43.20985" lon="5.75277">
        <ele>126.807983</ele>
        <time>2022-08-19T06:17:53Z</time>
      </trkpt>
      <trkpt lat="43.20966" lon="5.75275">
        <ele>126.610901</ele>
        <time>2022-08-19T06:17:55Z</time>
      </trkpt>
      <trkpt lat="43.20948" lon="5.75266">
        <ele>126.188698</ele>
        <time>2022-08-19T06:17:57Z</time>
      </trkpt>
      <trkpt lat="43.20935" lon="5.75248">
        <ele>125.959145</ele>
        <time>2022-08-19T06:17:59Z</time>
      </trkpt>
      <trkpt lat="43.2093" lon="5.75225">
        <ele>125.461487</ele>
        <time>2022-08-19T06:18:01Z</time>
      </trkpt>
      <trkpt lat="43.20928" lon="5.75201">
        <ele>125.195923</ele>
        <time>2022-08-19T06:18:03Z</time>
      </trkpt>
      <trkpt lat="43.20925" lon="5.75178">
        <ele>124.647171</ele>
        <time>2022-08-19T06:18:05Z</time>
      </trkpt>
      <trkpt lat="43.20922" lon="5.75155">
        <ele>124.099648</ele>
        <time>2022-08-19T06:18:07Z</time>
      </trkpt>
      <trkpt lat="43.20919" lon="5.75132">
        <ele>123.829971</ele>
        <time>2022-08-19T06:18:09Z</time>
      </trkpt>
      <trkpt lat="43.20917" lon="5.75109">
        <ele>123.288879</ele>
        <time>2022-08-19T06:18:11Z</time>
      </trkpt>
      <trkpt lat="43.20914" lon="5.75087">
        <ele>123.009445</ele>
        <time>2022-08-19T06:18:13Z</time>
      </trkpt>
      <trkpt lat="43.20913" lon="5.75066">
        <ele>122.409462</ele>
        <time>2022-08-19T06:18:15Z</time>
      </trkpt>
      <trkpt lat="43.20916" lon="5.75043">
        <ele>121.728073</ele>
        <time>2022-08-19T06:18:17Z</time>
      </trkpt>
      <trkpt lat="43.20921" lon="5.75021">
        <ele>121.350327</ele>
        <time>2022-08-19T06:18:19Z</time>
      </trkpt>
      <trkpt lat="43.20927" lon="5.74999">
        <ele>120.522545</ele>
        <time>2022-08-19T06:18:21Z</time>
      </trkpt>
      <trkpt lat="43.20933" lon="5.74978">
        <ele>120.078575</ele>
        <time>2022-08-19T06:18:23Z</time>
      </trkpt>
      <trkpt lat="43.2094" lon="5.74955">
        <ele>119.158585</ele>
        <time>2022-08-19T06:18:25Z</time>
      </trkpt>
      <trkpt lat="43.20947" lon="5.74932">
        <ele>118.693527</ele>
        <time>2022-08-19T06:18:27Z</time>
      </trkpt>
      <trkpt lat="43.20953" lon="5.74909">
        <ele>117.777855</ele>
        <time>2022-08-19T06:18:29Z</time>
      </trkpt>
      <trkpt lat="43.2096" lon="5.74887">
        <ele>117.336609</ele>
        <time>2022-08-19T06:18:31Z</time>
      </trkpt>
      <trkpt lat="43.20966" lon="5.74866">
        <ele>116.494705</ele>
        <time>2022-08-19T06:18:33Z</time>
      </trkpt>
      <trkpt lat="43.20969" lon="5.74845">
        <ele>115.722389</ele>
        <time>2022-08-19T06:18:35Z</time>
      </trkpt>
      <trkpt lat="43.20969" lon="5.74825">
        <ele>115.36116</ele>
        <time>2022-08-19T06:18:37Z</time>
      </trkpt>
      <trkpt lat="43.20965" lon="5.74806">
        <ele>114.682968</ele>
        <time>2022-08-19T06:18:39Z</time>
      </trkpt>
      <trkpt lat="43.20958" lon="5.74788">
        <ele>114.364075</ele>
        <time>2022-08-19T06:18:41Z</time>
      </trkpt>
      <trkpt lat="43.2095" lon="5.7477">
        <ele>113.764931</ele>
        <time>2022-08-19T06:18:43Z</time>
      </trkpt>
      <trkpt lat="43.20944" lon="5.74749">
        <ele>113.485703</ele>
        <time>2022-08-19T06:18:45Z</time>
      </trkpt>
      <trkpt lat="43.20941" lon="5.74727">
        <ele>112.975647</ele>
        <time>2022-08-19T06:18:47Z</time>
      </trkpt>
      <trkpt lat="43.2094" lon="5.74705">
        <ele>112.54055</ele>
        <time>2022-08-19T06:18:49Z</time>
      </trkpt>
      <trkpt lat="43.20942" lon="5.74683">
        <ele>112.352882</ele>
        <time>2022-08-19T06:18:51Z</time>
      </trkpt>
      <trkpt lat="43.20946" lon="5.74661">
        <ele>112.037231</ele>
        <time>2022-08-19T06:18:53Z</time>
      </trkpt>
      <trkpt lat="43.20947" lon="5.74638">
        <ele>111.906677</ele>
        <time>2022-08-19T06:18:55Z</time>
      </trkpt>
      <trkpt lat="43.20948" lon="5.74616">
        <ele>111.687767</ele>
        <time>2022-08-19T06:18:57Z</time>
      </trkpt>
      <trkpt lat="43.20948" lon="5.74593">
        <ele>111.59343</ele>
        <time>2022-08-19T06:18:59Z</time>
      </trkpt>
      <trkpt lat="43.20948" lon="5.74571">
        <ele>111.424789</ele>
        <time>2022-08-19T06:19:01Z</time>
      </trkpt>
      <trkpt lat="43.20948" lon="5.74549">
        <ele>111.281151</ele>
        <time>2022-08-19T06:19:03Z</time>
      </trkpt>
      <trkpt lat="43.20946" lon="5.74528">
        <ele>111.221695</ele>
        <time>2022-08-19T06:19:05Z</time>
      </trkpt>
      <trkpt lat="43.20941" lon="5.74509">
        <ele>111.137619</ele>
        <time>2022-08-19T06:19:07Z</time>
      </trkpt>
      <trkpt lat="43.20934" lon="5.7449">
        <ele>111.115891</ele>
        <time>2022-08-19T06:19:09Z</time>
      </trkpt>
      <trkpt lat="43.20924" lon="5.74473">
        <ele>111.111389</ele>
        <time>2022-08-19T06:19:11Z</time>
      </trkpt>
      <trkpt lat="43.20911" lon="5.74461">
        <ele>111.123672</ele>
        <time>2022-08-19T06:19:13Z</time>
      </trkpt>
      <trkpt lat="43.20896" lon="5.74456">
        <ele>111.159019</ele>
        <time>2022-08-19T06:19:15Z</time>
      </trkpt>
      <trkpt lat="43.2088" lon="5.74456">
        <ele>111.186806</ele>
        <time>2022-08-19T06:19:17Z</time>
      </trkpt>
      <trkpt lat="43.20865" lon="5.74457">
        <ele>111.191002</ele>
        <time>2022-08-19T06:19:19Z</time>
      </trkpt>
      <trkpt lat="43.20849" lon="5.74458">
        <ele>111.16703</ele>
        <time>2022-08-19T06:19:21Z</time>
      </trkpt>
      <trkpt lat="43.20832" lon="5.74458">
        <ele>111.133926</ele>
        <time>2022-08-19T06:19:23Z</time>
      </trkpt>
      <trkpt lat="43.20817" lon="5.74454">
        <ele>111.017685</ele>
        <time>2022-08-19T06:19:25Z</time>
      </trkpt>
      <trkpt lat="43.20804" lon="5.74445">
        <ele>110.933853</ele>
        <time>2022-08-19T06:19:27Z</time>
      </trkpt>
      <trkpt lat="43.20792" lon="5.74432">
        <ele>110.718605</ele>
        <time>2022-08-19T06:19:29Z</time>
      </trkpt>
      <trkpt lat="43.20781" lon="5.74418">
        <ele>110.590256</ele>
        <time>2022-08-19T06:19:31Z</time>
      </trkpt>
      <trkpt lat="43.20769" lon="5.74402">
        <ele>110.303268</ele>
        <time>2022-08-19T06:19:33Z</time>
      </trkpt>
      <trkpt lat="43.20758" lon="5.74387">
        <ele>109.995651</ele>
        <time>2022-08-19T06:19:35Z</time>
      </trkpt>
      <trkpt lat="43.20749" lon="5.74372">
        <ele>109.842575</ele>
        <time>2022-08-19T06:19:37Z</time>
      </trkpt>
      <trkpt lat="43.20742" lon="5.74353">
        <ele>109.55249</ele>
        <time>2022-08-19T06:19:39Z</time>
      </trkpt>
      <trkpt lat="43.20735" lon="5.74334">
        <ele>109.419228</ele>
        <time>2022-08-19T06:19:41Z</time>
      </trkpt>
      <trkpt lat="43.20729" lon="5.74315">
        <ele>109.17894</ele>
        <time>2022-08-19T06:19:43Z</time>
      </trkpt>
      <trkpt lat="43.20725" lon="5.74296">
        <ele>109.070297</ele>
        <time>2022-08-19T06:19:45Z</time>
      </trkpt>
      <trkpt lat="43.20722" lon="5.74279">
        <ele>108.868919</ele>
        <time>2022-08-19T06:19:47Z</time>
      </trkpt>
      <trkpt lat="43.20717" lon="5.74257">
        <ele>108.773911</ele>
        <time>2022-08-19T06:19:49Z</time>
      </trkpt>
      <trkpt lat="43.20713" lon="5.74235">
        <ele>108.594406</ele>
        <time>2022-08-19T06:19:51Z</time>
      </trkpt>
      <trkpt lat="43.2071" lon="5.74213">
        <ele>108.431068</ele>
        <time>2022-08-19T06:19:53Z</time>
      </trkpt>
      <trkpt lat="43.20705" lon="5.74191">
        <ele>108.354752</ele>
        <time>2022-08-19T06:19:55Z</time>
      </trkpt>
      <trkpt lat="43.20696" lon="5.74173">
        <ele>108.206177</ele>
        <time>2022-08-19T06:19:57Z</time>
      </trkpt>
      <trkpt lat="43.20683" lon="5.74156">
        <ele>108.129662</ele>
        <time>2022-08-19T06:19:59Z</time>
      </trkpt>
      <trkpt lat="43.20669" lon="5.7414">
        <ele>107.962173</ele>
        <time>2022-08-19T06:20:01Z</time>
      </trkpt>
      <trkpt lat="43.20655" lon="5.74125">
        <ele>107.868065</ele>
        <time>2022-08-19T06:20:03Z</time>
      </trkpt>
      <trkpt lat="43.2064" lon="5.74109">
        <ele>107.650513</ele>
        <time>2022-08-19T06:20:05Z</time>
      </trkpt>
      <trkpt lat="43.20624" lon="5.74094">
        <ele>107.524963</ele>
        <time>2022-08-19T06:20:07Z</time>
      </trkpt>
      <trkpt lat="43.20607" lon="5.74079">
        <ele>107.240158</ele>
        <time>2022-08-19T06:20:09Z</time>
      </trkpt>
      <trkpt lat="43.20589" lon="5.74069">
        <ele>107.083252</ele>
        <time>2022-08-19T06:20:11Z</time>
      </trkpt>
      <trkpt lat="43.2057" lon="5.74058">
        <ele>106.749245</ele>
        <time>2022-08-19T06:20:13Z</time>
      </trkpt>
      <trkpt lat="43.20554" lon="5.7404">
        <ele>106.398026</ele>
        <time>2022-08-19T06:20:15Z</time>
      </trkpt>
      <trkpt lat="43.20542" lon="5.74017">
        <ele>106.21875</ele>
        <time>2022-08-19T06:20:17Z</time>
      </trkpt>
      <trkpt lat="43.2053" lon="5.73994">
        <ele>105.866211</ele>
        <time>2022-08-19T06:20:19Z</time>
      </trkpt>
      <trkpt lat="43.20515" lon="5.73973">
        <ele>105.687401</ele>
        <time>2022-08-19T06:20:21Z</time>
      </trkpt>
      <trkpt lat="43.20498" lon="5.73958">
        <ele>105.316933</ele>
        <time>2022-08-19T06:20:23Z</time>
      </trkpt>
      <trkpt lat="43.2048" lon="5.73952">
        <ele>104.915077</ele>
        <time>2022-08-19T06:20:25Z</time>
      </trkpt>
      <trkpt lat="43.20461" lon="5.73954">
        <ele>104.6996</ele>
        <time>2022-08-19T06:20:27Z</time>
      </trkpt>
      <trkpt lat="43.20443" lon="5.73957">
        <ele>104.242065</ele>
        <time>2022-08-19T06:20:29Z</time>
      </trkpt>
      <trkpt lat="43.20425" lon="5.73961">
        <ele>104.003456</ele>
        <time>2022-08-19T06:20:31Z</time>
      </trkpt>
      <trkpt lat="43.20407" lon="5.73965">
        <ele>103.517845</ele>
        <time>2022-08-19T06:20:33Z</time>
      </trkpt>
      <trkpt lat="43.2039" lon="5.73968">
        <ele>103.275131</ele>
        <time>2022-08-19T06:20:35Z</time>
      </trkpt>
      <trkpt lat="43.20374" lon="5.73972">
        <ele>102.797775</ele>
        <time>2022-08-19T06:20:37Z</time>
      </trkpt>
      <trkpt lat="43.20359" lon="5.73974">
        <ele>102.564148</ele>
        <time>2022-08-19T06:20:39Z</time>
      </trkpt>
      <trkpt lat="43.20345" lon="5.73976">
        <ele>102.105904</ele>
        <time>2022-08-19T06:20:41Z</time>
      </trkpt>
      <trkpt lat="43.20334" lon="5.73984">
        <ele>101.656357</ele>
        <time>2022-08-19T06:20:43Z</time>
      </trkpt>
      <trkpt lat="43.2033" lon="5.73999">
        <ele>101.434021</ele>
        <time>2022-08-19T06:20:45Z</time>
      </trkpt>
      <trkpt lat="43.20327" lon="5.74018">
        <ele>100.992294</ele>
        <time>2022-08-19T06:20:47Z</time>
      </trkpt>
      <trkpt lat="43.20323" lon="5.74037">
        <ele>100.772522</ele>
        <time>2022-08-19T06:20:49Z</time>
      </trkpt>
      <trkpt lat="43.20318" lon="5.74057">
        <ele>100.336563</ele>
        <time>2022-08-19T06:20:51Z</time>
      </trkpt>
      <trkpt lat="43.20315" lon="5.74079">
        <ele>99.912903</ele>
        <time>2022-08-19T06:20:53Z</time>
      </trkpt>
      <trkpt lat="43.20313" lon="5.74102">
        <ele>99.709496</ele>
        <time>2022-08-19T06:20:55Z</time>
      </trkpt>
      <trkpt lat="43.20311" lon="5.74124">
        <ele>99.326576</ele>
        <time>2022-08-19T06:20:57Z</time>
      </trkpt>
      <trkpt lat="43.2031" lon="5.74147">
        <ele>99.148056</ele>
        <time>2022-08-19T06:20:59Z</time>
      </trkpt>
      <trkpt lat="43.20309" lon="5.74171">
        <ele>98.816818</ele>
        <time>2022-08-19T06:21:01Z</time>
      </trkpt>
      <trkpt lat="43.20309" lon="5.74196">
        <ele>98.664146</ele>
        <time>2022-08-19T06:21:03Z</time>
      </trkpt>
      <trkpt lat="43.20308" lon="5.7422">
        <ele>98.386581</ele>
        <time>2022-08-19T06:21:05Z</time>
      </trkpt>
      <trkpt lat="43.20307" lon="5.74244">
        <ele>98.146545</ele>
        <time>2022-08-19T06:21:07Z</time>
      </trkpt>
      <trkpt lat="43.20306" lon="5.74267">
        <ele>98.033875</ele>
        <time>2022-08-19T06:21:09Z</time>
      </trkpt>
      <trkpt lat="43.20306" lon="5.74291">
        <ele>97.828308</ele>
        <time>2022-08-19T06:21:11Z</time>
      </trkpt>
      <trkpt lat="43.20305" lon="5.74315">
        <ele>97.735962</ele>
        <time>2022-08-19T06:21:13Z</time>
      </trkpt>
      <trkpt lat="43.20304" lon="5.74338">
        <ele>97.578331</ele>
        <time>2022-08-19T06:21:15Z</time>
      </trkpt>
      <trkpt lat="43.20303" lon="5.7436">
        <ele>97.461472</ele>
        <time>2022-08-19T06:21:17Z</time>
      </trkpt>
      <trkpt lat="43.20301" lon="5.74383">
        <ele>97.415146</ele>
        <time>2022-08-19T06:21:19Z</time>
      </trkpt>
      <trkpt lat="43.20298" lon="5.74405">
        <ele>97.331116</ele>
        <time>2022-08-19T06:21:21Z</time>
      </trkpt>
      <trkpt lat="43.20296" lon="5.74427">
        <ele>97.286392</ele>
        <time>2022-08-19T06:21:23Z</time>
      </trkpt>
      <trkpt lat="43.20293" lon="5.74449">
        <ele>97.178261</ele>
        <time>2022-08-19T06:21:25Z</time>
      </trkpt>
      <trkpt lat="43.2029" lon="5.74472">
        <ele>97.11161</ele>
        <time>2022-08-19T06:21:27Z</time>
      </trkpt>
      <trkpt lat="43.20287" lon="5.74494">
        <ele>96.949989</ele>
        <time>2022-08-19T06:21:29Z</time>
      </trkpt>
      <trkpt lat="43.20284" lon="5.74516">
        <ele>96.853905</ele>
        <time>2022-08-19T06:21:31Z</time>
      </trkpt>
      <trkpt lat="43.20281" lon="5.74538">
        <ele>96.626297</ele>
        <time>2022-08-19T06:21:33Z</time>
      </trkpt>
      <trkpt lat="43.20277" lon="5.7456">
        <ele>96.344887</ele>
        <time>2022-08-19T06:21:35Z</time>
      </trkpt>
      <trkpt lat="43.20274" lon="5.74583">
        <ele>96.18325</ele>
        <time>2022-08-19T06:21:37Z</time>
      </trkpt>
      <trkpt lat="43.2027" lon="5.74606">
        <ele>95.819984</ele>
        <time>2022-08-19T06:21:39Z</time>
      </trkpt>
      <trkpt lat="43.20266" lon="5.74629">
        <ele>95.619431</ele>
        <time>2022-08-19T06:21:41Z</time>
      </trkpt>
      <trkpt lat="43.20262" lon="5.74652">
        <ele>95.189438</ele>
        <time>2022-08-19T06:21:43Z</time>
      </trkpt>
      <trkpt lat="43.20258" lon="5.74675">
        <ele>94.961868</ele>
        <time>2022-08-19T06:21:45Z</time>
      </trkpt>
      <trkpt lat="43.20253" lon="5.74698">
        <ele>94.493881</ele>
        <time>2022-08-19T06:21:47Z</time>
      </trkpt>
      <trkpt lat="43.20247" lon="5.74721">
        <ele>94.257645</ele>
        <time>2022-08-19T06:21:49Z</time>
      </trkpt>
      <trkpt lat="43.20242" lon="5.74744">
        <ele>93.789696</ele>
        <time>2022-08-19T06:21:51Z</time>
      </trkpt>
      <trkpt lat="43.20237" lon="5.74767">
        <ele>93.560463</ele>
        <time>2022-08-19T06:21:53Z</time>
      </trkpt>
      <trkpt lat="43.20232" lon="5.7479">
        <ele>93.11554</ele>
        <time>2022-08-19T06:21:55Z</time>
      </trkpt>
      <trkpt lat="43.20227" lon="5.74813">
        <ele>92.694435</ele>
        <time>2022-08-19T06:21:57Z</time>
      </trkpt>
      <trkpt lat="43.20222" lon="5.74836">
        <ele>92.496376</ele>
        <time>2022-08-19T06:21:59Z</time>
      </trkpt>
      <trkpt lat="43.20217" lon="5.74859">
        <ele>92.134666</ele>
        <time>2022-08-19T06:22:01Z</time>
      </trkpt>
      <trkpt lat="43.20211" lon="5.74883">
        <ele>91.974411</ele>
        <time>2022-08-19T06:22:03Z</time>
      </trkpt>
      <trkpt lat="43.20206" lon="5.74906">
        <ele>91.698097</ele>
        <time>2022-08-19T06:22:05Z</time>
      </trkpt>
      <trkpt lat="43.202" lon="5.7493">
        <ele>91.581154</ele>
        <time>2022-08-19T06:22:07Z</time>
      </trkpt>
      <trkpt lat="43.20194" lon="5.74953">
        <ele>91.38607</ele>
        <time>2022-08-19T06:22:09Z</time>
      </trkpt>
      <trkpt lat="43.20189" lon="5.74977">
        <ele>91.239883</ele>
        <time>2022-08-19T06:22:11Z</time>
      </trkpt>
      <trkpt lat="43.20182" lon="5.75">
        <ele>91.184608</ele>
        <time>2022-08-19T06:22:13Z</time>
      </trkpt>
      <trkpt lat="43.20176" lon="5.75024">
        <ele>91.107544</ele>
        <time>2022-08-19T06:22:15Z</time>
      </trkpt>
      <trkpt lat="43.20169" lon="5.75047">
        <ele>91.084396</ele>
        <time>2022-08-19T06:22:17Z</time>
      </trkpt>
      <trkpt lat="43.20163" lon="5.7507">
        <ele>91.06443</ele>
        <time>2022-08-19T06:22:19Z</time>
      </trkpt>
      <trkpt lat="43.20157" lon="5.75093">
        <ele>91.066368</ele>
        <time>2022-08-19T06:22:21Z</time>
      </trkpt>
      <trkpt lat="43.2015" lon="5.75116">
        <ele>91.093651</ele>
        <time>2022-08-19T06:22:23Z</time>
      </trkpt>
      <trkpt lat="43.20144" lon="5.75139">
        <ele>91.153381</ele>
        <time>2022-08-19T06:22:25Z</time>
      </trkpt>
      <trkpt lat="43.20139" lon="5.75162">
        <ele>91.195229</ele>
        <time>2022-08-19T06:22:27Z</time>
      </trkpt>
      <trkpt lat="43.20133" lon="5.75184">
        <ele>91.301598</ele>
        <time>2022-08-19T06:22:29Z</time>
      </trkpt>
      <trkpt lat="43.20128" lon="5.75206">
        <ele>91.366577</ele>
        <time>2022-08-19T06:22:31Z</time>
      </trkpt>
      <trkpt lat="43.20122" lon="5.75228">
        <ele>91.521996</ele>
        <time>2022-08-19T06:22:33Z</time>
      </trkpt>
      <trkpt lat="43.20116" lon="5.7525">
        <ele>91.612144</ele>
        <time>2022-08-19T06:22:35Z</time>
      </trkpt>
      <trkpt lat="43.20111" lon="5.75271">
        <ele>91.814255</ele>
        <time>2022-08-19T06:22:37Z</time>
      </trkpt>
      <trkpt lat="43.20106" lon="5.75293">
        <ele>91.925003</ele>
        <time>2022-08-19T06:22:39Z</time>
      </trkpt>
      <trkpt lat="43.201" lon="5.75315">
        <ele>92.164444</ele>
        <time>2022-08-19T06:22:41Z</time>
      </trkpt>
      <trkpt lat="43.20095" lon="5.75336">
        <ele>92.426437</ele>
        <time>2022-08-19T06:22:43Z</time>
      </trkpt>
      <trkpt lat="43.20088" lon="5.7536">
        <ele>92.564957</ele>
        <time>2022-08-19T06:22:45Z</time>
      </trkpt>
      <trkpt lat="43.20081" lon="5.75382">
        <ele>92.851036</ele>
        <time>2022-08-19T06:22:47Z</time>
      </trkpt>
      <trkpt lat="43.20074" lon="5.75404">
        <ele>92.995216</ele>
        <time>2022-08-19T06:22:49Z</time>
      </trkpt>
      <trkpt lat="43.20068" lon="5.75428">
        <ele>93.274353</ele>
        <time>2022-08-19T06:22:51Z</time>
      </trkpt>
      <trkpt lat="43.20065" lon="5.75452">
        <ele>93.404358</ele>
        <time>2022-08-19T06:22:53Z</time>
      </trkpt>
      <trkpt lat="43.20062" lon="5.75477">
        <ele>93.63578</ele>
        <time>2022-08-19T06:22:55Z</time>
      </trkpt>
      <trkpt lat="43.2006" lon="5.75501">
        <ele>93.823166</ele>
        <time>2022-08-19T06:22:57Z</time>
      </trkpt>
      <trkpt lat="43.20057" lon="5.75526">
        <ele>93.900169</ele>
        <time>2022-08-19T06:22:59Z</time>
      </trkpt>
      <trkpt lat="43.20054" lon="5.75551">
        <ele>94.024277</ele>
        <time>2022-08-19T06:23:01Z</time>
      </trkpt>
      <trkpt lat="43.2005" lon="5.75576">
        <ele>94.073807</ele>
        <time>2022-08-19T06:23:03Z</time>
      </trkpt>
      <trkpt lat="43.20045" lon="5.756">
        <ele>94.155197</ele>
        <time>2022-08-19T06:23:05Z</time>
      </trkpt>
      <trkpt lat="43.2004" lon="5.75624">
        <ele>94.190102</ele>
        <time>2022-08-19T06:23:07Z</time>
      </trkpt>
      <trkpt lat="43.20036" lon="5.75647">
        <ele>94.255638</ele>
        <time>2022-08-19T06:23:09Z</time>
      </trkpt>
      <trkpt lat="43.20033" lon="5.75671">
        <ele>94.325554</ele>
        <time>2022-08-19T06:23:11Z</time>
      </trkpt>
      <trkpt lat="43.20032" lon="5.75695">
        <ele>94.365501</ele>
        <time>2022-08-19T06:23:13Z</time>
      </trkpt>
      <trkpt lat="43.20031" lon="5.75719">
        <ele>94.457901</ele>
        <time>2022-08-19T06:23:15Z</time>
      </trkpt>
      <trkpt lat="43.2003" lon="5.75743">
        <ele>94.509232</ele>
        <time>2022-08-19T06:23:17Z</time>
      </trkpt>
      <trkpt lat="43.20029" lon="5.75767">
        <ele>94.617905</ele>
        <time>2022-08-19T06:23:19Z</time>
      </trkpt>
      <trkpt lat="43.20029" lon="5.75791">
        <ele>94.672363</ele>
        <time>2022-08-19T06:23:21Z</time>
      </trkpt>
      <trkpt lat="43.2003" lon="5.75814">
        <ele>94.772507</ele>
        <time>2022-08-19T06:23:23Z</time>
      </trkpt>
      <trkpt lat="43.2003" lon="5.75838">
        <ele>94.814766</ele>
        <time>2022-08-19T06:23:25Z</time>
      </trkpt>
      <trkpt lat="43.20031" lon="5.75861">
        <ele>94.876129</ele>
        <time>2022-08-19T06:23:27Z</time>
      </trkpt>
      <trkpt lat="43.20031" lon="5.75885">
        <ele>94.891937</ele>
        <time>2022-08-19T06:23:29Z</time>
      </trkpt>
      <trkpt lat="43.20032" lon="5.75908">
        <ele>94.885498</ele>
        <time>2022-08-19T06:23:31Z</time>
      </trkpt>
      <trkpt lat="43.20032" lon="5.75931">
        <ele>94.81868</ele>
        <time>2022-08-19T06:23:33Z</time>
      </trkpt>
      <trkpt lat="43.2003" lon="5.75954">
        <ele>94.761383</ele>
        <time>2022-08-19T06:23:35Z</time>
      </trkpt>
      <trkpt lat="43.20024" lon="5.75977">
        <ele>94.604355</ele>
        <time>2022-08-19T06:23:37Z</time>
      </trkpt>
      <trkpt lat="43.20016" lon="5.75998">
        <ele>94.509529</ele>
        <time>2022-08-19T06:23:39Z</time>
      </trkpt>
      <trkpt lat="43.20009" lon="5.7602">
        <ele>94.301186</ele>
        <time>2022-08-19T06:23:41Z</time>
      </trkpt>
      <trkpt lat="43.20004" lon="5.76043">
        <ele>94.193481</ele>
        <time>2022-08-19T06:23:43Z</time>
      </trkpt>
      <trkpt lat="43.20002" lon="5.76066">
        <ele>93.981651</ele>
        <time>2022-08-19T06:23:45Z</time>
      </trkpt>
      <trkpt lat="43.20002" lon="5.76089">
        <ele>93.779312</ele>
        <time>2022-08-19T06:23:47Z</time>
      </trkpt>
      <trkpt lat="43.20002" lon="5.76112">
        <ele>93.680893</ele>
        <time>2022-08-19T06:23:49Z</time>
      </trkpt>
      <trkpt lat="43.20005" lon="5.76135">
        <ele>93.484848</ele>
        <time>2022-08-19T06:23:51Z</time>
      </trkpt>
      <trkpt lat="43.20008" lon="5.76158">
        <ele>93.38501</ele>
        <time>2022-08-19T06:23:53Z</time>
      </trkpt>
      <trkpt lat="43.20011" lon="5.76181">
        <ele>93.17646</ele>
        <time>2022-08-19T06:23:55Z</time>
      </trkpt>
      <trkpt lat="43.20013" lon="5.76204">
        <ele>93.065994</ele>
        <time>2022-08-19T06:23:57Z</time>
      </trkpt>
      <trkpt lat="43.20012" lon="5.76226">
        <ele>92.829407</ele>
        <time>2022-08-19T06:23:59Z</time>
      </trkpt>
      <trkpt lat="43.20011" lon="5.76249">
        <ele>92.568222</ele>
        <time>2022-08-19T06:24:01Z</time>
      </trkpt>
      <trkpt lat="43.20008" lon="5.76271">
        <ele>92.426857</ele>
        <time>2022-08-19T06:24:03Z</time>
      </trkpt>
      <trkpt lat="43.19997" lon="5.76285">
        <ele>92.12075</ele>
        <time>2022-08-19T06:24:05Z</time>
      </trkpt>
      <trkpt lat="43.19981" lon="5.76293">
        <ele>91.956306</ele>
        <time>2022-08-19T06:24:07Z</time>
      </trkpt>
      <trkpt lat="43.19965" lon="5.76294">
        <ele>91.607307</ele>
        <time>2022-08-19T06:24:09Z</time>
      </trkpt>
      <trkpt lat="43.19948" lon="5.76298">
        <ele>91.23632</ele>
        <time>2022-08-19T06:24:11Z</time>
      </trkpt>
      <trkpt lat="43.19932" lon="5.76304">
        <ele>91.044746</ele>
        <time>2022-08-19T06:24:13Z</time>
      </trkpt>
      <trkpt lat="43.19916" lon="5.76311">
        <ele>90.651413</ele>
        <time>2022-08-19T06:24:15Z</time>
      </trkpt>
      <trkpt lat="43.19901" lon="5.76317">
        <ele>90.44957</ele>
        <time>2022-08-19T06:24:17Z</time>
      </trkpt>
      <trkpt lat="43.19885" lon="5.76324">
        <ele>90.035675</ele>
        <time>2022-08-19T06:24:19Z</time>
      </trkpt>
      <trkpt lat="43.19869" lon="5.7633">
        <ele>89.824799</ele>
        <time>2022-08-19T06:24:21Z</time>
      </trkpt>
      <trkpt lat="43.19853" lon="5.76337">
        <ele>89.402115</ele>
        <time>2022-08-19T06:24:23Z</time>
      </trkpt>
      <trkpt lat="43.19836" lon="5.76343">
        <ele>88.98877</ele>
        <time>2022-08-19T06:24:25Z</time>
      </trkpt>
      <trkpt lat="43.19819" lon="5.76349">
        <ele>88.788284</ele>
        <time>2022-08-19T06:24:27Z</time>
      </trkpt>
      <trkpt lat="43.19801" lon="5.76354">
        <ele>88.40316</ele>
        <time>2022-08-19T06:24:29Z</time>
      </trkpt>
      <trkpt lat="43.19782" lon="5.76351">
        <ele>88.224571</ele>
        <time>2022-08-19T06:24:31Z</time>
      </trkpt>
      <trkpt lat="43.19763" lon="5.76345">
        <ele>87.923164</ele>
        <time>2022-08-19T06:24:33Z</time>
      </trkpt>
      <trkpt lat="43.19744" lon="5.76336">
        <ele>87.811844</ele>
        <time>2022-08-19T06:24:35Z</time>
      </trkpt>
      <trkpt lat="43.19726" lon="5.76323">
        <ele>87.682571</ele>
        <time>2022-08-19T06:24:37Z</time>
      </trkpt>
      <trkpt lat="43.1971" lon="5.76304">
        <ele>87.663803</ele>
        <time>2022-08-19T06:24:39Z</time>
      </trkpt>
      <trkpt lat="43.19695" lon="5.76284">
        <ele>87.702682</ele>
        <time>2022-08-19T06:24:41Z</time>
      </trkpt>
      <trkpt lat="43.19679" lon="5.76266">
        <ele>87.750832</ele>
        <time>2022-08-19T06:24:43Z</time>
      </trkpt>
      <trkpt lat="43.19661" lon="5.76252">
        <ele>87.882553</ele>
        <time>2022-08-19T06:24:45Z</time>
      </trkpt>
      <trkpt lat="43.19643" lon="5.76244">
        <ele>88.031479</ele>
        <time>2022-08-19T06:24:47Z</time>
      </trkpt>
      <trkpt lat="43.19625" lon="5.76242">
        <ele>88.106049</ele>
        <time>2022-08-19T06:24:49Z</time>
      </trkpt>
      <trkpt lat="43.1961" lon="5.76245">
        <ele>88.260269</ele>
        <time>2022-08-19T06:24:51Z</time>
      </trkpt>
      <trkpt lat="43.19595" lon="5.7625">
        <ele>88.345963</ele>
        <time>2022-08-19T06:24:53Z</time>
      </trkpt>
      <trkpt lat="43.19582" lon="5.76255">
        <ele>88.545906</ele>
        <time>2022-08-19T06:24:55Z</time>
      </trkpt>
      <trkpt lat="43.1957" lon="5.76259">
        <ele>88.660385</ele>
        <time>2022-08-19T06:24:57Z</time>
      </trkpt>
      <trkpt lat="43.19558" lon="5.76264">
        <ele>88.917336</ele>
        <time>2022-08-19T06:24:59Z</time>
      </trkpt>
      <trkpt lat="43.19547" lon="5.76269">
        <ele>89.20668</ele>
        <time>2022-08-19T06:25:01Z</time>
      </trkpt>
      <trkpt lat="43.19535" lon="5.76274">
        <ele>89.361511</ele>
        <time>2022-08-19T06:25:03Z</time>
      </trkpt>
      <trkpt lat="43.19522" lon="5.76279">
        <ele>89.686501</ele>
        <time>2022-08-19T06:25:05Z</time>
      </trkpt>
      <trkpt lat="43.19509" lon="5.76284">
        <ele>89.854271</ele>
        <time>2022-08-19T06:25:07Z</time>
      </trkpt>
      <trkpt lat="43.19493" lon="5.7629">
        <ele>90.195297</ele>
        <time>2022-08-19T06:25:09Z</time>
      </trkpt>
      <trkpt lat="43.19476" lon="5.76295">
        <ele>90.538795</ele>
        <time>2022-08-19T06:25:11Z</time>
      </trkpt>
      <trkpt lat="43.19456" lon="5.76302">
        <ele>90.709381</ele>
        <time>2022-08-19T06:25:13Z</time>
      </trkpt>
      <trkpt lat="43.19436" lon="5.7631">
        <ele>91.040276</ele>
        <time>2022-08-19T06:25:15Z</time>
      </trkpt>
      <trkpt lat="43.19416" lon="5.76319">
        <ele>91.199959</ele>
        <time>2022-08-19T06:25:17Z</time>
      </trkpt>
      <trkpt lat="43.19395" lon="5.7633">
        <ele>91.484253</ele>
        <time>2022-08-19T06:25:19Z</time>
      </trkpt>
      <trkpt lat="43.19376" lon="5.76342">
        <ele>91.692345</ele>
        <time>2022-08-19T06:25:21Z</time>
      </trkpt>
      <trkpt lat="43.19358" lon="5.76356">
        <ele>91.752197</ele>
        <time>2022-08-19T06:25:23Z</time>
      </trkpt>
      <trkpt lat="43.19341" lon="5.7637">
        <ele>91.749092</ele>
        <time>2022-08-19T06:25:25Z</time>
      </trkpt>
      <trkpt lat="43.1933" lon="5.7639">
        <ele>91.677666</ele>
        <time>2022-08-19T06:25:27Z</time>
      </trkpt>
      <trkpt lat="43.19317" lon="5.76414">
        <ele>91.395081</ele>
        <time>2022-08-19T06:25:29Z</time>
      </trkpt>
      <trkpt lat="43.19303" lon="5.76435">
        <ele>91.191803</ele>
        <time>2022-08-19T06:25:31Z</time>
      </trkpt>
      <trkpt lat="43.19287" lon="5.76432">
        <ele>90.694862</ele>
        <time>2022-08-19T06:25:33Z</time>
      </trkpt>
      <trkpt lat="43.1927" lon="5.76427">
        <ele>90.121292</ele>
        <time>2022-08-19T06:25:35Z</time>
      </trkpt>
      <trkpt lat="43.19256" lon="5.76438">
        <ele>89.819901</ele>
        <time>2022-08-19T06:25:37Z</time>
      </trkpt>
      <trkpt lat="43.19246" lon="5.76455">
        <ele>89.202202</ele>
        <time>2022-08-19T06:25:39Z</time>
      </trkpt>
      <trkpt lat="43.19238" lon="5.76474">
        <ele>88.885559</ele>
        <time>2022-08-19T06:25:41Z</time>
      </trkpt>
      <trkpt lat="43.19233" lon="5.76494">
        <ele>88.225082</ele>
        <time>2022-08-19T06:25:43Z</time>
      </trkpt>
      <trkpt lat="43.19223" lon="5.7651">
        <ele>87.876801</ele>
        <time>2022-08-19T06:25:45Z</time>
      </trkpt>
      <trkpt lat="43.19209" lon="5.76522">
        <ele>87.141884</ele>
        <time>2022-08-19T06:25:47Z</time>
      </trkpt>
      <trkpt lat="43.19199" lon="5.76535">
        <ele>86.757164</ele>
        <time>2022-08-19T06:25:49Z</time>
      </trkpt>
      <trkpt lat="43.19199" lon="5.76554">
        <ele>85.958824</ele>
        <time>2022-08-19T06:25:51Z</time>
      </trkpt>
      <trkpt lat="43.19186" lon="5.76567">
        <ele>85.130165</ele>
        <time>2022-08-19T06:25:53Z</time>
      </trkpt>
      <trkpt lat="43.19177" lon="5.76585">
        <ele>84.708168</ele>
        <time>2022-08-19T06:25:55Z</time>
      </trkpt>
      <trkpt lat="43.19159" lon="5.76603">
        <ele>84.283676</ele>
        <time>2022-08-19T06:25:57Z</time>
      </trkpt>
      <trkpt lat="43.19131" lon="5.76604">
        <ele>83.434441</ele>
        <time>2022-08-19T06:25:59Z</time>
      </trkpt>
      <trkpt lat="43.19103" lon="5.76614">
        <ele>82.591927</ele>
        <time>2022-08-19T06:26:01Z</time>
      </trkpt>
      <trkpt lat="43.19081" lon="5.76625">
        <ele>82.173523</ele>
        <time>2022-08-19T06:26:03Z</time>
      </trkpt>
      <trkpt lat="43.19064" lon="5.7664">
        <ele>81.340347</ele>
        <time>2022-08-19T06:26:05Z</time>
      </trkpt>
      <trkpt lat="43.19048" lon="5.76655">
        <ele>80.926254</ele>
        <time>2022-08-19T06:26:07Z</time>
      </trkpt>
      <trkpt lat="43.19029" lon="5.76669">
        <ele>80.100632</ele>
        <time>2022-08-19T06:26:09Z</time>
      </trkpt>
      <trkpt lat="43.19004" lon="5.76678">
        <ele>79.697945</ele>
        <time>2022-08-19T06:26:11Z</time>
      </trkpt>
      <trkpt lat="43.18979" lon="5.76685">
        <ele>78.919426</ele>
        <time>2022-08-19T06:26:13Z</time>
      </trkpt>
      <trkpt lat="43.18956" lon="5.76697">
        <ele>78.174622</ele>
        <time>2022-08-19T06:26:15Z</time>
      </trkpt>
      <trkpt lat="43.18935" lon="5.76711">
        <ele>77.81366</ele>
        <time>2022-08-19T06:26:17Z</time>
      </trkpt>
      <trkpt lat="43.18915" lon="5.76726">
        <ele>77.114265</ele>
        <time>2022-08-19T06:26:19Z</time>
      </trkpt>
      <trkpt lat="43.18895" lon="5.7674">
        <ele>76.776169</ele>
        <time>2022-08-19T06:26:21Z</time>
      </trkpt>
      <trkpt lat="43.18875" lon="5.76755">
        <ele>76.120438</ele>
        <time>2022-08-19T06:26:23Z</time>
      </trkpt>
      <trkpt lat="43.18856" lon="5.7677">
        <ele>75.801231</ele>
        <time>2022-08-19T06:26:25Z</time>
      </trkpt>
      <trkpt lat="43.18837" lon="5.76783">
        <ele>75.177155</ele>
        <time>2022-08-19T06:26:27Z</time>
      </trkpt>
      <trkpt lat="43.18819" lon="5.76797">
        <ele>74.87278</ele>
        <time>2022-08-19T06:26:29Z</time>
      </trkpt>
      <trkpt lat="43.18803" lon="5.76809">
        <ele>74.284821</ele>
        <time>2022-08-19T06:26:31Z</time>
      </trkpt>
      <trkpt lat="43.18786" lon="5.76822">
        <ele>74.002632</ele>
        <time>2022-08-19T06:26:33Z</time>
      </trkpt>
      <trkpt lat="43.18771" lon="5.76835">
        <ele>73.460091</ele>
        <time>2022-08-19T06:26:35Z</time>
      </trkpt>
      <trkpt lat="43.18753" lon="5.76845">
        <ele>72.93837</ele>
        <time>2022-08-19T06:26:37Z</time>
      </trkpt>
      <trkpt lat="43.18736" lon="5.76856">
        <ele>72.681953</ele>
        <time>2022-08-19T06:26:39Z</time>
      </trkpt>
      <trkpt lat="43.18721" lon="5.76869">
        <ele>72.173759</ele>
        <time>2022-08-19T06:26:41Z</time>
      </trkpt>
      <trkpt lat="43.18706" lon="5.76881">
        <ele>71.92186</ele>
        <time>2022-08-19T06:26:43Z</time>
      </trkpt>
      <trkpt lat="43.18689" lon="5.76893">
        <ele>71.423347</ele>
        <time>2022-08-19T06:26:45Z</time>
      </trkpt>
      <trkpt lat="43.18671" lon="5.76904">
        <ele>71.176155</ele>
        <time>2022-08-19T06:26:47Z</time>
      </trkpt>
      <trkpt lat="43.18654" lon="5.76916">
        <ele>70.683479</ele>
        <time>2022-08-19T06:26:49Z</time>
      </trkpt>
      <trkpt lat="43.18636" lon="5.76927">
        <ele>70.191864</ele>
        <time>2022-08-19T06:26:51Z</time>
      </trkpt>
      <trkpt lat="43.18618" lon="5.76937">
        <ele>69.947838</ele>
        <time>2022-08-19T06:26:53Z</time>
      </trkpt>
      <trkpt lat="43.18599" lon="5.76946">
        <ele>69.468124</ele>
        <time>2022-08-19T06:26:55Z</time>
      </trkpt>
      <trkpt lat="43.1858" lon="5.76954">
        <ele>69.234589</ele>
        <time>2022-08-19T06:26:57Z</time>
      </trkpt>
      <trkpt lat="43.18561" lon="5.76961">
        <ele>68.781525</ele>
        <time>2022-08-19T06:26:59Z</time>
      </trkpt>
      <trkpt lat="43.18541" lon="5.76968">
        <ele>68.561546</ele>
        <time>2022-08-19T06:27:01Z</time>
      </trkpt>
      <trkpt lat="43.18522" lon="5.76975">
        <ele>68.13475</ele>
        <time>2022-08-19T06:27:03Z</time>
      </trkpt>
      <trkpt lat="43.18504" lon="5.7698">
        <ele>67.929489</ele>
        <time>2022-08-19T06:27:05Z</time>
      </trkpt>
      <trkpt lat="43.18484" lon="5.76983">
        <ele>67.540054</ele>
        <time>2022-08-19T06:27:07Z</time>
      </trkpt>
      <trkpt lat="43.18465" lon="5.76986">
        <ele>67.18013</ele>
        <time>2022-08-19T06:27:09Z</time>
      </trkpt>
      <trkpt lat="43.18445" lon="5.76989">
        <ele>67.010208</ele>
        <time>2022-08-19T06:27:11Z</time>
      </trkpt>
      <trkpt lat="43.18424" lon="5.76993">
        <ele>66.686935</ele>
        <time>2022-08-19T06:27:13Z</time>
      </trkpt>
      <trkpt lat="43.18405" lon="5.76999">
        <ele>66.532211</ele>
        <time>2022-08-19T06:27:15Z</time>
      </trkpt>
      <trkpt lat="43.18385" lon="5.77005">
        <ele>66.23436</ele>
        <time>2022-08-19T06:27:17Z</time>
      </trkpt>
      <trkpt lat="43.18366" lon="5.77011">
        <ele>65.947037</ele>
        <time>2022-08-19T06:27:19Z</time>
      </trkpt>
      <trkpt lat="43.18346" lon="5.77015">
        <ele>65.804688</ele>
        <time>2022-08-19T06:27:21Z</time>
      </trkpt>
      <trkpt lat="43.18327" lon="5.77021">
        <ele>65.517418</ele>
        <time>2022-08-19T06:27:23Z</time>
      </trkpt>
      <trkpt lat="43.18308" lon="5.77027">
        <ele>65.37085</ele>
        <time>2022-08-19T06:27:25Z</time>
      </trkpt>
      <trkpt lat="43.18289" lon="5.77033">
        <ele>65.070419</ele>
        <time>2022-08-19T06:27:27Z</time>
      </trkpt>
      <trkpt lat="43.1827" lon="5.77041">
        <ele>64.91732</ele>
        <time>2022-08-19T06:27:29Z</time>
      </trkpt>
      <trkpt lat="43.18251" lon="5.77048">
        <ele>64.610451</ele>
        <time>2022-08-19T06:27:31Z</time>
      </trkpt>
      <trkpt lat="43.18232" lon="5.77057">
        <ele>64.31031</ele>
        <time>2022-08-19T06:27:33Z</time>
      </trkpt>
      <trkpt lat="43.18214" lon="5.77066">
        <ele>64.164749</ele>
        <time>2022-08-19T06:27:35Z</time>
      </trkpt>
      <trkpt lat="43.18196" lon="5.77075">
        <ele>63.883842</ele>
        <time>2022-08-19T06:27:37Z</time>
      </trkpt>
      <trkpt lat="43.18178" lon="5.77083">
        <ele>63.749073</ele>
        <time>2022-08-19T06:27:39Z</time>
      </trkpt>
      <trkpt lat="43.1816" lon="5.77091">
        <ele>63.494202</ele>
        <time>2022-08-19T06:27:41Z</time>
      </trkpt>
      <trkpt lat="43.1814" lon="5.77096">
        <ele>63.375877</ele>
        <time>2022-08-19T06:27:43Z</time>
      </trkpt>
      <trkpt lat="43.18122" lon="5.77099">
        <ele>63.160328</ele>
        <time>2022-08-19T06:27:45Z</time>
      </trkpt>
      <trkpt lat="43.18103" lon="5.77101">
        <ele>63.063362</ele>
        <time>2022-08-19T06:27:47Z</time>
      </trkpt>
      <trkpt lat="43.18085" lon="5.77102">
        <ele>62.889671</ele>
        <time>2022-08-19T06:27:49Z</time>
      </trkpt>
      <trkpt lat="43.18067" lon="5.77103">
        <ele>62.740532</ele>
        <time>2022-08-19T06:27:51Z</time>
      </trkpt>
      <trkpt lat="43.1805" lon="5.77107">
        <ele>62.673058</ele>
        <time>2022-08-19T06:27:53Z</time>
      </trkpt>
      <trkpt lat="43.18035" lon="5.77117">
        <ele>62.546764</ele>
        <time>2022-08-19T06:27:55Z</time>
      </trkpt>
      <trkpt lat="43.18024" lon="5.77134">
        <ele>62.486988</ele>
        <time>2022-08-19T06:27:57Z</time>
      </trkpt>
      <trkpt lat="43.18018" lon="5.77154">
        <ele>62.372627</ele>
        <time>2022-08-19T06:27:59Z</time>
      </trkpt>
      <trkpt lat="43.18016" lon="5.77174">
        <ele>62.270466</ele>
        <time>2022-08-19T06:28:01Z</time>
      </trkpt>
      <trkpt lat="43.18015" lon="5.77193">
        <ele>62.226543</ele>
        <time>2022-08-19T06:28:03Z</time>
      </trkpt>
      <trkpt lat="43.18017" lon="5.77211">
        <ele>62.157005</ele>
        <time>2022-08-19T06:28:05Z</time>
      </trkpt>
      <trkpt lat="43.1802" lon="5.77228">
        <ele>62.133057</ele>
        <time>2022-08-19T06:28:07Z</time>
      </trkpt>
      <trkpt lat="43.18021" lon="5.77246">
        <ele>62.109138</ele>
        <time>2022-08-19T06:28:09Z</time>
      </trkpt>
      <trkpt lat="43.18018" lon="5.77262">
        <ele>62.126404</ele>
        <time>2022-08-19T06:28:11Z</time>
      </trkpt>
      <trkpt lat="43.1801" lon="5.77273">
        <ele>62.151318</ele>
        <time>2022-08-19T06:28:13Z</time>
      </trkpt>
      <trkpt lat="43.18002" lon="5.77283">
        <ele>62.232338</ele>
        <time>2022-08-19T06:28:15Z</time>
      </trkpt>
      <trkpt lat="43.17994" lon="5.77296">
        <ele>62.287117</ele>
        <time>2022-08-19T06:28:17Z</time>
      </trkpt>
      <trkpt lat="43.17985" lon="5.77305">
        <ele>62.422352</ele>
        <time>2022-08-19T06:28:19Z</time>
      </trkpt>
      <trkpt lat="43.17974" lon="5.77311">
        <ele>62.501209</ele>
        <time>2022-08-19T06:28:21Z</time>
      </trkpt>
      <trkpt lat="43.17962" lon="5.77314">
        <ele>62.67503</ele>
        <time>2022-08-19T06:28:23Z</time>
      </trkpt>
      <trkpt lat="43.1795" lon="5.77317">
        <ele>62.766491</ele>
        <time>2022-08-19T06:28:25Z</time>
      </trkpt>
      <trkpt lat="43.17939" lon="5.77319">
        <ele>62.950684</ele>
        <time>2022-08-19T06:28:27Z</time>
      </trkpt>
      <trkpt lat="43.17927" lon="5.77321">
        <ele>63.127541</ele>
        <time>2022-08-19T06:28:29Z</time>
      </trkpt>
      <trkpt lat="43.17915" lon="5.77324">
        <ele>63.210438</ele>
        <time>2022-08-19T06:28:31Z</time>
      </trkpt>
      <trkpt lat="43.17904" lon="5.77326">
        <ele>63.361</ele>
        <time>2022-08-19T06:28:33Z</time>
      </trkpt>
      <trkpt lat="43.17892" lon="5.77327">
        <ele>63.427513</ele>
        <time>2022-08-19T06:28:35Z</time>
      </trkpt>
      <trkpt lat="43.17881" lon="5.7733">
        <ele>63.542114</ele>
        <time>2022-08-19T06:28:37Z</time>
      </trkpt>
      <trkpt lat="43.17869" lon="5.77331">
        <ele>63.590382</ele>
        <time>2022-08-19T06:28:39Z</time>
      </trkpt>
      <trkpt lat="43.17857" lon="5.77329">
        <ele>63.669361</ele>
        <time>2022-08-19T06:28:41Z</time>
      </trkpt>
      <trkpt lat="43.17846" lon="5.77327">
        <ele>63.726036</ele>
        <time>2022-08-19T06:28:43Z</time>
      </trkpt>
      <trkpt lat="43.17835" lon="5.77325">
        <ele>63.746704</ele>
        <time>2022-08-19T06:28:45Z</time>
      </trkpt>
      <trkpt lat="43.17823" lon="5.77322">
        <ele>63.771889</ele>
        <time>2022-08-19T06:28:47Z</time>
      </trkpt>
      <trkpt lat="43.17811" lon="5.7732">
        <ele>63.775684</ele>
        <time>2022-08-19T06:28:49Z</time>
      </trkpt>
      <trkpt lat="43.17799" lon="5.7732">
        <ele>63.762684</ele>
        <time>2022-08-19T06:28:51Z</time>
      </trkpt>
      <trkpt lat="43.17785" lon="5.77321">
        <ele>63.744396</ele>
        <time>2022-08-19T06:28:53Z</time>
      </trkpt>
      <trkpt lat="43.17771" lon="5.77324">
        <ele>63.68169</ele>
        <time>2022-08-19T06:28:55Z</time>
      </trkpt>
      <trkpt lat="43.17757" lon="5.77324">
        <ele>63.636597</ele>
        <time>2022-08-19T06:28:57Z</time>
      </trkpt>
      <trkpt lat="43.17741" lon="5.77316">
        <ele>63.515015</ele>
        <time>2022-08-19T06:28:59Z</time>
      </trkpt>
      <trkpt lat="43.17725" lon="5.77307">
        <ele>63.344971</ele>
        <time>2022-08-19T06:29:01Z</time>
      </trkpt>
      <trkpt lat="43.17709" lon="5.77297">
        <ele>63.23933</ele>
        <time>2022-08-19T06:29:03Z</time>
      </trkpt>
      <trkpt lat="43.17691" lon="5.77287">
        <ele>62.985241</ele>
        <time>2022-08-19T06:29:05Z</time>
      </trkpt>
      <trkpt lat="43.17674" lon="5.7728">
        <ele>62.837292</ele>
        <time>2022-08-19T06:29:07Z</time>
      </trkpt>
      <trkpt lat="43.17657" lon="5.77272">
        <ele>62.502644</ele>
        <time>2022-08-19T06:29:09Z</time>
      </trkpt>
      <trkpt lat="43.17642" lon="5.7726">
        <ele>62.316936</ele>
        <time>2022-08-19T06:29:11Z</time>
      </trkpt>
      <trkpt lat="43.17628" lon="5.77248">
        <ele>61.910725</ele>
        <time>2022-08-19T06:29:13Z</time>
      </trkpt>
      <trkpt lat="43.17616" lon="5.77241">
        <ele>61.465294</ele>
        <time>2022-08-19T06:29:15Z</time>
      </trkpt>
      <trkpt lat="43.17604" lon="5.77236">
        <ele>61.232758</ele>
        <time>2022-08-19T06:29:17Z</time>
      </trkpt>
      <trkpt lat="43.1759" lon="5.77234">
        <ele>60.760162</ele>
        <time>2022-08-19T06:29:19Z</time>
      </trkpt>
      <trkpt lat="43.17576" lon="5.77233">
        <ele>60.524006</ele>
        <time>2022-08-19T06:29:21Z</time>
      </trkpt>
      <trkpt lat="43.17561" lon="5.77228">
        <ele>60.056664</ele>
        <time>2022-08-19T06:29:23Z</time>
      </trkpt>
      <trkpt lat="43.17546" lon="5.77219">
        <ele>59.825397</ele>
        <time>2022-08-19T06:29:25Z</time>
      </trkpt>
      <trkpt lat="43.17534" lon="5.77206">
        <ele>59.366577</ele>
        <time>2022-08-19T06:29:27Z</time>
      </trkpt>
      <trkpt lat="43.17522" lon="5.77192">
        <ele>58.916046</ele>
        <time>2022-08-19T06:29:29Z</time>
      </trkpt>
      <trkpt lat="43.17511" lon="5.77176">
        <ele>58.695038</ele>
        <time>2022-08-19T06:29:31Z</time>
      </trkpt>
      <trkpt lat="43.17501" lon="5.77161">
        <ele>58.266582</ele>
        <time>2022-08-19T06:29:33Z</time>
      </trkpt>
      <trkpt lat="43.17491" lon="5.77146">
        <ele>58.060829</ele>
        <time>2022-08-19T06:29:35Z</time>
      </trkpt>
      <trkpt lat="43.17481" lon="5.7713">
        <ele>57.668774</ele>
        <time>2022-08-19T06:29:37Z</time>
      </trkpt>
      <trkpt lat="43.17472" lon="5.77118">
        <ele>57.303326</ele>
        <time>2022-08-19T06:29:39Z</time>
      </trkpt>
      <trkpt lat="43.17462" lon="5.77103">
        <ele>57.130199</ele>
        <time>2022-08-19T06:29:41Z</time>
      </trkpt>
      <trkpt lat="43.17452" lon="5.7709">
        <ele>56.803162</ele>
        <time>2022-08-19T06:29:43Z</time>
      </trkpt>
      <trkpt lat="43.17441" lon="5.77082">
        <ele>56.649712</ele>
        <time>2022-08-19T06:29:45Z</time>
      </trkpt>
      <trkpt lat="43.17428" lon="5.77075">
        <ele>56.36375</ele>
        <time>2022-08-19T06:29:47Z</time>
      </trkpt>
      <trkpt lat="43.17415" lon="5.77073">
        <ele>56.230743</ele>
        <time>2022-08-19T06:29:49Z</time>
      </trkpt>
      <trkpt lat="43.17402" lon="5.77072">
        <ele>55.981628</ele>
        <time>2022-08-19T06:29:51Z</time>
      </trkpt>
      <trkpt lat="43.17388" lon="5.77072">
        <ele>55.86377</ele>
        <time>2022-08-19T06:29:53Z</time>
      </trkpt>
      <trkpt lat="43.17375" lon="5.77071">
        <ele>55.639233</ele>
        <time>2022-08-19T06:29:55Z</time>
      </trkpt>
      <trkpt lat="43.17362" lon="5.7707">
        <ele>55.429924</ele>
        <time>2022-08-19T06:29:57Z</time>
      </trkpt>
      <trkpt lat="43.17349" lon="5.7707">
        <ele>55.331093</ele>
        <time>2022-08-19T06:29:59Z</time>
      </trkpt>
      <trkpt lat="43.17336" lon="5.77069">
        <ele>55.146065</ele>
        <time>2022-08-19T06:30:01Z</time>
      </trkpt>
      <trkpt lat="43.17323" lon="5.77069">
        <ele>55.062828</ele>
        <time>2022-08-19T06:30:03Z</time>
      </trkpt>
      <trkpt lat="43.1731" lon="5.77068">
        <ele>54.927837</ele>
        <time>2022-08-19T06:30:05Z</time>
      </trkpt>
      <trkpt lat="43.17297" lon="5.77068">
        <ele>54.880787</ele>
        <time>2022-08-19T06:30:07Z</time>
      </trkpt>
      <trkpt lat="43.17284" lon="5.77067">
        <ele>54.832752</ele>
        <time>2022-08-19T06:30:09Z</time>
      </trkpt>
      <trkpt lat="43.17271" lon="5.77066">
        <ele>54.847645</ele>
        <time>2022-08-19T06:30:11Z</time>
      </trkpt>
      <trkpt lat="43.17259" lon="5.77066">
        <ele>54.880482</ele>
        <time>2022-08-19T06:30:13Z</time>
      </trkpt>
      <trkpt lat="43.17246" lon="5.77065">
        <ele>55.004128</ele>
        <time>2022-08-19T06:30:15Z</time>
      </trkpt>
      <trkpt lat="43.17233" lon="5.77065">
        <ele>55.098888</ele>
        <time>2022-08-19T06:30:17Z</time>
      </trkpt>
      <trkpt lat="43.1722" lon="5.77064">
        <ele>55.360523</ele>
        <time>2022-08-19T06:30:19Z</time>
      </trkpt>
      <trkpt lat="43.17207" lon="5.77064">
        <ele>55.528759</ele>
        <time>2022-08-19T06:30:21Z</time>
      </trkpt>
      <trkpt lat="43.17194" lon="5.77067">
        <ele>55.714539</ele>
        <time>2022-08-19T06:30:23Z</time>
      </trkpt>
      <trkpt lat="43.17182" lon="5.77074">
        <ele>56.162853</ele>
        <time>2022-08-19T06:30:25Z</time>
      </trkpt>
      <trkpt lat="43.17169" lon="5.77084">
        <ele>56.706104</ele>
        <time>2022-08-19T06:30:27Z</time>
      </trkpt>
      <trkpt lat="43.17156" lon="5.77097">
        <ele>57.006287</ele>
        <time>2022-08-19T06:30:29Z</time>
      </trkpt>
      <trkpt lat="43.17141" lon="5.77108">
        <ele>57.643627</ele>
        <time>2022-08-19T06:30:31Z</time>
      </trkpt>
      <trkpt lat="43.17126" lon="5.77119">
        <ele>57.974693</ele>
        <time>2022-08-19T06:30:33Z</time>
      </trkpt>
      <trkpt lat="43.17109" lon="5.77129">
        <ele>58.648659</ele>
        <time>2022-08-19T06:30:35Z</time>
      </trkpt>
      <trkpt lat="43.17091" lon="5.77138">
        <ele>58.986561</ele>
        <time>2022-08-19T06:30:37Z</time>
      </trkpt>
      <trkpt lat="43.17073" lon="5.77145">
        <ele>59.655689</ele>
        <time>2022-08-19T06:30:39Z</time>
      </trkpt>
      <trkpt lat="43.17055" lon="5.77153">
        <ele>59.986034</ele>
        <time>2022-08-19T06:30:41Z</time>
      </trkpt>
      <trkpt lat="43.17036" lon="5.77158">
        <ele>60.637367</ele>
        <time>2022-08-19T06:30:43Z</time>
      </trkpt>
      <trkpt lat="43.17018" lon="5.77162">
        <ele>60.954262</ele>
        <time>2022-08-19T06:30:45Z</time>
      </trkpt>
      <trkpt lat="43.17" lon="5.77164">
        <ele>61.550892</ele>
        <time>2022-08-19T06:30:47Z</time>
      </trkpt>
      <trkpt lat="43.16982" lon="5.77165">
        <ele>62.071899</ele>
        <time>2022-08-19T06:30:49Z</time>
      </trkpt>
      <trkpt lat="43.16965" lon="5.77165">
        <ele>62.299706</ele>
        <time>2022-08-19T06:30:51Z</time>
      </trkpt>
      <trkpt lat="43.16948" lon="5.77164">
        <ele>62.685707</ele>
        <time>2022-08-19T06:30:53Z</time>
      </trkpt>
      <trkpt lat="43.16932" lon="5.77162">
        <ele>62.840538</ele>
        <time>2022-08-19T06:30:55Z</time>
      </trkpt>
      <trkpt lat="43.16917" lon="5.77159">
        <ele>63.060585</ele>
        <time>2022-08-19T06:30:57Z</time>
      </trkpt>
      <trkpt lat="43.16903" lon="5.77154">
        <ele>63.145172</ele>
        <time>2022-08-19T06:30:59Z</time>
      </trkpt>
      <trkpt lat="43.16888" lon="5.77145">
        <ele>63.134712</ele>
        <time>2022-08-19T06:31:01Z</time>
      </trkpt>
      <trkpt lat="43.16877" lon="5.77129">
        <ele>63.013203</ele>
        <time>2022-08-19T06:31:03Z</time>
      </trkpt>
      <trkpt lat="43.16869" lon="5.77108">
        <ele>62.905151</ele>
        <time>2022-08-19T06:31:05Z</time>
      </trkpt>
      <trkpt lat="43.16863" lon="5.77085">
        <ele>62.607231</ele>
        <time>2022-08-19T06:31:07Z</time>
      </trkpt>
      <trkpt lat="43.16859" lon="5.7706">
        <ele>62.423054</ele>
        <time>2022-08-19T06:31:09Z</time>
      </trkpt>
      <trkpt lat="43.16854" lon="5.77036">
        <ele>61.999847</ele>
        <time>2022-08-19T06:31:11Z</time>
      </trkpt>
      <trkpt lat="43.16847" lon="5.77013">
        <ele>61.518181</ele>
        <time>2022-08-19T06:31:13Z</time>
      </trkpt>
      <trkpt lat="43.16835" lon="5.76991">
        <ele>61.252449</ele>
        <time>2022-08-19T06:31:15Z</time>
      </trkpt>
      <trkpt lat="43.16821" lon="5.76971">
        <ele>60.649475</ele>
        <time>2022-08-19T06:31:17Z</time>
      </trkpt>
      <trkpt lat="43.16804" lon="5.76956">
        <ele>60.305206</ele>
        <time>2022-08-19T06:31:19Z</time>
      </trkpt>
      <trkpt lat="43.16787" lon="5.76942">
        <ele>59.520416</ele>
        <time>2022-08-19T06:31:21Z</time>
      </trkpt>
      <trkpt lat="43.1677" lon="5.76929">
        <ele>59.076923</ele>
        <time>2022-08-19T06:31:23Z</time>
      </trkpt>
      <trkpt lat="43.16753" lon="5.76918">
        <ele>58.091564</ele>
        <time>2022-08-19T06:31:25Z</time>
      </trkpt>
      <trkpt lat="43.16736" lon="5.76906">
        <ele>57.556816</ele>
        <time>2022-08-19T06:31:27Z</time>
      </trkpt>
      <trkpt lat="43.16716" lon="5.7689">
        <ele>56.427227</ele>
        <time>2022-08-19T06:31:29Z</time>
      </trkpt>
      <trkpt lat="43.16698" lon="5.76876">
        <ele>55.239838</ele>
        <time>2022-08-19T06:31:31Z</time>
      </trkpt>
      <trkpt lat="43.1668" lon="5.76862">
        <ele>54.632347</ele>
        <time>2022-08-19T06:31:33Z</time>
      </trkpt>
      <trkpt lat="43.16662" lon="5.76849">
        <ele>53.416504</ele>
        <time>2022-08-19T06:31:35Z</time>
      </trkpt>
      <trkpt lat="43.16641" lon="5.76838">
        <ele>52.822571</ele>
        <time>2022-08-19T06:31:37Z</time>
      </trkpt>
      <trkpt lat="43.16621" lon="5.76834">
        <ele>51.698578</ele>
        <time>2022-08-19T06:31:39Z</time>
      </trkpt>
      <trkpt lat="43.166" lon="5.76831">
        <ele>51.178375</ele>
        <time>2022-08-19T06:31:41Z</time>
      </trkpt>
      <trkpt lat="43.16579" lon="5.76825">
        <ele>50.23703</ele>
        <time>2022-08-19T06:31:43Z</time>
      </trkpt>
      <trkpt lat="43.16562" lon="5.76816">
        <ele>49.81995</ele>
        <time>2022-08-19T06:31:45Z</time>
      </trkpt>
      <trkpt lat="43.16546" lon="5.76803">
        <ele>49.101353</ele>
        <time>2022-08-19T06:31:47Z</time>
      </trkpt>
      <trkpt lat="43.16533" lon="5.76786">
        <ele>48.539253</ele>
        <time>2022-08-19T06:31:49Z</time>
      </trkpt>
      <trkpt lat="43.16523" lon="5.76769">
        <ele>48.312691</ele>
        <time>2022-08-19T06:31:51Z</time>
      </trkpt>
      <trkpt lat="43.16515" lon="5.7675">
        <ele>47.952354</ele>
        <time>2022-08-19T06:31:53Z</time>
      </trkpt>
      <trkpt lat="43.16507" lon="5.76734">
        <ele>47.813175</ele>
        <time>2022-08-19T06:31:55Z</time>
      </trkpt>
      <trkpt lat="43.16503" lon="5.76713">
        <ele>47.604179</ele>
        <time>2022-08-19T06:31:57Z</time>
      </trkpt>
      <trkpt lat="43.16499" lon="5.76683">
        <ele>47.526478</ele>
        <time>2022-08-19T06:31:59Z</time>
      </trkpt>
      <trkpt lat="43.16495" lon="5.76664">
        <ele>47.400093</ele>
        <time>2022-08-19T06:32:01Z</time>
      </trkpt>
      <trkpt lat="43.16488" lon="5.76646">
        <ele>47.343224</ele>
        <time>2022-08-19T06:32:03Z</time>
      </trkpt>
      <trkpt lat="43.16482" lon="5.76627">
        <ele>47.235554</ele>
        <time>2022-08-19T06:32:05Z</time>
      </trkpt>
      <trkpt lat="43.16476" lon="5.7661">
        <ele>47.140785</ele>
        <time>2022-08-19T06:32:07Z</time>
      </trkpt>
      <trkpt lat="43.16469" lon="5.76595">
        <ele>47.103466</ele>
        <time>2022-08-19T06:32:09Z</time>
      </trkpt>
      <trkpt lat="43.16462" lon="5.76578">
        <ele>47.07074</ele>
        <time>2022-08-19T06:32:11Z</time>
      </trkpt>
      <trkpt lat="43.16452" lon="5.76561">
        <ele>47.085178</ele>
        <time>2022-08-19T06:32:13Z</time>
      </trkpt>
      <trkpt lat="43.16441" lon="5.76543">
        <ele>47.190903</ele>
        <time>2022-08-19T06:32:15Z</time>
      </trkpt>
      <trkpt lat="43.16428" lon="5.76527">
        <ele>47.281059</ele>
        <time>2022-08-19T06:32:17Z</time>
      </trkpt>
      <trkpt lat="43.16414" lon="5.76512">
        <ele>47.517731</ele>
        <time>2022-08-19T06:32:19Z</time>
      </trkpt>
      <trkpt lat="43.164" lon="5.76498">
        <ele>47.795002</ele>
        <time>2022-08-19T06:32:21Z</time>
      </trkpt>
      <trkpt lat="43.16386" lon="5.76483">
        <ele>47.934414</ele>
        <time>2022-08-19T06:32:23Z</time>
      </trkpt>
      <trkpt lat="43.1637" lon="5.76467">
        <ele>48.197819</ele>
        <time>2022-08-19T06:32:25Z</time>
      </trkpt>
      <trkpt lat="43.16354" lon="5.76454">
        <ele>48.305519</ele>
        <time>2022-08-19T06:32:27Z</time>
      </trkpt>
      <trkpt lat="43.16335" lon="5.76442">
        <ele>48.457279</ele>
        <time>2022-08-19T06:32:29Z</time>
      </trkpt>
      <trkpt lat="43.16315" lon="5.76436">
        <ele>48.506432</ele>
        <time>2022-08-19T06:32:31Z</time>
      </trkpt>
      <trkpt lat="43.16296" lon="5.76433">
        <ele>48.483158</ele>
        <time>2022-08-19T06:32:33Z</time>
      </trkpt>
      <trkpt lat="43.16277" lon="5.76429">
        <ele>48.319622</ele>
        <time>2022-08-19T06:32:35Z</time>
      </trkpt>
      <trkpt lat="43.16258" lon="5.76426">
        <ele>48.172127</ele>
        <time>2022-08-19T06:32:37Z</time>
      </trkpt>
      <trkpt lat="43.16239" lon="5.76423">
        <ele>47.739986</ele>
        <time>2022-08-19T06:32:39Z</time>
      </trkpt>
      <trkpt lat="43.1622" lon="5.76419">
        <ele>47.458271</ele>
        <time>2022-08-19T06:32:41Z</time>
      </trkpt>
      <trkpt lat="43.16201" lon="5.76414">
        <ele>46.796864</ele>
        <time>2022-08-19T06:32:43Z</time>
      </trkpt>
      <trkpt lat="43.16183" lon="5.76409">
        <ele>46.436535</ele>
        <time>2022-08-19T06:32:45Z</time>
      </trkpt>
      <trkpt lat="43.16165" lon="5.76403">
        <ele>45.704071</ele>
        <time>2022-08-19T06:32:47Z</time>
      </trkpt>
      <trkpt lat="43.16147" lon="5.76397">
        <ele>45.345909</ele>
        <time>2022-08-19T06:32:49Z</time>
      </trkpt>
      <trkpt lat="43.16129" lon="5.76391">
        <ele>44.676964</ele>
        <time>2022-08-19T06:32:51Z</time>
      </trkpt>
      <trkpt lat="43.16111" lon="5.76383">
        <ele>44.377399</ele>
        <time>2022-08-19T06:32:53Z</time>
      </trkpt>
      <trkpt lat="43.16093" lon="5.76375">
        <ele>43.869637</ele>
        <time>2022-08-19T06:32:55Z</time>
      </trkpt>
      <trkpt lat="43.16076" lon="5.76369">
        <ele>43.504963</ele>
        <time>2022-08-19T06:32:57Z</time>
      </trkpt>
      <trkpt lat="43.16058" lon="5.76364">
        <ele>43.383003</ele>
        <time>2022-08-19T06:32:59Z</time>
      </trkpt>
      <trkpt lat="43.1604" lon="5.76361">
        <ele>43.267475</ele>
        <time>2022-08-19T06:33:01Z</time>
      </trkpt>
      <trkpt lat="43.16022" lon="5.76362">
        <ele>43.274372</ele>
        <time>2022-08-19T06:33:03Z</time>
      </trkpt>
      <trkpt lat="43.16004" lon="5.76367">
        <ele>43.410828</ele>
        <time>2022-08-19T06:33:05Z</time>
      </trkpt>
      <trkpt lat="43.15987" lon="5.76374">
        <ele>43.532887</ele>
        <time>2022-08-19T06:33:07Z</time>
      </trkpt>
      <trkpt lat="43.15971" lon="5.76385">
        <ele>43.858582</ele>
        <time>2022-08-19T06:33:09Z</time>
      </trkpt>
      <trkpt lat="43.15956" lon="5.76397">
        <ele>44.051979</ele>
        <time>2022-08-19T06:33:11Z</time>
      </trkpt>
      <trkpt lat="43.15944" lon="5.76411">
        <ele>44.482258</ele>
        <time>2022-08-19T06:33:13Z</time>
      </trkpt>
      <trkpt lat="43.15933" lon="5.7643">
        <ele>44.710945</ele>
        <time>2022-08-19T06:33:15Z</time>
      </trkpt>
      <trkpt lat="43.15923" lon="5.7645">
        <ele>45.155346</ele>
        <time>2022-08-19T06:33:17Z</time>
      </trkpt>
      <trkpt lat="43.15915" lon="5.76467">
        <ele>45.55843</ele>
        <time>2022-08-19T06:33:19Z</time>
      </trkpt>
      <trkpt lat="43.15906" lon="5.76484">
        <ele>45.73333</ele>
        <time>2022-08-19T06:33:21Z</time>
      </trkpt>
      <trkpt lat="43.15893" lon="5.76499">
        <ele>46.024681</ele>
        <time>2022-08-19T06:33:23Z</time>
      </trkpt>
      <trkpt lat="43.15876" lon="5.76504">
        <ele>46.146751</ele>
        <time>2022-08-19T06:33:25Z</time>
      </trkpt>
      <trkpt lat="43.15856" lon="5.76505">
        <ele>46.364368</ele>
        <time>2022-08-19T06:33:27Z</time>
      </trkpt>
      <trkpt lat="43.15835" lon="5.76505">
        <ele>46.582798</ele>
        <time>2022-08-19T06:33:29Z</time>
      </trkpt>
      <trkpt lat="43.15814" lon="5.765">
        <ele>46.705921</ele>
        <time>2022-08-19T06:33:31Z</time>
      </trkpt>
      <trkpt lat="43.15794" lon="5.76491">
        <ele>46.997307</ele>
        <time>2022-08-19T06:33:33Z</time>
      </trkpt>
      <trkpt lat="43.15774" lon="5.76479">
        <ele>47.161877</ele>
        <time>2022-08-19T06:33:35Z</time>
      </trkpt>
      <trkpt lat="43.15754" lon="5.76468">
        <ele>47.498528</ele>
        <time>2022-08-19T06:33:37Z</time>
      </trkpt>
      <trkpt lat="43.15735" lon="5.76453">
        <ele>47.654072</ele>
        <time>2022-08-19T06:33:39Z</time>
      </trkpt>
      <trkpt lat="43.15717" lon="5.76437">
        <ele>47.905506</ele>
        <time>2022-08-19T06:33:41Z</time>
      </trkpt>
      <trkpt lat="43.15698" lon="5.76426">
        <ele>47.98761</ele>
        <time>2022-08-19T06:33:43Z</time>
      </trkpt>
      <trkpt lat="43.15679" lon="5.76419">
        <ele>48.035316</ele>
        <time>2022-08-19T06:33:45Z</time>
      </trkpt>
      <trkpt lat="43.15659" lon="5.76418">
        <ele>47.898048</ele>
        <time>2022-08-19T06:33:47Z</time>
      </trkpt>
      <trkpt lat="43.1564" lon="5.76417">
        <ele>47.752106</ele>
        <time>2022-08-19T06:33:49Z</time>
      </trkpt>
      <trkpt lat="43.15621" lon="5.76416">
        <ele>47.291801</ele>
        <time>2022-08-19T06:33:51Z</time>
      </trkpt>
      <trkpt lat="43.15602" lon="5.76412">
        <ele>46.973839</ele>
        <time>2022-08-19T06:33:53Z</time>
      </trkpt>
      <trkpt lat="43.15584" lon="5.76407">
        <ele>46.161003</ele>
        <time>2022-08-19T06:33:55Z</time>
      </trkpt>
      <trkpt lat="43.15566" lon="5.76402">
        <ele>45.671761</ele>
        <time>2022-08-19T06:33:57Z</time>
      </trkpt>
      <trkpt lat="43.15547" lon="5.76399">
        <ele>44.557854</ele>
        <time>2022-08-19T06:33:59Z</time>
      </trkpt>
      <trkpt lat="43.15529" lon="5.76395">
        <ele>43.948326</ele>
        <time>2022-08-19T06:34:01Z</time>
      </trkpt>
      <trkpt lat="43.15512" lon="5.76391">
        <ele>42.657696</ele>
        <time>2022-08-19T06:34:03Z</time>
      </trkpt>
      <trkpt lat="43.15494" lon="5.76388">
        <ele>41.990215</ele>
        <time>2022-08-19T06:34:05Z</time>
      </trkpt>
      <trkpt lat="43.15476" lon="5.76384">
        <ele>40.65345</ele>
        <time>2022-08-19T06:34:07Z</time>
      </trkpt>
      <trkpt lat="43.15458" lon="5.7638">
        <ele>39.375164</ele>
        <time>2022-08-19T06:34:09Z</time>
      </trkpt>
      <trkpt lat="43.1544" lon="5.76376">
        <ele>38.777832</ele>
        <time>2022-08-19T06:34:11Z</time>
      </trkpt>
      <trkpt lat="43.1542" lon="5.76371">
        <ele>37.692223</ele>
        <time>2022-08-19T06:34:13Z</time>
      </trkpt>
      <trkpt lat="43.15399" lon="5.76367">
        <ele>37.209339</ele>
        <time>2022-08-19T06:34:15Z</time>
      </trkpt>
      <trkpt lat="43.15378" lon="5.76364">
        <ele>36.373329</ele>
        <time>2022-08-19T06:34:17Z</time>
      </trkpt>
      <trkpt lat="43.1536" lon="5.76363">
        <ele>36.024261</ele>
        <time>2022-08-19T06:34:19Z</time>
      </trkpt>
      <trkpt lat="43.15342" lon="5.76359">
        <ele>35.46032</ele>
        <time>2022-08-19T06:34:21Z</time>
      </trkpt>
      <trkpt lat="43.15324" lon="5.76354">
        <ele>35.237877</ele>
        <time>2022-08-19T06:34:23Z</time>
      </trkpt>
      <trkpt lat="43.15305" lon="5.7635">
        <ele>34.89312</ele>
        <time>2022-08-19T06:34:25Z</time>
      </trkpt>
      <trkpt lat="43.15286" lon="5.76352">
        <ele>34.668324</ele>
        <time>2022-08-19T06:34:27Z</time>
      </trkpt>
      <trkpt lat="43.15266" lon="5.76358">
        <ele>34.597603</ele>
        <time>2022-08-19T06:34:29Z</time>
      </trkpt>
      <trkpt lat="43.15246" lon="5.76366">
        <ele>34.530205</ele>
        <time>2022-08-19T06:34:31Z</time>
      </trkpt>
      <trkpt lat="43.15226" lon="5.76376">
        <ele>34.529034</ele>
        <time>2022-08-19T06:34:33Z</time>
      </trkpt>
      <trkpt lat="43.15207" lon="5.7639">
        <ele>34.580761</ele>
        <time>2022-08-19T06:34:35Z</time>
      </trkpt>
      <trkpt lat="43.15188" lon="5.76407">
        <ele>34.627441</ele>
        <time>2022-08-19T06:34:37Z</time>
      </trkpt>
      <trkpt lat="43.1517" lon="5.76425">
        <ele>34.743156</ele>
        <time>2022-08-19T06:34:39Z</time>
      </trkpt>
      <trkpt lat="43.15151" lon="5.76441">
        <ele>34.847595</ele>
        <time>2022-08-19T06:34:41Z</time>
      </trkpt>
      <trkpt lat="43.15132" lon="5.76455">
        <ele>34.880718</ele>
        <time>2022-08-19T06:34:43Z</time>
      </trkpt>
      <trkpt lat="43.15112" lon="5.76466">
        <ele>34.888344</ele>
        <time>2022-08-19T06:34:45Z</time>
      </trkpt>
      <trkpt lat="43.1509" lon="5.76474">
        <ele>34.857368</ele>
        <time>2022-08-19T06:34:47Z</time>
      </trkpt>
      <trkpt lat="43.15068" lon="5.76481">
        <ele>34.717628</ele>
        <time>2022-08-19T06:34:49Z</time>
      </trkpt>
      <trkpt lat="43.15046" lon="5.76485">
        <ele>34.609901</ele>
        <time>2022-08-19T06:34:51Z</time>
      </trkpt>
      <trkpt lat="43.15025" lon="5.76481">
        <ele>34.330498</ele>
        <time>2022-08-19T06:34:53Z</time>
      </trkpt>
      <trkpt lat="43.15004" lon="5.76474">
        <ele>34.16507</ele>
        <time>2022-08-19T06:34:55Z</time>
      </trkpt>
      <trkpt lat="43.14985" lon="5.76468">
        <ele>33.795361</ele>
        <time>2022-08-19T06:34:57Z</time>
      </trkpt>
      <trkpt lat="43.14967" lon="5.7646">
        <ele>33.383007</ele>
        <time>2022-08-19T06:34:59Z</time>
      </trkpt>
      <trkpt lat="43.14955" lon="5.76443">
        <ele>33.162983</ele>
        <time>2022-08-19T06:35:01Z</time>
      </trkpt>
      <trkpt lat="43.14952" lon="5.7642">
        <ele>32.69825</ele>
        <time>2022-08-19T06:35:03Z</time>
      </trkpt>
      <trkpt lat="43.14952" lon="5.76397">
        <ele>32.457115</ele>
        <time>2022-08-19T06:35:05Z</time>
      </trkpt>
      <trkpt lat="43.14945" lon="5.76377">
        <ele>31.970978</ele>
        <time>2022-08-19T06:35:07Z</time>
      </trkpt>
      <trkpt lat="43.1493" lon="5.76365">
        <ele>31.73106</ele>
        <time>2022-08-19T06:35:09Z</time>
      </trkpt>
      <trkpt lat="43.14915" lon="5.76367">
        <ele>31.269878</ele>
        <time>2022-08-19T06:35:11Z</time>
      </trkpt>
      <trkpt lat="43.14903" lon="5.76381">
        <ele>31.052921</ele>
        <time>2022-08-19T06:35:13Z</time>
      </trkpt>
      <trkpt lat="43.14896" lon="5.76402">
        <ele>30.646927</ele>
        <time>2022-08-19T06:35:15Z</time>
      </trkpt>
      <trkpt lat="43.14892" lon="5.76426">
        <ele>30.234131</ele>
        <time>2022-08-19T06:35:17Z</time>
      </trkpt>
      <trkpt lat="43.1488" lon="5.76445">
        <ele>30.002232</ele>
        <time>2022-08-19T06:35:19Z</time>
      </trkpt>
      <trkpt lat="43.14862" lon="5.76452">
        <ele>29.442999</ele>
        <time>2022-08-19T06:35:21Z</time>
      </trkpt>
      <trkpt lat="43.14843" lon="5.76453">
        <ele>29.108109</ele>
        <time>2022-08-19T06:35:23Z</time>
      </trkpt>
      <trkpt lat="43.14823" lon="5.76454">
        <ele>28.359076</ele>
        <time>2022-08-19T06:35:25Z</time>
      </trkpt>
      <trkpt lat="43.14803" lon="5.76457">
        <ele>27.971531</ele>
        <time>2022-08-19T06:35:27Z</time>
      </trkpt>
      <trkpt lat="43.14783" lon="5.76462">
        <ele>27.237324</ele>
        <time>2022-08-19T06:35:29Z</time>
      </trkpt>
      <trkpt lat="43.14764" lon="5.76471">
        <ele>26.912699</ele>
        <time>2022-08-19T06:35:31Z</time>
      </trkpt>
      <trkpt lat="43.14746" lon="5.76482">
        <ele>26.404449</ele>
        <time>2022-08-19T06:35:33Z</time>
      </trkpt>
      <trkpt lat="43.14728" lon="5.76493">
        <ele>26.23904</ele>
        <time>2022-08-19T06:35:35Z</time>
      </trkpt>
      <trkpt lat="43.14711" lon="5.76504">
        <ele>26.112926</ele>
        <time>2022-08-19T06:35:37Z</time>
      </trkpt>
      <trkpt lat="43.14694" lon="5.76515">
        <ele>26.27055</ele>
        <time>2022-08-19T06:35:39Z</time>
      </trkpt>
      <trkpt lat="43.14677" lon="5.76526">
        <ele>26.45463</ele>
        <time>2022-08-19T06:35:41Z</time>
      </trkpt>
      <trkpt lat="43.14661" lon="5.76539">
        <ele>27.01498</ele>
        <time>2022-08-19T06:35:43Z</time>
      </trkpt>
      <trkpt lat="43.14647" lon="5.76552">
        <ele>27.792532</ele>
        <time>2022-08-19T06:35:45Z</time>
      </trkpt>
      <trkpt lat="43.14632" lon="5.76568">
        <ele>28.244781</ele>
        <time>2022-08-19T06:35:47Z</time>
      </trkpt>
      <trkpt lat="43.14621" lon="5.76586">
        <ele>29.242706</ele>
        <time>2022-08-19T06:35:49Z</time>
      </trkpt>
      <trkpt lat="43.1461" lon="5.76606">
        <ele>29.776815</ele>
        <time>2022-08-19T06:35:51Z</time>
      </trkpt>
      <trkpt lat="43.14603" lon="5.76629">
        <ele>30.881552</ele>
        <time>2022-08-19T06:35:53Z</time>
      </trkpt>
      <trkpt lat="43.14597" lon="5.76653">
        <ele>31.434483</ele>
        <time>2022-08-19T06:35:55Z</time>
      </trkpt>
      <trkpt lat="43.14591" lon="5.76677">
        <ele>32.486809</ele>
        <time>2022-08-19T06:35:57Z</time>
      </trkpt>
      <trkpt lat="43.14584" lon="5.76701">
        <ele>32.96212</ele>
        <time>2022-08-19T06:35:59Z</time>
      </trkpt>
      <trkpt lat="43.14575" lon="5.76725">
        <ele>33.750919</ele>
        <time>2022-08-19T06:36:01Z</time>
      </trkpt>
      <trkpt lat="43.14563" lon="5.76746">
        <ele>34.25898</ele>
        <time>2022-08-19T06:36:03Z</time>
      </trkpt>
      <trkpt lat="43.14548" lon="5.76763">
        <ele>34.394611</ele>
        <time>2022-08-19T06:36:05Z</time>
      </trkpt>
      <trkpt lat="43.1453" lon="5.76774">
        <ele>34.445812</ele>
        <time>2022-08-19T06:36:07Z</time>
      </trkpt>
      <trkpt lat="43.1451" lon="5.7678">
        <ele>34.381466</ele>
        <time>2022-08-19T06:36:09Z</time>
      </trkpt>
      <trkpt lat="43.1449" lon="5.7678">
        <ele>34.135105</ele>
        <time>2022-08-19T06:36:11Z</time>
      </trkpt>
      <trkpt lat="43.1447" lon="5.76776">
        <ele>33.983864</ele>
        <time>2022-08-19T06:36:13Z</time>
      </trkpt>
      <trkpt lat="43.14449" lon="5.76772">
        <ele>33.681938</ele>
        <time>2022-08-19T06:36:15Z</time>
      </trkpt>
      <trkpt lat="43.1443" lon="5.76769">
        <ele>33.384438</ele>
        <time>2022-08-19T06:36:17Z</time>
      </trkpt>
      <trkpt lat="43.1441" lon="5.76767">
        <ele>33.220181</ele>
        <time>2022-08-19T06:36:19Z</time>
      </trkpt>
      <trkpt lat="43.1439" lon="5.76767">
        <ele>32.821739</ele>
        <time>2022-08-19T06:36:21Z</time>
      </trkpt>
      <trkpt lat="43.1437" lon="5.76766">
        <ele>32.57645</ele>
        <time>2022-08-19T06:36:23Z</time>
      </trkpt>
      <trkpt lat="43.14349" lon="5.76767">
        <ele>31.982168</ele>
        <time>2022-08-19T06:36:25Z</time>
      </trkpt>
      <trkpt lat="43.14329" lon="5.76769">
        <ele>31.634546</ele>
        <time>2022-08-19T06:36:27Z</time>
      </trkpt>
      <trkpt lat="43.14309" lon="5.76773">
        <ele>30.852783</ele>
        <time>2022-08-19T06:36:29Z</time>
      </trkpt>
      <trkpt lat="43.1429" lon="5.7678">
        <ele>30.430058</ele>
        <time>2022-08-19T06:36:31Z</time>
      </trkpt>
      <trkpt lat="43.14272" lon="5.76792">
        <ele>29.573689</ele>
        <time>2022-08-19T06:36:33Z</time>
      </trkpt>
      <trkpt lat="43.14253" lon="5.76801">
        <ele>28.784229</ele>
        <time>2022-08-19T06:36:35Z</time>
      </trkpt>
      <trkpt lat="43.14234" lon="5.76803">
        <ele>28.438822</ele>
        <time>2022-08-19T06:36:37Z</time>
      </trkpt>
      <trkpt lat="43.14217" lon="5.76813">
        <ele>27.876501</ele>
        <time>2022-08-19T06:36:39Z</time>
      </trkpt>
      <trkpt lat="43.14208" lon="5.76832">
        <ele>27.665857</ele>
        <time>2022-08-19T06:36:41Z</time>
      </trkpt>
      <trkpt lat="43.14207" lon="5.76856">
        <ele>27.384466</ele>
        <time>2022-08-19T06:36:43Z</time>
      </trkpt>
      <trkpt lat="43.14207" lon="5.76879">
        <ele>27.305216</ele>
        <time>2022-08-19T06:36:45Z</time>
      </trkpt>
      <trkpt lat="43.14201" lon="5.769">
        <ele>27.252079</ele>
        <time>2022-08-19T06:36:47Z</time>
      </trkpt>
      <trkpt lat="43.14194" lon="5.76921">
        <ele>27.316351</ele>
        <time>2022-08-19T06:36:49Z</time>
      </trkpt>
      <trkpt lat="43.14186" lon="5.76943">
        <ele>27.388758</ele>
        <time>2022-08-19T06:36:51Z</time>
      </trkpt>
      <trkpt lat="43.14179" lon="5.76965">
        <ele>27.489923</ele>
        <time>2022-08-19T06:36:53Z</time>
      </trkpt>
      <trkpt lat="43.1417" lon="5.76988">
        <ele>27.777781</ele>
        <time>2022-08-19T06:36:55Z</time>
      </trkpt>
      <trkpt lat="43.14161" lon="5.7701">
        <ele>28.147593</ele>
        <time>2022-08-19T06:36:57Z</time>
      </trkpt>
      <trkpt lat="43.14152" lon="5.77032">
        <ele>28.346455</ele>
        <time>2022-08-19T06:36:59Z</time>
      </trkpt>
      <trkpt lat="43.14143" lon="5.77053">
        <ele>28.748667</ele>
        <time>2022-08-19T06:37:01Z</time>
      </trkpt>
      <trkpt lat="43.14135" lon="5.77073">
        <ele>28.946026</ele>
        <time>2022-08-19T06:37:03Z</time>
      </trkpt>
      <trkpt lat="43.14125" lon="5.77093">
        <ele>29.309702</ele>
        <time>2022-08-19T06:37:05Z</time>
      </trkpt>
      <trkpt lat="43.14115" lon="5.77112">
        <ele>29.464453</ele>
        <time>2022-08-19T06:37:07Z</time>
      </trkpt>
      <trkpt lat="43.14101" lon="5.77127">
        <ele>29.703289</ele>
        <time>2022-08-19T06:37:09Z</time>
      </trkpt>
      <trkpt lat="43.14085" lon="5.77137">
        <ele>29.854298</ele>
        <time>2022-08-19T06:37:11Z</time>
      </trkpt>
      <trkpt lat="43.14066" lon="5.77137">
        <ele>29.903503</ele>
        <time>2022-08-19T06:37:13Z</time>
      </trkpt>
      <trkpt lat="43.14048" lon="5.77132">
        <ele>29.955349</ele>
        <time>2022-08-19T06:37:15Z</time>
      </trkpt>
      <trkpt lat="43.14034" lon="5.77118">
        <ele>29.957378</ele>
        <time>2022-08-19T06:37:17Z</time>
      </trkpt>
      <trkpt lat="43.14021" lon="5.77103">
        <ele>29.907995</ele>
        <time>2022-08-19T06:37:19Z</time>
      </trkpt>
      <trkpt lat="43.1401" lon="5.77086">
        <ele>29.853888</ele>
        <time>2022-08-19T06:37:21Z</time>
      </trkpt>
      <trkpt lat="43.14" lon="5.77067">
        <ele>29.661739</ele>
        <time>2022-08-19T06:37:23Z</time>
      </trkpt>
      <trkpt lat="43.1399" lon="5.77048">
        <ele>29.29546</ele>
        <time>2022-08-19T06:37:25Z</time>
      </trkpt>
      <trkpt lat="43.13982" lon="5.7703">
        <ele>29.025385</ele>
        <time>2022-08-19T06:37:27Z</time>
      </trkpt>
      <trkpt lat="43.13975" lon="5.77011">
        <ele>28.291864</ele>
        <time>2022-08-19T06:37:29Z</time>
      </trkpt>
      <trkpt lat="43.13969" lon="5.76992">
        <ele>27.826618</ele>
        <time>2022-08-19T06:37:31Z</time>
      </trkpt>
      <trkpt lat="43.13962" lon="5.76976">
        <ele>26.707321</ele>
        <time>2022-08-19T06:37:33Z</time>
      </trkpt>
      <trkpt lat="43.13953" lon="5.76965">
        <ele>26.065619</ele>
        <time>2022-08-19T06:37:35Z</time>
      </trkpt>
      <trkpt lat="43.13946" lon="5.76964">
        <ele>24.670444</ele>
        <time>2022-08-19T06:37:37Z</time>
      </trkpt>
      <trkpt lat="43.13939" lon="5.76972">
        <ele>23.195349</ele>
        <time>2022-08-19T06:37:39Z</time>
      </trkpt>
      <trkpt lat="43.13933" lon="5.76986">
        <ele>22.453699</ele>
        <time>2022-08-19T06:37:41Z</time>
      </trkpt>
      <trkpt lat="43.13929" lon="5.77002">
        <ele>20.993692</ele>
        <time>2022-08-19T06:37:43Z</time>
      </trkpt>
      <trkpt lat="43.13924" lon="5.77019">
        <ele>20.283617</ele>
        <time>2022-08-19T06:37:45Z</time>
      </trkpt>
      <trkpt lat="43.13921" lon="5.77036">
        <ele>18.931377</ele>
        <time>2022-08-19T06:37:47Z</time>
      </trkpt>
      <trkpt lat="43.13917" lon="5.77053">
        <ele>18.30146</ele>
        <time>2022-08-19T06:37:49Z</time>
      </trkpt>
      <trkpt lat="43.13913" lon="5.77071">
        <ele>17.15037</ele>
        <time>2022-08-19T06:37:51Z</time>
      </trkpt>
      <trkpt lat="43.13909" lon="5.7709">
        <ele>16.627569</ele>
        <time>2022-08-19T06:37:53Z</time>
      </trkpt>
      <trkpt lat="43.13905" lon="5.7711">
        <ele>15.673963</ele>
        <time>2022-08-19T06:37:55Z</time>
      </trkpt>
      <trkpt lat="43.13899" lon="5.7713">
        <ele>14.817541</ele>
        <time>2022-08-19T06:37:57Z</time>
      </trkpt>
      <trkpt lat="43.13894" lon="5.7715">
        <ele>14.414948</ele>
        <time>2022-08-19T06:37:59Z</time>
      </trkpt>
      <trkpt lat="43.13889" lon="5.77171">
        <ele>13.640924</ele>
        <time>2022-08-19T06:38:01Z</time>
      </trkpt>
      <trkpt lat="43.13884" lon="5.77191">
        <ele>13.263756</ele>
        <time>2022-08-19T06:38:03Z</time>
      </trkpt>
      <trkpt lat="43.13878" lon="5.77211">
        <ele>12.521626</ele>
        <time>2022-08-19T06:38:05Z</time>
      </trkpt>
      <trkpt lat="43.13872" lon="5.7723">
        <ele>11.79324</ele>
        <time>2022-08-19T06:38:07Z</time>
      </trkpt>
      <trkpt lat="43.13866" lon="5.77249">
        <ele>11.434338</ele>
        <time>2022-08-19T06:38:09Z</time>
      </trkpt>
      <trkpt lat="43.13862" lon="5.77268">
        <ele>10.729096</ele>
        <time>2022-08-19T06:38:11Z</time>
      </trkpt>
      <trkpt lat="43.13857" lon="5.77287">
        <ele>10.383513</ele>
        <time>2022-08-19T06:38:13Z</time>
      </trkpt>
      <trkpt lat="43.13852" lon="5.77304">
        <ele>9.710102</ele>
        <time>2022-08-19T06:38:15Z</time>
      </trkpt>
      <trkpt lat="43.13846" lon="5.77322">
        <ele>9.384106</ele>
        <time>2022-08-19T06:38:17Z</time>
      </trkpt>
      <trkpt lat="43.1384" lon="5.77341">
        <ele>8.759484</ele>
        <time>2022-08-19T06:38:19Z</time>
      </trkpt>
      <trkpt lat="43.13834" lon="5.77359">
        <ele>8.18122</ele>
        <time>2022-08-19T06:38:21Z</time>
      </trkpt>
      <trkpt lat="43.13828" lon="5.77376">
        <ele>7.913822</ele>
        <time>2022-08-19T06:38:23Z</time>
      </trkpt>
      <trkpt lat="43.13821" lon="5.77394">
        <ele>7.430538</ele>
        <time>2022-08-19T06:38:25Z</time>
      </trkpt>
      <trkpt lat="43.13814" lon="5.77411">
        <ele>7.216406</ele>
        <time>2022-08-19T06:38:27Z</time>
      </trkpt>
      <trkpt lat="43.13807" lon="5.77428">
        <ele>6.846457</ele>
        <time>2022-08-19T06:38:29Z</time>
      </trkpt>
      <trkpt lat="43.138" lon="5.77446">
        <ele>6.692413</ele>
        <time>2022-08-19T06:38:31Z</time>
      </trkpt>
      <trkpt lat="43.13792" lon="5.77463">
        <ele>6.450231</ele>
        <time>2022-08-19T06:38:33Z</time>
      </trkpt>
      <trkpt lat="43.13785" lon="5.77481">
        <ele>6.362799</ele>
        <time>2022-08-19T06:38:35Z</time>
      </trkpt>
      <trkpt lat="43.13777" lon="5.77498">
        <ele>6.253904</ele>
        <time>2022-08-19T06:38:37Z</time>
      </trkpt>
      <trkpt lat="43.1377" lon="5.77515">
        <ele>6.229771</ele>
        <time>2022-08-19T06:38:39Z</time>
      </trkpt>
      <trkpt lat="43.13762" lon="5.77531">
        <ele>6.248225</ele>
        <time>2022-08-19T06:38:41Z</time>
      </trkpt>
      <trkpt lat="43.13754" lon="5.77548">
        <ele>6.343556</ele>
        <time>2022-08-19T06:38:43Z</time>
      </trkpt>
      <trkpt lat="43.13746" lon="5.77563">
        <ele>6.419935</ele>
        <time>2022-08-19T06:38:45Z</time>
      </trkpt>
      <trkpt lat="43.13738" lon="5.77579">
        <ele>6.631971</ele>
        <time>2022-08-19T06:38:47Z</time>
      </trkpt>
      <trkpt lat="43.13729" lon="5.77593">
        <ele>6.927484</ele>
        <time>2022-08-19T06:38:49Z</time>
      </trkpt>
      <trkpt lat="43.1372" lon="5.77607">
        <ele>7.107484</ele>
        <time>2022-08-19T06:38:51Z</time>
      </trkpt>
      <trkpt lat="43.13711" lon="5.77621">
        <ele>7.530738</ele>
        <time>2022-08-19T06:38:53Z</time>
      </trkpt>
      <trkpt lat="43.13703" lon="5.77634">
        <ele>7.772525</ele>
        <time>2022-08-19T06:38:55Z</time>
      </trkpt>
      <trkpt lat="43.13694" lon="5.77646">
        <ele>8.311411</ele>
        <time>2022-08-19T06:38:57Z</time>
      </trkpt>
      <trkpt lat="43.13686" lon="5.77658">
        <ele>8.60555</ele>
        <time>2022-08-19T06:38:59Z</time>
      </trkpt>
      <trkpt lat="43.13678" lon="5.77671">
        <ele>9.235974</ele>
        <time>2022-08-19T06:39:01Z</time>
      </trkpt>
      <trkpt lat="43.13669" lon="5.77683">
        <ele>9.569113</ele>
        <time>2022-08-19T06:39:03Z</time>
      </trkpt>
      <trkpt lat="43.1366" lon="5.77696">
        <ele>10.263158</ele>
        <time>2022-08-19T06:39:05Z</time>
      </trkpt>
      <trkpt lat="43.13651" lon="5.77709">
        <ele>10.977618</ele>
        <time>2022-08-19T06:39:07Z</time>
      </trkpt>
      <trkpt lat="43.13642" lon="5.77721">
        <ele>11.335218</ele>
        <time>2022-08-19T06:39:09Z</time>
      </trkpt>
      <trkpt lat="43.13633" lon="5.77734">
        <ele>12.037068</ele>
        <time>2022-08-19T06:39:11Z</time>
      </trkpt>
      <trkpt lat="43.13623" lon="5.77747">
        <ele>12.376204</ele>
        <time>2022-08-19T06:39:13Z</time>
      </trkpt>
      <trkpt lat="43.13613" lon="5.77759">
        <ele>13.019381</ele>
        <time>2022-08-19T06:39:15Z</time>
      </trkpt>
      <trkpt lat="43.13602" lon="5.77772">
        <ele>13.319313</ele>
        <time>2022-08-19T06:39:17Z</time>
      </trkpt>
      <trkpt lat="43.13592" lon="5.77784">
        <ele>13.868498</ele>
        <time>2022-08-19T06:39:19Z</time>
      </trkpt>
      <trkpt lat="43.13581" lon="5.77798">
        <ele>14.114677</ele>
        <time>2022-08-19T06:39:21Z</time>
      </trkpt>
      <trkpt lat="43.1357" lon="5.77813">
        <ele>14.538561</ele>
        <time>2022-08-19T06:39:23Z</time>
      </trkpt>
      <trkpt lat="43.13561" lon="5.77829">
        <ele>14.854411</ele>
        <time>2022-08-19T06:39:25Z</time>
      </trkpt>
      <trkpt lat="43.13551" lon="5.77845">
        <ele>14.968065</ele>
        <time>2022-08-19T06:39:27Z</time>
      </trkpt>
      <trkpt lat="43.1354" lon="5.7786">
        <ele>15.109218</ele>
        <time>2022-08-19T06:39:29Z</time>
      </trkpt>
      <trkpt lat="43.13528" lon="5.77875">
        <ele>15.140508</ele>
        <time>2022-08-19T06:39:31Z</time>
      </trkpt>
      <trkpt lat="43.13515" lon="5.77889">
        <ele>15.132962</ele>
        <time>2022-08-19T06:39:33Z</time>
      </trkpt>
      <trkpt lat="43.13503" lon="5.77901">
        <ele>15.096102</ele>
        <time>2022-08-19T06:39:35Z</time>
      </trkpt>
      <trkpt lat="43.1349" lon="5.77912">
        <ele>14.966803</ele>
        <time>2022-08-19T06:39:37Z</time>
      </trkpt>
      <trkpt lat="43.13477" lon="5.77922">
        <ele>14.792505</ele>
        <time>2022-08-19T06:39:39Z</time>
      </trkpt>
      <trkpt lat="43.13465" lon="5.77932">
        <ele>14.700546</ele>
        <time>2022-08-19T06:39:41Z</time>
      </trkpt>
      <trkpt lat="43.13453" lon="5.77942">
        <ele>14.521851</ele>
        <time>2022-08-19T06:39:43Z</time>
      </trkpt>
      <trkpt lat="43.1344" lon="5.77952">
        <ele>14.437981</ele>
        <time>2022-08-19T06:39:45Z</time>
      </trkpt>
      <trkpt lat="43.13428" lon="5.77962">
        <ele>14.284879</ele>
        <time>2022-08-19T06:39:47Z</time>
      </trkpt>
      <trkpt lat="43.13416" lon="5.77972">
        <ele>14.21787</ele>
        <time>2022-08-19T06:39:49Z</time>
      </trkpt>
      <trkpt lat="43.13405" lon="5.77982">
        <ele>14.10717</ele>
        <time>2022-08-19T06:39:51Z</time>
      </trkpt>
      <trkpt lat="43.13393" lon="5.77991">
        <ele>14.041196</ele>
        <time>2022-08-19T06:39:53Z</time>
      </trkpt>
      <trkpt lat="43.13382" lon="5.78">
        <ele>14.028752</ele>
        <time>2022-08-19T06:39:55Z</time>
      </trkpt>
      <trkpt lat="43.13369" lon="5.78007">
        <ele>14.042641</ele>
        <time>2022-08-19T06:39:57Z</time>
      </trkpt>
      <trkpt lat="43.13357" lon="5.78013">
        <ele>14.066266</ele>
        <time>2022-08-19T06:39:59Z</time>
      </trkpt>
      <trkpt lat="43.13344" lon="5.78018">
        <ele>14.138681</ele>
        <time>2022-08-19T06:40:01Z</time>
      </trkpt>
      <trkpt lat="43.13331" lon="5.78024">
        <ele>14.234752</ele>
        <time>2022-08-19T06:40:03Z</time>
      </trkpt>
      <trkpt lat="43.13318" lon="5.78029">
        <ele>14.287134</ele>
        <time>2022-08-19T06:40:05Z</time>
      </trkpt>
      <trkpt lat="43.13304" lon="5.78035">
        <ele>14.392862</ele>
        <time>2022-08-19T06:40:07Z</time>
      </trkpt>
      <trkpt lat="43.1329" lon="5.78042">
        <ele>14.443542</ele>
        <time>2022-08-19T06:40:09Z</time>
      </trkpt>
      <trkpt lat="43.13277" lon="5.78048">
        <ele>14.534694</ele>
        <time>2022-08-19T06:40:11Z</time>
      </trkpt>
      <trkpt lat="43.13263" lon="5.78055">
        <ele>14.611406</ele>
        <time>2022-08-19T06:40:13Z</time>
      </trkpt>
      <trkpt lat="43.1325" lon="5.78062">
        <ele>14.646097</ele>
        <time>2022-08-19T06:40:15Z</time>
      </trkpt>
      <trkpt lat="43.13237" lon="5.78069">
        <ele>14.711519</ele>
        <time>2022-08-19T06:40:17Z</time>
      </trkpt>
      <trkpt lat="43.13224" lon="5.78077">
        <ele>14.740835</ele>
        <time>2022-08-19T06:40:19Z</time>
      </trkpt>
      <trkpt lat="43.13211" lon="5.78087">
        <ele>14.782448</ele>
        <time>2022-08-19T06:40:21Z</time>
      </trkpt>
      <trkpt lat="43.132" lon="5.78096">
        <ele>14.79188</ele>
        <time>2022-08-19T06:40:23Z</time>
      </trkpt>
      <trkpt lat="43.13189" lon="5.78109">
        <ele>14.792391</ele>
        <time>2022-08-19T06:40:25Z</time>
      </trkpt>
      <trkpt lat="43.13179" lon="5.78122">
        <ele>14.78732</ele>
        <time>2022-08-19T06:40:27Z</time>
      </trkpt>
      <trkpt lat="43.1317" lon="5.78137">
        <ele>14.765666</ele>
        <time>2022-08-19T06:40:29Z</time>
      </trkpt>
      <trkpt lat="43.13158" lon="5.78145">
        <ele>14.713567</ele>
        <time>2022-08-19T06:40:31Z</time>
      </trkpt>
      <trkpt lat="43.13138" lon="5.78154">
        <ele>14.671298</ele>
        <time>2022-08-19T06:40:33Z</time>
      </trkpt>
      <trkpt lat="43.13123" lon="5.78164">
        <ele>14.554304</ele>
        <time>2022-08-19T06:40:35Z</time>
      </trkpt>
      <trkpt lat="43.13107" lon="5.78175">
        <ele>14.482495</ele>
        <time>2022-08-19T06:40:37Z</time>
      </trkpt>
      <trkpt lat="43.13091" lon="5.78186">
        <ele>14.325577</ele>
        <time>2022-08-19T06:40:39Z</time>
      </trkpt>
      <trkpt lat="43.13075" lon="5.78197">
        <ele>14.24502</ele>
        <time>2022-08-19T06:40:41Z</time>
      </trkpt>
      <trkpt lat="43.13059" lon="5.7821">
        <ele>14.098654</ele>
        <time>2022-08-19T06:40:43Z</time>
      </trkpt>
      <trkpt lat="43.13043" lon="5.78223">
        <ele>13.96784</ele>
        <time>2022-08-19T06:40:45Z</time>
      </trkpt>
      <trkpt lat="43.13027" lon="5.78237">
        <ele>13.913136</ele>
        <time>2022-08-19T06:40:47Z</time>
      </trkpt>
      <trkpt lat="43.13012" lon="5.78251">
        <ele>13.836252</ele>
        <time>2022-08-19T06:40:49Z</time>
      </trkpt>
      <trkpt lat="43.12996" lon="5.78265">
        <ele>13.819928</ele>
        <time>2022-08-19T06:40:51Z</time>
      </trkpt>
      <trkpt lat="43.1298" lon="5.7828">
        <ele>13.846637</ele>
        <time>2022-08-19T06:40:53Z</time>
      </trkpt>
      <trkpt lat="43.12964" lon="5.78294">
        <ele>13.896492</ele>
        <time>2022-08-19T06:40:55Z</time>
      </trkpt>
      <trkpt lat="43.12949" lon="5.78309">
        <ele>14.082602</ele>
        <time>2022-08-19T06:40:57Z</time>
      </trkpt>
      <trkpt lat="43.12934" lon="5.78323">
        <ele>14.221762</ele>
        <time>2022-08-19T06:40:59Z</time>
      </trkpt>
      <trkpt lat="43.12919" lon="5.78336">
        <ele>14.599276</ele>
        <time>2022-08-19T06:41:01Z</time>
      </trkpt>
      <trkpt lat="43.12905" lon="5.7835">
        <ele>15.117274</ele>
        <time>2022-08-19T06:41:03Z</time>
      </trkpt>
      <trkpt lat="43.12891" lon="5.78362">
        <ele>15.429899</ele>
        <time>2022-08-19T06:41:05Z</time>
      </trkpt>
      <trkpt lat="43.12878" lon="5.78376">
        <ele>16.158651</ele>
        <time>2022-08-19T06:41:07Z</time>
      </trkpt>
      <trkpt lat="43.12865" lon="5.7839">
        <ele>16.573055</ele>
        <time>2022-08-19T06:41:09Z</time>
      </trkpt>
      <trkpt lat="43.12852" lon="5.78403">
        <ele>17.499628</ele>
        <time>2022-08-19T06:41:11Z</time>
      </trkpt>
      <trkpt lat="43.12839" lon="5.78416">
        <ele>18.55267</ele>
        <time>2022-08-19T06:41:13Z</time>
      </trkpt>
      <trkpt lat="43.12826" lon="5.78428">
        <ele>19.122284</ele>
        <time>2022-08-19T06:41:15Z</time>
      </trkpt>
      <trkpt lat="43.12815" lon="5.78442">
        <ele>20.330456</ele>
        <time>2022-08-19T06:41:17Z</time>
      </trkpt>
      <trkpt lat="43.12806" lon="5.78456">
        <ele>20.961231</ele>
        <time>2022-08-19T06:41:19Z</time>
      </trkpt>
      <trkpt lat="43.12798" lon="5.78467">
        <ele>22.255117</ele>
        <time>2022-08-19T06:41:21Z</time>
      </trkpt>
      <trkpt lat="43.12791" lon="5.78475">
        <ele>23.591593</ele>
        <time>2022-08-19T06:41:23Z</time>
      </trkpt>
      <trkpt lat="43.12785" lon="5.78483">
        <ele>24.272457</ele>
        <time>2022-08-19T06:41:25Z</time>
      </trkpt>
      <trkpt lat="43.12779" lon="5.7849">
        <ele>25.64924</ele>
        <time>2022-08-19T06:41:27Z</time>
      </trkpt>
      <trkpt lat="43.12777" lon="5.78497">
        <ele>26.339115</ele>
        <time>2022-08-19T06:41:29Z</time>
      </trkpt>
      <trkpt lat="43.12782" lon="5.785">
        <ele>27.70553</ele>
        <time>2022-08-19T06:41:31Z</time>
      </trkpt>
      <trkpt lat="43.12788" lon="5.78495">
        <ele>28.375397</ele>
        <time>2022-08-19T06:41:33Z</time>
      </trkpt>
      <trkpt lat="43.12795" lon="5.78493">
        <ele>29.674118</ele>
        <time>2022-08-19T06:41:35Z</time>
      </trkpt>
      <trkpt lat="43.128" lon="5.78496">
        <ele>30.297567</ele>
        <time>2022-08-19T06:41:37Z</time>
      </trkpt>
      <trkpt lat="43.12803" lon="5.78503">
        <ele>31.48415</ele>
        <time>2022-08-19T06:41:39Z</time>
      </trkpt>
      <trkpt lat="43.12802" lon="5.78508">
        <ele>32.587395</ele>
        <time>2022-08-19T06:41:41Z</time>
      </trkpt>
      <trkpt lat="43.128" lon="5.78513">
        <ele>33.107895</ele>
        <time>2022-08-19T06:41:43Z</time>
      </trkpt>
      <trkpt lat="43.12796" lon="5.78517">
        <ele>34.086819</ele>
        <time>2022-08-19T06:41:45Z</time>
      </trkpt>
      <trkpt lat="43.12793" lon="5.78521">
        <ele>34.545052</ele>
        <time>2022-08-19T06:41:47Z</time>
      </trkpt>
      <trkpt lat="43.1279" lon="5.78524">
        <ele>35.402363</ele>
        <time>2022-08-19T06:41:49Z</time>
      </trkpt>
    </trkseg>
  </trk>
</gpx>